# Wetter Temperatur Luftdruck Luftfeuchtigkeit Sichtweite Windgeschwindigkeit Windrichtung Zeit
1 Clouds 9 1025 70 10000 3.58 295 12:20 22.04.2021
2 Clouds 9 1025 69 10000 3.58 319 11:45 22.04.2021
3 Clouds 9 1025 71 10000 3.58 313 11:23 22.04.2021
4 Clouds 9 1025 64 10000 4.02 338 10:45 22.04.2021
5 Clouds 8 1025 75 10000 2.68 305 10:24 22.04.2021
6 Clouds 8 1024 73 10000 3.13 303 09:45 22.04.2021
7 Clouds 7 1024 70 10000 3.58 321 09:24 22.04.2021
8 Clouds 7 1024 70 10000 3.58 309 08:39 22.04.2021
9 Clouds 6 1024 71 10000 2.24 305 08:21 22.04.2021
10 Clouds 6 1024 72 10000 2.68 319 07:45 22.04.2021
11 Clouds 5 1023 73 10000 2.68 338 07:24 22.04.2021
12 Clouds 5 1023 73 10000 2.24 315 06:27 22.04.2021
13 Clouds 5 1023 74 10000 2.68 294 05:26 22.04.2021
14 Clouds 5 1022 76 10000 1.79 300 04:30 22.04.2021
15 Clouds 5 1022 75 10000 2.24 281 01:23 22.04.2021
16 Clouds 5 1022 70 10000 2.68 338 23:53 21.04.2021
17 Clouds 5 1021 72 10000 1.79 349 23:32 21.04.2021
18 Clouds 5 1021 71 10000 2.24 338 22:44 21.04.2021
19 Clouds 6 1021 70 10000 2.68 351 22:24 21.04.2021
20 Clouds 6 1022 69 10000 2.68 302 21:50 21.04.2021
21 Clouds 6 1022 68 10000 2.68 338 21:25 21.04.2021
22 Clouds 6 1021 69 10000 2.68 312 20:59 21.04.2021
23 Clouds 6 1021 69 10000 2.68 312 20:59 21.04.2021
24 Clouds 6 1021 70 10000 2.68 306 20:21 21.04.2021
25 Clouds 7 1021 69 10000 3.58 310 19:45 21.04.2021
26 Clouds 7 1020 73 10000 2.24 309 19:25 21.04.2021
27 Clouds 8 1020 65 10000 3.58 333 18:49 21.04.2021
28 Clouds 8 1020 66 10000 4.02 338 18:30 21.04.2021
29 Clouds 9 1020 67 10000 3.58 316 17:49 21.04.2021
30 Clouds 9 1020 61 10000 4.02 347 17:25 21.04.2021
31 Clouds 10 1020 63 10000 3.58 338 16:57 21.04.2021
32 Clouds 10 1020 64 10000 4.47 3 16:30 21.04.2021
33 Clear 10 1019 67 10000 3.58 348 15:42 21.04.2021
34 Clear 10 1019 67 10000 3.58 348 15:42 21.04.2021
35 Clear 11 1019 65 10000 3.58 305 15:18 21.04.2021
36 Clear 11 1019 67 10000 4.02 15 14:44 21.04.2021
37 Clouds 11 1019 71 10000 4.02 8 14:23 21.04.2021
38 Clouds 10 1019 70 10000 4.02 338 13:45 21.04.2021
39 Clouds 10 1019 75 10000 3.13 333 13:21 21.04.2021
40 Clouds 10 1019 75 10000 4.47 0 12:32 21.04.2021
41 Clouds 9 1019 78 10000 3.58 6 11:58 21.04.2021
42 Clouds 10 1019 76 10000 4.92 349 11:39 21.04.2021
43 Clouds 9 1018 78 10000 4.02 353 11:21 21.04.2021
44 Clouds 9 1018 84 10000 3.58 0 10:36 21.04.2021
45 Clouds 9 1018 88 10000 3.13 329 09:56 21.04.2021
46 Clouds 9 1018 91 10000 3.13 15 09:20 21.04.2021
47 Clouds 8 1017 94 10000 3.13 329 08:42 21.04.2021
48 Clouds 8 1017 96 10000 1.34 349 08:23 21.04.2021
49 Clouds 7 1014 92 10000 2.93 324 07:43 21.04.2021
50 Clouds 5 1016 93 10000 0.45 353 07:21 21.04.2021
51 Clouds 4 1016 92 10000 2.23 304 05:53 21.04.2021
52 Clear 4 1016 86 10000 1.34 356 01:50 21.04.2021
53 Clear 6 1016 80 10000 1.96 26 00:19 21.04.2021
54 Clear 7 1016 79 10000 0.89 38 23:38 20.04.2021
55 Clear 8 1016 74 10000 1.34 56 22:46 20.04.2021
56 Clear 9 1017 72 10000 0.89 35 22:23 20.04.2021
57 Clear 7 1016 80 10000 3.01 20 21:49 20.04.2021
58 Clear 10 1016 74 10000 0.89 20 21:29 20.04.2021
59 Clear 9 1015 67 10000 3.24 23 20:59 20.04.2021
60 Clear 10 1017 57 10000 0.89 343 20:38 20.04.2021
61 Clear 12 1014 56 10000 3.23 22 20:18 20.04.2021
62 Clear 14 1016 41 10000 3.09 10 19:45 20.04.2021
63 Clear 14 1016 41 10000 3.09 10 19:45 20.04.2021
64 Clear 15 1016 65 10000 1.79 2 19:27 20.04.2021
65 Clear 15 1016 33 10000 3.6 20 18:42 20.04.2021
66 Clear 16 1016 59 10000 2.24 10 18:23 20.04.2021
67 Clear 16 1016 31 10000 4.12 30 17:41 20.04.2021
68 Clear 17 1014 42 10000 0.45 130 16:50 20.04.2021
69 Clear 17 1014 40 10000 0.45 124 16:25 20.04.2021
70 Clear 17 1014 40 10000 0.45 8 15:30 20.04.2021
71 Clear 17 1015 42 10000 0.45 61 14:59 20.04.2021
72 Clear 17 1015 42 10000 0.45 34 14:39 20.04.2021
73 Clear 17 1015 44 10000 0.45 120 14:20 20.04.2021
74 Clear 16 1015 43 10000 0.45 101 13:27 20.04.2021
75 Clear 16 1015 50 10000 0.45 13 12:53 20.04.2021
76 Clear 15 1018 59 10000 1.34 68 12:23 20.04.2021
77 Clear 14 1018 65 10000 0.89 17 11:46 20.04.2021
78 Clear 14 1018 65 10000 0.89 17 11:46 20.04.2021
79 Clear 14 1018 64 10000 1.34 16 11:25 20.04.2021
80 Clear 13 1017 67 10000 1.34 51 10:47 20.04.2021
81 Clear 12 1018 65 10000 0.89 41 10:24 20.04.2021
82 Clear 11 1018 72 10000 0.89 35 09:45 20.04.2021
83 Clear 10 1018 84 10000 0.89 45 08:59 20.04.2021
84 Clear 8 1018 91 10000 0.89 53 08:35 20.04.2021
85 Clear 5 1018 95 10000 0.45 60 07:53 20.04.2021
86 Clear 4 1018 95 10000 0.45 62 07:21 20.04.2021
87 Clear 4 1018 94 10000 0.45 61 05:42 20.04.2021
88 Clear 5 1019 94 10000 2.51 64 04:43 20.04.2021
89 Clear 6 1019 94 10000 2.51 66 03:34 20.04.2021
90 Clouds 7 1020 90 10000 2.45 77 00:50 20.04.2021
91 Clouds 8 1020 89 10000 0.89 63 23:52 19.04.2021
92 Clouds 8 1018 87 10000 2.67 53 23:29 19.04.2021
93 Clouds 9 1020 89 10000 1.34 52 22:38 19.04.2021
94 Clouds 9 1020 89 10000 0.89 13 22:19 19.04.2021
95 Clouds 10 1020 88 10000 2.71 50 21:38 19.04.2021
96 Clouds 10 1020 87 10000 0.45 348 21:20 19.04.2021
97 Clouds 12 1020 85 10000 0.45 347 20:41 19.04.2021
98 Clouds 12 1020 82 10000 2.55 60 20:20 19.04.2021
99 Clouds 13 1020 81 10000 0.45 347 19:46 19.04.2021
100 Clouds 14 1020 81 10000 1.34 347 19:25 19.04.2021
101 Clouds 14 1020 79 10000 1.34 343 18:48 19.04.2021
102 Clouds 14 1020 79 10000 1.34 343 18:48 19.04.2021
103 Clouds 14 1020 77 10000 1.34 347 18:24 19.04.2021
104 Clouds 15 1020 73 10000 1.34 353 17:58 19.04.2021
105 Clouds 15 1020 71 10000 1.34 0 17:39 19.04.2021
106 Clouds 16 1020 64 10000 2.68 71 17:20 19.04.2021
107 Clouds 16 1020 63 10000 2.68 90 16:41 19.04.2021
108 Clouds 16 1020 65 10000 2.24 67 16:21 19.04.2021
109 Clouds 15 1021 71 10000 2.68 49 15:40 19.04.2021
110 Clouds 16 1021 71 10000 2.24 73 15:22 19.04.2021
111 Clouds 16 1021 74 10000 1.79 71 14:38 19.04.2021
112 Clouds 15 1021 77 10000 1.79 47 14:19 19.04.2021
113 Clouds 14 1021 76 10000 2.68 65 13:44 19.04.2021
114 Clouds 14 1021 77 10000 2.68 97 13:25 19.04.2021
115 Clouds 12 1021 82 10000 2.68 99 12:43 19.04.2021
116 Clouds 12 1021 82 10000 2.68 99 12:43 19.04.2021
117 Clouds 11 1021 86 10000 3.13 72 12:23 19.04.2021
118 Clouds 11 1022 86 10000 2.24 91 11:54 19.04.2021
119 Clouds 11 1022 83 10000 2.68 129 11:26 19.04.2021
120 Clouds 11 1021 79 10000 2.24 35 10:47 19.04.2021
121 Clear 9 1021 81 10000 2.24 33 10:25 19.04.2021
122 Clear 10 1021 81 10000 1.34 38 09:50 19.04.2021
123 Clear 9 1021 82 10000 1.34 66 09:30 19.04.2021
124 Clear 9 1021 82 10000 1.34 66 09:30 19.04.2021
125 Clear 9 1021 86 10000 2.24 67 08:59 19.04.2021
126 Clouds 9 1021 90 10000 1.34 75 08:28 19.04.2021
127 Clouds 7 1021 92 10000 1.34 40 07:48 19.04.2021
128 Clouds 6 1021 93 10000 0.89 31 07:19 19.04.2021
129 Clouds 6 1021 93 10000 1.34 26 06:36 19.04.2021
130 Clouds 7 1021 92 10000 0.89 2 02:36 19.04.2021
131 Clouds 7 1022 91 10000 0.89 2 01:27 19.04.2021
132 Clouds 7 1022 91 10000 1.79 4 00:23 19.04.2021
133 Clouds 7 1022 91 10000 1.79 14 23:19 18.04.2021
134 Clouds 7 1022 91 10000 1.79 347 22:49 18.04.2021
135 Clouds 8 1022 91 10000 2.68 3 22:30 18.04.2021
136 Clouds 8 1022 91 10000 2.68 3 22:30 18.04.2021
137 Clouds 8 1022 89 10000 1.79 359 21:41 18.04.2021
138 Clouds 9 1022 88 10000 2.68 353 21:20 18.04.2021
139 Clouds 8 1022 86 10000 2.24 7 20:40 18.04.2021
140 Clouds 9 1022 86 10000 2.24 355 20:20 18.04.2021
141 Clouds 10 1022 83 10000 2.24 354 19:49 18.04.2021
142 Clouds 11 1021 80 10000 1.79 12 19:30 18.04.2021
143 Clouds 12 1021 76 10000 2.68 349 18:54 18.04.2021
144 Clouds 13 1021 73 10000 2.24 328 18:31 18.04.2021
145 Clouds 13 1021 73 10000 2.24 328 18:31 18.04.2021
146 Clouds 14 1021 68 10000 2.68 3 17:57 18.04.2021
147 Clouds 14 1021 66 10000 2.68 352 17:38 18.04.2021
148 Clouds 14 1021 64 10000 3.13 358 17:19 18.04.2021
149 Clouds 14 1021 63 10000 3.58 357 16:41 18.04.2021
150 Clouds 15 1022 58 10000 3.58 355 16:18 18.04.2021
151 Clouds 15 1022 57 10000 3.58 357 15:39 18.04.2021
152 Clouds 15 1022 57 10000 3.13 12 15:20 18.04.2021
153 Clouds 15 1022 57 10000 3.58 355 14:42 18.04.2021
154 Clouds 14 1022 62 10000 3.58 301 14:19 18.04.2021
155 Clouds 14 1022 66 10000 3.58 343 13:53 18.04.2021
156 Clouds 15 1022 67 10000 3.13 14 13:31 18.04.2021
157 Clouds 13 1022 69 10000 2.68 338 12:44 18.04.2021
158 Clouds 13 1022 69 10000 2.68 338 12:44 18.04.2021
159 Clouds 13 1022 69 10000 2.24 0 12:23 18.04.2021
160 Clouds 12 1022 73 10000 2.24 10 11:41 18.04.2021
161 Clouds 12 1022 72 10000 1.34 343 11:20 18.04.2021
162 Clouds 11 1022 72 10000 1.34 16 10:46 18.04.2021
163 Clouds 10 1022 76 10000 1.34 11 10:21 18.04.2021
164 Clouds 9 1023 87 10000 1.34 347 09:44 18.04.2021
165 Clouds 8 1023 93 10000 1.34 356 09:26 18.04.2021
166 Clouds 8 1023 93 10000 1.34 356 09:26 18.04.2021
167 Clouds 7 1023 97 10000 1.34 348 08:54 18.04.2021
168 Clouds 6 1023 97 10000 0.89 7 08:29 18.04.2021
169 Clouds 5 1023 96 10000 2.29 46 07:53 18.04.2021
170 Clouds 4 1023 96 10000 2.29 46 07:35 18.04.2021
171 Clouds 3 1023 95 10000 2.43 43 05:40 18.04.2021
172 Clouds 3 1023 95 10000 2.57 49 05:22 18.04.2021
173 Clouds 3 1024 93 10000 2.33 59 02:25 18.04.2021
174 Clouds 3 1024 93 10000 2.48 63 01:41 18.04.2021
175 Clouds 4 1024 91 10000 2.9 56 00:29 18.04.2021
176 Clouds 5 1024 91 10000 0.89 6 23:30 17.04.2021
177 Clouds 5 1024 90 10000 1.34 6 22:50 17.04.2021
178 Clouds 5 1024 90 10000 1.34 7 22:30 17.04.2021
179 Clouds 6 1024 89 10000 1.79 5 21:47 17.04.2021
180 Clouds 6 1024 88 10000 1.34 6 21:28 17.04.2021
181 Clouds 7 1024 86 10000 1.34 348 20:46 17.04.2021
182 Clouds 8 1024 85 10000 1.79 355 20:25 17.04.2021
183 Clouds 9 1024 83 10000 1.79 353 19:44 17.04.2021
184 Clouds 9 1025 81 10000 3.13 338 19:20 17.04.2021
185 Clouds 9 1025 82 10000 2.68 357 18:55 17.04.2021
186 Clouds 10 1025 79 10000 3.58 15 18:26 17.04.2021
187 Clouds 11 1025 76 10000 3.58 9 17:56 17.04.2021
188 Clouds 11 1025 78 10000 2.68 351 17:38 17.04.2021
189 Clouds 11 1025 72 10000 4.02 27 16:42 17.04.2021
190 Clouds 11 1025 72 10000 4.02 349 16:24 17.04.2021
191 Clouds 11 1025 70 10000 3.58 348 15:38 17.04.2021
192 Clouds 11 1026 66 10000 3.58 4 14:49 17.04.2021
193 Clouds 11 1026 59 10000 4.02 7 14:29 17.04.2021
194 Clouds 11 1026 61 10000 4.02 298 13:45 17.04.2021
195 Clouds 11 1026 66 10000 3.58 5 13:19 17.04.2021
196 Clouds 10 1026 73 10000 4.02 4 12:36 17.04.2021
197 Clouds 11 1026 75 10000 4.02 356 11:59 17.04.2021
198 Clouds 11 1026 74 10000 4.02 8 11:39 17.04.2021
199 Clouds 11 1026 74 10000 4.02 8 11:39 17.04.2021
200 Clouds 10 1026 77 10000 4.02 7 11:20 17.04.2021
201 Clouds 10 1026 78 10000 3.58 359 10:41 17.04.2021
202 Clear 9 1026 80 10000 3.58 354 10:22 17.04.2021
203 Clear 8 1027 88 10000 2.68 7 09:19 17.04.2021
204 Clouds 6 1027 95 10000 2.68 353 08:34 17.04.2021
205 Clouds 4 1027 96 10000 2.24 23 07:59 17.04.2021
206 Clouds 3 1027 95 10000 0.89 338 06:42 17.04.2021
207 Clouds 4 1027 90 10000 0.89 338 03:49 17.04.2021
208 Clouds 3 1028 87 10000 0.89 314 02:28 17.04.2021
209 Clouds 4 1028 86 10000 2.24 357 00:43 17.04.2021
210 Clouds 4 1028 88 10000 2.24 0 00:21 17.04.2021
211 Clouds 4 1028 89 10000 1.34 358 23:43 16.04.2021
212 Clouds 4 1028 88 10000 1.79 347 23:20 16.04.2021
213 Clouds 5 1028 86 10000 2.24 10 22:42 16.04.2021
214 Clouds 5 1028 84 10000 2.68 14 22:20 16.04.2021
215 Clouds 6 1029 81 10000 2.68 357 21:49 16.04.2021
216 Clouds 6 1029 80 10000 3.13 348 21:28 16.04.2021
217 Clouds 6 1028 79 10000 3.13 1 20:47 16.04.2021
218 Clouds 7 1028 81 10000 3.13 0 20:24 16.04.2021
219 Clouds 8 1028 81 10000 3.13 5 19:50 16.04.2021
220 Clouds 9 1028 79 10000 3.58 40 19:22 16.04.2021
221 Clouds 10 1028 77 10000 3.58 303 18:28 16.04.2021
222 Clouds 10 1028 75 10000 4.02 4 17:55 16.04.2021
223 Clouds 10 1028 75 10000 3.58 4 17:21 16.04.2021
224 Clouds 11 1028 75 10000 3.58 352 16:58 16.04.2021
225 Clouds 11 1028 75 10000 4.02 24 16:40 16.04.2021
226 Clouds 11 1028 75 10000 4.02 4 16:21 16.04.2021
227 Clouds 11 1028 77 10000 4.02 8 15:40 16.04.2021
228 Clouds 11 1028 78 10000 4.02 352 14:59 16.04.2021
229 Clouds 11 1028 77 10000 3.58 9 14:40 16.04.2021
230 Clouds 11 1028 77 10000 4.47 343 13:59 16.04.2021
231 Clouds 11 1028 78 10000 3.58 17 13:38 16.04.2021
232 Clouds 10 1028 78 10000 4.02 1 13:18 16.04.2021
233 Clouds 10 1029 79 10000 4.92 0 12:44 16.04.2021
234 Clouds 10 1029 78 10000 4.02 35 12:25 16.04.2021
235 Clouds 10 1029 78 10000 4.02 20 11:43 16.04.2021
236 Clouds 10 1029 77 10000 4.02 35 11:24 16.04.2021
237 Clouds 10 1029 68 10000 3.58 349 10:43 16.04.2021
238 Clouds 9 1029 66 10000 3.58 357 10:24 16.04.2021
239 Clouds 9 1029 73 10000 3.13 343 09:49 16.04.2021
240 Clouds 7 1029 82 10000 2.24 355 09:23 16.04.2021
241 Clouds 6 1029 96 10000 2.24 30 08:45 16.04.2021
242 Clouds 3 1029 97 10000 0.89 12 08:27 16.04.2021
243 Clouds 1 1030 94 10000 0.45 2 07:47 16.04.2021
244 Clouds 1 1030 93 10000 0.45 2 07:28 16.04.2021
245 Clouds 1 1030 93 10000 2.75 26 06:47 16.04.2021
246 Clouds 1 1030 92 10000 0.45 2 05:33 16.04.2021
247 Clouds 2 1030 92 10000 0.89 9 04:18 16.04.2021
248 Clouds 3 1031 85 10000 1.34 357 00:49 16.04.2021
249 Clouds 3 1031 84 10000 1.79 343 00:23 16.04.2021
250 Clouds 3 1031 83 10000 2.68 351 23:59 15.04.2021
251 Clouds 4 1031 83 10000 2.68 37 23:35 15.04.2021
252 Clouds 4 1031 83 10000 3.13 8 22:53 15.04.2021
253 Clouds 4 1031 83 10000 2.68 32 22:26 15.04.2021
254 Clouds 5 1031 83 10000 1.79 4 21:59 15.04.2021
255 Clouds 5 1031 82 10000 1.79 6 21:40 15.04.2021
256 Clouds 5 1031 79 10000 2.24 8 21:19 15.04.2021
257 Clouds 6 1031 72 10000 2.68 0 20:40 15.04.2021
258 Clouds 6 1029 66 10000 3.95 15 20:21 15.04.2021
259 Clouds 7 1031 67 10000 3.13 10 19:43 15.04.2021
260 Clouds 8 1031 66 10000 4.02 359 19:24 15.04.2021
261 Clouds 8 1031 66 10000 4.02 17 18:42 15.04.2021
262 Clouds 8 1031 65 10000 3.58 2 18:20 15.04.2021
263 Clouds 9 1031 62 10000 3.58 12 17:54 15.04.2021
264 Clouds 9 1031 63 10000 3.58 351 17:36 15.04.2021
265 Clouds 9 1031 61 10000 4.47 0 16:57 15.04.2021
266 Clouds 10 1031 61 10000 3.58 23 16:39 15.04.2021
267 Clouds 10 1031 62 10000 4.02 1 16:20 15.04.2021
268 Clouds 9 1031 59 10000 4.02 3 15:44 15.04.2021
269 Clouds 10 1031 58 10000 4.02 348 15:25 15.04.2021
270 Clouds 10 1031 58 10000 4.02 348 15:25 15.04.2021
271 Clouds 10 1031 65 10000 3.13 343 14:40 15.04.2021
272 Clouds 9 1031 67 10000 3.58 343 14:22 15.04.2021
273 Clouds 10 1032 70 10000 3.58 347 13:42 15.04.2021
274 Clouds 10 1032 71 10000 3.13 6 13:18 15.04.2021
275 Clouds 10 1032 75 10000 2.68 338 12:40 15.04.2021
276 Clouds 10 1032 73 10000 2.24 297 12:21 15.04.2021
277 Clouds 9 1032 72 10000 1.34 19 11:45 15.04.2021
278 Clouds 9 1032 72 10000 1.34 54 11:23 15.04.2021
279 Clouds 8 1032 76 10000 1.34 41 10:55 15.04.2021
280 Clouds 8 1031 79 10000 1.34 21 10:28 15.04.2021
281 Clouds 6 1032 88 10000 1.79 16 09:49 15.04.2021
282 Clouds 5 1031 95 10000 2.24 359 09:25 15.04.2021
283 Clouds 5 1031 97 10000 1.79 25 08:49 15.04.2021
284 Clouds 2 1031 97 10000 2.24 20 08:23 15.04.2021
285 Clouds -1 1031 95 10000 0.45 16 07:25 15.04.2021
286 Clouds 1 1031 95 10000 1.43 58 06:50 15.04.2021
287 Clouds -1 1031 95 10000 1.43 58 06:32 15.04.2021
288 Clear 0 1030 94 10000 0.94 50 04:52 15.04.2021
289 Clear 0 1030 93 10000 1.58 53 02:51 15.04.2021
290 Clouds 3 1030 92 10000 0.45 26 23:47 14.04.2021
291 Clouds 3 1030 92 10000 0.89 47 23:28 14.04.2021
292 Clouds 4 1030 90 10000 0.89 2 22:47 14.04.2021
293 Clouds 4 1030 88 10000 1.79 2 22:27 14.04.2021
294 Clouds 4 1030 86 10000 1.79 338 21:53 14.04.2021
295 Clouds 4 1030 85 10000 2.24 297 21:32 14.04.2021
296 Clouds 4 1030 85 10000 0.89 303 20:58 14.04.2021
297 Clouds 5 1030 85 10000 0.89 306 20:36 14.04.2021
298 Clouds 5 1030 83 10000 1.34 305 20:18 14.04.2021
299 Clouds 6 1029 74 10000 1.79 333 19:38 14.04.2021
300 Clouds 6 1029 76 10000 2.68 290 19:18 14.04.2021
301 Clouds 6 1030 75 10000 2.24 343 18:49 14.04.2021
302 Clouds 7 1030 76 10000 2.68 349 18:18 14.04.2021
303 Clouds 7 1030 76 10000 2.68 357 17:51 14.04.2021
304 Clouds 7 1030 76 10000 3.13 312 17:23 14.04.2021
305 Clouds 8 1030 71 10000 3.58 355 16:43 14.04.2021
306 Clouds 7 1030 75 10000 3.13 295 16:22 14.04.2021
307 Clouds 7 1030 71 10000 3.58 303 15:40 14.04.2021
308 Clouds 8 1030 71 10000 2.68 353 15:18 14.04.2021
309 Clouds 8 1030 68 10000 2.68 319 14:42 14.04.2021
310 Clouds 7 1030 64 10000 3.13 328 14:21 14.04.2021
311 Clouds 8 1031 71 10000 3.13 356 13:47 14.04.2021
312 Clouds 8 1030 71 10000 2.68 324 12:48 14.04.2021
313 Clouds 8 1030 67 10000 3.13 338 12:24 14.04.2021
314 Clouds 7 1031 70 10000 2.68 350 11:42 14.04.2021
315 Clouds 7 1030 65 10000 1.79 350 11:23 14.04.2021
316 Clouds 7 1030 72 10000 1.79 310 10:35 14.04.2021
317 Clouds 6 1031 81 10000 1.34 343 09:56 14.04.2021
318 Clouds 6 1031 81 10000 1.79 303 09:38 14.04.2021
319 Clouds 5 1031 85 10000 0.89 274 09:18 14.04.2021
320 Clouds 4 1031 91 10000 1.34 268 08:33 14.04.2021
321 Clouds 2 1031 94 10000 0.89 265 07:51 14.04.2021
322 Rain 1 1031 91 10000 0.89 338 06:43 14.04.2021
323 Clouds 1 1031 91 10000 2.76 307 06:22 14.04.2021
324 Clouds 1 1031 92 10000 0.89 257 03:44 14.04.2021
325 Clouds 1 1031 89 10000 2.98 305 01:28 14.04.2021
326 Clouds 2 1031 89 10000 0.89 259 00:34 14.04.2021
327 Clouds 2 1031 88 10000 0.45 286 23:39 13.04.2021
328 Clouds 3 1031 86 10000 3.15 307 22:56 13.04.2021
329 Clouds 3 1031 85 10000 0.45 285 22:37 13.04.2021
330 Clouds 3 1031 85 10000 0.45 287 22:18 13.04.2021
331 Clouds 4 1031 83 10000 0.89 295 21:44 13.04.2021
332 Clouds 4 1031 83 10000 0.89 266 21:23 13.04.2021
333 Clouds 5 1031 81 10000 1.34 293 20:40 13.04.2021
334 Clouds 5 1031 79 10000 1.34 338 20:20 13.04.2021
335 Clouds 6 1031 76 10000 3.13 338 19:27 13.04.2021
336 Clouds 6 1031 71 10000 3.58 289 18:59 13.04.2021
337 Clouds 7 1031 74 10000 2.68 280 18:36 13.04.2021
338 Clouds 8 1030 67 10000 4.02 287 17:45 13.04.2021
339 Clouds 8 1030 68 10000 3.58 308 17:23 13.04.2021
340 Clouds 9 1030 65 10000 4.02 298 16:59 13.04.2021
341 Clouds 8 1030 67 10000 4.47 283 16:41 13.04.2021
342 Clouds 8 1030 65 10000 3.58 263 16:20 13.04.2021
343 Clouds 7 1031 65 10000 3.58 338 15:40 13.04.2021
344 Clouds 8 1031 69 10000 3.58 326 15:18 13.04.2021
345 Clouds 7 1031 76 10000 3.58 348 14:41 13.04.2021
346 Clouds 7 1031 76 10000 3.58 348 14:41 13.04.2021
347 Clouds 8 1031 69 10000 4.92 278 14:18 13.04.2021
348 Clouds 8 1030 69 10000 3.58 338 13:45 13.04.2021
349 Clear 8 1030 67 10000 4.02 338 13:23 13.04.2021
350 Clear 8 1030 69 10000 4.47 247 12:53 13.04.2021
351 Clear 8 1030 72 10000 3.13 296 12:24 13.04.2021
352 Clear 8 1030 72 10000 3.13 296 12:24 13.04.2021
353 Clear 7 1030 73 10000 4.47 292 11:52 13.04.2021
354 Clear 7 1030 75 10000 4.02 290 11:29 13.04.2021
355 Clear 7 1030 75 10000 3.58 338 10:45 13.04.2021
356 Clear 7 1030 76 10000 3.58 297 10:21 13.04.2021
357 Clear 6 1030 84 10000 3.13 310 09:53 13.04.2021
358 Clear 5 1030 86 10000 2.68 264 09:34 13.04.2021
359 Clear 4 1030 89 10000 3.13 293 08:54 13.04.2021
360 Clear 3 1030 93 10000 1.79 338 08:36 13.04.2021
361 Clear 3 1030 93 10000 0.89 251 08:18 13.04.2021
362 Clear 3 1029 94 10000 1.34 286 07:35 13.04.2021
363 Clear 2 1029 94 10000 1.34 230 06:31 13.04.2021
364 Rain 2 1028 95 10000 1.79 226 04:47 13.04.2021
365 Clear 3 1028 93 10000 1.34 338 01:39 13.04.2021
366 Clear 3 1027 91 10000 1.79 338 00:19 13.04.2021
367 Clear 3 1027 90 10000 1.79 338 23:44 12.04.2021
368 Clear 3 1027 89 10000 2.24 338 23:24 12.04.2021
369 Clear 3 1027 88 10000 2.24 208 22:38 12.04.2021
370 Clear 3 1027 87 10000 2.24 218 21:58 12.04.2021
371 Clear 3 1027 87 10000 2.24 224 21:38 12.04.2021
372 Clear 4 1027 87 10000 1.79 224 21:19 12.04.2021
373 Clear 4 1026 87 10000 2.24 250 20:38 12.04.2021
374 Clouds 4 1026 86 10000 2.24 263 20:20 12.04.2021
375 Clouds 5 1026 81 10000 2.68 230 19:55 12.04.2021
376 Clouds 5 1026 79 10000 2.68 338 19:36 12.04.2021
377 Clouds 5 1026 81 10000 2.68 276 19:18 12.04.2021
378 Clouds 6 1026 74 10000 2.68 242 18:42 12.04.2021
379 Clouds 6 1026 68 10000 4.02 230 18:24 12.04.2021
380 Clouds 6 1025 70 10000 4.02 275 17:43 12.04.2021
381 Clouds 6 1025 74 10000 4.02 338 17:23 12.04.2021
382 Clouds 7 1025 75 10000 3.58 288 16:47 12.04.2021
383 Clouds 7 1025 68 10000 4.47 280 16:27 12.04.2021
384 Clouds 7 1025 68 10000 4.47 280 16:27 12.04.2021
385 Clouds 6 1024 76 10000 2.68 271 15:48 12.04.2021
386 Clouds 6 1025 85 10000 2.24 196 15:27 12.04.2021
387 Clouds 6 1025 81 10000 1.79 276 14:50 12.04.2021
388 Clouds 6 1025 87 10000 2.24 219 14:30 12.04.2021
389 Clouds 7 1024 77 10000 2.68 261 13:49 12.04.2021
390 Clouds 6 1024 83 10000 2.68 197 13:28 12.04.2021
391 Clouds 7 1023 74 10000 3.58 261 12:49 12.04.2021
392 Clouds 6 1023 75 10000 3.13 207 12:27 12.04.2021
393 Clouds 7 1023 72 10000 3.13 218 11:59 12.04.2021
394 Clear 7 1023 70 10000 4.02 287 11:24 12.04.2021
395 Clear 6 1023 71 10000 3.58 239 10:47 12.04.2021
396 Clear 6 1023 77 10000 3.58 237 10:27 12.04.2021
397 Clear 5 1022 79 10000 2.68 276 09:50 12.04.2021
398 Clear 4 1022 85 10000 2.68 225 09:21 12.04.2021
399 Clear 3 1023 92 10000 1.79 299 08:39 12.04.2021
400 Clouds 1 1022 94 10000 1.34 243 07:42 12.04.2021
401 Clouds 0 1022 94 10000 1.34 338 07:21 12.04.2021
402 Clouds 0 1022 93 10000 0.89 338 06:25 12.04.2021
403 Clouds 1 1021 92 10000 1.34 338 05:41 12.04.2021
404 Clouds 1 1020 92 10000 0.45 267 01:40 12.04.2021
405 Clouds 1 1020 92 10000 0.45 267 01:40 12.04.2021
406 Clouds 1 1020 92 10000 0.45 267 01:40 12.04.2021
407 Clouds 2 1019 91 10000 0.89 268 00:26 12.04.2021
408 Clouds 1 1018 90 10000 0.89 267 23:49 11.04.2021
409 Clouds 2 1018 90 10000 0.89 266 23:31 11.04.2021
410 Clouds 2 1018 90 10000 0.89 247 22:48 11.04.2021
411 Clouds 2 1018 90 10000 1.34 247 22:26 11.04.2021
412 Clouds 3 1018 88 10000 0.89 338 21:52 11.04.2021
413 Clouds 3 1018 88 10000 0.89 272 21:31 11.04.2021
414 Clouds 3 1017 88 10000 1.79 302 20:59 11.04.2021
415 Clouds 4 1017 87 10000 1.34 311 20:37 11.04.2021
416 Clouds 4 1017 87 10000 1.79 290 20:18 11.04.2021
417 Clouds 4 1016 84 10000 3.13 318 19:39 11.04.2021
418 Clouds 5 1016 83 10000 3.13 295 19:19 11.04.2021
419 Clouds 5 1015 82 10000 2.68 316 18:47 11.04.2021
420 Clouds 5 1015 82 10000 4.02 316 18:26 11.04.2021
421 Clouds 6 1015 81 10000 4.02 291 17:50 11.04.2021
422 Clouds 6 1014 79 10000 4.02 290 17:30 11.04.2021
423 Clouds 6 1014 79 10000 4.02 290 17:30 11.04.2021
424 Clouds 6 1014 79 10000 4.02 290 17:30 11.04.2021
425 Clouds 6 1014 81 10000 4.02 0 16:59 11.04.2021
426 Clouds 6 1014 80 10000 4.02 338 16:40 11.04.2021
427 Clouds 5 1011 82 10000 1.79 339 16:20 11.04.2021
428 Clouds 6 1013 83 10000 3.58 307 15:42 11.04.2021
429 Clouds 5 1013 83 10000 4.02 311 15:22 11.04.2021
430 Clouds 5 1013 82 10000 4.02 338 14:49 11.04.2021
431 Clouds 5 1013 87 10000 3.13 338 14:21 11.04.2021
432 Clouds 5 1012 87 10000 3.58 350 13:40 11.04.2021
433 Clouds 4 1012 88 10000 4.02 299 13:22 11.04.2021
434 Clouds 4 1011 87 10000 3.58 338 12:26 11.04.2021
435 Clouds 4 1011 88 10000 4.02 333 11:57 11.04.2021
436 Clouds 4 1011 89 10000 4.02 1 11:38 11.04.2021
437 Clouds 4 1010 91 8505 4.47 33 11:19 11.04.2021
438 Clouds 4 1010 93 8505 4.47 326 10:44 11.04.2021
439 Clouds 3 1009 94 198 3.58 14 10:22 11.04.2021
440 Clouds 3 1009 96 198 3.58 333 09:49 11.04.2021
441 Clouds 3 1009 97 104 3.58 347 09:26 11.04.2021
442 Clouds 3 1008 97 104 3.58 357 08:40 11.04.2021
443 Clouds 3 1008 97 54 4.47 347 07:41 11.04.2021
444 Clouds 3 1008 97 43 4.47 359 07:19 11.04.2021
445 Clouds 3 1007 96 40 5.81 353 05:48 11.04.2021
446 Clouds 3 1007 96 36 4.92 10 05:23 11.04.2021
447 Clouds 3 1007 96 36 4.02 355 04:46 11.04.2021
448 Clouds 3 1008 96 48 4.47 347 04:19 11.04.2021
449 Rain 3 1010 95 64 3.58 10 00:55 11.04.2021
450 Rain 3 1010 95 64 3.13 17 00:32 11.04.2021
451 Rain 3 1011 95 515 2.68 10 23:46 10.04.2021
452 Rain 3 1011 94 1871 3.58 35 22:55 10.04.2021
453 Rain 3 1012 93 6164 3.13 12 22:28 10.04.2021
454 Rain 3 1012 93 6164 3.13 12 22:28 10.04.2021
455 Rain 3 1013 93 6164 3.58 31 21:54 10.04.2021
456 Rain 3 1013 92 10000 3.58 48 21:25 10.04.2021
457 Rain 4 1013 91 10000 3.13 35 20:57 10.04.2021
458 Rain 4 1013 90 10000 3.13 29 20:37 10.04.2021
459 Rain 4 1013 88 10000 3.13 25 20:19 10.04.2021
460 Rain 5 1014 85 10000 3.13 56 19:42 10.04.2021
461 Rain 5 1014 83 10000 2.68 35 19:24 10.04.2021
462 Rain 6 1014 74 10000 2.68 40 18:42 10.04.2021
463 Rain 6 1014 67 10000 2.24 16 18:24 10.04.2021
464 Clouds 7 1014 61 10000 2.68 49 17:36 10.04.2021
465 Clouds 8 1014 60 10000 2.68 51 16:50 10.04.2021
466 Clouds 8 1015 61 10000 1.79 77 16:25 10.04.2021
467 Clouds 8 1015 59 10000 1.79 30 15:52 10.04.2021
468 Clouds 9 1016 60 10000 2.24 24 14:57 10.04.2021
469 Clouds 9 1016 60 10000 2.68 58 14:37 10.04.2021
470 Clouds 9 1016 62 10000 2.24 10 13:59 10.04.2021
471 Clouds 9 1016 65 10000 2.24 23 13:39 10.04.2021
472 Clouds 8 1016 65 10000 1.79 7 12:48 10.04.2021
473 Clouds 8 1016 69 10000 2.24 6 12:26 10.04.2021
474 Clouds 7 1016 72 10000 2.24 0 11:46 10.04.2021
475 Clouds 7 1016 71 10000 2.24 28 11:23 10.04.2021
476 Clouds 7 1016 73 10000 2.24 343 10:52 10.04.2021
477 Clouds 6 1016 73 10000 2.24 23 10:31 10.04.2021
478 Clouds 6 1016 77 10000 1.34 30 09:45 10.04.2021
479 Clouds 5 1016 84 10000 1.34 34 09:19 10.04.2021
480 Clouds 4 1016 89 10000 0.89 10 08:38 10.04.2021
481 Clouds 4 1016 92 10000 0.89 8 08:18 10.04.2021
482 Clouds 3 1015 93 10000 0.45 9 07:27 10.04.2021
483 Clouds 3 1015 93 10000 0.45 9 06:49 10.04.2021
484 Clouds 3 1014 96 10000 2.72 20 05:36 10.04.2021
485 Clouds 3 1014 95 10000 2.86 16 03:46 10.04.2021
486 Clouds 4 1013 95 10000 2.74 14 02:50 10.04.2021
487 Clouds 4 1013 95 10000 2.6 15 02:18 10.04.2021
488 Rain 4 1013 95 10000 2.33 8 00:40 10.04.2021
489 Rain 4 1013 94 10000 1.97 351 00:19 10.04.2021
490 Rain 4 1013 94 10000 1.97 351 23:37 09.04.2021
491 Rain 5 1013 94 10000 2.01 323 22:58 09.04.2021
492 Rain 5 1013 93 10000 2.01 323 22:37 09.04.2021
493 Rain 5 1013 93 10000 2.35 309 21:56 09.04.2021
494 Rain 5 1013 93 10000 0.89 218 21:37 09.04.2021
495 Rain 5 1013 92 10000 0.45 216 21:18 09.04.2021
496 Clouds 5 1012 92 10000 0.45 218 20:41 09.04.2021
497 Clouds 5 1012 91 10000 0.45 338 20:22 09.04.2021
498 Rain 6 1012 90 10000 0.89 215 19:44 09.04.2021
499 Rain 6 1012 89 10000 1.34 237 19:23 09.04.2021
500 Clouds 6 1012 87 10000 1.34 245 18:51 09.04.2021
501 Clouds 6 1012 87 10000 2.24 235 18:31 09.04.2021
502 Clouds 6 1012 90 10000 2.24 264 17:54 09.04.2021
503 Clouds 6 1012 90 10000 1.79 278 17:34 09.04.2021
504 Clouds 6 1012 92 10000 1.34 280 16:56 09.04.2021
505 Clouds 6 1012 93 10000 1.34 262 16:34 09.04.2021
506 Clouds 6 1012 92 10000 2.68 275 15:51 09.04.2021
507 Clouds 7 1012 92 10000 2.24 294 15:33 09.04.2021
508 Rain 7 1012 91 10000 2.24 261 14:58 09.04.2021
509 Rain 8 1011 90 10000 2.24 290 14:39 09.04.2021
510 Rain 8 1011 85 10000 3.13 238 13:52 09.04.2021
511 Clouds 8 1011 82 10000 4.02 264 13:25 09.04.2021
512 Clouds 8 1011 82 10000 4.47 228 12:51 09.04.2021
513 Clouds 8 1011 83 10000 4.02 232 12:32 09.04.2021
514 Clouds 8 1011 84 10000 3.13 260 11:46 09.04.2021
515 Clouds 8 1011 84 10000 3.58 220 11:23 09.04.2021
516 Clouds 7 1011 85 10000 3.13 338 10:47 09.04.2021
517 Clouds 7 1010 84 10000 4.02 227 10:29 09.04.2021
518 Clouds 7 1010 84 10000 4.02 201 09:50 09.04.2021
519 Clouds 7 1010 84 10000 4.02 203 09:24 09.04.2021
520 Clouds 6 1011 85 10000 3.13 338 08:52 09.04.2021
521 Clouds 5 1011 84 10000 3.13 259 07:39 09.04.2021
522 Clouds 5 1011 83 10000 3.13 205 06:56 09.04.2021
523 Clouds 5 1011 81 10000 3.13 249 06:21 09.04.2021
524 Clouds 5 1012 77 10000 4.02 202 03:53 09.04.2021
525 Clouds 5 1013 75 10000 3.58 338 02:18 09.04.2021
526 Clouds 6 1014 74 10000 2.68 188 00:38 09.04.2021
527 Clouds 6 1014 73 10000 3.13 168 00:19 09.04.2021
528 Clouds 6 1015 73 10000 3.13 194 23:29 08.04.2021
529 Clouds 6 1015 75 10000 2.68 182 22:45 08.04.2021
530 Clouds 6 1016 76 10000 2.68 338 22:25 08.04.2021
531 Clouds 6 1016 75 10000 3.58 338 21:57 08.04.2021
532 Clouds 6 1016 75 10000 3.13 338 21:37 08.04.2021
533 Clouds 7 1016 73 10000 4.02 210 21:19 08.04.2021
534 Clouds 7 1016 73 10000 3.13 228 20:53 08.04.2021
535 Clouds 7 1016 73 10000 3.13 191 20:32 08.04.2021
536 Clouds 7 1017 71 10000 3.58 212 19:55 08.04.2021
537 Clouds 7 1017 68 10000 4.02 201 19:24 08.04.2021
538 Clouds 7 1017 68 10000 3.58 338 18:52 08.04.2021
539 Clouds 8 1017 67 10000 4.47 195 18:23 08.04.2021
540 Clouds 8 1018 66 10000 4.47 202 17:50 08.04.2021
541 Clouds 8 1018 66 10000 4.02 187 17:26 08.04.2021
542 Clouds 8 1018 67 10000 3.58 338 16:55 08.04.2021
543 Clouds 8 1018 68 10000 4.92 216 16:35 08.04.2021
544 Clouds 8 1019 65 10000 4.47 223 15:55 08.04.2021
545 Clouds 8 1019 62 10000 4.47 192 15:36 08.04.2021
546 Clouds 8 1019 64 10000 4.47 236 15:18 08.04.2021
547 Clouds 8 1020 63 10000 4.47 213 14:39 08.04.2021
548 Clouds 7 1020 62 10000 4.92 338 14:19 08.04.2021
549 Clouds 7 1020 62 10000 4.92 201 13:43 08.04.2021
550 Clouds 7 1020 62 10000 4.02 188 13:23 08.04.2021
551 Clouds 7 1020 71 10000 3.58 185 12:49 08.04.2021
552 Clouds 6 1020 73 10000 3.58 210 12:30 08.04.2021
553 Clouds 6 1020 76 10000 3.13 229 11:56 08.04.2021
554 Clouds 5 1021 78 10000 3.58 338 11:21 08.04.2021
555 Clouds 4 1021 86 10000 2.24 249 10:43 08.04.2021
556 Clouds 4 1021 86 10000 2.68 203 10:24 08.04.2021
557 Clouds 4 1021 89 10000 2.68 221 09:43 08.04.2021
558 Clouds 3 1021 90 10000 2.68 221 08:54 08.04.2021
559 Clouds 2 1021 91 10000 2.68 219 08:36 08.04.2021
560 Clouds 2 1021 92 10000 1.79 338 08:18 08.04.2021
561 Snow 1 1021 92 10000 2.24 338 07:42 08.04.2021
562 Clouds 1 1020 91 10000 1.79 231 04:56 08.04.2021
563 Clouds 2 1018 85 10000 3.13 272 01:25 08.04.2021
564 Clouds 2 1018 80 10000 2.24 292 00:30 08.04.2021
565 Clouds 2 1017 84 10000 2.24 282 23:47 07.04.2021
566 Clouds 3 1017 84 10000 1.79 338 23:25 07.04.2021
567 Clouds 3 1017 84 10000 2.24 274 22:56 07.04.2021
568 Clouds 3 1017 83 10000 2.24 338 22:38 07.04.2021
569 Clouds 2 1017 81 10000 2.24 287 22:19 07.04.2021
570 Clouds 3 1016 83 10000 3.13 338 21:34 07.04.2021
571 Clouds 3 1016 82 10000 2.68 282 20:52 07.04.2021
572 Clouds 3 1016 84 10000 3.58 299 20:29 07.04.2021
573 Clouds 3 1015 88 10000 3.13 262 19:52 07.04.2021
574 Clouds 4 1015 82 10000 4.47 277 19:33 07.04.2021
575 Clouds 4 1015 80 10000 4.47 309 18:59 07.04.2021
576 Clouds 4 1015 77 10000 4.47 282 18:41 07.04.2021
577 Clouds 4 1014 83 10000 3.58 338 18:18 07.04.2021
578 Clouds 4 1014 84 10000 4.92 294 17:45 07.04.2021
579 Clouds 4 1014 82 10000 4.92 256 17:26 07.04.2021
580 Clouds 4 1014 87 10000 6.71 338 16:45 07.04.2021
581 Clouds 5 1013 83 10000 3.58 338 16:21 07.04.2021
582 Clouds 5 1011 83 10000 9.83 310 15:53 07.04.2021
583 Clouds 5 1013 77 10000 4.92 259 15:34 07.04.2021
584 Clouds 6 1013 79 10000 5.81 287 14:47 07.04.2021
585 Clouds 6 1013 78 10000 5.36 0 14:24 07.04.2021
586 Clouds 7 1012 78 10000 5.81 257 13:45 07.04.2021
587 Clouds 7 1012 80 10000 6.26 327 13:20 07.04.2021
588 Clouds 7 1011 85 10000 4.47 314 12:47 07.04.2021
589 Clouds 6 1011 89 10000 4.92 294 12:21 07.04.2021
590 Clouds 5 1011 91 10000 4.92 282 11:45 07.04.2021
591 Clouds 5 1011 91 10000 5.81 351 11:24 07.04.2021
592 Clouds 5 1010 94 10000 2.24 338 10:50 07.04.2021
593 Clouds 4 1009 97 10000 1.34 226 09:51 07.04.2021
594 Clouds 3 1009 97 10000 1.34 223 09:30 07.04.2021
595 Clouds 2 1009 97 10000 1.34 203 08:53 07.04.2021
596 Clouds 2 1006 93 10000 0.45 172 08:33 07.04.2021
597 Clouds 1 1008 96 10000 1.79 200 07:56 07.04.2021
598 Clouds 1 1008 96 4942 2.68 218 07:29 07.04.2021
599 Clouds 1 1008 96 4942 2.24 183 06:52 07.04.2021
600 Clouds 1 1008 96 10000 2.24 338 06:18 07.04.2021
601 Clouds 0 1009 93 10000 2.68 227 03:35 07.04.2021
602 Snow 1 1009 90 10000 2.68 287 23:52 06.04.2021
603 Clouds 1 1009 89 10000 3.13 323 23:23 06.04.2021
604 Clouds 1 1008 90 10000 1.79 338 22:59 06.04.2021
605 Clouds 1 1008 94 10000 0.89 278 22:22 06.04.2021
606 Clouds 1 1008 94 10000 0.45 276 21:59 06.04.2021
607 Clouds 1 1008 94 10000 0.45 276 21:59 06.04.2021
608 Clouds 1 1008 95 10000 0.89 338 21:39 06.04.2021
609 Snow 1 1008 95 10000 0.89 270 21:21 06.04.2021
610 Snow 1 1008 94 10000 0.45 338 20:51 06.04.2021
611 Snow 1 1008 94 10000 0.89 269 20:21 06.04.2021
612 Snow 1 1008 93 10000 2.24 338 19:51 06.04.2021
613 Snow 1 1008 92 10000 3.58 295 19:33 06.04.2021
614 Clouds 1 1008 89 10000 3.58 319 18:49 06.04.2021
615 Clouds 1 1008 90 10000 4.02 338 18:31 06.04.2021
616 Rain 2 1008 86 10000 4.47 278 17:53 06.04.2021
617 Clouds 2 1007 90 10000 3.58 283 17:30 06.04.2021
618 Rain 3 1007 91 10000 4.47 311 16:59 06.04.2021
619 Rain 2 1007 92 10000 2.24 318 16:39 06.04.2021
620 Clouds 3 1007 82 10000 3.58 257 15:46 06.04.2021
621 Clouds 3 1007 82 10000 3.58 282 15:22 06.04.2021
622 Clouds 3 1007 76 10000 4.02 281 14:39 06.04.2021
623 Clouds 3 1007 75 10000 4.47 338 14:20 06.04.2021
624 Clouds 3 1007 87 10000 3.13 338 13:46 06.04.2021
625 Clouds 5 1007 82 10000 3.13 265 13:25 06.04.2021
626 Clouds 3 1008 83 10000 4.02 338 12:42 06.04.2021
627 Snow 2 1008 91 10000 2.68 338 12:22 06.04.2021
628 Clouds 3 1008 83 10000 3.58 338 11:54 06.04.2021
629 Clouds 3 1008 71 10000 4.02 319 11:36 06.04.2021
630 Rain 2 1008 74 10000 4.02 338 11:18 06.04.2021
631 Clouds 3 1008 78 10000 4.47 284 10:38 06.04.2021
632 Clouds 2 1008 81 10000 4.47 270 10:19 06.04.2021
633 Snow 2 1008 88 10000 3.58 238 09:42 06.04.2021
634 Clouds 2 1009 87 10000 1.79 338 08:48 06.04.2021
635 Snow 1 1009 85 10000 3.13 298 08:19 06.04.2021
636 Snow 1 1009 90 10000 2.24 315 06:57 06.04.2021
637 Clouds 1 1009 86 10000 4.02 299 06:23 06.04.2021
638 Clouds 1 1009 95 10000 1.34 297 03:54 06.04.2021
639 Clouds 0 1008 95 10000 1.34 286 00:48 06.04.2021
640 Snow -1 1008 95 10000 9.47 330 00:21 06.04.2021
641 Snow 0 1007 95 10000 9.47 330 23:50 05.04.2021
642 Snow 1 1005 92 10000 10.7 329 23:28 05.04.2021
643 Clouds 1 1007 94 10000 10.7 329 22:54 05.04.2021
644 Clouds 1 1007 94 10000 10.7 329 22:35 05.04.2021
645 Clouds 1 1006 94 9530 1.34 217 21:48 05.04.2021
646 Snow 1 1006 93 6045 2.24 256 21:27 05.04.2021
647 Snow 1 1007 92 6045 3.13 243 20:49 05.04.2021
648 Rain 1 1007 92 10000 2.68 251 20:30 05.04.2021
649 Snow 1 1008 87 62 3.58 338 19:45 05.04.2021
650 Snow 2 1008 84 3053 4.92 258 19:26 05.04.2021
651 Clouds 2 1008 81 3053 3.13 338 18:58 05.04.2021
652 Rain 2 1008 80 3053 3.58 300 18:39 05.04.2021
653 Clouds 3 1007 76 10000 3.58 259 18:19 05.04.2021
654 Clouds 3 1007 78 10000 5.81 268 17:46 05.04.2021
655 Clouds 3 1007 68 10000 5.36 338 17:21 05.04.2021
656 Clouds 4 1007 66 10000 5.36 282 16:45 05.04.2021
657 Clouds 4 1007 78 10000 4.02 274 16:22 05.04.2021
658 Clouds 4 1007 77 10000 5.36 277 15:56 05.04.2021
659 Clouds 3 1007 76 10000 4.92 257 15:32 05.04.2021
660 Clouds 4 1007 79 10000 5.81 305 14:58 05.04.2021
661 Clouds 4 1007 65 10000 5.81 271 14:36 05.04.2021
662 Clouds 4 1007 69 10000 4.47 305 13:46 05.04.2021
663 Clouds 3 1007 65 10000 5.81 314 13:26 05.04.2021
664 Clouds 2 1007 83 10000 3.58 288 12:46 05.04.2021
665 Clouds 4 1006 69 10000 7.15 296 12:24 05.04.2021
666 Clouds 3 1005 62 10000 6.71 338 11:46 05.04.2021
667 Clouds 2 1005 65 10000 5.81 272 11:28 05.04.2021
668 Clouds 2 1005 77 10000 4.47 338 10:48 05.04.2021
669 Snow 1 1005 85 10000 5.36 311 10:29 05.04.2021
670 Clouds 2 1005 90 10000 5.36 349 09:48 05.04.2021
671 Clouds 3 1004 81 4245 5.36 284 09:26 05.04.2021
672 Clouds 3 1004 82 4245 5.36 252 08:46 05.04.2021
673 Clouds 3 1004 83 6017 5.36 316 08:26 05.04.2021
674 Clouds 3 1003 93 6017 5.36 338 07:38 05.04.2021
675 Rain 3 1003 93 10000 4.47 338 07:18 05.04.2021
676 Clouds 7 1004 88 10000 4.92 338 03:42 05.04.2021
677 Clouds 5 1008 90 10000 4.47 192 00:54 05.04.2021
678 Clouds 5 1010 89 10000 4.02 338 23:53 04.04.2021
679 Clouds 5 1010 89 10000 4.02 218 23:31 04.04.2021
680 Clouds 5 1011 89 10000 4.02 234 22:57 04.04.2021
681 Clouds 5 1012 89 10000 4.02 220 22:34 04.04.2021
682 Clouds 5 1013 88 10000 4.47 211 21:57 04.04.2021
683 Clouds 6 1013 86 10000 4.47 257 21:21 04.04.2021
684 Clouds 6 1014 86 10000 2.68 215 20:43 04.04.2021
685 Clouds 6 1015 85 10000 3.58 239 20:23 04.04.2021
686 Clouds 7 1016 83 10000 3.13 243 19:40 04.04.2021
687 Clouds 8 1016 82 10000 4.02 233 19:19 04.04.2021
688 Clouds 8 1017 81 10000 3.58 229 18:51 04.04.2021
689 Clouds 8 1017 80 10000 3.58 226 18:25 04.04.2021
690 Clouds 8 1016 71 10000 6.59 264 17:59 04.04.2021
691 Clouds 8 1019 81 10000 4.47 262 17:25 04.04.2021
692 Clouds 8 1019 81 10000 3.58 216 16:57 04.04.2021
693 Clouds 8 1020 81 10000 3.58 237 16:38 04.04.2021
694 Clouds 8 1020 83 10000 4.02 251 15:54 04.04.2021
695 Clouds 7 1020 81 10000 3.58 215 15:32 04.04.2021
696 Clouds 8 1021 83 10000 3.58 242 14:40 04.04.2021
697 Clouds 8 1022 81 10000 2.68 338 14:21 04.04.2021
698 Clouds 8 1023 80 10000 3.13 259 13:27 04.04.2021
699 Clouds 7 1023 83 10000 2.68 293 12:52 04.04.2021
700 Clouds 7 1023 81 10000 2.24 270 12:28 04.04.2021
701 Clouds 7 1024 81 10000 2.68 249 11:50 04.04.2021
702 Clouds 7 1024 81 10000 3.13 258 11:30 04.04.2021
703 Clouds 6 1024 82 10000 2.24 338 10:54 04.04.2021
704 Clouds 6 1024 84 10000 2.68 290 10:32 04.04.2021
705 Clouds 6 1024 85 10000 1.79 299 09:52 04.04.2021
706 Clouds 6 1024 84 10000 2.24 338 09:23 04.04.2021
707 Clouds 6 1024 83 10000 1.34 338 08:49 04.04.2021
708 Clouds 6 1025 83 10000 1.79 264 08:31 04.04.2021
709 Clouds 5 1025 81 10000 1.79 301 07:21 04.04.2021
710 Clouds 5 1025 82 10000 1.79 302 06:33 04.04.2021
711 Clouds 5 1026 86 10000 0.89 338 03:25 04.04.2021
712 Clouds 5 1026 81 10000 0.89 316 01:18 04.04.2021
713 Clouds 6 1026 81 10000 1.34 313 00:19 04.04.2021
714 Clouds 6 1027 80 10000 1.79 338 23:47 03.04.2021
715 Clouds 6 1027 79 10000 1.79 302 23:18 03.04.2021
716 Clouds 6 1027 79 10000 2.24 347 22:48 03.04.2021
717 Clouds 6 1027 79 10000 1.79 338 22:19 03.04.2021
718 Clouds 6 1027 78 10000 3.13 10 21:47 03.04.2021
719 Clouds 6 1025 68 10000 5.49 343 21:23 03.04.2021
720 Clouds 6 1027 77 10000 1.79 307 20:49 03.04.2021
721 Clouds 6 1027 76 10000 3.13 333 20:27 03.04.2021
722 Clouds 6 1027 77 10000 2.68 357 19:50 03.04.2021
723 Clouds 6 1027 76 10000 1.79 303 19:24 03.04.2021
724 Clouds 7 1027 74 10000 2.24 309 18:51 03.04.2021
725 Clouds 7 1027 76 10000 2.68 293 18:32 03.04.2021
726 Clouds 7 1027 77 10000 2.68 338 17:53 03.04.2021
727 Clouds 8 1027 73 10000 2.68 352 17:25 03.04.2021
728 Clouds 8 1027 74 10000 2.68 315 16:51 03.04.2021
729 Clouds 8 1027 73 10000 3.58 352 16:22 03.04.2021
730 Clouds 9 1028 73 10000 3.58 353 15:50 03.04.2021
731 Clouds 9 1028 72 10000 3.13 355 15:23 03.04.2021
732 Clouds 9 1028 74 10000 2.68 338 14:44 03.04.2021
733 Clouds 9 1028 75 10000 2.68 303 14:25 03.04.2021
734 Clouds 9 1028 75 10000 3.13 343 13:53 03.04.2021
735 Clouds 10 1028 74 10000 3.13 309 13:25 03.04.2021
736 Clouds 9 1028 77 10000 2.68 353 12:57 03.04.2021
737 Clouds 9 1028 78 10000 2.24 333 12:32 03.04.2021
738 Clouds 9 1028 76 10000 2.68 338 11:40 03.04.2021
739 Clouds 9 1028 82 10000 3.13 349 11:19 03.04.2021
740 Clouds 9 1027 81 10000 2.68 338 10:45 03.04.2021
741 Clouds 8 1027 81 10000 2.68 316 10:25 03.04.2021
742 Clouds 7 1027 89 10000 2.68 338 09:29 03.04.2021
743 Clouds 5 1027 90 10000 2.24 349 08:59 03.04.2021
744 Clouds 5 1027 91 10000 1.79 338 08:32 03.04.2021
745 Clouds 4 1026 91 10000 2.24 352 07:30 03.04.2021
746 Clouds 4 1026 91 10000 2.24 343 06:56 03.04.2021
747 Clear 5 1025 90 10000 1.34 297 03:54 03.04.2021
748 Clear 5 1025 89 10000 1.79 319 02:55 03.04.2021
749 Clouds 5 1025 88 10000 2.24 320 02:28 03.04.2021
750 Clouds 6 1024 81 10000 2.24 343 00:32 03.04.2021
751 Clouds 6 1024 81 10000 2.68 350 23:59 02.04.2021
752 Clouds 5 1024 83 10000 2.24 322 23:38 02.04.2021
753 Clouds 6 1024 82 10000 3.13 349 23:18 02.04.2021
754 Clouds 6 1024 78 10000 3.58 338 22:43 02.04.2021
755 Clear 6 1024 79 10000 3.13 338 22:23 02.04.2021
756 Clear 6 1024 80 10000 3.13 338 21:41 02.04.2021
757 Clear 6 1024 80 10000 4.47 343 21:19 02.04.2021
758 Clear 6 1024 86 10000 3.13 338 20:42 02.04.2021
759 Clouds 6 1024 85 10000 2.24 343 20:20 02.04.2021
760 Clouds 7 1024 83 10000 2.68 307 19:42 02.04.2021
761 Clouds 7 1024 85 10000 3.13 302 19:22 02.04.2021
762 Clouds 7 1024 84 10000 4.02 307 18:48 02.04.2021
763 Clouds 7 1024 84 10000 4.47 338 18:28 02.04.2021
764 Clouds 7 1024 84 10000 4.02 289 17:56 02.04.2021
765 Clouds 7 1024 82 10000 4.47 328 17:30 02.04.2021
766 Clouds 7 1024 82 10000 4.02 280 16:35 02.04.2021
767 Clouds 8 1025 79 10000 4.47 301 15:46 02.04.2021
768 Rain 8 1025 76 10000 4.47 326 15:22 02.04.2021
769 Clouds 8 1025 73 10000 3.58 313 14:33 02.04.2021
770 Clouds 7 1025 75 10000 3.13 267 13:50 02.04.2021
771 Clouds 7 1026 78 10000 3.58 338 13:28 02.04.2021
772 Clouds 7 1026 79 10000 3.13 298 12:59 02.04.2021
773 Clouds 7 1026 80 10000 3.58 333 12:37 02.04.2021
774 Clouds 7 1026 81 10000 3.13 343 12:19 02.04.2021
775 Clouds 6 1026 82 10000 2.68 350 11:48 02.04.2021
776 Clouds 6 1026 81 10000 2.68 301 11:19 02.04.2021
777 Clouds 6 1026 80 10000 2.24 349 10:43 02.04.2021
778 Clouds 6 1026 79 10000 2.24 338 10:23 02.04.2021
779 Clouds 6 1026 80 10000 2.68 314 09:51 02.04.2021
780 Clear 5 1026 79 10000 3.13 5 09:24 02.04.2021
781 Clear 5 1026 81 10000 2.24 338 08:46 02.04.2021
782 Clear 5 1026 81 10000 2.24 338 08:46 02.04.2021
783 Clear 5 1026 82 10000 1.34 326 08:27 02.04.2021
784 Clear 4 1026 84 10000 1.34 338 07:22 02.04.2021
785 Clear 4 1026 82 10000 2.68 16 06:34 02.04.2021
786 Clear 4 1026 88 10000 2.68 338 03:46 02.04.2021
787 Clouds 4 1026 86 10000 3.13 0 01:49 02.04.2021
788 Clouds 4 1026 86 10000 3.13 353 00:44 02.04.2021
789 Clouds 4 1025 87 10000 2.24 4 23:48 01.04.2021
790 Clouds 4 1025 86 10000 2.68 8 23:27 01.04.2021
791 Clouds 5 1025 85 10000 3.13 353 22:51 01.04.2021
792 Clouds 5 1026 84 10000 3.13 349 22:18 01.04.2021
793 Clouds 5 1025 85 10000 3.13 338 21:45 01.04.2021
794 Clouds 5 1025 85 10000 2.68 4 21:24 01.04.2021
795 Clouds 5 1025 86 10000 4.02 2 20:41 01.04.2021
796 Clouds 6 1025 86 10000 3.58 19 20:22 01.04.2021
797 Clouds 7 1025 86 10000 3.58 14 19:46 01.04.2021
798 Clouds 7 1025 85 10000 2.68 356 19:27 01.04.2021
799 Clouds 7 1024 85 10000 2.68 351 18:45 01.04.2021
800 Clouds 8 1024 82 10000 3.13 359 18:18 01.04.2021
801 Clouds 8 1024 82 10000 4.02 349 17:47 01.04.2021
802 Clouds 9 1025 81 10000 4.02 1 17:29 01.04.2021
803 Clouds 9 1024 79 10000 3.58 343 16:51 01.04.2021
804 Clouds 9 1024 76 10000 3.13 359 16:27 01.04.2021
805 Clouds 8 1024 83 10000 3.58 2 15:43 01.04.2021
806 Clouds 8 1024 84 10000 4.02 7 15:19 01.04.2021
807 Clouds 8 1024 84 10000 4.02 320 14:43 01.04.2021
808 Clouds 8 1024 84 10000 3.58 358 14:24 01.04.2021
809 Clouds 9 1024 77 10000 4.47 1 13:55 01.04.2021
810 Clouds 9 1023 79 10000 4.92 4 13:30 01.04.2021
811 Clouds 9 1023 80 10000 4.92 343 12:51 01.04.2021
812 Clouds 9 1023 81 10000 4.92 10 12:32 01.04.2021
813 Clouds 9 1023 83 10000 5.36 356 11:49 01.04.2021
814 Clouds 9 1023 85 10000 4.47 300 11:24 01.04.2021
815 Clouds 8 1022 85 10000 4.02 7 10:56 01.04.2021
816 Clouds 8 1022 86 10000 4.02 9 10:37 01.04.2021
817 Clouds 7 1022 90 10000 4.47 5 09:56 01.04.2021
818 Clouds 7 1022 90 10000 4.02 1 09:27 01.04.2021
819 Clouds 7 1021 89 10000 3.13 333 08:33 01.04.2021
820 Clouds 6 1021 89 10000 3.13 351 07:59 01.04.2021
821 Clouds 7 1020 90 10000 4.02 352 07:20 01.04.2021
822 Clouds 7 1019 90 10000 2.68 4 06:49 01.04.2021
823 Clouds 7 1019 90 10000 2.68 4 06:49 01.04.2021
824 Clouds 11 1018 78 10000 0.89 307 03:52 01.04.2021
825 Clouds 10 1019 83 10000 0.45 10 01:52 01.04.2021
826 Clouds 11 1018 82 10000 1.89 269 23:51 31.03.2021
827 Clouds 11 1018 82 10000 1.89 269 23:32 31.03.2021
828 Clouds 12 1019 78 10000 1.72 311 22:42 31.03.2021
829 Clouds 13 1019 77 10000 2.46 304 22:21 31.03.2021
830 Clouds 13 1019 75 10000 2.46 304 21:47 31.03.2021
831 Clouds 14 1019 73 10000 2.26 310 21:24 31.03.2021
832 Clouds 14 1019 72 10000 0.45 10 20:58 31.03.2021
833 Clouds 14 1019 70 10000 0.45 10 20:40 31.03.2021
834 Clear 15 1019 64 10000 2.61 323 20:19 31.03.2021
835 Clouds 17 1019 55 10000 1.54 20 19:42 31.03.2021
836 Clear 18 1019 62 10000 2.6 331 19:19 31.03.2021
837 Clouds 19 1019 45 10000 2.06 10 18:52 31.03.2021
838 Clear 20 1019 62 10000 1.34 2 18:26 31.03.2021
839 Clear 21 1019 49 10000 1.79 356 17:38 31.03.2021
840 Clear 23 1017 41 10000 2.6 308 17:19 31.03.2021
841 Clear 23 1017 41 10000 0.45 4 16:50 31.03.2021
842 Clear 22 1017 35 10000 0.45 313 16:30 31.03.2021
843 Clear 22 1018 34 10000 0.45 291 15:52 31.03.2021
844 Clear 22 1018 36 10000 1.93 265 15:20 31.03.2021
845 Clear 22 1018 38 10000 1.93 265 14:49 31.03.2021
846 Clear 21 1018 41 10000 2.02 230 14:24 31.03.2021
847 Clear 20 1018 42 10000 0.45 120 13:54 31.03.2021
848 Clear 20 1019 45 10000 2.43 198 13:22 31.03.2021
849 Clear 20 1021 52 10000 0.89 174 12:40 31.03.2021
850 Clear 20 1021 52 10000 0.89 174 12:40 31.03.2021
851 Clear 19 1021 53 10000 1.79 175 12:18 31.03.2021
852 Clear 16 1021 60 10000 1.34 143 11:23 31.03.2021
853 Clear 16 1022 66 10000 0.89 149 10:50 31.03.2021
854 Clear 14 1022 67 10000 0.89 338 10:27 31.03.2021
855 Clear 14 1022 67 10000 0.45 151 09:56 31.03.2021
856 Clear 11 1022 81 10000 0.89 145 09:31 31.03.2021
857 Fog 6 1023 87 10000 1.03 120 08:46 31.03.2021
858 Clear 7 1020 79 10000 2.25 158 08:26 31.03.2021
859 Fog 6 1023 100 500 2.06 100 07:36 31.03.2021
860 Fog 6 1024 100 10000 1.54 80 05:21 31.03.2021
861 Clear 8 1026 93 50 0.51 100 02:37 31.03.2021
862 Clear 8 1026 88 10000 1.93 148 00:54 31.03.2021
863 Clear 9 1026 87 10000 1.59 152 00:25 31.03.2021
864 Clear 7 1026 87 10000 0.89 282 23:57 30.03.2021
865 Clear 8 1026 85 10000 1.54 157 23:25 30.03.2021
866 Clear 9 1026 82 10000 1.54 157 22:50 30.03.2021
867 Clear 9 1027 82 10000 1.54 157 22:31 30.03.2021
868 Clear 10 1027 78 10000 0.94 149 21:59 30.03.2021
869 Clear 11 1027 74 10000 0.45 282 21:31 30.03.2021
870 Clear 12 1027 66 10000 0.89 282 20:59 30.03.2021
871 Clouds 12 1027 54 10000 1.03 350 20:40 30.03.2021
872 Clouds 15 1027 30 10000 1.03 250 20:20 30.03.2021
873 Clouds 19 1027 30 10000 1.03 250 19:43 30.03.2021
874 Clouds 19 1027 26 10000 2.06 240 19:18 30.03.2021
875 Clouds 20 1027 26 10000 2.06 240 18:33 30.03.2021
876 Clouds 20 1028 26 10000 4.12 230 17:49 30.03.2021
877 Clouds 20 1028 26 10000 4.12 230 17:49 30.03.2021
878 Clouds 20 1028 26 10000 4.12 230 17:31 30.03.2021
879 Clouds 20 1028 30 10000 3.09 220 16:47 30.03.2021
880 Clouds 20 1029 32 10000 4.12 240 16:28 30.03.2021
881 Clouds 20 1027 38 10000 0.45 221 15:43 30.03.2021
882 Clouds 19 1027 40 10000 0.45 245 15:20 30.03.2021
883 Clouds 19 1027 46 10000 0.45 239 14:46 30.03.2021
884 Clouds 18 1027 47 10000 1.34 237 14:21 30.03.2021
885 Clouds 18 1029 49 10000 2.68 234 13:54 30.03.2021
886 Clouds 19 1029 56 10000 2.68 212 13:36 30.03.2021
887 Clouds 18 1030 62 10000 2.24 204 12:44 30.03.2021
888 Clouds 16 1030 65 10000 2.24 201 12:26 30.03.2021
889 Clouds 16 1030 69 10000 2.24 216 11:50 30.03.2021
890 Clouds 15 1030 70 10000 1.79 198 11:21 30.03.2021
891 Clouds 14 1030 72 10000 1.79 192 10:43 30.03.2021
892 Clouds 13 1030 74 10000 2.24 194 10:20 30.03.2021
893 Clouds 10 1030 76 10000 2.24 218 09:43 30.03.2021
894 Clouds 9 1030 82 10000 1.79 215 09:24 30.03.2021
895 Clouds 8 1030 84 10000 1.79 202 08:53 30.03.2021
896 Clouds 8 1030 86 10000 1.34 196 08:35 30.03.2021
897 Clouds 6 1029 87 10000 1.34 338 07:50 30.03.2021
898 Clouds 6 1029 86 10000 1.34 210 07:22 30.03.2021
899 Clouds 7 1029 83 10000 0.89 338 05:25 30.03.2021
900 Clouds 7 1029 80 10000 0.89 207 04:57 30.03.2021
901 Clear 9 1028 78 10000 1.34 200 00:28 30.03.2021
902 Clear 9 1028 78 10000 1.34 204 23:31 29.03.2021
903 Clear 10 1028 77 10000 1.79 207 22:44 29.03.2021
904 Clear 10 1027 78 10000 1.79 214 22:25 29.03.2021
905 Clear 11 1028 77 10000 2.24 338 21:43 29.03.2021
906 Clear 11 1028 78 10000 2.68 216 21:23 29.03.2021
907 Clear 12 1028 78 10000 1.79 210 20:47 29.03.2021
908 Clouds 13 1027 77 10000 2.68 338 20:26 29.03.2021
909 Clouds 13 1026 67 10000 6.17 260 19:48 29.03.2021
910 Clouds 14 1027 77 10000 3.13 241 19:22 29.03.2021
911 Clouds 15 1026 63 10000 5.66 260 18:42 29.03.2021
912 Clouds 16 1026 76 10000 3.58 338 18:23 29.03.2021
913 Clouds 16 1026 76 10000 4.02 201 17:46 29.03.2021
914 Clouds 16 1026 74 10000 4.02 338 17:18 29.03.2021
915 Clouds 16 1026 73 10000 4.47 257 16:38 29.03.2021
916 Clouds 16 1026 75 10000 4.47 214 16:19 29.03.2021
917 Clouds 16 1026 77 10000 3.13 338 15:35 29.03.2021
918 Clouds 15 1026 79 10000 4.47 214 14:57 29.03.2021
919 Clouds 15 1026 79 10000 4.92 251 14:38 29.03.2021
920 Clouds 15 1026 80 10000 4.47 223 13:54 29.03.2021
921 Clouds 15 1025 79 10000 4.02 269 13:30 29.03.2021
922 Clouds 14 1025 78 10000 4.47 259 12:53 29.03.2021
923 Clouds 14 1025 80 10000 4.92 258 12:35 29.03.2021
924 Clouds 14 1024 79 10000 4.47 214 11:43 29.03.2021
925 Clouds 13 1024 79 10000 5.36 255 11:24 29.03.2021
926 Clouds 13 1024 80 10000 4.02 338 10:41 29.03.2021
927 Clouds 11 1023 82 10000 4.92 338 09:56 29.03.2021
928 Clouds 11 1023 84 10000 4.47 226 09:25 29.03.2021
929 Clouds 10 1023 85 10000 4.02 216 08:30 29.03.2021
930 Clouds 10 1023 84 10000 4.47 338 07:52 29.03.2021
931 Clouds 10 1022 84 10000 4.02 183 06:53 29.03.2021
932 Clouds 9 1022 83 10000 4.02 221 05:45 29.03.2021
933 Clouds 9 1022 85 10000 3.58 338 02:27 29.03.2021
934 Clouds 9 1023 84 10000 4.92 226 00:26 29.03.2021
935 Clouds 9 1022 85 10000 4.47 338 23:57 28.03.2021
936 Clouds 9 1023 87 10000 4.02 338 23:25 28.03.2021
937 Clouds 9 1022 88 10000 4.92 210 22:43 28.03.2021
938 Clouds 9 1022 88 10000 5.36 214 22:25 28.03.2021
939 Clouds 9 1022 89 10000 4.47 338 21:47 28.03.2021
940 Clouds 9 1022 90 10000 4.47 197 21:24 28.03.2021
941 Clouds 9 1022 91 10000 4.47 239 20:53 28.03.2021
942 Clouds 9 1022 91 10000 4.47 229 20:35 28.03.2021
943 Clouds 9 1022 92 10000 4.47 183 19:59 28.03.2021
944 Clouds 9 1022 91 10000 4.47 245 19:41 28.03.2021
945 Clouds 9 1022 92 10000 4.92 210 19:20 28.03.2021
946 Clouds 9 1022 91 10000 4.92 209 18:49 28.03.2021
947 Clouds 9 1022 90 10000 4.92 195 18:19 28.03.2021
948 Clouds 9 1022 89 10000 4.47 174 17:37 28.03.2021
949 Clouds 9 1022 88 10000 5.36 226 17:18 28.03.2021
950 Clouds 9 1021 87 10000 4.92 218 16:40 28.03.2021
951 Clouds 9 1021 88 10000 5.36 246 16:21 28.03.2021
952 Clouds 9 1021 89 10000 5.36 223 15:25 28.03.2021
953 Rain 9 1021 88 10000 5.81 234 14:49 28.03.2021
954 Rain 9 1021 87 10000 5.81 338 14:26 28.03.2021
955 Rain 10 1021 82 10000 5.81 205 13:38 28.03.2021
956 Clouds 11 1021 77 10000 6.71 221 12:59 28.03.2021
957 Clouds 11 1021 75 10000 5.36 268 12:35 28.03.2021
958 Clouds 11 1021 74 10000 5.36 234 11:59 28.03.2021
959 Clouds 10 1021 76 10000 5.36 201 11:38 28.03.2021
960 Clouds 9 1021 82 10000 4.47 250 10:55 28.03.2021
961 Clouds 9 1021 82 10000 4.92 221 10:37 28.03.2021
962 Clouds 9 1022 85 10000 4.02 182 10:18 28.03.2021
963 Clouds 8 1022 86 10000 4.47 201 09:43 28.03.2021
964 Clouds 7 1022 88 10000 3.58 338 09:23 28.03.2021
965 Clouds 6 1022 91 10000 3.13 338 08:38 28.03.2021
966 Clouds 5 1022 91 10000 3.13 164 07:44 28.03.2021
967 Clouds 5 1022 90 10000 2.68 180 06:22 28.03.2021
968 Clouds 4 1023 88 10000 2.24 175 03:51 28.03.2021
969 Clouds 4 1024 87 10000 2.24 338 00:48 28.03.2021
970 Clouds 4 1024 89 10000 1.79 338 00:18 28.03.2021
971 Clouds 4 1024 90 10000 1.79 206 23:37 27.03.2021
972 Clouds 4 1023 89 10000 1.79 205 22:53 27.03.2021
973 Clouds 4 1024 89 10000 1.79 206 22:35 27.03.2021
974 Clouds 4 1023 90 10000 1.34 200 21:46 27.03.2021
975 Clear 4 1023 89 10000 1.34 338 21:22 27.03.2021
976 Clear 5 1023 87 10000 1.34 214 20:59 27.03.2021
977 Clear 5 1023 88 10000 1.79 213 20:38 27.03.2021
978 Clear 5 1023 88 10000 2.24 228 20:19 27.03.2021
979 Clear 5 1023 87 10000 2.24 255 19:42 27.03.2021
980 Clouds 6 1022 87 10000 2.24 221 19:23 27.03.2021
981 Clouds 6 1022 89 10000 3.13 255 18:48 27.03.2021
982 Clouds 6 1021 85 10000 4.47 276 18:26 27.03.2021
983 Clouds 7 1021 83 10000 4.47 338 17:45 27.03.2021
984 Clouds 7 1021 80 10000 4.92 292 17:23 27.03.2021
985 Clouds 7 1020 83 10000 4.47 240 16:48 27.03.2021
986 Clouds 7 1020 84 10000 4.02 252 16:28 27.03.2021
987 Clouds 7 1020 82 10000 5.81 221 15:46 27.03.2021
988 Clouds 7 1019 80 10000 4.02 263 15:21 27.03.2021
989 Clouds 7 1019 86 10000 2.68 338 14:45 27.03.2021
990 Clouds 7 1018 79 10000 5.81 205 13:44 27.03.2021
991 Rain 7 1017 80 10000 5.36 262 13:22 27.03.2021
992 Clouds 8 1017 70 10000 5.36 307 12:51 27.03.2021
993 Clouds 7 1016 71 10000 4.92 257 11:59 27.03.2021
994 Clouds 7 1015 73 10000 5.36 230 11:41 27.03.2021
995 Clouds 7 1015 74 10000 6.71 270 11:19 27.03.2021
996 Clouds 7 1014 78 10000 4.92 294 10:43 27.03.2021
997 Clouds 6 1014 81 10000 4.47 301 10:22 27.03.2021
998 Clouds 6 1013 87 3873 3.58 259 09:28 27.03.2021
999 Clouds 5 1012 92 3873 4.02 268 08:43 27.03.2021
1000 Clouds 5 1012 93 10000 4.02 338 08:20 27.03.2021
1001 Rain 5 1011 92 10000 3.13 218 07:32 27.03.2021
1002 Clouds 5 1010 90 10000 2.24 206 06:43 27.03.2021
1003 Clouds 6 1010 94 10000 4.02 210 04:57 27.03.2021
1004 Clouds 6 1009 94 10000 2.68 201 04:39 27.03.2021
1005 Clouds 9 1008 81 10000 4.47 248 00:49 27.03.2021
1006 Clouds 8 1007 77 10000 2.24 185 00:29 27.03.2021
1007 Clouds 8 1007 78 10000 3.13 338 23:54 26.03.2021
1008 Clouds 8 1008 76 10000 3.13 172 22:56 26.03.2021
1009 Clouds 8 1009 76 10000 3.13 153 22:34 26.03.2021
1010 Clouds 9 1010 75 10000 2.68 149 21:36 26.03.2021
1011 Clouds 9 1010 74 10000 2.24 338 21:18 26.03.2021
1012 Clouds 9 1011 72 10000 2.68 189 20:38 26.03.2021
1013 Clear 10 1011 71 10000 1.79 182 20:19 26.03.2021
1014 Clear 11 1011 69 10000 1.79 189 19:47 26.03.2021
1015 Clouds 11 1011 70 10000 1.79 181 19:28 26.03.2021
1016 Clouds 12 1011 66 10000 3.13 338 18:42 26.03.2021
1017 Clouds 13 1011 65 10000 3.13 229 18:20 26.03.2021
1018 Clouds 13 1011 65 10000 2.68 195 17:46 26.03.2021
1019 Clouds 14 1011 63 10000 4.02 183 16:56 26.03.2021
1020 Clouds 14 1012 62 10000 4.02 175 16:33 26.03.2021
1021 Clouds 15 1012 64 10000 3.58 222 15:57 26.03.2021
1022 Clouds 14 1012 63 10000 4.47 178 15:23 26.03.2021
1023 Clouds 15 1012 64 10000 5.36 338 14:31 26.03.2021
1024 Clouds 14 1013 65 10000 4.02 173 13:41 26.03.2021
1025 Clouds 14 1013 65 10000 5.36 209 12:56 26.03.2021
1026 Clouds 13 1012 64 10000 2.24 274 12:33 26.03.2021
1027 Clouds 12 1014 80 10000 4.47 166 11:38 26.03.2021
1028 Clouds 11 1015 82 10000 4.02 171 11:18 26.03.2021
1029 Clouds 10 1015 88 10000 3.58 149 10:41 26.03.2021
1030 Clouds 9 1015 89 10000 3.13 180 09:56 26.03.2021
1031 Clouds 9 1015 89 10000 4.02 338 09:36 26.03.2021
1032 Clouds 8 1015 90 10000 3.58 151 08:44 26.03.2021
1033 Clouds 7 1015 90 10000 3.13 149 08:23 26.03.2021
1034 Clouds 6 1015 91 10000 2.68 181 07:42 26.03.2021
1035 Clouds 6 1015 91 10000 2.68 156 07:20 26.03.2021
1036 Clouds 6 1016 90 10000 2.68 166 06:54 26.03.2021
1037 Clouds 6 1016 86 10000 2.24 183 05:31 26.03.2021
1038 Clouds 4 1017 85 10000 2.24 180 02:31 26.03.2021
1039 Clouds 5 1018 83 10000 1.79 182 00:32 26.03.2021
1040 Clouds 5 1018 85 10000 1.79 169 23:46 25.03.2021
1041 Clouds 5 1018 85 10000 1.34 175 23:21 25.03.2021
1042 Clouds 5 1018 84 10000 1.79 338 22:39 25.03.2021
1043 Clouds 5 1018 87 10000 1.79 179 21:53 25.03.2021
1044 Clouds 6 1018 86 10000 1.34 186 21:35 25.03.2021
1045 Clouds 7 1019 83 10000 0.89 192 20:47 25.03.2021
1046 Clouds 7 1018 84 10000 1.34 338 20:28 25.03.2021
1047 Clouds 8 1018 79 10000 1.34 212 19:51 25.03.2021
1048 Clouds 9 1018 79 10000 1.34 214 19:32 25.03.2021
1049 Clouds 9 1018 78 10000 2.68 234 18:58 25.03.2021
1050 Clouds 10 1018 81 10000 2.68 269 18:39 25.03.2021
1051 Clouds 10 1018 80 10000 1.79 338 18:21 25.03.2021
1052 Clouds 11 1018 79 10000 2.68 257 17:38 25.03.2021
1053 Clouds 11 1018 81 10000 2.68 338 16:58 25.03.2021
1054 Clouds 11 1017 84 10000 3.13 231 16:35 25.03.2021
1055 Clouds 12 1017 83 10000 3.13 242 15:49 25.03.2021
1056 Clouds 13 1017 85 10000 2.24 243 15:27 25.03.2021
1057 Clouds 13 1017 82 10000 3.13 338 14:59 25.03.2021
1058 Clouds 13 1017 78 10000 3.13 195 14:40 25.03.2021
1059 Clouds 14 1017 72 10000 3.13 232 13:38 25.03.2021
1060 Clouds 14 1018 70 10000 3.58 203 13:19 25.03.2021
1061 Clouds 14 1018 70 10000 2.68 194 12:37 25.03.2021
1062 Clouds 13 1018 69 10000 2.24 187 12:18 25.03.2021
1063 Clouds 12 1018 71 10000 2.68 181 11:44 25.03.2021
1064 Clouds 12 1018 74 10000 1.79 338 11:26 25.03.2021
1065 Clouds 13 1018 73 10000 2.24 189 10:49 25.03.2021
1066 Clouds 12 1019 76 10000 2.68 232 10:22 25.03.2021
1067 Clouds 11 1019 79 10000 2.68 176 09:53 25.03.2021
1068 Clouds 10 1019 82 10000 2.24 228 09:35 25.03.2021
1069 Clouds 10 1019 82 10000 2.24 228 09:35 25.03.2021
1070 Clouds 7 1019 94 10000 1.79 168 08:42 25.03.2021
1071 Clouds 5 1019 96 10000 1.34 174 07:57 25.03.2021
1072 Clouds 3 1019 95 10000 1.34 172 06:59 25.03.2021
1073 Clouds 3 1019 94 10000 0.89 338 06:24 25.03.2021
1074 Clouds 3 1019 94 10000 0.89 173 05:47 25.03.2021
1075 Clouds 5 1019 91 10000 0.89 224 02:43 25.03.2021
1076 Clouds 6 1019 88 10000 0.89 237 00:21 25.03.2021
1077 Clouds 6 1019 88 10000 0.89 237 00:21 25.03.2021
1078 Clouds 6 1019 88 10000 1.34 338 23:51 24.03.2021
1079 Clouds 6 1019 87 10000 0.89 236 23:28 24.03.2021
1080 Clouds 6 1019 87 10000 0.89 235 22:47 24.03.2021
1081 Clouds 6 1019 87 10000 1.34 338 22:26 24.03.2021
1082 Clouds 7 1019 87 10000 0.89 244 21:42 24.03.2021
1083 Clouds 7 1019 85 10000 0.45 245 21:22 24.03.2021
1084 Clouds 8 1020 84 10000 1.34 243 20:43 24.03.2021
1085 Clouds 8 1019 84 10000 1.34 214 20:20 24.03.2021
1086 Clouds 9 1020 82 10000 1.34 220 19:46 24.03.2021
1087 Clouds 9 1020 81 10000 1.79 338 19:28 24.03.2021
1088 Clouds 10 1019 77 10000 2.68 222 18:46 24.03.2021
1089 Clouds 11 1019 76 10000 2.68 274 18:23 24.03.2021
1090 Clouds 12 1019 73 10000 2.24 245 17:49 24.03.2021
1091 Clouds 12 1019 71 10000 2.68 314 17:29 24.03.2021
1092 Clouds 13 1019 69 10000 2.68 245 16:51 24.03.2021
1093 Clouds 14 1019 67 10000 3.13 282 16:29 24.03.2021
1094 Clouds 14 1019 66 10000 3.13 338 15:49 24.03.2021
1095 Clouds 14 1019 64 10000 4.02 284 15:30 24.03.2021
1096 Clouds 14 1019 67 10000 3.13 274 14:47 24.03.2021
1097 Clouds 14 1019 66 10000 4.02 228 14:26 24.03.2021
1098 Clouds 14 1019 68 10000 3.13 200 13:54 24.03.2021
1099 Clouds 13 1020 71 10000 3.13 193 13:27 24.03.2021
1100 Clouds 13 1020 72 10000 2.68 233 12:42 24.03.2021
1101 Clouds 13 1020 74 10000 3.58 203 12:23 24.03.2021
1102 Clouds 12 1020 75 10000 2.68 230 11:44 24.03.2021
1103 Clouds 11 1020 78 10000 3.13 169 10:59 24.03.2021
1104 Clouds 11 1021 78 10000 2.68 203 10:40 24.03.2021
1105 Clouds 10 1021 80 10000 2.68 338 10:21 24.03.2021
1106 Clouds 9 1021 81 10000 3.13 201 09:52 24.03.2021
1107 Clouds 8 1021 84 10000 3.13 338 09:22 24.03.2021
1108 Clouds 6 1021 89 10000 2.24 178 08:51 24.03.2021
1109 Clouds 6 1021 90 10000 2.24 195 08:26 24.03.2021
1110 Clouds 5 1021 91 10000 2.24 193 07:40 24.03.2021
1111 Clouds 5 1021 90 10000 2.24 187 06:54 24.03.2021
1112 Clouds 5 1021 90 10000 2.24 187 06:54 24.03.2021
1113 Clouds 5 1021 88 10000 2.24 338 05:35 24.03.2021
1114 Clouds 7 1022 66 9000 3.6 250 00:55 24.03.2021
1115 Clear 7 1022 81 8000 2.57 240 00:25 24.03.2021
1116 Clear 7 1021 83 10000 0.45 259 23:22 23.03.2021
1117 Clear 7 1021 83 10000 3.62 230 22:55 23.03.2021
1118 Clear 7 1022 88 10000 3.62 230 22:36 23.03.2021
1119 Clear 8 1023 86 10000 1.79 205 21:58 23.03.2021
1120 Clear 8 1023 85 10000 2.24 228 21:39 23.03.2021
1121 Clear 8 1023 85 10000 2.24 338 21:19 23.03.2021
1122 Clear 8 1023 85 10000 2.24 214 20:39 23.03.2021
1123 Clear 8 1023 85 10000 1.34 338 20:21 23.03.2021
1124 Clear 8 1023 85 10000 1.34 338 19:44 23.03.2021
1125 Clear 9 1023 83 10000 1.79 243 19:23 23.03.2021
1126 Clear 9 1023 81 10000 0.89 206 18:42 23.03.2021
1127 Clear 9 1023 80 10000 1.79 338 18:20 23.03.2021
1128 Clear 10 1023 78 10000 2.24 201 17:44 23.03.2021
1129 Clear 10 1023 78 10000 2.24 187 17:21 23.03.2021
1130 Clear 10 1023 78 10000 2.24 187 17:21 23.03.2021
1131 Clouds 11 1023 76 10000 2.24 216 16:26 23.03.2021
1132 Clouds 11 1023 75 10000 1.79 220 15:55 23.03.2021
1133 Clouds 10 1023 74 10000 2.68 338 15:36 23.03.2021
1134 Clouds 11 1023 72 10000 2.24 338 14:50 23.03.2021
1135 Clouds 11 1023 73 10000 2.68 262 14:21 23.03.2021
1136 Clouds 10 1023 76 10000 2.24 338 13:49 23.03.2021
1137 Clouds 9 1023 77 10000 2.24 251 13:25 23.03.2021
1138 Clouds 10 1023 79 10000 2.24 297 12:47 23.03.2021
1139 Clouds 8 1024 84 10000 2.24 274 12:27 23.03.2021
1140 Clouds 8 1024 85 10000 2.68 216 11:51 23.03.2021
1141 Clouds 8 1024 85 10000 2.24 224 11:33 23.03.2021
1142 Clouds 7 1024 86 10000 3.13 248 10:44 23.03.2021
1143 Clouds 7 1024 87 10000 2.68 255 10:22 23.03.2021
1144 Clouds 6 1024 91 10000 3.13 241 09:55 23.03.2021
1145 Clouds 6 1024 93 10000 1.79 257 09:29 23.03.2021
1146 Clouds 6 1024 93 10000 1.79 257 09:29 23.03.2021
1147 Clouds 5 1024 94 10000 2.24 338 08:58 23.03.2021
1148 Clouds 5 1024 94 10000 1.79 255 08:39 23.03.2021
1149 Clouds 5 1024 93 10000 2.24 218 08:20 23.03.2021
1150 Clouds 5 1024 92 10000 1.79 338 07:28 23.03.2021
1151 Clouds 5 1024 91 10000 2.24 338 06:57 23.03.2021
1152 Clouds 5 1024 91 10000 2.24 338 06:57 23.03.2021
1153 Clouds 5 1024 91 10000 1.79 246 06:23 23.03.2021
1154 Clouds 5 1024 89 10000 1.34 214 03:21 23.03.2021
1155 Clouds 5 1024 88 10000 1.79 219 00:56 23.03.2021
1156 Clouds 5 1024 87 10000 0.89 224 23:33 22.03.2021
1157 Clouds 5 1025 86 10000 0.89 249 22:46 22.03.2021
1158 Clouds 5 1025 85 10000 0.45 249 22:23 22.03.2021
1159 Clouds 5 1025 84 10000 0.45 249 21:57 22.03.2021
1160 Clouds 5 1025 84 10000 1.34 258 21:36 22.03.2021
1161 Clouds 6 1025 84 10000 1.34 264 21:18 22.03.2021
1162 Clouds 6 1025 89 10000 0.45 286 20:38 22.03.2021
1163 Clouds 6 1025 88 10000 0.89 338 20:19 22.03.2021
1164 Clouds 6 1025 87 10000 1.34 285 19:48 22.03.2021
1165 Clouds 6 1024 87 10000 1.34 283 19:29 22.03.2021
1166 Clouds 6 1024 88 10000 1.34 295 18:46 22.03.2021
1167 Clear 6 1024 87 10000 1.79 298 18:27 22.03.2021
1168 Clear 6 1024 87 10000 2.24 285 17:57 22.03.2021
1169 Clear 7 1024 86 10000 2.68 288 17:37 22.03.2021
1170 Clear 7 1024 87 10000 2.24 274 17:18 22.03.2021
1171 Clear 7 1024 82 10000 2.68 255 16:43 22.03.2021
1172 Clear 7 1024 84 10000 2.68 296 15:59 22.03.2021
1173 Clear 7 1024 82 10000 2.68 309 15:38 22.03.2021
1174 Clouds 7 1024 83 10000 2.68 338 15:18 22.03.2021
1175 Clouds 8 1024 82 10000 3.13 289 14:50 22.03.2021
1176 Clouds 7 1024 82 10000 3.13 295 14:31 22.03.2021
1177 Clouds 8 1024 77 10000 2.68 296 13:47 22.03.2021
1178 Clear 8 1024 81 10000 2.68 338 13:25 22.03.2021
1179 Clear 8 1024 83 10000 2.24 285 12:53 22.03.2021
1180 Clear 8 1024 81 10000 3.13 305 12:24 22.03.2021
1181 Clear 8 1024 78 10000 2.24 291 11:48 22.03.2021
1182 Clear 8 1024 79 10000 2.24 292 11:25 22.03.2021
1183 Clear 7 1024 83 10000 1.79 276 10:44 22.03.2021
1184 Clear 6 1024 83 10000 2.24 338 10:24 22.03.2021
1185 Clear 6 1024 85 10000 2.24 338 09:46 22.03.2021
1186 Clear 6 1023 86 10000 1.79 20 09:26 22.03.2021
1187 Clear 5 1024 88 10000 2.24 314 08:45 22.03.2021
1188 Clear 5 1024 88 10000 1.79 300 08:26 22.03.2021
1189 Clear 5 1023 88 10000 2.24 338 07:47 22.03.2021
1190 Clouds 5 1023 89 10000 2.24 338 06:59 22.03.2021
1191 Clouds 5 1023 90 10000 1.34 322 06:36 22.03.2021
1192 Clouds 5 1022 92 10000 3.13 299 02:47 22.03.2021
1193 Clouds 5 1023 91 10000 2.24 291 00:43 22.03.2021
1194 Clouds 5 1023 93 10000 1.34 293 23:55 21.03.2021
1195 Clouds 5 1023 92 10000 1.34 291 23:20 21.03.2021
1196 Clouds 5 1023 90 10000 1.79 280 22:58 21.03.2021
1197 Clouds 5 1023 90 10000 2.24 295 22:30 21.03.2021
1198 Clouds 5 1023 90 10000 2.68 338 21:42 21.03.2021
1199 Clouds 5 1023 90 10000 2.24 338 21:24 21.03.2021
1200 Clouds 5 1023 88 10000 2.24 338 20:55 21.03.2021
1201 Clouds 5 1023 88 10000 1.79 338 20:36 21.03.2021
1202 Clouds 5 1023 87 10000 1.79 295 20:18 21.03.2021
1203 Clouds 5 1022 86 10000 2.68 300 19:29 21.03.2021
1204 Clouds 5 1022 84 10000 2.24 343 18:58 21.03.2021
1205 Clouds 5 1022 83 10000 2.68 305 18:40 21.03.2021
1206 Clouds 5 1022 84 10000 3.13 322 18:18 21.03.2021
1207 Clouds 6 1022 83 10000 3.13 333 17:41 21.03.2021
1208 Clouds 6 1022 82 10000 4.02 338 17:18 21.03.2021
1209 Clouds 6 1022 81 10000 4.02 314 16:48 21.03.2021
1210 Clouds 6 1022 81 10000 3.58 343 16:23 21.03.2021
1211 Clouds 7 1021 79 10000 3.58 321 15:42 21.03.2021
1212 Clouds 7 1022 79 10000 4.02 305 15:20 21.03.2021
1213 Clouds 7 1022 78 10000 3.58 343 14:47 21.03.2021
1214 Clouds 7 1022 77 10000 4.92 338 14:27 21.03.2021
1215 Clouds 7 1022 77 10000 4.47 280 13:57 21.03.2021
1216 Clouds 7 1022 77 10000 4.02 347 13:38 21.03.2021
1217 Clouds 8 1022 77 10000 4.47 338 12:43 21.03.2021
1218 Clouds 8 1023 77 10000 3.58 12 12:25 21.03.2021
1219 Clouds 7 1022 80 10000 3.58 338 11:41 21.03.2021
1220 Clouds 7 1022 81 10000 4.02 338 11:21 21.03.2021
1221 Clouds 7 1022 80 10000 4.47 14 10:45 21.03.2021
1222 Clouds 7 1022 80 10000 4.47 314 10:27 21.03.2021
1223 Clouds 6 1022 83 10000 3.58 0 09:50 21.03.2021
1224 Clouds 6 1022 83 10000 4.92 318 09:32 21.03.2021
1225 Clouds 6 1021 84 10000 4.47 314 08:59 21.03.2021
1226 Clouds 6 1021 85 10000 4.47 300 08:36 21.03.2021
1227 Clouds 5 1021 85 10000 4.47 321 08:18 21.03.2021
1228 Clouds 5 1021 87 10000 4.47 295 07:29 21.03.2021
1229 Clouds 6 1020 86 10000 4.92 327 06:21 21.03.2021
1230 Clouds 6 1020 95 10000 3.58 338 04:56 21.03.2021
1231 Clouds 6 1021 96 10000 3.58 338 00:58 21.03.2021
1232 Clouds 6 1021 96 10000 3.58 260 00:39 21.03.2021
1233 Clouds 6 1022 96 10000 3.58 275 00:20 21.03.2021
1234 Clouds 6 1022 97 10000 3.58 299 23:45 20.03.2021
1235 Clouds 6 1022 97 10000 3.58 266 23:20 20.03.2021
1236 Clouds 5 1023 97 10000 2.68 242 22:25 20.03.2021
1237 Clouds 5 1023 96 10000 1.79 338 21:58 20.03.2021
1238 Clouds 5 1023 96 10000 1.79 287 21:40 20.03.2021
1239 Clouds 5 1023 96 10000 1.79 301 21:21 20.03.2021
1240 Clouds 5 1024 95 10000 2.24 249 20:41 20.03.2021
1241 Clouds 5 1024 95 10000 2.24 251 20:21 20.03.2021
1242 Clouds 5 1024 95 10000 2.68 280 19:44 20.03.2021
1243 Clouds 5 1024 95 10000 1.79 254 19:25 20.03.2021
1244 Clouds 6 1024 95 10000 2.68 245 18:46 20.03.2021
1245 Clouds 6 1024 95 10000 2.24 255 18:24 20.03.2021
1246 Clouds 6 1022 95 10000 5.25 295 17:51 20.03.2021
1247 Clouds 6 1024 95 10000 2.24 338 17:27 20.03.2021
1248 Clouds 6 1025 96 10000 2.68 261 16:44 20.03.2021
1249 Clouds 6 1025 95 10000 2.68 338 16:20 20.03.2021
1250 Clouds 6 1026 95 10000 2.68 247 15:57 20.03.2021
1251 Clouds 6 1026 94 10000 3.13 338 15:39 20.03.2021
1252 Clouds 6 1026 90 10000 3.58 251 14:45 20.03.2021
1253 Clouds 6 1026 89 10000 3.13 273 14:23 20.03.2021
1254 Clouds 6 1027 84 10000 4.02 244 13:40 20.03.2021
1255 Clouds 6 1028 80 10000 3.58 266 12:52 20.03.2021
1256 Clouds 6 1028 81 10000 3.13 249 12:26 20.03.2021
1257 Clouds 6 1028 81 10000 3.13 268 11:47 20.03.2021
1258 Clouds 6 1028 82 10000 2.68 275 11:29 20.03.2021
1259 Clouds 6 1029 82 10000 3.13 225 10:55 20.03.2021
1260 Clouds 5 1029 82 10000 3.13 247 10:32 20.03.2021
1261 Clouds 4 1029 83 10000 1.79 338 09:58 20.03.2021
1262 Clouds 2 1029 84 10000 2.24 199 09:27 20.03.2021
1263 Clouds 2 1029 84 10000 2.24 217 08:57 20.03.2021
1264 Clouds 1 1029 85 10000 2.24 338 08:37 20.03.2021
1265 Clouds 0 1030 87 10000 1.79 220 07:54 20.03.2021
1266 Clouds 0 1029 89 10000 1.34 201 07:32 20.03.2021
1267 Clouds -1 1030 90 10000 0.89 179 06:54 20.03.2021
1268 Clouds -1 1030 91 10000 0.89 338 06:19 20.03.2021
1269 Clouds -2 1030 92 10000 0.89 118 04:23 20.03.2021
1270 Clouds -1 1030 91 10000 0.45 120 03:42 20.03.2021
1271 Clouds 0 1030 90 10000 1.34 107 00:35 20.03.2021
1272 Clouds 0 1030 89 10000 2.29 115 23:31 19.03.2021
1273 Clouds 0 1030 88 10000 2.88 104 22:59 19.03.2021
1274 Clouds 1 1030 87 10000 0.45 31 22:38 19.03.2021
1275 Clouds 1 1029 86 10000 0.45 32 22:20 19.03.2021
1276 Clouds 1 1029 86 10000 0.45 32 22:20 19.03.2021
1277 Clouds 2 1029 85 10000 1.34 52 21:23 19.03.2021
1278 Clouds 2 1029 85 10000 1.79 38 21:00 19.03.2021
1279 Clouds 2 1029 84 10000 1.79 29 20:41 19.03.2021
1280 Clouds 2 1029 84 10000 1.79 15 20:22 19.03.2021
1281 Clouds 3 1028 84 10000 2.24 4 19:46 19.03.2021
1282 Clouds 4 1028 84 10000 2.68 27 19:20 19.03.2021
1283 Clouds 4 1028 80 10000 2.68 18 18:42 19.03.2021
1284 Clear 5 1028 78 10000 2.68 24 18:20 19.03.2021
1285 Clear 6 1027 77 10000 2.24 33 17:55 19.03.2021
1286 Clear 6 1027 77 10000 3.58 0 17:33 19.03.2021
1287 Clear 7 1026 80 10000 3.58 2 16:56 19.03.2021
1288 Clear 7 1027 80 10000 3.58 333 16:36 19.03.2021
1289 Clear 7 1026 78 10000 4.02 9 16:18 19.03.2021
1290 Clear 8 1027 77 10000 3.58 347 15:32 19.03.2021
1291 Clouds 8 1027 77 10000 3.58 357 14:49 19.03.2021
1292 Clear 8 1027 77 10000 4.02 343 14:29 19.03.2021
1293 Clear 9 1026 61 10000 3.58 355 13:45 19.03.2021
1294 Clouds 8 1026 63 10000 3.13 338 13:18 19.03.2021
1295 Clouds 8 1026 75 10000 3.58 2 12:38 19.03.2021
1296 Clear 8 1026 75 10000 3.13 12 11:55 19.03.2021
1297 Clear 7 1026 75 10000 4.02 0 11:22 19.03.2021
1298 Clear 7 1026 78 10000 3.13 14 10:42 19.03.2021
1299 Clear 6 1026 79 10000 4.02 26 10:21 19.03.2021
1300 Clear 6 1026 81 10000 1.79 7 09:44 19.03.2021
1301 Clear 5 1026 84 10000 2.68 1 09:24 19.03.2021
1302 Clear 3 1026 89 10000 2.68 359 08:51 19.03.2021
1303 Clear 2 1025 92 10000 1.79 35 08:26 19.03.2021
1304 Clear 1 1025 94 10000 1.79 355 07:50 19.03.2021
1305 Clear 1 1025 94 10000 1.79 355 07:31 19.03.2021
1306 Clear 1 1024 95 10000 1.34 0 05:28 19.03.2021
1307 Clear 1 1022 93 10000 0.89 20 01:58 19.03.2021
1308 Clouds 1 1022 92 10000 1.79 14 23:57 18.03.2021
1309 Clouds 2 1021 91 10000 1.34 9 23:29 18.03.2021
1310 Clouds 2 1021 91 10000 1.79 2 22:52 18.03.2021
1311 Clouds 2 1021 91 10000 1.79 5 22:26 18.03.2021
1312 Clouds 2 1021 91 10000 2.24 22 21:55 18.03.2021
1313 Clouds 2 1021 90 10000 1.79 357 21:36 18.03.2021
1314 Clouds 3 1021 89 10000 2.68 32 20:43 18.03.2021
1315 Clouds 4 1020 89 10000 2.68 357 20:22 18.03.2021
1316 Clouds 4 1020 89 10000 2.24 14 19:43 18.03.2021
1317 Clouds 4 1021 90 10000 2.68 8 19:23 18.03.2021
1318 Clouds 4 1021 90 10000 2.68 8 19:23 18.03.2021
1319 Clouds 4 1020 89 10000 2.68 14 18:51 18.03.2021
1320 Clouds 5 1020 88 10000 3.13 354 18:25 18.03.2021
1321 Clouds 5 1020 88 10000 2.68 2 17:43 18.03.2021
1322 Clouds 6 1020 88 10000 2.24 356 17:20 18.03.2021
1323 Clouds 6 1021 89 10000 1.79 307 16:41 18.03.2021
1324 Clouds 6 1021 87 10000 1.79 328 16:23 18.03.2021
1325 Clouds 6 1021 84 10000 2.24 343 15:41 18.03.2021
1326 Clouds 7 1021 83 10000 1.79 12 15:23 18.03.2021
1327 Clouds 7 1021 83 10000 1.79 12 15:23 18.03.2021
1328 Clouds 6 1021 86 10000 2.24 353 14:52 18.03.2021
1329 Clouds 7 1022 83 10000 2.68 357 14:29 18.03.2021
1330 Clouds 7 1022 82 10000 2.68 351 13:48 18.03.2021
1331 Clouds 7 1023 82 10000 2.24 10 13:25 18.03.2021
1332 Clouds 6 1023 86 10000 2.68 355 12:42 18.03.2021
1333 Clouds 6 1023 86 10000 2.24 338 12:24 18.03.2021
1334 Clouds 6 1023 85 10000 2.68 347 11:51 18.03.2021
1335 Clouds 6 1023 85 10000 2.68 349 11:31 18.03.2021
1336 Clouds 5 1024 92 10000 1.79 8 10:44 18.03.2021
1337 Clouds 5 1024 94 10000 1.34 290 10:25 18.03.2021
1338 Clouds 5 1024 95 10000 1.79 268 09:54 18.03.2021
1339 Clouds 5 1024 96 10000 1.34 338 09:28 18.03.2021
1340 Clouds 4 1024 97 10000 0.45 268 08:50 18.03.2021
1341 Clouds 3 1025 96 10000 0.45 358 08:30 18.03.2021
1342 Clouds 2 1025 97 10000 1.65 303 07:52 18.03.2021
1343 Clouds 1 1025 96 10000 1.85 305 07:25 18.03.2021
1344 Clouds 1 1025 96 10000 1.87 328 06:29 18.03.2021
1345 Clouds 1 1025 96 10000 0.45 357 05:54 18.03.2021
1346 Clouds 2 1026 94 10000 2.09 336 02:29 18.03.2021
1347 Clouds 2 1027 93 10000 0.45 359 23:59 17.03.2021
1348 Clouds 2 1027 92 10000 2.09 343 22:56 17.03.2021
1349 Clouds 1 1028 92 10000 0.45 358 22:36 17.03.2021
1350 Clouds 1 1028 92 10000 0.45 358 22:36 17.03.2021
1351 Clouds 2 1027 92 10000 0.89 0 22:18 17.03.2021
1352 Clouds 3 1028 91 10000 0.45 358 21:42 17.03.2021
1353 Clouds 3 1027 90 10000 0.89 359 21:23 17.03.2021
1354 Clouds 3 1027 90 10000 1.34 6 20:45 17.03.2021
1355 Clouds 3 1027 89 10000 1.79 349 20:25 17.03.2021
1356 Clouds 4 1027 89 10000 2.24 353 19:51 17.03.2021
1357 Clouds 3 1027 87 10000 1.79 351 19:25 17.03.2021
1358 Clouds 4 1027 85 10000 1.79 2 18:57 17.03.2021
1359 Clouds 4 1027 83 10000 1.34 333 18:39 17.03.2021
1360 Clouds 5 1026 79 10000 2.68 358 17:58 17.03.2021
1361 Clouds 6 1026 77 10000 3.58 1 17:27 17.03.2021
1362 Clouds 6 1026 74 10000 3.13 350 16:57 17.03.2021
1363 Clouds 7 1026 72 10000 3.13 343 16:37 17.03.2021
1364 Clouds 7 1026 71 10000 3.58 343 16:19 17.03.2021
1365 Rain 7 1026 69 10000 3.13 4 15:40 17.03.2021
1366 Rain 8 1025 73 10000 2.68 12 14:46 17.03.2021
1367 Rain 8 1025 72 10000 2.68 22 14:28 17.03.2021
1368 Rain 7 1025 70 10000 3.13 6 13:56 17.03.2021
1369 Rain 7 1025 71 10000 3.13 347 13:38 17.03.2021
1370 Rain 7 1025 71 10000 3.58 5 13:18 17.03.2021
1371 Clouds 7 1025 74 10000 3.58 2 12:36 17.03.2021
1372 Clouds 7 1025 75 10000 4.02 357 12:18 17.03.2021
1373 Clouds 7 1025 77 10000 4.02 338 11:37 17.03.2021
1374 Clouds 7 1025 76 10000 4.02 357 11:18 17.03.2021
1375 Clouds 6 1024 78 10000 4.47 356 10:40 17.03.2021
1376 Clouds 6 1024 80 10000 4.47 347 09:59 17.03.2021
1377 Clouds 6 1025 79 10000 4.92 343 09:41 17.03.2021
1378 Clouds 5 1025 82 10000 3.13 310 09:20 17.03.2021
1379 Clouds 4 1025 86 10000 2.68 347 08:45 17.03.2021
1380 Clouds 4 1025 88 10000 2.24 338 08:25 17.03.2021
1381 Clouds 4 1024 88 10000 1.79 318 07:38 17.03.2021
1382 Clouds 3 1024 91 10000 1.79 324 06:48 17.03.2021
1383 Clouds 3 1024 93 10000 1.79 347 05:28 17.03.2021
1384 Clouds 3 1024 94 10000 1.79 351 03:31 17.03.2021
1385 Clouds 3 1024 92 10000 1.34 297 01:58 17.03.2021
1386 Clouds 3 1023 94 10000 1.79 357 00:33 17.03.2021
1387 Clouds 4 1023 94 10000 1.34 314 23:27 16.03.2021
1388 Clouds 4 1023 94 10000 1.34 338 22:45 16.03.2021
1389 Clouds 4 1023 94 9510 0.89 338 22:26 16.03.2021
1390 Clouds 4 1022 94 9510 1.34 338 21:44 16.03.2021
1391 Clouds 4 1022 94 10000 1.34 314 21:26 16.03.2021
1392 Clouds 5 1022 94 10000 2.24 338 20:57 16.03.2021
1393 Clouds 4 1022 93 10000 0.89 338 20:20 16.03.2021
1394 Clouds 4 1022 93 10000 0.89 338 20:20 16.03.2021
1395 Clouds 5 1022 90 10000 1.34 289 19:48 16.03.2021
1396 Clouds 5 1022 90 10000 1.79 280 19:29 16.03.2021
1397 Clouds 5 1022 86 10000 2.24 284 18:57 16.03.2021
1398 Clouds 5 1022 84 10000 1.34 295 18:39 16.03.2021
1399 Clouds 6 1022 82 10000 1.34 281 18:20 16.03.2021
1400 Clouds 6 1022 78 10000 1.79 307 17:41 16.03.2021
1401 Clouds 6 1022 76 10000 1.34 314 17:22 16.03.2021
1402 Clouds 7 1022 75 10000 2.24 305 16:49 16.03.2021
1403 Clouds 7 1022 72 10000 3.13 310 16:25 16.03.2021
1404 Clouds 8 1022 74 10000 2.68 338 15:46 16.03.2021
1405 Clouds 7 1022 74 10000 2.68 295 15:21 16.03.2021
1406 Clouds 8 1022 75 10000 2.24 294 14:57 16.03.2021
1407 Clouds 8 1022 74 10000 3.13 313 14:39 16.03.2021
1408 Clouds 8 1022 73 10000 3.13 291 14:19 16.03.2021
1409 Clouds 8 1022 73 10000 3.13 291 14:19 16.03.2021
1410 Clouds 8 1022 74 10000 2.24 338 13:45 16.03.2021
1411 Clouds 8 1022 76 10000 3.58 296 13:21 16.03.2021
1412 Clouds 7 1022 76 10000 3.13 307 12:48 16.03.2021
1413 Clouds 8 1022 75 10000 2.68 338 12:29 16.03.2021
1414 Clouds 8 1022 78 10000 3.13 287 11:41 16.03.2021
1415 Clouds 7 1022 81 10000 3.13 338 11:21 16.03.2021
1416 Clouds 7 1022 85 10000 2.24 348 10:27 16.03.2021
1417 Clouds 7 1022 85 10000 3.58 301 09:57 16.03.2021
1418 Clouds 6 1022 85 10000 3.13 289 09:36 16.03.2021
1419 Clear 6 1022 90 10000 2.68 311 09:18 16.03.2021
1420 Clear 5 1021 92 10000 3.58 338 08:40 16.03.2021
1421 Clear 5 1021 92 10000 2.68 301 08:20 16.03.2021
1422 Clear 5 1021 91 10000 1.79 295 07:36 16.03.2021
1423 Clouds 5 1021 90 10000 2.24 268 06:40 16.03.2021
1424 Clear 5 1020 89 10000 2.24 298 05:59 16.03.2021
1425 Clear 5 1020 90 10000 1.79 302 05:34 16.03.2021
1426 Clear 5 1019 90 10000 2.68 314 02:45 16.03.2021
1427 Clear 5 1019 90 10000 2.24 311 02:24 16.03.2021
1428 Clear 5 1018 89 10000 2.68 329 23:59 15.03.2021
1429 Clear 5 1017 91 10000 2.68 307 23:29 15.03.2021
1430 Clear 5 1017 90 10000 2.68 298 22:56 15.03.2021
1431 Clear 5 1017 90 10000 2.68 298 22:56 15.03.2021
1432 Clear 5 1017 90 10000 3.13 338 22:36 15.03.2021
1433 Clear 5 1017 90 10000 3.13 338 22:18 15.03.2021
1434 Clear 5 1016 89 10000 3.13 291 21:39 15.03.2021
1435 Clear 5 1016 88 10000 3.13 338 21:21 15.03.2021
1436 Clear 5 1016 88 10000 3.58 320 20:44 15.03.2021
1437 Clear 5 1016 88 10000 3.13 301 20:25 15.03.2021
1438 Clear 6 1015 89 10000 3.58 296 19:56 15.03.2021
1439 Clear 6 1015 89 10000 3.13 284 19:38 15.03.2021
1440 Clouds 6 1015 88 10000 3.58 305 19:19 15.03.2021
1441 Clouds 6 1014 88 10000 4.02 290 18:40 15.03.2021
1442 Clouds 6 1014 88 10000 4.02 338 18:22 15.03.2021
1443 Clouds 7 1013 88 10000 4.47 274 17:43 15.03.2021
1444 Clouds 7 1013 88 10000 4.47 338 17:22 15.03.2021
1445 Clouds 7 1012 86 10000 5.36 338 16:44 15.03.2021
1446 Clouds 7 1011 87 10000 4.92 287 15:56 15.03.2021
1447 Clouds 7 1011 86 10000 5.36 301 15:28 15.03.2021
1448 Clouds 7 1011 87 10000 4.47 301 14:56 15.03.2021
1449 Clouds 7 1011 88 10000 4.92 333 14:38 15.03.2021
1450 Clouds 7 1011 88 10000 5.36 297 14:19 15.03.2021
1451 Clouds 7 1010 87 10000 5.36 280 13:44 15.03.2021
1452 Clouds 8 1010 86 10000 5.36 338 13:23 15.03.2021
1453 Clouds 8 1010 87 10000 5.36 338 12:45 15.03.2021
1454 Clouds 8 1009 86 10000 5.36 318 12:18 15.03.2021
1455 Clouds 8 1009 86 10000 5.81 317 11:45 15.03.2021
1456 Clouds 8 1009 86 10000 5.36 307 11:26 15.03.2021
1457 Clouds 8 1009 87 10000 4.47 289 10:44 15.03.2021
1458 Clouds 7 1009 89 10000 4.47 338 10:24 15.03.2021
1459 Clouds 6 1008 90 10000 4.47 338 09:48 15.03.2021
1460 Clouds 6 1008 91 10000 4.47 338 09:30 15.03.2021
1461 Clouds 6 1008 92 10000 3.58 284 08:47 15.03.2021
1462 Clouds 5 1008 92 10000 4.02 276 08:27 15.03.2021
1463 Clouds 5 1007 94 10000 4.02 263 07:43 15.03.2021
1464 Clouds 5 1007 96 10000 3.13 274 07:22 15.03.2021
1465 Clouds 4 1007 96 10000 2.68 251 06:21 15.03.2021
1466 Clouds 4 1007 95 10000 1.34 224 03:59 15.03.2021
1467 Clouds 5 1007 94 10000 2.68 338 01:20 15.03.2021
1468 Clouds 5 1007 93 10000 3.13 259 23:45 14.03.2021
1469 Clouds 5 1007 92 10000 2.24 259 23:19 14.03.2021
1470 Clouds 5 1007 93 10000 2.24 223 22:39 14.03.2021
1471 Clouds 5 1008 93 10000 2.24 241 22:18 14.03.2021
1472 Clouds 4 1008 93 10000 2.24 216 21:44 14.03.2021
1473 Clouds 4 1008 93 10000 1.79 235 21:18 14.03.2021
1474 Clouds 4 1008 92 10000 2.68 215 20:43 14.03.2021
1475 Clouds 5 1008 91 10000 2.24 338 20:24 14.03.2021
1476 Clouds 5 1008 90 10000 2.68 251 19:42 14.03.2021
1477 Clouds 5 1008 89 10000 3.13 251 19:22 14.03.2021
1478 Clouds 6 1008 88 10000 3.13 338 18:46 14.03.2021
1479 Clouds 6 1008 87 10000 3.58 265 18:22 14.03.2021
1480 Clouds 7 1008 87 10000 3.58 258 17:39 14.03.2021
1481 Clear 7 1008 86 10000 3.58 222 17:20 14.03.2021
1482 Clear 7 1007 84 10000 4.47 252 16:46 14.03.2021
1483 Clouds 7 1007 82 10000 4.47 278 16:24 14.03.2021
1484 Clouds 8 1007 84 10000 4.02 338 15:52 14.03.2021
1485 Clouds 8 1007 84 10000 4.02 248 15:30 14.03.2021
1486 Clouds 9 1007 82 10000 4.47 338 14:41 14.03.2021
1487 Clouds 9 1007 86 10000 4.02 262 14:20 14.03.2021
1488 Clouds 8 1007 81 10000 4.02 338 13:49 14.03.2021
1489 Clouds 9 1007 81 10000 4.02 280 13:28 14.03.2021
1490 Clouds 9 1007 81 10000 4.02 280 13:28 14.03.2021
1491 Clouds 8 1007 84 10000 3.58 263 12:46 14.03.2021
1492 Clouds 8 1007 84 10000 3.58 272 12:28 14.03.2021
1493 Clouds 8 1006 87 10000 3.13 338 11:51 14.03.2021
1494 Clouds 8 1006 88 10000 2.68 251 11:33 14.03.2021
1495 Clouds 8 1005 87 10000 4.47 255 10:56 14.03.2021
1496 Clouds 7 1005 88 10000 4.02 285 10:36 14.03.2021
1497 Clouds 7 1005 88 10000 4.02 264 10:18 14.03.2021
1498 Clouds 7 1005 88 10000 4.02 264 10:18 14.03.2021
1499 Clouds 7 1005 91 10000 4.02 243 09:43 14.03.2021
1500 Clouds 6 1005 93 10000 4.02 274 09:22 14.03.2021
1501 Clouds 6 1005 93 10000 4.02 274 09:22 14.03.2021
1502 Clouds 5 1004 96 10000 2.68 338 08:43 14.03.2021
1503 Clouds 5 1004 96 10000 2.68 255 08:23 14.03.2021
1504 Clouds 4 1003 95 10000 2.68 212 07:37 14.03.2021
1505 Clouds 4 1002 94 10000 2.68 218 06:47 14.03.2021
1506 Clouds 5 1000 93 10000 3.13 255 04:51 14.03.2021
1507 Clouds 4 996 92 10000 4.02 313 00:51 14.03.2021
1508 Clouds 4 995 90 10000 5.81 278 00:19 14.03.2021
1509 Clouds 4 995 93 10000 5.81 285 23:52 13.03.2021
1510 Clouds 4 994 94 10000 5.81 291 23:30 13.03.2021
1511 Clouds 4 994 94 10000 6.26 284 22:54 13.03.2021
1512 Clouds 4 993 93 10000 8.05 232 22:27 13.03.2021
1513 Clouds 4 992 93 10000 7.6 268 21:48 13.03.2021
1514 Clouds 5 992 93 10000 8.05 278 21:26 13.03.2021
1515 Clouds 5 991 93 10000 8.05 338 20:52 13.03.2021
1516 Rain 5 990 93 10000 6.71 261 20:31 13.03.2021
1517 Rain 5 989 93 10000 8.05 260 19:54 13.03.2021
1518 Rain 5 989 92 10000 8.05 255 19:31 13.03.2021
1519 Rain 5 988 91 8201 8.05 338 18:58 13.03.2021
1520 Rain 5 987 90 9604 8.49 224 18:39 13.03.2021
1521 Rain 6 987 88 9459 8.05 246 18:18 13.03.2021
1522 Rain 5 986 89 9459 7.6 212 17:42 13.03.2021
1523 Clouds 5 986 90 10000 8.05 225 17:24 13.03.2021
1524 Clouds 5 986 92 10000 6.71 240 16:44 13.03.2021
1525 Rain 5 986 92 10000 7.6 248 16:24 13.03.2021
1526 Rain 6 985 87 10000 8.49 240 15:39 13.03.2021
1527 Rain 7 985 82 9594 7.15 210 14:51 13.03.2021
1528 Clouds 8 985 81 6859 8.05 245 14:29 13.03.2021
1529 Clouds 8 985 74 6859 8.05 201 13:51 13.03.2021
1530 Clouds 8 985 75 10000 7.6 219 13:25 13.03.2021
1531 Clouds 8 986 78 5915 6.71 203 12:47 13.03.2021
1532 Clouds 7 986 83 5626 6.26 338 12:28 13.03.2021
1533 Clouds 8 986 77 5626 6.26 205 11:51 13.03.2021
1534 Clouds 7 986 77 5626 6.26 338 11:30 13.03.2021
1535 Clouds 7 986 77 5626 6.26 338 11:30 13.03.2021
1536 Clouds 7 986 81 10000 6.26 241 10:51 13.03.2021
1537 Clouds 7 986 81 10000 6.26 338 10:30 13.03.2021
1538 Clouds 7 986 84 10000 6.71 207 09:48 13.03.2021
1539 Clouds 6 986 87 10000 6.26 231 09:24 13.03.2021
1540 Rain 5 986 93 10000 7.6 216 08:44 13.03.2021
1541 Rain 6 986 95 6399 6.26 338 08:20 13.03.2021
1542 Rain 6 985 96 6399 5.36 186 07:55 13.03.2021
1543 Rain 5 987 95 10000 4.92 338 06:54 13.03.2021
1544 Clouds 4 994 93 10000 2.68 153 03:33 13.03.2021
1545 Clouds 4 996 94 10000 2.68 199 01:21 13.03.2021
1546 Clouds 3 997 92 10000 1.79 338 00:20 13.03.2021
1547 Clouds 3 997 91 10000 2.24 191 23:33 12.03.2021
1548 Clouds 4 997 88 10000 2.68 338 22:56 12.03.2021
1549 Rain 4 997 87 10000 4.47 338 22:29 12.03.2021
1550 Clouds 4 997 87 10000 3.13 338 21:56 12.03.2021
1551 Clouds 5 997 87 10000 4.47 224 21:37 12.03.2021
1552 Clouds 4 997 89 10000 2.68 208 21:18 12.03.2021
1553 Clouds 4 997 89 10000 3.13 205 20:46 12.03.2021
1554 Clouds 4 997 88 10000 3.58 262 20:21 12.03.2021
1555 Clouds 5 997 87 10000 3.58 229 19:44 12.03.2021
1556 Clouds 5 997 86 10000 4.02 338 19:25 12.03.2021
1557 Clouds 6 997 84 10000 4.47 254 18:43 12.03.2021
1558 Clouds 6 997 85 10000 4.92 206 18:24 12.03.2021
1559 Clouds 6 996 89 10000 4.92 208 17:43 12.03.2021
1560 Clouds 6 996 89 10000 5.36 338 17:24 12.03.2021
1561 Clouds 6 997 92 10000 4.92 220 16:44 12.03.2021
1562 Clouds 6 997 92 6619 5.36 216 16:23 12.03.2021
1563 Rain 6 997 92 6619 4.47 338 15:38 12.03.2021
1564 Rain 7 998 90 10000 4.02 204 14:52 12.03.2021
1565 Clouds 7 999 90 9032 4.02 226 14:22 12.03.2021
1566 Clouds 6 999 91 9032 4.02 338 13:58 12.03.2021
1567 Clouds 6 999 91 9032 4.02 338 13:58 12.03.2021
1568 Clouds 6 1000 92 9032 4.02 228 13:37 12.03.2021
1569 Rain 7 998 85 10000 2.68 185 13:18 12.03.2021
1570 Rain 7 1000 88 7756 4.47 199 12:48 12.03.2021
1571 Clouds 7 1000 84 10000 4.92 338 12:27 12.03.2021
1572 Rain 7 1001 89 10000 4.47 229 11:54 12.03.2021
1573 Clouds 8 1001 81 10000 5.81 220 11:24 12.03.2021
1574 Clouds 8 1001 82 10000 5.81 248 10:57 12.03.2021
1575 Clear 7 1001 83 10000 4.92 220 10:28 12.03.2021
1576 Clear 7 1001 83 10000 4.92 220 10:28 12.03.2021
1577 Clear 7 1001 83 10000 5.36 244 09:57 12.03.2021
1578 Clear 7 1001 85 10000 5.81 199 09:27 12.03.2021
1579 Clear 6 1002 86 10000 4.92 226 08:50 12.03.2021
1580 Clear 6 1002 87 10000 5.36 224 08:30 12.03.2021
1581 Clear 5 1001 88 10000 5.36 246 07:41 12.03.2021
1582 Clouds 4 1001 89 10000 4.47 241 06:59 12.03.2021
1583 Clouds 5 1001 88 10000 4.02 228 06:29 12.03.2021
1584 Clouds 6 999 87 10000 5.36 260 03:28 12.03.2021
1585 Clouds 6 997 89 10000 4.47 338 00:52 12.03.2021
1586 Clouds 6 996 88 10000 4.47 210 23:40 11.03.2021
1587 Rain 6 996 87 10000 3.58 237 22:58 11.03.2021
1588 Clouds 6 996 87 10000 3.13 220 22:36 11.03.2021
1589 Clouds 6 995 87 10000 3.58 229 21:59 11.03.2021
1590 Clouds 6 995 87 10000 4.02 253 21:41 11.03.2021
1591 Clouds 6 995 88 10000 4.02 230 21:20 11.03.2021
1592 Clouds 6 995 90 10000 2.68 230 20:48 11.03.2021
1593 Rain 6 994 90 10000 3.13 224 20:21 11.03.2021
1594 Clouds 6 994 92 10000 4.02 266 19:48 11.03.2021
1595 Rain 7 994 90 10000 4.02 255 19:30 11.03.2021
1596 Clouds 8 993 81 10000 4.02 338 18:51 11.03.2021
1597 Clouds 8 993 81 10000 4.47 222 18:33 11.03.2021
1598 Clouds 9 992 80 10000 4.92 224 17:50 11.03.2021
1599 Clouds 9 992 78 10000 5.36 230 17:30 11.03.2021
1600 Clouds 9 992 77 10000 7.15 228 16:31 11.03.2021
1601 Clouds 9 991 78 10000 7.15 270 15:55 11.03.2021
1602 Clouds 9 991 80 10000 8.05 338 15:37 11.03.2021
1603 Clouds 9 990 83 10000 8.05 338 15:19 11.03.2021
1604 Clouds 9 989 84 10000 9.39 249 14:38 11.03.2021
1605 Clouds 8 988 85 10000 9.39 251 14:18 11.03.2021
1606 Clouds 8 987 92 10000 8.94 272 13:43 11.03.2021
1607 Rain 8 987 92 10000 8.94 216 13:21 11.03.2021
1608 Rain 8 986 92 10000 7.6 338 12:49 11.03.2021
1609 Rain 8 986 91 10000 8.49 245 12:27 11.03.2021
1610 Rain 10 987 86 10000 8.49 218 11:46 11.03.2021
1611 Rain 11 987 83 10000 8.05 199 11:27 11.03.2021
1612 Clouds 10 987 82 10000 7.15 225 10:50 11.03.2021
1613 Clouds 10 988 82 10000 7.6 225 10:25 11.03.2021
1614 Clouds 10 988 87 10000 7.15 201 09:50 11.03.2021
1615 Clouds 10 988 90 10000 6.71 156 09:32 11.03.2021
1616 Clouds 9 989 92 10000 6.71 338 08:49 11.03.2021
1617 Clouds 8 989 94 10000 6.71 240 08:24 11.03.2021
1618 Rain 8 989 95 10000 5.36 169 07:44 11.03.2021
1619 Clouds 7 990 96 10000 5.36 338 06:54 11.03.2021
1620 Clouds 7 991 97 10000 5.36 238 06:36 11.03.2021
1621 Clouds 7 991 97 10000 4.92 186 06:18 11.03.2021
1622 Rain 6 997 97 8824 4.47 198 02:25 11.03.2021
1623 Rain 6 997 97 8824 4.47 198 02:25 11.03.2021
1624 Clouds 6 999 96 10000 6.71 180 00:23 11.03.2021
1625 Rain 6 1001 94 9500 7.15 200 23:22 10.03.2021
1626 Rain 6 1002 93 9500 7.15 183 22:42 10.03.2021
1627 Rain 6 1003 92 10000 5.36 181 22:21 10.03.2021
1628 Rain 7 1004 90 10000 7.15 202 21:44 10.03.2021
1629 Rain 7 1004 90 10000 7.15 202 21:44 10.03.2021
1630 Rain 7 1004 88 8195 4.92 160 21:22 10.03.2021
1631 Rain 7 1005 83 8195 4.47 174 20:45 10.03.2021
1632 Clouds 7 1005 84 10000 4.92 147 20:27 10.03.2021
1633 Clouds 6 1006 86 10000 4.47 186 19:48 10.03.2021
1634 Rain 6 1007 87 10000 4.92 145 19:27 10.03.2021
1635 Rain 6 1007 88 10000 4.47 142 18:44 10.03.2021
1636 Rain 6 1008 89 10000 4.02 175 18:24 10.03.2021
1637 Rain 6 1008 89 10000 4.47 193 17:55 10.03.2021
1638 Rain 7 1009 90 10000 4.47 184 17:37 10.03.2021
1639 Rain 7 1009 89 10000 3.58 165 17:19 10.03.2021
1640 Rain 7 1010 87 10000 4.47 144 16:42 10.03.2021
1641 Rain 7 1010 85 10000 4.47 338 16:22 10.03.2021
1642 Rain 7 1011 86 10000 4.02 162 15:45 10.03.2021
1643 Clouds 7 1011 86 10000 3.58 187 15:23 10.03.2021
1644 Clouds 7 1012 87 10000 4.02 338 14:48 10.03.2021
1645 Clouds 7 1012 89 10000 3.58 338 14:20 10.03.2021
1646 Clouds 7 1012 89 10000 3.58 338 14:20 10.03.2021
1647 Clouds 7 1013 89 10000 2.68 158 13:51 10.03.2021
1648 Clouds 7 1013 90 10000 3.13 140 13:30 10.03.2021
1649 Clouds 6 1014 90 10000 3.58 178 12:46 10.03.2021
1650 Clouds 6 1014 89 10000 3.58 198 12:19 10.03.2021
1651 Clouds 5 1015 89 10000 3.58 338 11:44 10.03.2021
1652 Clouds 5 1015 89 10000 3.13 151 11:21 10.03.2021
1653 Clouds 5 1015 89 10000 3.13 338 10:49 10.03.2021
1654 Clouds 4 1015 90 10000 3.13 147 10:30 10.03.2021
1655 Clouds 3 1016 92 10000 2.68 338 09:46 10.03.2021
1656 Clouds 3 1016 93 10000 2.68 136 09:27 10.03.2021
1657 Clouds 3 1016 93 10000 2.24 129 08:58 10.03.2021
1658 Clouds 2 1016 94 10000 3.13 140 08:40 10.03.2021
1659 Clouds 2 1017 95 10000 2.24 156 08:21 10.03.2021
1660 Clouds 1 1016 95 10000 2.24 156 07:41 10.03.2021
1661 Clouds 1 1017 95 10000 1.34 129 07:19 10.03.2021
1662 Clouds 1 1017 94 10000 0.89 155 06:46 10.03.2021
1663 Clouds 2 1018 91 10000 0.45 70 02:42 10.03.2021
1664 Clouds 3 1018 89 10000 0.82 115 23:53 09.03.2021
1665 Clouds 3 1018 89 10000 1.14 101 23:27 09.03.2021
1666 Clouds 3 1018 90 10000 1.14 101 22:49 09.03.2021
1667 Clouds 3 1018 90 10000 2.03 87 22:28 09.03.2021
1668 Clouds 3 1018 92 10000 0.45 52 21:57 09.03.2021
1669 Clouds 3 1018 92 10000 0.45 48 21:37 09.03.2021
1670 Clouds 3 1018 92 10000 0.89 34 21:18 09.03.2021
1671 Clouds 3 1018 92 10000 0.89 28 20:43 09.03.2021
1672 Clouds 3 1018 91 10000 0.45 20 20:22 09.03.2021
1673 Clouds 3 1018 92 10000 0.45 17 19:56 09.03.2021
1674 Clouds 3 1018 92 10000 0.45 17 19:29 09.03.2021
1675 Clouds 3 1018 92 10000 2.59 65 18:54 09.03.2021
1676 Clouds 3 1017 92 10000 0.45 14 18:29 09.03.2021
1677 Clouds 4 1017 91 10000 0.89 12 17:58 09.03.2021
1678 Clouds 4 1017 91 10000 0.45 13 17:38 09.03.2021
1679 Clouds 4 1017 90 10000 0.45 13 17:19 09.03.2021
1680 Clouds 4 1017 92 10000 0.89 14 16:40 09.03.2021
1681 Clouds 4 1017 92 10000 0.45 13 16:20 09.03.2021
1682 Clouds 4 1017 92 10000 0.45 13 16:20 09.03.2021
1683 Clouds 4 1017 92 10000 0.45 13 15:47 09.03.2021
1684 Clouds 4 1016 93 10000 0.89 10 15:24 09.03.2021
1685 Clouds 4 1016 95 10000 0.89 2 14:46 09.03.2021
1686 Clouds 4 1016 95 10000 1.34 4 14:24 09.03.2021
1687 Clouds 4 1016 97 10000 1.34 19 13:39 09.03.2021
1688 Clouds 4 1016 97 10000 1.34 3 13:21 09.03.2021
1689 Clouds 4 1016 98 10000 1.34 28 12:46 09.03.2021
1690 Clouds 4 1016 98 10000 1.79 8 12:27 09.03.2021
1691 Clouds 3 1016 98 10000 0.89 44 11:43 09.03.2021
1692 Clouds 3 1016 98 10000 0.89 56 11:22 09.03.2021
1693 Clouds 3 1016 98 10000 0.89 27 10:58 09.03.2021
1694 Clouds 3 1016 98 10000 0.89 30 10:39 09.03.2021
1695 Clouds 3 1016 98 10000 0.89 20 10:20 09.03.2021
1696 Clouds 3 1016 98 10000 0.89 73 09:46 09.03.2021
1697 Clouds 3 1016 98 10000 1.34 74 09:26 09.03.2021
1698 Clouds 2 1016 98 10000 0.45 138 08:57 09.03.2021
1699 Clouds 2 1016 98 10000 1.75 69 08:32 09.03.2021
1700 Clouds 2 1015 98 10000 0.89 142 07:46 09.03.2021
1701 Rain 2 1015 98 8034 1.34 338 07:26 09.03.2021
1702 Rain 2 1015 97 8034 1.34 145 06:55 09.03.2021
1703 Rain 2 1015 97 6438 1.79 153 05:53 09.03.2021
1704 Rain 2 1018 95 1281 2.24 172 01:32 09.03.2021
1705 Rain 2 1018 95 1281 2.24 172 01:32 09.03.2021
1706 Rain 2 1018 95 1127 2.24 172 01:32 09.03.2021
1707 Rain 2 1018 95 1281 2.24 172 01:32 09.03.2021
1708 Rain 2 1018 95 1281 2.24 172 01:31 09.03.2021
1709 Rain 2 1018 95 487 1.79 338 23:58 08.03.2021
1710 Rain 2 1019 95 487 2.68 183 23:39 08.03.2021
1711 Rain 3 1019 95 1979 2.68 338 23:18 08.03.2021
1712 Rain 3 1019 95 1979 2.68 160 22:40 08.03.2021
1713 Rain 3 1019 95 10000 2.24 183 22:21 08.03.2021
1714 Rain 3 1020 95 10000 2.24 182 21:48 08.03.2021
1715 Rain 4 1020 95 10000 1.79 338 21:29 08.03.2021
1716 Rain 4 1020 95 10000 1.79 141 20:40 08.03.2021
1717 Rain 4 1020 94 10000 2.24 151 20:21 08.03.2021
1718 Rain 4 1020 94 10000 1.79 338 19:46 08.03.2021
1719 Rain 4 1020 93 10000 1.34 122 19:24 08.03.2021
1720 Rain 5 1020 92 10000 0.89 135 18:38 08.03.2021
1721 Rain 5 1020 91 10000 0.89 172 18:19 08.03.2021
1722 Rain 6 1020 90 10000 0.89 183 17:46 08.03.2021
1723 Clouds 6 1021 87 10000 1.34 188 17:24 08.03.2021
1724 Clouds 6 1021 82 10000 1.34 216 16:44 08.03.2021
1725 Clouds 6 1021 80 10000 2.24 234 16:25 08.03.2021
1726 Clouds 7 1022 76 10000 2.24 245 15:45 08.03.2021
1727 Clouds 7 1021 69 10000 1.79 338 15:23 08.03.2021
1728 Clouds 7 1022 63 10000 2.24 199 14:22 08.03.2021
1729 Clouds 7 1022 68 10000 1.79 173 13:58 08.03.2021
1730 Clouds 7 1022 66 10000 1.79 172 13:24 08.03.2021
1731 Clouds 7 1023 69 10000 1.34 153 12:59 08.03.2021
1732 Clouds 7 1023 69 10000 2.68 126 12:40 08.03.2021
1733 Clouds 6 1023 70 10000 1.34 85 12:20 08.03.2021
1734 Clouds 6 1023 72 10000 1.34 169 11:37 08.03.2021
1735 Clouds 5 1023 76 10000 1.34 180 11:18 08.03.2021
1736 Clouds 5 1023 84 10000 1.34 338 10:41 08.03.2021
1737 Clouds 4 1023 85 10000 1.34 338 10:19 08.03.2021
1738 Clouds 2 1023 90 10000 1.34 95 09:30 08.03.2021
1739 Clouds 1 1023 95 10000 0.89 92 08:54 08.03.2021
1740 Clouds 0 1023 95 10000 0.45 11 08:27 08.03.2021
1741 Clear -1 1023 92 10000 2.27 93 07:23 08.03.2021
1742 Clear -1 1023 92 10000 2.27 93 06:42 08.03.2021
1743 Clear 1 1022 94 10000 1.83 3 03:37 08.03.2021
1744 Clouds 3 1022 95 10000 2.26 1 00:43 08.03.2021
1745 Clouds 3 1022 95 10000 2.53 5 23:54 07.03.2021
1746 Clouds 3 1022 94 10000 0.89 15 23:28 07.03.2021
1747 Clouds 4 1022 94 10000 2.24 2 22:59 07.03.2021
1748 Rain 4 1022 94 10000 2.24 297 22:41 07.03.2021
1749 Clouds 4 1022 93 10000 2.24 266 22:20 07.03.2021
1750 Rain 4 1022 93 10000 2.24 283 21:42 07.03.2021
1751 Rain 4 1022 92 10000 2.24 287 21:24 07.03.2021
1752 Clouds 4 1022 92 10000 2.24 338 20:46 07.03.2021
1753 Clouds 4 1022 92 10000 1.79 263 20:28 07.03.2021
1754 Clouds 4 1022 91 10000 2.24 257 19:57 07.03.2021
1755 Clouds 4 1022 91 10000 2.24 295 19:38 07.03.2021
1756 Clouds 5 1022 90 10000 2.24 293 19:20 07.03.2021
1757 Clouds 4 1021 89 10000 2.24 338 18:42 07.03.2021
1758 Clouds 4 1021 89 10000 2.68 276 18:19 07.03.2021
1759 Clouds 5 1021 88 10000 3.13 282 17:41 07.03.2021
1760 Clouds 5 1021 87 10000 2.68 232 17:20 07.03.2021
1761 Clouds 5 1020 86 10000 6.55 289 16:58 07.03.2021
1762 Clouds 5 1022 86 10000 3.13 230 16:38 07.03.2021
1763 Clouds 5 1022 85 10000 3.13 256 16:19 07.03.2021
1764 Clouds 5 1022 84 10000 3.58 338 15:43 07.03.2021
1765 Clouds 5 1023 83 10000 2.24 257 15:22 07.03.2021
1766 Clouds 5 1023 83 10000 3.13 255 14:37 07.03.2021
1767 Clouds 5 1023 82 10000 3.58 280 14:19 07.03.2021
1768 Clouds 5 1024 80 10000 3.58 284 13:41 07.03.2021
1769 Clouds 5 1024 79 10000 3.13 266 13:21 07.03.2021
1770 Clouds 5 1024 76 10000 3.58 253 12:46 07.03.2021
1771 Clouds 5 1024 76 10000 3.58 265 12:28 07.03.2021
1772 Clouds 5 1024 76 10000 3.58 265 12:28 07.03.2021
1773 Clouds 5 1025 76 10000 4.02 254 11:49 07.03.2021
1774 Clouds 5 1025 77 10000 3.13 338 11:22 07.03.2021
1775 Clouds 4 1025 78 10000 2.68 272 10:49 07.03.2021
1776 Clouds 4 1025 79 10000 2.68 222 10:30 07.03.2021
1777 Clouds 3 1025 82 10000 2.24 235 09:46 07.03.2021
1778 Clouds 3 1025 81 10000 1.79 249 09:25 07.03.2021
1779 Clouds 3 1026 82 10000 1.79 262 08:46 07.03.2021
1780 Clouds 3 1026 81 10000 1.79 267 08:25 07.03.2021
1781 Clouds 3 1026 82 10000 1.79 338 07:51 07.03.2021
1782 Clouds 2 1028 88 10000 0.89 244 02:43 07.03.2021
1783 Clouds 2 1029 89 10000 1.34 223 01:42 07.03.2021
1784 Clear 2 1029 89 10000 1.34 338 23:56 06.03.2021
1785 Clear 2 1029 91 10000 1.34 266 23:37 06.03.2021
1786 Clear 1 1030 94 10000 0.89 296 22:52 06.03.2021
1787 Clear 1 1030 93 10000 0.45 338 22:30 06.03.2021
1788 Clear 1 1030 92 10000 0.89 338 21:59 06.03.2021
1789 Clear 1 1030 90 10000 0.89 297 21:25 06.03.2021
1790 Clear 2 1031 89 10000 0.45 296 20:59 06.03.2021
1791 Clear 3 1031 88 10000 0.89 297 20:40 06.03.2021
1792 Clear 3 1031 87 10000 0.89 297 19:51 06.03.2021
1793 Clear 3 1031 86 10000 0.45 295 19:25 06.03.2021
1794 Clear 4 1031 84 10000 1.34 296 18:57 06.03.2021
1795 Clear 4 1031 82 10000 0.89 338 18:39 06.03.2021
1796 Clear 4 1031 81 10000 1.34 285 18:20 06.03.2021
1797 Clear 4 1031 79 10000 1.34 311 17:47 06.03.2021
1798 Clear 5 1032 78 10000 2.24 311 17:26 06.03.2021
1799 Clear 5 1032 76 10000 1.34 302 16:53 06.03.2021
1800 Clear 5 1032 76 10000 1.79 322 16:30 06.03.2021
1801 Clouds 6 1032 77 10000 2.24 338 15:55 06.03.2021
1802 Clouds 6 1032 77 10000 2.24 285 15:34 06.03.2021
1803 Clouds 6 1033 79 10000 2.24 301 14:57 06.03.2021
1804 Clouds 6 1033 80 10000 3.13 343 14:31 06.03.2021
1805 Clouds 6 1033 81 10000 2.68 283 13:50 06.03.2021
1806 Clouds 6 1033 82 10000 2.68 301 13:32 06.03.2021
1807 Clouds 6 1034 83 10000 2.68 338 12:58 06.03.2021
1808 Clouds 7 1034 83 10000 2.24 338 12:38 06.03.2021
1809 Clouds 7 1034 83 10000 2.24 338 12:38 06.03.2021
1810 Clouds 6 1034 85 10000 1.79 297 12:18 06.03.2021
1811 Clouds 6 1034 85 10000 1.79 314 11:38 06.03.2021
1812 Clouds 6 1034 88 10000 2.24 266 11:18 06.03.2021
1813 Clouds 5 1034 91 10000 1.79 256 10:42 06.03.2021
1814 Clouds 5 1034 94 10000 1.79 228 09:57 06.03.2021
1815 Clouds 4 1034 94 10000 0.89 279 09:26 06.03.2021
1816 Rain 3 1034 94 10000 1.34 270 08:56 06.03.2021
1817 Clouds 3 1034 94 10000 1.34 273 08:31 06.03.2021
1818 Clouds 2 1034 94 10000 0.89 278 07:56 06.03.2021
1819 Clouds 2 1034 93 10000 1.34 338 07:22 06.03.2021
1820 Clouds 2 1034 94 10000 1.34 268 06:42 06.03.2021
1821 Clouds 1 1033 94 10000 0.89 338 03:49 06.03.2021
1822 Clear 0 1034 94 10000 0.89 307 01:43 06.03.2021
1823 Clear -1 1034 93 10000 2.58 299 00:47 06.03.2021
1824 Clear 0 1033 92 10000 0.45 338 23:51 05.03.2021
1825 Clear 0 1033 92 10000 0.45 338 23:51 05.03.2021
1826 Clear 0 1033 92 10000 0.45 306 23:22 05.03.2021
1827 Clear 0 1033 91 10000 0.45 306 22:45 05.03.2021
1828 Clear 0 1032 94 10000 2.3 319 22:22 05.03.2021
1829 Clear 0 1033 91 10000 0.45 338 21:52 05.03.2021
1830 Clear 0 1033 90 10000 0.45 338 21:33 05.03.2021
1831 Clear 1 1032 89 10000 0.45 307 20:54 05.03.2021
1832 Clear 1 1032 86 10000 0.45 307 20:26 05.03.2021
1833 Clear 1 1032 83 10000 0.45 307 19:56 05.03.2021
1834 Clear 2 1032 80 10000 0.45 306 19:26 05.03.2021
1835 Clear 2 1032 78 10000 0.45 306 18:57 05.03.2021
1836 Clear 3 1031 76 10000 0.89 306 18:39 05.03.2021
1837 Clear 4 1031 74 10000 0.89 307 18:19 05.03.2021
1838 Clear 5 1031 69 10000 1.34 338 17:35 05.03.2021
1839 Clear 6 1030 72 10000 1.79 357 16:49 05.03.2021
1840 Clear 6 1030 68 10000 2.24 297 16:25 05.03.2021
1841 Clear 6 1030 69 10000 2.24 311 15:59 05.03.2021
1842 Clear 6 1030 66 10000 2.68 355 15:40 05.03.2021
1843 Clear 7 1030 64 10000 2.68 338 15:21 05.03.2021
1844 Clear 6 1030 69 10000 1.79 343 14:38 05.03.2021
1845 Clear 6 1030 67 10000 1.79 7 13:59 05.03.2021
1846 Clear 7 1030 67 10000 2.24 357 13:22 05.03.2021
1847 Clear 6 1030 68 10000 2.24 333 12:55 05.03.2021
1848 Clear 6 1030 65 10000 1.79 322 12:23 05.03.2021
1849 Clear 6 1030 67 10000 2.24 338 11:37 05.03.2021
1850 Clear 5 1029 68 10000 1.79 299 11:18 05.03.2021
1851 Clear 5 1029 66 10000 1.79 0 10:41 05.03.2021
1852 Clear 5 1029 66 10000 1.79 350 10:23 05.03.2021
1853 Clear 4 1029 72 10000 1.34 6 09:49 05.03.2021
1854 Clear 4 1029 77 10000 0.45 343 09:27 05.03.2021
1855 Clear 1 1026 81 10000 3.57 11 08:45 05.03.2021
1856 Clear -2 1029 85 10000 2.67 11 08:26 05.03.2021
1857 Clear -1 1028 83 10000 2.69 11 07:55 05.03.2021
1858 Clear -1 1028 81 10000 0.45 17 07:28 05.03.2021
1859 Clear -1 1027 79 10000 1.34 22 06:32 05.03.2021
1860 Clear 1 1026 85 10000 2.24 22 03:34 05.03.2021
1861 Clouds 1 1024 93 10000 0.89 16 00:49 05.03.2021
1862 Clouds 1 1023 93 10000 1.79 8 23:43 04.03.2021
1863 Clouds 1 1023 93 10000 1.79 4 22:55 04.03.2021
1864 Clouds 1 1023 92 10000 1.79 350 22:26 04.03.2021
1865 Clouds 2 1022 91 10000 2.68 4 21:51 04.03.2021
1866 Clouds 3 1022 87 10000 2.68 2 21:29 04.03.2021
1867 Clouds 3 1021 87 10000 1.79 7 20:42 04.03.2021
1868 Clouds 3 1021 87 10000 1.79 10 20:24 04.03.2021
1869 Clouds 3 1021 88 10000 2.68 15 19:58 04.03.2021
1870 Clouds 3 1021 88 10000 3.13 9 19:39 04.03.2021
1871 Clouds 3 1021 89 10000 3.58 5 19:21 04.03.2021
1872 Clouds 4 1020 89 10000 2.68 0 18:45 04.03.2021
1873 Clouds 4 1020 87 10000 3.58 7 18:25 04.03.2021
1874 Clouds 4 1020 88 10000 3.13 357 17:46 04.03.2021
1875 Clouds 4 1019 85 10000 1.79 353 17:28 04.03.2021
1876 Clouds 5 1019 81 10000 2.24 300 16:48 04.03.2021
1877 Clouds 5 1019 81 10000 2.24 354 16:29 04.03.2021
1878 Clouds 5 1019 80 10000 3.13 359 15:50 04.03.2021
1879 Clouds 5 1020 81 10000 2.68 278 15:32 04.03.2021
1880 Clouds 6 1020 81 10000 2.68 338 14:50 04.03.2021
1881 Clouds 6 1020 81 10000 3.13 338 14:31 04.03.2021
1882 Clouds 6 1020 84 10000 2.24 338 13:50 04.03.2021
1883 Clouds 6 1020 84 10000 2.24 348 13:32 04.03.2021
1884 Clouds 6 1020 84 10000 3.13 22 12:58 04.03.2021
1885 Clouds 5 1020 86 10000 3.58 6 12:39 04.03.2021
1886 Clouds 6 1020 89 10000 2.24 318 11:47 04.03.2021
1887 Clouds 5 1020 91 10000 1.79 343 11:26 04.03.2021
1888 Clouds 5 1020 93 10000 2.24 287 10:55 04.03.2021
1889 Clouds 4 1020 93 10000 1.79 282 10:31 04.03.2021
1890 Clouds 4 1021 95 10000 1.34 267 09:47 04.03.2021
1891 Clouds 4 1021 95 10000 1.79 295 09:25 04.03.2021
1892 Clouds 3 1021 96 10000 1.79 278 08:42 04.03.2021
1893 Clouds 3 1021 96 10000 1.34 284 08:22 04.03.2021
1894 Clouds 3 1021 97 10000 1.34 271 07:33 04.03.2021
1895 Clouds 2 1021 97 10000 3.33 311 06:28 04.03.2021
1896 Clouds 2 1022 97 10000 0.89 338 05:42 04.03.2021
1897 Clouds 3 1024 98 10000 1.79 303 01:49 04.03.2021
1898 Clouds 3 1024 97 10000 1.79 290 23:19 03.03.2021
1899 Clear 3 1024 97 10000 1.79 262 22:29 03.03.2021
1900 Clear 3 1025 97 10000 1.79 338 21:57 03.03.2021
1901 Clear 3 1025 97 10000 2.24 264 21:39 03.03.2021
1902 Clear 3 1025 97 10000 1.79 291 21:21 03.03.2021
1903 Clear 3 1025 97 10000 2.24 274 20:43 03.03.2021
1904 Clear 3 1025 97 10000 2.24 265 20:24 03.03.2021
1905 Clear 3 1025 97 10000 1.79 251 19:48 03.03.2021
1906 Clear 3 1025 96 10000 2.68 262 19:29 03.03.2021
1907 Clear 3 1025 96 10000 2.24 257 18:55 03.03.2021
1908 Clear 3 1025 96 10000 2.24 338 18:35 03.03.2021
1909 Clear 3 1025 95 10000 2.24 273 17:58 03.03.2021
1910 Mist 4 1025 100 1200 7.2 280 17:22 03.03.2021
1911 Mist 4 1025 100 1200 7.2 280 16:52 03.03.2021
1912 Mist 4 1025 93 1200 6.69 290 16:27 03.03.2021
1913 Mist 6 1025 100 2500 6.17 270 15:54 03.03.2021
1914 Mist 7 1025 100 2500 6.17 270 15:32 03.03.2021
1915 Mist 8 1025 87 4000 6.69 280 14:50 03.03.2021
1916 Clouds 8 1025 81 7000 6.17 280 14:27 03.03.2021
1917 Clear 10 1024 79 10000 1.34 302 13:46 03.03.2021
1918 Clear 10 1024 80 10000 0.45 268 13:26 03.03.2021
1919 Clear 9 1024 79 10000 1.34 256 12:43 03.03.2021
1920 Clear 10 1024 78 10000 1.34 241 12:23 03.03.2021
1921 Clear 9 1026 89 10000 2.24 338 11:45 03.03.2021
1922 Clear 9 1026 89 10000 2.24 274 11:27 03.03.2021
1923 Clear 8 1026 92 10000 1.79 338 10:46 03.03.2021
1924 Clear 7 1026 93 10000 1.79 232 10:22 03.03.2021
1925 Clear 6 1027 97 10000 1.34 338 09:44 03.03.2021
1926 Clear 4 1024 96 10000 2.53 216 08:57 03.03.2021
1927 Clear 3 1026 93 10000 0.89 50 08:39 03.03.2021
1928 Clear 2 1027 97 10000 1.34 174 08:18 03.03.2021
1929 Fog 1 1026 100 4000 1.03 160 07:39 03.03.2021
1930 Fog 1 1027 100 9000 1.54 170 06:46 03.03.2021
1931 Clear 2 1027 96 10000 0.89 148 05:45 03.03.2021
1932 Clear 3 1028 96 10000 1.34 338 04:50 03.03.2021
1933 Clear 3 1027 96 10000 1.34 147 04:24 03.03.2021
1934 Clear 3 1029 93 10000 0.89 106 00:39 03.03.2021
1935 Clear 5 1029 93 10000 1.34 109 23:53 02.03.2021
1936 Clear 5 1029 91 10000 0.89 110 22:58 02.03.2021
1937 Clear 5 1029 90 10000 0.45 108 22:40 02.03.2021
1938 Clear 5 1030 90 10000 0.45 338 22:18 02.03.2021
1939 Clear 6 1030 88 10000 0.89 108 21:38 02.03.2021
1940 Clear 7 1030 87 10000 0.45 106 21:18 02.03.2021
1941 Clear 5 1030 86 10000 0.89 108 20:44 02.03.2021
1942 Clear 6 1030 86 10000 0.89 110 20:22 02.03.2021
1943 Clear 6 1030 86 10000 0.89 101 19:50 02.03.2021
1944 Clear 6 1030 86 10000 0.89 90 19:32 02.03.2021
1945 Clear 7 1030 84 10000 0.45 65 18:58 02.03.2021
1946 Clear 7 1030 83 10000 0.45 64 18:39 02.03.2021
1947 Clear 8 1030 82 10000 0.45 66 18:20 02.03.2021
1948 Clear 9 1030 80 10000 0.45 56 17:49 02.03.2021
1949 Clear 10 1030 79 10000 0.45 56 17:29 02.03.2021
1950 Clear 11 1030 77 10000 1.34 68 16:49 02.03.2021
1951 Clear 11 1030 76 10000 1.34 74 16:20 02.03.2021
1952 Clear 11 1030 76 10000 1.34 74 16:20 02.03.2021
1953 Clear 11 1030 74 10000 1.79 59 15:48 02.03.2021
1954 Clear 12 1031 72 10000 1.79 71 15:22 02.03.2021
1955 Clear 11 1031 76 10000 1.79 27 14:22 02.03.2021
1956 Clear 11 1031 75 10000 1.34 100 13:49 02.03.2021
1957 Clear 10 1032 80 10000 2.24 73 13:30 02.03.2021
1958 Clear 9 1032 83 10000 1.79 55 12:51 02.03.2021
1959 Clear 9 1032 84 10000 1.34 71 12:29 02.03.2021
1960 Clear 7 1033 88 10000 1.79 81 11:53 02.03.2021
1961 Clear 6 1033 89 10000 1.79 55 11:32 02.03.2021
1962 Clear 6 1033 95 10000 2.24 113 10:57 02.03.2021
1963 Clear 5 1033 94 10000 1.34 249 10:32 02.03.2021
1964 Clear 3 1034 99 10000 1.34 124 09:57 02.03.2021
1965 Clear 3 1034 99 10000 1.79 95 09:39 02.03.2021
1966 Clear 2 1034 99 10000 1.79 68 09:18 02.03.2021
1967 Clear 2 1033 99 10000 1.34 65 08:36 02.03.2021
1968 Clear 2 1033 98 10000 1.79 134 07:52 02.03.2021
1969 Clear 2 1033 98 10000 0.89 85 06:59 02.03.2021
1970 Clear 2 1033 98 10000 1.34 41 05:54 02.03.2021
1971 Clear 2 1033 98 10000 1.34 79 05:34 02.03.2021
1972 Clear 2 1033 98 10000 2.24 88 04:58 02.03.2021
1973 Clear 3 1034 98 10000 1.34 56 01:44 02.03.2021
1974 Clear 3 1034 98 10000 2.24 83 01:23 02.03.2021
1975 Clear 3 1034 98 10000 1.34 85 23:55 01.03.2021
1976 Clear 3 1034 98 10000 1.34 61 23:22 01.03.2021
1977 Clear 3 1034 97 10000 1.79 57 22:40 01.03.2021
1978 Clear 4 1034 97 10000 1.79 70 22:21 01.03.2021
1979 Clear 4 1034 97 10000 0.89 82 21:45 01.03.2021
1980 Clear 4 1034 97 10000 1.34 78 21:23 01.03.2021
1981 Clear 4 1034 97 10000 2.24 75 20:47 01.03.2021
1982 Clear 4 1034 97 10000 1.34 40 20:27 01.03.2021
1983 Clear 4 1034 96 10000 1.34 59 19:53 01.03.2021
1984 Clear 4 1034 96 10000 1.34 52 19:33 01.03.2021
1985 Clear 4 1034 96 10000 1.79 66 18:45 01.03.2021
1986 Clear 4 1034 95 10000 1.79 58 18:24 01.03.2021
1987 Clear 5 1034 95 10000 2.24 48 17:52 01.03.2021
1988 Clear 5 1035 96 10000 1.79 31 17:28 01.03.2021
1989 Clear 6 1035 97 10000 1.79 45 16:59 01.03.2021
1990 Clear 6 1035 97 10000 1.34 24 16:40 01.03.2021
1991 Clear 7 1035 88 10000 0.89 265 16:22 01.03.2021
1992 Clear 6 1035 87 10000 1.34 3 15:39 01.03.2021
1993 Clouds 6 1035 93 7000 3.09 100 15:19 01.03.2021
1994 Mist 6 1035 100 5000 3.09 70 14:44 01.03.2021
1995 Clear 7 1036 88 10000 0.89 307 14:26 01.03.2021
1996 Clear 6 1036 89 10000 1.34 270 13:39 01.03.2021
1997 Clear 6 1036 90 10000 1.79 302 13:20 01.03.2021
1998 Clouds 7 1036 87 10000 3.6 60 12:44 01.03.2021
1999 Clouds 5 1036 93 10000 3.09 70 12:26 01.03.2021
2000 Clouds 6 1036 93 10000 3.6 100 11:58 01.03.2021
2001 Clouds 5 1036 93 10000 3.6 100 11:34 01.03.2021
2002 Clear 4 1036 96 10000 0.89 153 10:44 01.03.2021
2003 Clear 3 1036 99 10000 0.89 88 10:23 01.03.2021
2004 Clear 3 1036 99 10000 0.45 108 09:56 01.03.2021
2005 Clear 3 1036 99 10000 0.45 108 09:38 01.03.2021
2006 Clear 3 1037 99 10000 0.45 108 09:20 01.03.2021
2007 Clear 3 1037 99 10000 0.45 111 08:44 01.03.2021
2008 Clouds 3 1036 99 10000 0.45 113 07:50 01.03.2021
2009 Clear 2 1036 99 10000 1.42 70 06:51 01.03.2021
2010 Clear 2 1037 98 10000 1.34 145 02:49 01.03.2021
2011 Clouds 2 1037 98 10000 1.29 95 00:44 01.03.2021
2012 Clouds 2 1037 98 10000 1.81 46 23:26 28.02.2021
2013 Clouds 2 1037 98 10000 1.81 46 22:45 28.02.2021
2014 Clouds 2 1037 98 10000 1.94 34 22:22 28.02.2021
2015 Clouds 2 1037 98 10000 0.45 34 21:49 28.02.2021
2016 Clouds 2 1037 98 10000 0.45 34 21:27 28.02.2021
2017 Clouds 3 1037 98 10000 0.45 35 20:56 28.02.2021
2018 Clouds 3 1037 98 10000 0.45 34 20:36 28.02.2021
2019 Clouds 3 1037 98 10000 0.45 34 19:47 28.02.2021
2020 Clouds 3 1037 98 10000 0.45 36 19:28 28.02.2021
2021 Clouds 3 1035 96 10000 2.78 15 18:57 28.02.2021
2022 Clouds 3 1035 96 10000 2.78 15 18:57 28.02.2021
2023 Clouds 4 1037 87 10000 1.34 351 18:36 28.02.2021
2024 Clouds 5 1035 96 10000 2.87 1 18:18 28.02.2021
2025 Clouds 3 1037 97 10000 0.89 343 17:45 28.02.2021
2026 Clear 5 1035 94 10000 2.86 346 17:27 28.02.2021
2027 Clear 5 1037 97 10000 1.34 343 16:50 28.02.2021
2028 Clear 6 1037 93 7000 2.06 280 16:30 28.02.2021
2029 Clear 7 1037 100 10000 1.03 0 15:53 28.02.2021
2030 Clear 7 1037 100 10000 1.03 0 15:31 28.02.2021
2031 Clear 7 1038 100 10000 1.03 330 14:59 28.02.2021
2032 Clear 7 1038 100 10000 1.03 330 14:40 28.02.2021
2033 Clear 6 1038 100 550 1.54 270 14:20 28.02.2021
2034 Clear 6 1038 100 550 1.54 270 13:42 28.02.2021
2035 Clouds 4 1038 93 200 2.06 230 13:19 28.02.2021
2036 Clouds 4 1038 93 200 2.06 230 13:19 28.02.2021
2037 Clouds 4 1038 93 200 2.06 230 12:55 28.02.2021
2038 Clouds 4 1038 93 200 2.06 230 12:37 28.02.2021
2039 Clouds 4 1039 100 150 1.54 0 12:19 28.02.2021
2040 Clouds 3 1039 100 150 1.54 0 11:42 28.02.2021
2041 Clouds 3 1039 93 200 1.03 0 11:24 28.02.2021
2042 Clouds 3 1039 93 200 1.03 0 10:52 28.02.2021
2043 Clouds 2 1039 100 100 1.03 0 10:27 28.02.2021
2044 Clouds 1 1039 100 100 1.03 0 09:51 28.02.2021
2045 Clouds 1 1039 100 100 1.03 0 09:32 28.02.2021
2046 Clouds 0 1039 93 100 1.03 300 08:50 28.02.2021
2047 Clouds 0 1037 95 10000 1.62 339 08:31 28.02.2021
2048 Clear 0 1036 95 10000 1.89 326 07:54 28.02.2021
2049 Clouds 1 1036 95 10000 1.33 328 07:36 28.02.2021
2050 Clear 0 1039 98 10000 1.46 324 06:43 28.02.2021
2051 Clear 1 1036 95 10000 1.82 340 05:25 28.02.2021
2052 Clear 0 1039 97 10000 0.89 338 03:44 28.02.2021
2053 Clear 1 1040 97 10000 0.89 286 01:55 28.02.2021
2054 Clear 2 1040 96 10000 0.45 338 00:53 28.02.2021
2055 Clear 3 1040 96 10000 1.49 324 00:34 28.02.2021
2056 Clear 3 1040 95 10000 0.45 286 23:47 27.02.2021
2057 Clear 3 1040 95 10000 2.23 335 23:20 27.02.2021
2058 Clear 4 1040 95 10000 0.45 338 22:49 27.02.2021
2059 Clear 3 1040 95 10000 0.89 284 22:21 27.02.2021
2060 Clear 3 1040 94 10000 2.51 324 21:50 27.02.2021
2061 Clear 3 1040 94 10000 0.45 285 21:32 27.02.2021
2062 Clear 3 1040 94 10000 2.84 325 20:52 27.02.2021
2063 Clear 4 1040 94 10000 2.84 325 20:33 27.02.2021
2064 Clear 4 1040 93 10000 0.89 285 19:48 27.02.2021
2065 Clear 4 1040 92 10000 0.89 284 19:29 27.02.2021
2066 Clear 5 1040 91 10000 0.89 287 18:56 27.02.2021
2067 Clear 5 1040 90 10000 1.34 286 18:36 27.02.2021
2068 Clear 6 1040 88 10000 0.89 286 18:18 27.02.2021
2069 Clear 7 1040 84 10000 1.34 294 17:42 27.02.2021
2070 Clear 7 1040 83 10000 1.79 301 17:19 27.02.2021
2071 Clear 8 1040 82 10000 2.24 301 16:50 27.02.2021
2072 Clear 8 1040 82 10000 1.79 264 16:28 27.02.2021
2073 Clear 9 1040 80 10000 1.79 253 15:46 27.02.2021
2074 Clear 9 1040 80 10000 2.24 266 15:20 27.02.2021
2075 Clear 9 1040 81 10000 2.24 273 14:41 27.02.2021
2076 Clear 9 1040 82 10000 2.24 262 14:22 27.02.2021
2077 Clear 7 1040 84 10000 1.79 246 13:47 27.02.2021
2078 Clear 7 1041 87 10000 2.24 338 13:25 27.02.2021
2079 Clear 6 1040 87 10000 4.12 300 12:49 27.02.2021
2080 Clear 7 1040 71 10000 1.34 287 12:26 27.02.2021
2081 Clear 7 1039 89 10000 3.55 306 11:54 27.02.2021
2082 Clear 6 1038 90 10000 0.45 298 11:31 27.02.2021
2083 Clear 6 1038 92 10000 0.45 268 10:59 27.02.2021
2084 Clear 6 1040 74 10000 2.24 260 10:41 27.02.2021
2085 Clear 6 1040 98 10000 1.34 338 10:18 27.02.2021
2086 Clear 5 1040 98 10000 1.34 264 09:35 27.02.2021
2087 Clear 5 1040 98 10000 1.79 244 08:58 27.02.2021
2088 Clear 4 1040 98 10000 1.79 251 08:39 27.02.2021
2089 Clear 4 1040 98 10000 1.34 222 08:18 27.02.2021
2090 Clear 4 1039 97 10000 1.34 338 07:32 27.02.2021
2091 Clear 4 1038 97 10000 2.24 265 02:56 27.02.2021
2092 Clear 4 1037 96 10000 1.79 277 00:35 27.02.2021
2093 Clear 4 1036 96 10000 1.79 278 23:50 26.02.2021
2094 Clear 4 1036 95 10000 1.34 277 23:25 26.02.2021
2095 Clear 4 1036 95 10000 1.79 284 22:44 26.02.2021
2096 Clear 4 1036 96 10000 1.34 290 22:23 26.02.2021
2097 Clear 4 1036 96 10000 1.34 276 21:39 26.02.2021
2098 Clear 4 1036 95 10000 1.79 235 21:18 26.02.2021
2099 Clear 4 1036 94 10000 1.79 270 20:43 26.02.2021
2100 Clear 4 1035 94 10000 1.79 255 20:20 26.02.2021
2101 Clear 5 1035 93 10000 2.68 275 19:41 26.02.2021
2102 Clear 5 1035 93 10000 2.68 258 19:18 26.02.2021
2103 Clear 5 1035 93 10000 2.24 286 18:41 26.02.2021
2104 Clear 5 1035 92 10000 2.68 249 18:21 26.02.2021
2105 Clear 6 1034 90 10000 2.68 312 17:39 26.02.2021
2106 Clear 6 1034 89 10000 3.13 282 17:21 26.02.2021
2107 Clear 7 1034 88 10000 2.68 295 16:50 26.02.2021
2108 Clear 7 1034 86 10000 3.13 308 16:31 26.02.2021
2109 Clear 8 1034 83 10000 3.13 338 15:57 26.02.2021
2110 Clear 8 1034 82 10000 2.68 333 15:37 26.02.2021
2111 Clear 9 1034 80 10000 3.13 274 15:19 26.02.2021
2112 Clear 9 1034 80 10000 4.02 302 14:44 26.02.2021
2113 Clear 9 1033 81 10000 3.58 338 14:24 26.02.2021
2114 Clear 9 1033 80 10000 3.58 286 13:39 26.02.2021
2115 Clear 9 1033 81 10000 3.58 338 13:20 26.02.2021
2116 Clear 9 1033 79 10000 3.58 338 12:38 26.02.2021
2117 Clear 9 1033 81 10000 2.68 338 11:51 26.02.2021
2118 Clear 9 1033 81 10000 2.68 338 11:51 26.02.2021
2119 Clear 9 1033 84 10000 2.68 338 11:33 26.02.2021
2120 Clear 8 1033 87 10000 3.13 338 10:48 26.02.2021
2121 Clear 7 1032 90 10000 2.68 338 09:56 26.02.2021
2122 Clear 6 1032 92 10000 1.79 338 09:31 26.02.2021
2123 Clear 5 1032 95 10000 1.34 256 08:56 26.02.2021
2124 Clear 4 1032 94 10000 1.34 338 08:25 26.02.2021
2125 Clear 4 1032 94 10000 0.89 268 07:49 26.02.2021
2126 Clouds 5 1031 93 10000 1.34 271 06:36 26.02.2021
2127 Clouds 5 1030 92 10000 0.89 338 05:31 26.02.2021
2128 Clouds 6 1030 92 10000 0.89 338 03:48 26.02.2021
2129 Clouds 6 1030 91 10000 0.89 263 02:35 26.02.2021
2130 Clouds 6 1029 90 10000 2.24 301 00:18 26.02.2021
2131 Clouds 6 1029 90 10000 1.34 285 23:28 25.02.2021
2132 Clouds 6 1029 89 10000 1.79 305 22:50 25.02.2021
2133 Clouds 7 1029 88 10000 1.79 338 22:27 25.02.2021
2134 Clouds 7 1028 87 10000 2.24 295 21:44 25.02.2021
2135 Clouds 7 1028 87 10000 2.68 304 21:26 25.02.2021
2136 Clouds 7 1028 87 10000 2.24 290 20:41 25.02.2021
2137 Clouds 7 1027 86 10000 2.68 302 20:23 25.02.2021
2138 Clouds 7 1027 86 10000 2.68 302 20:23 25.02.2021
2139 Clouds 7 1027 86 10000 2.24 293 19:52 25.02.2021
2140 Clouds 8 1027 86 10000 2.24 301 19:22 25.02.2021
2141 Clouds 8 1027 87 10000 1.79 266 18:58 25.02.2021
2142 Clouds 9 1027 89 10000 2.24 306 18:31 25.02.2021
2143 Clouds 9 1027 88 10000 2.24 338 17:51 25.02.2021
2144 Clouds 10 1026 86 10000 2.24 297 17:29 25.02.2021
2145 Clouds 11 1025 86 10000 3.13 338 16:52 25.02.2021
2146 Clouds 12 1025 86 10000 2.24 273 16:26 25.02.2021
2147 Clouds 12 1024 71 10000 7.2 280 15:36 25.02.2021
2148 Clouds 12 1025 73 10000 3.58 52 15:18 25.02.2021
2149 Clouds 15 1024 58 10000 6.69 250 14:29 25.02.2021
2150 Clouds 16 1024 58 10000 6.69 250 13:57 25.02.2021
2151 Clouds 15 1022 66 10000 1.34 205 13:39 25.02.2021
2152 Clouds 15 1022 67 10000 1.34 264 13:18 25.02.2021
2153 Clouds 15 1022 68 10000 1.79 167 12:23 25.02.2021
2154 Clouds 15 1024 74 10000 3.58 256 11:48 25.02.2021
2155 Clouds 15 1024 75 10000 4.02 215 11:22 25.02.2021
2156 Clouds 14 1024 80 10000 2.24 338 10:47 25.02.2021
2157 Clouds 13 1024 82 10000 2.68 217 10:29 25.02.2021
2158 Clouds 12 1024 85 10000 2.68 208 09:45 25.02.2021
2159 Clouds 11 1024 89 10000 2.68 168 09:19 25.02.2021
2160 Clouds 9 1024 91 10000 2.24 338 08:30 25.02.2021
2161 Clouds 9 1023 92 10000 2.24 167 07:58 25.02.2021
2162 Clouds 9 1023 91 10000 2.24 338 07:38 25.02.2021
2163 Clouds 9 1023 91 10000 2.68 187 06:57 25.02.2021
2164 Clouds 9 1023 88 10000 1.79 182 04:22 25.02.2021
2165 Clouds 10 1024 87 10000 2.24 164 01:42 25.02.2021
2166 Clouds 10 1024 85 10000 1.79 183 00:46 25.02.2021
2167 Clouds 10 1024 85 10000 1.79 172 23:56 24.02.2021
2168 Clouds 10 1024 85 10000 1.79 168 23:35 24.02.2021
2169 Clouds 11 1025 82 10000 1.79 179 22:47 24.02.2021
2170 Clouds 11 1025 82 10000 1.34 185 22:29 24.02.2021
2171 Clouds 12 1025 80 10000 2.24 185 21:49 24.02.2021
2172 Clouds 12 1025 79 10000 2.24 178 21:25 24.02.2021
2173 Clouds 13 1025 78 10000 2.24 170 20:48 24.02.2021
2174 Clouds 13 1025 76 10000 2.24 183 20:26 24.02.2021
2175 Clouds 14 1025 75 10000 2.68 167 19:42 24.02.2021
2176 Clouds 14 1025 75 10000 3.13 191 19:20 24.02.2021
2177 Clouds 14 1024 75 10000 4.54 193 18:50 24.02.2021
2178 Clouds 14 1025 77 10000 3.13 188 18:30 24.02.2021
2179 Clouds 16 1025 63 10000 3.6 200 17:40 24.02.2021
2180 Clouds 16 1024 76 10000 4.92 217 17:22 24.02.2021
2181 Clouds 17 1026 59 10000 4.63 210 16:48 24.02.2021
2182 Clouds 17 1026 59 10000 6.69 220 16:21 24.02.2021
2183 Clouds 17 1026 59 10000 6.69 220 15:50 24.02.2021
2184 Clouds 17 1026 59 10000 6.69 220 15:31 24.02.2021
2185 Clouds 17 1026 55 10000 6.69 230 14:47 24.02.2021
2186 Clouds 17 1026 55 10000 6.69 220 14:28 24.02.2021
2187 Clouds 16 1026 55 10000 6.69 220 13:43 24.02.2021
2188 Clouds 16 1027 59 10000 7.72 210 13:23 24.02.2021
2189 Clouds 16 1027 59 10000 7.72 210 12:58 24.02.2021
2190 Clouds 16 1027 59 10000 7.72 210 12:36 24.02.2021
2191 Clouds 16 1025 69 10000 1.34 210 11:56 24.02.2021
2192 Clouds 15 1025 71 10000 1.79 134 11:33 24.02.2021
2193 Clouds 15 1027 76 10000 4.47 216 10:43 24.02.2021
2194 Clouds 14 1025 76 10000 1.34 237 10:24 24.02.2021
2195 Clouds 12 1027 83 10000 3.13 209 09:30 24.02.2021
2196 Clouds 11 1027 86 10000 3.13 177 08:51 24.02.2021
2197 Clouds 11 1027 88 10000 3.13 191 08:32 24.02.2021
2198 Clouds 10 1027 89 10000 3.13 184 07:42 24.02.2021
2199 Clouds 10 1027 89 10000 2.68 185 07:18 24.02.2021
2200 Clouds 10 1027 88 10000 2.24 191 05:27 24.02.2021
2201 Clouds 11 1027 85 10000 2.68 172 02:22 24.02.2021
2202 Clouds 11 1027 85 10000 2.24 182 23:39 23.02.2021
2203 Clouds 11 1027 87 10000 2.68 338 22:51 23.02.2021
2204 Clouds 11 1028 87 10000 2.24 171 22:23 23.02.2021
2205 Clouds 11 1027 87 10000 2.68 338 21:49 23.02.2021
2206 Clouds 11 1027 86 10000 2.24 183 21:27 23.02.2021
2207 Clouds 11 1027 86 10000 2.24 338 20:59 23.02.2021
2208 Clouds 11 1027 86 10000 1.79 166 20:39 23.02.2021
2209 Clouds 11 1027 86 10000 1.79 338 20:20 23.02.2021
2210 Clouds 11 1028 86 10000 1.34 172 19:46 23.02.2021
2211 Clouds 12 1028 84 10000 1.34 180 19:26 23.02.2021
2212 Clouds 13 1028 81 10000 1.34 338 18:44 23.02.2021
2213 Clouds 14 1028 80 10000 0.89 205 18:26 23.02.2021
2214 Clouds 14 1028 78 10000 1.34 218 17:53 23.02.2021
2215 Clouds 14 1027 77 10000 1.34 214 17:28 23.02.2021
2216 Clouds 16 1027 76 10000 1.79 195 16:47 23.02.2021
2217 Clouds 16 1026 75 10000 2.24 176 16:24 23.02.2021
2218 Clouds 16 1026 75 10000 2.68 194 15:51 23.02.2021
2219 Clouds 16 1027 74 10000 3.58 217 15:33 23.02.2021
2220 Clouds 16 1027 74 10000 4.02 203 14:58 23.02.2021
2221 Clouds 16 1027 74 10000 4.92 231 14:40 23.02.2021
2222 Clouds 16 1025 68 10000 1.34 159 14:19 23.02.2021
2223 Clouds 16 1025 69 10000 1.34 120 13:39 23.02.2021
2224 Clouds 16 1026 77 10000 4.47 338 13:21 23.02.2021
2225 Clouds 15 1027 79 10000 2.68 165 12:49 23.02.2021
2226 Clouds 15 1027 79 10000 3.58 235 12:20 23.02.2021
2227 Clouds 15 1027 76 10000 4.02 183 11:45 23.02.2021
2228 Clouds 14 1027 77 10000 2.68 338 11:20 23.02.2021
2229 Clouds 12 1027 79 10000 2.68 180 10:40 23.02.2021
2230 Clouds 12 1027 82 10000 2.68 171 10:19 23.02.2021
2231 Clouds 10 1027 85 10000 2.68 338 09:42 23.02.2021
2232 Clouds 10 1027 86 10000 2.68 166 09:21 23.02.2021
2233 Clouds 9 1026 89 10000 1.34 167 08:48 23.02.2021
2234 Clouds 8 1026 89 10000 1.79 174 08:21 23.02.2021
2235 Clouds 8 1026 90 10000 1.79 169 07:48 23.02.2021
2236 Clouds 7 1025 91 10000 2.24 170 05:30 23.02.2021
2237 Clouds 7 1025 90 10000 1.34 166 04:32 23.02.2021
2238 Clouds 8 1024 87 10000 1.34 181 02:34 23.02.2021
2239 Clouds 10 1024 82 10000 0.89 182 00:20 23.02.2021
2240 Clouds 10 1024 81 10000 1.34 184 23:47 22.02.2021
2241 Clouds 10 1023 80 10000 1.79 178 23:20 22.02.2021
2242 Clouds 10 1023 79 10000 1.79 183 22:40 22.02.2021
2243 Clouds 10 1022 79 10000 1.79 189 22:20 22.02.2021
2244 Clouds 10 1022 79 10000 1.79 197 21:41 22.02.2021
2245 Clouds 10 1021 80 10000 1.79 180 21:23 22.02.2021
2246 Clouds 11 1021 79 10000 1.79 189 20:51 22.02.2021
2247 Clear 11 1021 80 10000 1.79 180 20:28 22.02.2021
2248 Clear 11 1021 77 10000 1.79 181 19:51 22.02.2021
2249 Clear 11 1021 76 10000 2.24 176 19:33 22.02.2021
2250 Clouds 12 1020 74 10000 1.79 180 18:56 22.02.2021
2251 Clouds 12 1020 73 10000 2.68 185 18:37 22.02.2021
2252 Clear 12 1020 76 10000 2.24 338 18:19 22.02.2021
2253 Clear 14 1018 72 10000 1.79 160 17:26 22.02.2021
2254 Clear 14 1018 70 10000 1.79 187 16:55 22.02.2021
2255 Clear 15 1018 69 10000 2.24 338 16:35 22.02.2021
2256 Clear 15 1018 66 10000 2.68 189 15:47 22.02.2021
2257 Clear 16 1017 67 10000 2.68 191 15:28 22.02.2021
2258 Clear 16 1017 63 10000 3.13 174 14:47 22.02.2021
2259 Clear 16 1017 63 10000 4.02 338 14:28 22.02.2021
2260 Clear 16 1017 53 10000 6.06 199 13:47 22.02.2021
2261 Clouds 14 1016 63 10000 4.02 202 12:58 22.02.2021
2262 Clouds 14 1016 63 10000 3.58 198 12:40 22.02.2021
2263 Clouds 14 1016 65 10000 3.58 338 12:20 22.02.2021
2264 Clouds 14 1016 68 10000 3.58 239 11:42 22.02.2021
2265 Clouds 13 1016 70 10000 3.13 188 11:24 22.02.2021
2266 Clouds 12 1016 75 10000 2.68 180 10:46 22.02.2021
2267 Clouds 11 1016 76 10000 2.24 338 10:26 22.02.2021
2268 Clouds 10 1016 78 10000 2.68 338 09:43 22.02.2021
2269 Clouds 9 1016 79 10000 2.68 338 09:25 22.02.2021
2270 Clouds 8 1015 81 10000 1.79 159 08:50 22.02.2021
2271 Clear 7 1015 81 10000 2.24 166 08:29 22.02.2021
2272 Clear 7 1015 81 10000 2.24 162 07:57 22.02.2021
2273 Clear 6 1015 83 10000 1.79 158 07:26 22.02.2021
2274 Clear 7 1015 81 10000 2.24 139 06:44 22.02.2021
2275 Clear 6 1015 80 10000 2.24 153 05:42 22.02.2021
2276 Clear 6 1014 88 10000 1.79 338 03:29 22.02.2021
2277 Clear 6 1014 88 10000 1.34 133 02:49 22.02.2021
2278 Clear 7 1014 88 10000 1.79 123 00:45 22.02.2021
2279 Clear 7 1014 88 10000 1.79 118 00:22 22.02.2021
2280 Clear 8 1014 87 10000 1.79 126 23:33 21.02.2021
2281 Clear 7 1014 88 10000 1.79 102 22:53 21.02.2021
2282 Clear 7 1014 89 10000 1.34 116 22:23 21.02.2021
2283 Clear 8 1014 87 10000 0.89 131 21:45 21.02.2021
2284 Clear 7 1012 83 10000 2.95 162 21:27 21.02.2021
2285 Clear 10 1014 83 10000 0.89 338 20:44 21.02.2021
2286 Clear 10 1014 83 10000 1.34 127 20:20 21.02.2021
2287 Clear 10 1014 83 10000 1.79 120 19:53 21.02.2021
2288 Clear 10 1014 84 10000 1.79 130 19:33 21.02.2021
2289 Clouds 10 1014 82 10000 0.89 130 18:52 21.02.2021
2290 Clouds 11 1014 79 10000 1.34 133 18:26 21.02.2021
2291 Clouds 11 1014 79 10000 1.34 133 18:26 21.02.2021
2292 Clouds 15 1014 55 8000 1.54 130 17:39 21.02.2021
2293 Clouds 15 1013 48 7000 2.57 170 17:18 21.02.2021
2294 Clouds 15 1013 48 7000 2.57 170 16:43 21.02.2021
2295 Clouds 16 1014 45 6000 3.09 190 16:24 21.02.2021
2296 Clouds 16 1014 45 7000 4.12 200 15:23 21.02.2021
2297 Clouds 16 1013 58 10000 1.79 189 14:56 21.02.2021
2298 Clouds 16 1012 60 10000 0.45 201 14:37 21.02.2021
2299 Clouds 16 1012 61 10000 0.45 134 13:54 21.02.2021
2300 Clouds 14 1014 51 7000 4.63 220 13:29 21.02.2021
2301 Clouds 14 1014 51 7000 4.63 220 13:29 21.02.2021
2302 Clouds 14 1013 72 10000 3.13 185 12:49 21.02.2021
2303 Clouds 14 1014 54 8000 3.09 210 12:26 21.02.2021
2304 Clouds 13 1014 76 10000 2.68 166 11:42 21.02.2021
2305 Clouds 12 1014 79 10000 2.68 175 10:48 21.02.2021
2306 Clouds 11 1013 80 10000 2.68 174 10:22 21.02.2021
2307 Clouds 11 1012 71 10000 4.89 195 09:47 21.02.2021
2308 Clouds 9 1013 76 8000 2.57 190 09:25 21.02.2021
2309 Clouds 10 1011 77 10000 0.45 134 08:43 21.02.2021
2310 Clouds 8 1013 89 10000 2.24 139 08:19 21.02.2021
2311 Clouds 8 1012 87 10000 1.79 149 07:28 21.02.2021
2312 Clouds 8 1012 86 10000 2.24 338 06:45 21.02.2021
2313 Clouds 10 1011 86 10000 2.24 154 02:44 21.02.2021
2314 Clouds 10 1011 86 10000 2.24 119 01:59 21.02.2021
2315 Clouds 11 1011 83 10000 2.24 338 00:36 21.02.2021
2316 Clouds 11 1011 82 10000 2.68 338 00:18 21.02.2021
2317 Clouds 11 1010 80 10000 2.68 150 22:59 20.02.2021
2318 Clouds 11 1010 79 10000 3.13 179 22:38 20.02.2021
2319 Clouds 11 1010 80 10000 2.68 119 21:59 20.02.2021
2320 Clouds 11 1010 80 10000 3.58 162 21:41 20.02.2021
2321 Clouds 11 1010 81 10000 3.13 338 21:18 20.02.2021
2322 Clouds 11 1010 82 10000 2.68 338 20:42 20.02.2021
2323 Clouds 11 1010 83 10000 2.68 123 20:21 20.02.2021
2324 Clouds 11 1010 82 10000 2.68 338 19:49 20.02.2021
2325 Clouds 11 1010 81 10000 2.68 338 19:19 20.02.2021
2326 Clouds 12 1010 80 10000 2.68 338 18:38 20.02.2021
2327 Clouds 12 1010 79 10000 2.24 109 18:19 20.02.2021
2328 Clouds 13 1010 78 10000 2.68 151 17:37 20.02.2021
2329 Clouds 14 1010 78 10000 2.68 155 16:54 20.02.2021
2330 Clouds 14 1011 77 10000 3.13 147 16:32 20.02.2021
2331 Clouds 15 1011 77 10000 3.13 123 15:46 20.02.2021
2332 Clouds 15 1011 77 10000 3.13 147 15:23 20.02.2021
2333 Clouds 15 1011 76 10000 3.58 140 14:46 20.02.2021
2334 Clouds 15 1011 77 10000 4.47 137 14:23 20.02.2021
2335 Clouds 14 1011 76 10000 3.58 188 13:41 20.02.2021
2336 Clouds 15 1011 77 10000 4.02 158 13:23 20.02.2021
2337 Clouds 14 1012 78 10000 3.13 142 12:50 20.02.2021
2338 Clouds 13 1012 79 10000 3.13 168 12:23 20.02.2021
2339 Clouds 13 1012 81 10000 3.13 133 11:44 20.02.2021
2340 Clouds 12 1013 83 10000 3.13 163 11:24 20.02.2021
2341 Clouds 11 1013 88 10000 2.24 163 10:49 20.02.2021
2342 Clouds 10 1013 88 10000 2.68 338 09:55 20.02.2021
2343 Clouds 9 1013 89 10000 1.79 166 09:28 20.02.2021
2344 Clouds 8 1013 91 10000 2.68 157 08:36 20.02.2021
2345 Clouds 7 1013 91 10000 1.79 173 07:57 20.02.2021
2346 Clouds 7 1013 89 10000 1.79 169 03:32 20.02.2021
2347 Clouds 7 1013 88 10000 1.79 338 02:25 20.02.2021
2348 Clouds 7 1013 88 10000 2.24 168 01:49 20.02.2021
2349 Clouds 8 1013 87 10000 1.79 141 00:45 20.02.2021
2350 Clouds 8 1013 86 10000 2.24 139 00:20 20.02.2021
2351 Clouds 8 1013 86 10000 2.24 128 23:19 19.02.2021
2352 Clouds 8 1013 86 10000 2.24 156 22:28 19.02.2021
2353 Clouds 8 1013 86 10000 2.68 338 21:58 19.02.2021
2354 Clouds 8 1013 85 10000 2.24 148 21:32 19.02.2021
2355 Clouds 8 1013 85 10000 2.68 185 20:58 19.02.2021
2356 Clouds 8 1013 85 10000 2.68 185 20:40 19.02.2021
2357 Clouds 8 1013 85 10000 2.68 154 20:22 19.02.2021
2358 Clouds 8 1013 86 10000 3.13 175 19:41 19.02.2021
2359 Clouds 8 1013 87 10000 2.24 159 19:19 19.02.2021
2360 Clouds 8 1013 86 10000 2.68 156 18:42 19.02.2021
2361 Clouds 8 1014 86 10000 2.24 147 18:23 19.02.2021
2362 Clouds 9 1014 85 10000 2.68 148 17:24 19.02.2021
2363 Clouds 9 1014 84 10000 3.58 338 16:40 19.02.2021
2364 Clouds 9 1014 84 10000 3.13 180 16:21 19.02.2021
2365 Clouds 10 1014 82 10000 3.13 129 15:49 19.02.2021
2366 Clouds 10 1014 80 10000 3.13 174 15:27 19.02.2021
2367 Clouds 10 1014 77 10000 3.13 193 14:46 19.02.2021
2368 Clouds 10 1014 78 10000 3.13 183 14:26 19.02.2021
2369 Clouds 10 1014 77 10000 3.58 338 13:53 19.02.2021
2370 Clouds 10 1014 81 10000 4.02 170 13:30 19.02.2021
2371 Clouds 9 1015 83 10000 3.13 175 12:52 19.02.2021
2372 Clear 9 1015 86 10000 4.02 190 12:25 19.02.2021
2373 Clear 8 1015 88 10000 2.24 338 11:54 19.02.2021
2374 Clear 7 1015 91 10000 3.13 193 11:26 19.02.2021
2375 Clear 6 1015 93 10000 2.68 171 10:55 19.02.2021
2376 Clear 6 1015 96 10000 2.24 197 10:32 19.02.2021
2377 Clear 5 1015 97 10000 3.13 338 09:52 19.02.2021
2378 Clear 5 1015 97 10000 3.58 218 09:27 19.02.2021
2379 Clear 5 1015 97 10000 3.58 218 09:27 19.02.2021
2380 Clear 4 1015 97 10000 2.68 338 08:55 19.02.2021
2381 Clear 3 1014 97 10000 2.24 214 08:28 19.02.2021
2382 Clear 3 1014 97 10000 2.24 195 07:54 19.02.2021
2383 Clear 3 1013 96 10000 2.24 338 07:35 19.02.2021
2384 Clear 3 1013 96 10000 2.24 205 06:58 19.02.2021
2385 Clear 3 1013 95 10000 2.68 205 06:29 19.02.2021
2386 Clear 4 1011 95 10000 2.24 228 04:41 19.02.2021
2387 Clear 5 1009 95 10000 2.68 218 01:49 19.02.2021
2388 Clouds 5 1008 95 10000 2.68 338 00:59 19.02.2021
2389 Clouds 6 1008 96 10000 2.68 225 00:26 19.02.2021
2390 Clouds 6 1007 96 10000 3.13 218 23:43 18.02.2021
2391 Clouds 6 1006 96 10000 3.13 338 23:25 18.02.2021
2392 Rain 6 1006 95 10000 2.24 237 22:36 18.02.2021
2393 Rain 6 1005 95 10000 2.24 246 22:18 18.02.2021
2394 Rain 7 1004 94 10000 4.02 338 21:37 18.02.2021
2395 Rain 8 1004 96 6440 3.58 250 21:19 18.02.2021
2396 Rain 8 1003 96 6440 2.68 176 20:39 18.02.2021
2397 Rain 8 1003 95 8006 3.58 210 20:20 18.02.2021
2398 Rain 8 1003 93 8006 2.24 156 19:43 18.02.2021
2399 Rain 8 1003 91 10000 3.13 168 19:19 18.02.2021
2400 Rain 9 1003 85 10000 2.68 338 18:48 18.02.2021
2401 Clouds 9 1003 82 10000 3.58 143 18:26 18.02.2021
2402 Clouds 9 1003 82 10000 3.13 128 17:46 18.02.2021
2403 Clouds 9 1004 82 10000 2.68 146 17:24 18.02.2021
2404 Clouds 9 1004 81 10000 3.58 156 16:46 18.02.2021
2405 Clouds 9 1004 81 10000 3.58 140 16:28 18.02.2021
2406 Clouds 10 1005 80 10000 4.02 136 15:42 18.02.2021
2407 Clouds 10 1005 80 10000 3.13 338 15:23 18.02.2021
2408 Clouds 10 1006 80 10000 4.02 162 14:52 18.02.2021
2409 Clouds 10 1006 81 10000 3.13 121 14:32 18.02.2021
2410 Clouds 10 1007 82 10000 3.13 157 13:50 18.02.2021
2411 Clouds 10 1007 82 10000 3.13 157 13:50 18.02.2021
2412 Clouds 10 1007 81 10000 3.58 123 13:22 18.02.2021
2413 Clouds 10 1008 80 10000 4.47 181 12:55 18.02.2021
2414 Clouds 10 1008 81 10000 4.02 144 12:31 18.02.2021
2415 Clouds 10 1009 86 10000 2.68 134 11:47 18.02.2021
2416 Clouds 10 1009 86 10000 2.68 134 11:47 18.02.2021
2417 Clouds 10 1010 85 10000 3.13 141 11:28 18.02.2021
2418 Clouds 9 1010 87 10000 3.13 131 10:58 18.02.2021
2419 Clouds 8 1010 88 10000 2.68 122 10:37 18.02.2021
2420 Clouds 8 1011 88 10000 2.68 119 10:19 18.02.2021
2421 Clouds 7 1011 90 10000 3.13 147 09:31 18.02.2021
2422 Clouds 7 1012 92 10000 2.24 338 08:59 18.02.2021
2423 Clouds 7 1012 92 10000 3.13 162 08:31 18.02.2021
2424 Clouds 7 1012 94 10000 2.68 159 07:49 18.02.2021
2425 Clouds 7 1012 94 10000 2.24 143 07:30 18.02.2021
2426 Clouds 7 1013 94 10000 1.79 161 06:20 18.02.2021
2427 Clouds 8 1014 96 10000 2.24 168 00:53 18.02.2021
2428 Clouds 8 1014 97 10000 1.79 174 23:47 17.02.2021
2429 Clouds 8 1014 97 10000 2.68 179 23:20 17.02.2021
2430 Clouds 8 1014 97 10000 2.24 176 22:44 17.02.2021
2431 Clouds 8 1014 97 10000 2.24 178 22:22 17.02.2021
2432 Clouds 8 1014 97 10000 2.24 195 21:46 17.02.2021
2433 Clouds 7 1014 97 10000 2.24 201 21:21 17.02.2021
2434 Clouds 8 1014 97 10000 2.24 161 20:44 17.02.2021
2435 Clouds 8 1014 97 10000 2.24 178 20:25 17.02.2021
2436 Clouds 8 1014 97 10000 2.24 170 19:41 17.02.2021
2437 Clouds 8 1014 96 10000 1.79 338 19:22 17.02.2021
2438 Clouds 8 1014 96 10000 3.13 178 18:41 17.02.2021
2439 Clouds 8 1014 95 10000 2.24 338 18:22 17.02.2021
2440 Clouds 8 1013 95 10000 2.68 177 17:40 17.02.2021
2441 Clouds 8 1013 94 10000 2.24 338 17:18 17.02.2021
2442 Clouds 8 1013 93 10000 1.79 169 16:43 17.02.2021
2443 Clouds 8 1013 93 10000 2.24 172 16:22 17.02.2021
2444 Clouds 8 1013 92 10000 2.24 190 15:44 17.02.2021
2445 Clouds 8 1013 93 10000 2.24 185 15:23 17.02.2021
2446 Clouds 9 1014 94 10000 2.24 183 14:46 17.02.2021
2447 Clouds 8 1014 94 10000 2.24 216 14:28 17.02.2021
2448 Clouds 8 1014 95 10000 2.68 338 13:45 17.02.2021
2449 Clouds 8 1014 96 10000 2.24 173 13:27 17.02.2021
2450 Clouds 7 1014 97 10000 2.24 199 12:47 17.02.2021
2451 Clouds 7 1014 97 10000 2.68 207 12:23 17.02.2021
2452 Clouds 7 1014 97 10000 3.13 232 11:44 17.02.2021
2453 Clouds 7 1014 97 10000 3.13 213 11:20 17.02.2021
2454 Clouds 6 1013 97 10000 3.13 338 10:46 17.02.2021
2455 Clouds 6 1013 97 10000 2.68 338 10:26 17.02.2021
2456 Clouds 6 1013 97 10000 2.24 338 09:52 17.02.2021
2457 Clouds 6 1013 98 10000 2.24 222 09:29 17.02.2021
2458 Clouds 6 1012 98 10000 2.68 233 08:45 17.02.2021
2459 Clouds 6 1012 98 10000 2.24 338 08:22 17.02.2021
2460 Clouds 6 1011 98 10000 2.68 214 07:34 17.02.2021
2461 Clouds 6 1011 98 10000 3.13 338 06:36 17.02.2021
2462 Clouds 6 1009 98 10000 3.13 218 03:47 17.02.2021
2463 Clouds 6 1009 98 10000 3.13 187 02:30 17.02.2021
2464 Rain 5 1008 98 10000 2.24 221 01:33 17.02.2021
2465 Rain 6 1008 97 10000 3.13 238 00:25 17.02.2021
2466 Rain 6 1007 97 10000 3.58 237 23:38 16.02.2021
2467 Clouds 5 1007 96 10000 2.68 207 22:46 16.02.2021
2468 Clouds 5 1007 95 9102 1.79 178 22:26 16.02.2021
2469 Clouds 6 1007 95 9102 1.79 176 21:59 16.02.2021
2470 Rain 5 1007 93 9102 1.79 180 21:39 16.02.2021
2471 Clouds 6 1007 92 10000 2.24 170 21:21 16.02.2021
2472 Clouds 6 1007 92 10000 1.79 170 20:50 16.02.2021
2473 Clouds 6 1007 92 10000 1.79 338 20:24 16.02.2021
2474 Clouds 6 1007 91 10000 2.24 166 19:49 16.02.2021
2475 Clouds 6 1008 91 10000 2.24 164 19:29 16.02.2021
2476 Clouds 5 1008 91 10000 1.79 150 18:53 16.02.2021
2477 Clouds 6 1008 91 10000 2.24 338 18:26 16.02.2021
2478 Clouds 6 1008 90 10000 2.24 172 17:58 16.02.2021
2479 Clouds 6 1008 91 10000 2.24 338 17:38 16.02.2021
2480 Clouds 6 1008 91 10000 2.24 179 17:20 16.02.2021
2481 Clouds 6 1009 91 10000 1.79 189 16:44 16.02.2021
2482 Clouds 6 1009 92 10000 2.24 338 16:21 16.02.2021
2483 Clouds 6 1010 94 10000 2.68 338 15:42 16.02.2021
2484 Clouds 6 1010 95 10000 2.24 180 15:24 16.02.2021
2485 Clouds 6 1011 97 10000 2.68 189 14:42 16.02.2021
2486 Clouds 6 1011 99 10000 2.68 180 14:24 16.02.2021
2487 Clouds 6 1010 99 10000 2.68 142 13:47 16.02.2021
2488 Clouds 6 1011 99 10000 2.68 102 13:24 16.02.2021
2489 Clouds 6 1012 100 10000 3.58 181 12:43 16.02.2021
2490 Clouds 5 1012 100 10000 3.58 338 12:20 16.02.2021
2491 Clouds 4 1013 100 10000 3.13 172 11:44 16.02.2021
2492 Clouds 4 1014 100 235 2.24 159 11:22 16.02.2021
2493 Clouds 4 1014 100 235 3.13 143 10:50 16.02.2021
2494 Clouds 4 1015 100 235 3.13 187 10:31 16.02.2021
2495 Clouds 4 1015 100 153 2.68 160 09:56 16.02.2021
2496 Clouds 3 1016 99 153 3.13 176 09:29 16.02.2021
2497 Rain 3 1016 100 153 2.68 179 08:58 16.02.2021
2498 Rain 3 1016 100 153 2.24 158 08:38 16.02.2021
2499 Rain 3 1016 100 190 1.79 338 08:18 16.02.2021
2500 Clouds 3 1016 99 9797 2.24 173 07:19 16.02.2021
2501 Clouds 3 1018 99 216 1.79 338 04:33 16.02.2021
2502 Clouds 3 1020 99 179 1.34 186 00:44 16.02.2021
2503 Clouds 2 1020 98 143 1.34 201 23:31 15.02.2021
2504 Clouds 3 1019 98 172 1.34 338 22:59 15.02.2021
2505 Clouds 3 1019 98 172 1.34 212 22:41 15.02.2021
2506 Clouds 3 1020 98 825 1.79 201 21:59 15.02.2021
2507 Clouds 3 1019 98 825 1.34 202 21:38 15.02.2021
2508 Clouds 3 1019 98 245 1.79 195 21:19 15.02.2021
2509 Clouds 2 1019 98 245 1.79 338 20:45 15.02.2021
2510 Clouds 2 1019 98 154 1.79 199 20:24 15.02.2021
2511 Clouds 2 1019 98 154 1.34 199 19:44 15.02.2021
2512 Clouds 2 1019 98 258 1.79 193 19:22 15.02.2021
2513 Clouds 2 1019 98 150 2.24 201 18:44 15.02.2021
2514 Clouds 2 1019 98 386 2.24 191 18:26 15.02.2021
2515 Rain 2 1019 97 386 2.24 229 17:42 15.02.2021
2516 Rain 2 1019 97 5412 2.24 191 17:22 15.02.2021
2517 Rain 2 1018 97 5412 2.24 220 16:55 15.02.2021
2518 Rain 1 1018 97 10000 2.68 338 16:27 15.02.2021
2519 Clouds 1 1019 96 10000 3.13 172 15:51 15.02.2021
2520 Snow 1 1019 96 10000 3.13 187 15:23 15.02.2021
2521 Snow 1 1019 95 10000 2.68 198 14:55 15.02.2021
2522 Snow 1 1019 95 10000 3.13 338 14:36 15.02.2021
2523 Rain 1 1019 94 5400 2.68 159 14:18 15.02.2021
2524 Snow 0 1020 93 5400 2.68 338 13:45 15.02.2021
2525 Rain 0 1021 91 7056 3.13 135 13:19 15.02.2021
2526 Snow 1 1021 90 7056 2.24 168 12:44 15.02.2021
2527 Snow 1 1021 90 10000 3.13 190 12:20 15.02.2021
2528 Snow 1 1022 87 10000 4.47 136 11:42 15.02.2021
2529 Snow 1 1021 83 2452 4.47 178 11:19 15.02.2021
2530 Snow 1 1022 79 2452 4.02 172 10:47 15.02.2021
2531 Clouds 1 1023 75 10000 4.47 151 10:24 15.02.2021
2532 Clouds 1 1022 75 10000 4.02 338 09:55 15.02.2021
2533 Clouds 1 1023 75 10000 4.92 112 09:33 15.02.2021
2534 Snow 1 1024 76 3256 4.92 159 08:45 15.02.2021
2535 Snow 1 1024 63 10000 4.02 180 07:40 15.02.2021
2536 Clouds 0 1025 56 10000 3.58 159 06:58 15.02.2021
2537 Clouds 0 1025 55 10000 4.02 133 06:37 15.02.2021
2538 Clouds -1 1029 62 10000 3.13 147 02:30 15.02.2021
2539 Snow 0 1030 63 3662 3.13 169 00:45 15.02.2021
2540 Snow 0 1031 59 4057 3.58 142 23:41 14.02.2021
2541 Clouds 0 1031 59 10000 3.58 172 23:22 14.02.2021
2542 Clouds 0 1031 61 10000 3.58 338 22:38 14.02.2021
2543 Clouds 0 1031 60 10000 3.13 120 22:19 14.02.2021
2544 Clouds 0 1032 62 10000 2.68 167 21:48 14.02.2021
2545 Clouds 0 1032 63 10000 3.13 168 21:29 14.02.2021
2546 Clouds -1 1032 63 10000 3.13 135 20:46 14.02.2021
2547 Clouds -1 1032 64 10000 3.58 164 20:26 14.02.2021
2548 Clouds -1 1033 65 10000 3.58 101 19:47 14.02.2021
2549 Clouds -1 1034 64 10000 2.68 128 18:52 14.02.2021
2550 Clouds -1 1034 64 10000 2.68 113 18:34 14.02.2021
2551 Clouds 0 1034 64 10000 2.68 120 17:56 14.02.2021
2552 Clouds 0 1034 63 10000 2.68 124 17:36 14.02.2021
2553 Clouds 0 1034 61 10000 3.13 152 16:55 14.02.2021
2554 Clouds 1 1035 58 10000 3.13 140 16:29 14.02.2021
2555 Clouds 1 1035 59 10000 2.68 147 15:49 14.02.2021
2556 Clouds 1 1036 58 10000 3.13 140 15:31 14.02.2021
2557 Clouds 2 1036 56 10000 3.58 149 14:49 14.02.2021
2558 Clouds 1 1035 60 10000 1.34 134 14:27 14.02.2021
2559 Clouds 1 1035 61 10000 1.34 136 13:53 14.02.2021
2560 Clouds 1 1036 63 10000 1.34 148 13:30 14.02.2021
2561 Clouds 0 1038 63 10000 3.13 338 12:44 14.02.2021
2562 Clouds -1 1038 67 10000 2.68 338 12:20 14.02.2021
2563 Clouds -1 1038 70 10000 3.13 155 11:50 14.02.2021
2564 Clouds -1 1038 70 10000 3.13 155 11:50 14.02.2021
2565 Clouds -2 1038 75 10000 2.68 137 11:21 14.02.2021
2566 Clouds -4 1039 78 10000 2.24 338 10:39 14.02.2021
2567 Clear -5 1039 81 10000 3.13 123 09:57 14.02.2021
2568 Clear -6 1039 82 10000 1.34 110 09:38 14.02.2021
2569 Clear -7 1039 86 10000 2.68 153 09:20 14.02.2021
2570 Clear -9 1040 89 10000 2.24 124 08:39 14.02.2021
2571 Clear -9 1040 89 10000 1.79 117 07:56 14.02.2021
2572 Clouds -9 1040 89 10000 1.79 122 06:49 14.02.2021
2573 Clouds -9 1040 89 10000 1.79 122 05:42 14.02.2021
2574 Clouds -8 1040 90 10000 1.79 338 03:31 14.02.2021
2575 Clear -7 1040 87 10000 1.34 114 01:57 14.02.2021
2576 Clouds -7 1040 87 10000 1.79 104 00:47 14.02.2021
2577 Clear -7 1040 86 10000 0.89 128 00:26 14.02.2021
2578 Clear -7 1041 86 10000 1.34 140 23:40 13.02.2021
2579 Clear -6 1041 86 10000 1.34 120 23:20 13.02.2021
2580 Clear -6 1041 85 10000 0.89 131 22:42 13.02.2021
2581 Clear -6 1041 84 10000 1.79 113 22:19 13.02.2021
2582 Clear -5 1041 82 10000 1.79 135 21:42 13.02.2021
2583 Clear -5 1041 81 10000 1.34 109 20:55 13.02.2021
2584 Clear -5 1041 80 10000 2.68 93 20:30 13.02.2021
2585 Clear -5 1041 80 10000 2.68 93 20:30 13.02.2021
2586 Clear -5 1041 79 10000 2.24 122 19:56 13.02.2021
2587 Clear -5 1041 65 10000 1.79 257 19:37 13.02.2021
2588 Clear -4 1041 80 10000 1.79 108 19:18 13.02.2021
2589 Clear -4 1041 80 10000 1.34 113 18:40 13.02.2021
2590 Clear -3 1041 79 10000 1.34 100 18:20 13.02.2021
2591 Clear -2 1041 46 8000 3.09 120 17:42 13.02.2021
2592 Clear -2 1041 75 10000 1.34 100 17:22 13.02.2021
2593 Clear -1 1041 47 8000 3.09 120 16:42 13.02.2021
2594 Clear -1 1041 71 10000 2.24 338 16:20 13.02.2021
2595 Clear -1 1042 69 10000 3.13 164 15:34 13.02.2021
2596 Clear -1 1042 65 10000 1.79 86 14:57 13.02.2021
2597 Clear -1 1042 66 10000 1.79 70 14:32 13.02.2021
2598 Clear -1 1042 68 10000 1.79 134 13:48 13.02.2021
2599 Clear -2 1040 68 10000 2.27 134 13:24 13.02.2021
2600 Clear -2 1042 69 10000 1.34 95 12:46 13.02.2021
2601 Clear -3 1040 72 10000 2.44 131 12:19 13.02.2021
2602 Clear -3 1042 75 10000 1.34 59 11:45 13.02.2021
2603 Clear -3 1042 78 10000 0.89 158 11:20 13.02.2021
2604 Clear -4 1042 79 10000 1.79 99 10:46 13.02.2021
2605 Clear -6 1042 80 10000 1.34 118 10:25 13.02.2021
2606 Clear -5 1042 81 10000 1.34 111 09:56 13.02.2021
2607 Clear -6 1040 84 10000 2.38 127 09:30 13.02.2021
2608 Clear -9 1042 91 10000 1.34 109 08:59 13.02.2021
2609 Clear -9 1042 91 10000 1.34 107 08:39 13.02.2021
2610 Clear -9 1042 92 10000 0.89 111 07:52 13.02.2021
2611 Clear -11 1042 92 10000 0.89 59 06:41 13.02.2021
2612 Clear -9 1042 90 10000 2.43 108 05:27 13.02.2021
2613 Clear -10 1041 87 10000 2.52 106 03:58 13.02.2021
2614 Clear -8 1041 83 10000 0.45 60 01:49 13.02.2021
2615 Clear -7 1041 80 10000 0.45 61 00:51 13.02.2021
2616 Clear -7 1040 79 10000 1.34 60 23:54 12.02.2021
2617 Clear -7 1040 80 10000 0.89 58 23:28 12.02.2021
2618 Clear -7 1040 79 10000 0.89 59 22:45 12.02.2021
2619 Clear -7 1040 79 10000 1.34 64 22:26 12.02.2021
2620 Clear -6 1040 80 10000 1.34 43 21:50 12.02.2021
2621 Clear -6 1040 80 10000 1.34 41 21:29 12.02.2021
2622 Clear -6 1040 81 10000 1.34 76 20:55 12.02.2021
2623 Clear -6 1040 81 10000 1.34 73 20:37 12.02.2021
2624 Clear -6 1040 80 10000 1.79 23 20:18 12.02.2021
2625 Clear -5 1039 78 10000 1.34 42 19:43 12.02.2021
2626 Clear -5 1039 78 10000 1.34 63 19:25 12.02.2021
2627 Clear -4 1039 76 10000 2.24 37 18:30 12.02.2021
2628 Clear -4 1038 75 10000 1.79 66 17:47 12.02.2021
2629 Clear -3 1038 72 10000 2.24 62 17:22 12.02.2021
2630 Clear -2 1038 72 10000 2.24 86 16:36 12.02.2021
2631 Clear -2 1038 68 10000 2.68 133 15:47 12.02.2021
2632 Clear -1 1038 68 10000 2.24 69 15:21 12.02.2021
2633 Clear -1 1038 68 10000 2.24 69 15:21 12.02.2021
2634 Clear -1 1038 67 10000 2.68 67 14:43 12.02.2021
2635 Clear -1 1038 66 10000 2.68 91 14:24 12.02.2021
2636 Clear -1 1038 69 10000 2.68 49 13:41 12.02.2021
2637 Clear -1 1038 68 10000 2.68 87 13:22 12.02.2021
2638 Clear -3 1035 73 10000 0.45 33 12:49 12.02.2021
2639 Clear -2 1038 71 10000 2.68 27 12:31 12.02.2021
2640 Clear -3 1038 75 10000 2.24 56 11:43 12.02.2021
2641 Clear -3 1037 77 10000 1.79 52 11:20 12.02.2021
2642 Clear -4 1037 80 10000 3.13 39 10:46 12.02.2021
2643 Clear -4 1037 84 10000 2.68 45 09:52 12.02.2021
2644 Clear -5 1037 85 10000 2.68 58 09:29 12.02.2021
2645 Clear -6 1037 89 10000 2.24 54 08:57 12.02.2021
2646 Clear -8 1037 90 10000 1.34 41 08:39 12.02.2021
2647 Clear -8 1037 90 10000 0.89 72 08:18 12.02.2021
2648 Clear -8 1037 90 10000 1.34 39 07:50 12.02.2021
2649 Clear -7 1036 89 10000 1.34 49 06:57 12.02.2021
2650 Clear -7 1036 90 10000 1.79 52 05:49 12.02.2021
2651 Clear -7 1036 89 10000 1.79 47 05:24 12.02.2021
2652 Clear -6 1035 92 10000 1.34 62 01:56 12.02.2021
2653 Clouds -6 1034 89 10000 1.79 16 23:44 11.02.2021
2654 Clouds -6 1034 88 10000 1.34 49 23:22 11.02.2021
2655 Clouds -5 1033 87 10000 0.89 32 22:58 11.02.2021
2656 Clouds -5 1033 86 10000 0.89 33 22:39 11.02.2021
2657 Clouds -5 1033 85 10000 0.89 27 22:21 11.02.2021
2658 Clouds -4 1033 84 10000 0.89 49 21:39 11.02.2021
2659 Clouds -4 1033 83 10000 0.89 54 21:20 11.02.2021
2660 Clouds -4 1033 81 10000 1.34 41 20:46 11.02.2021
2661 Clouds -3 1032 80 10000 1.79 54 20:22 11.02.2021
2662 Clouds -4 1033 80 10000 1.34 21 19:50 11.02.2021
2663 Clouds -4 1032 80 10000 1.34 62 19:31 11.02.2021
2664 Clouds -4 1032 81 10000 1.34 0 18:58 11.02.2021
2665 Clouds -3 1032 80 10000 1.79 26 18:30 11.02.2021
2666 Clouds -3 1031 80 10000 1.34 25 17:55 11.02.2021
2667 Clouds -3 1032 61 10000 2.24 153 17:36 11.02.2021
2668 Clouds -1 1031 80 10000 1.79 14 17:18 11.02.2021
2669 Clouds -1 1031 76 10000 1.79 351 16:41 11.02.2021
2670 Clouds -1 1031 75 10000 1.79 354 16:22 11.02.2021
2671 Clouds 0 1031 74 10000 1.34 355 15:44 11.02.2021
2672 Clouds 1 1031 72 10000 0.89 352 15:26 11.02.2021
2673 Clouds 0 1030 70 10000 0.89 333 14:47 11.02.2021
2674 Clouds 1 1030 70 10000 0.89 333 14:29 11.02.2021
2675 Clouds 0 1030 69 10000 1.34 359 13:41 11.02.2021
2676 Clouds 1 1030 70 10000 0.45 163 13:19 11.02.2021
2677 Clouds 0 1030 68 10000 0.89 164 12:53 11.02.2021
2678 Clouds 0 1030 71 10000 0.89 169 12:30 11.02.2021
2679 Clouds 0 1030 76 10000 1.34 189 11:47 11.02.2021
2680 Clouds -1 1030 79 10000 1.34 196 11:25 11.02.2021
2681 Clouds -1 1030 84 10000 1.34 165 10:45 11.02.2021
2682 Clouds -2 1030 88 10000 0.45 47 10:26 11.02.2021
2683 Clouds -3 1030 91 10000 0.45 13 09:55 11.02.2021
2684 Clouds -5 1030 93 10000 0.45 66 09:24 11.02.2021
2685 Clouds -6 1027 86 10000 0.45 66 08:55 11.02.2021
2686 Clouds -6 1027 86 10000 0.45 66 08:55 11.02.2021
2687 Clouds -5 1026 86 10000 0.45 66 08:30 11.02.2021
2688 Clouds -6 1026 86 10000 0.47 38 07:39 11.02.2021
2689 Clouds -6 1028 89 10000 0.72 30 06:42 11.02.2021
2690 Clouds -6 1028 87 10000 1.22 31 05:44 11.02.2021
2691 Clear -3 1026 76 10000 1.34 17 02:43 11.02.2021
2692 Clear -2 1026 76 10000 0.89 33 02:19 11.02.2021
2693 Clouds -2 1024 82 10000 0.45 19 00:22 11.02.2021
2694 Clouds -2 1024 82 10000 0.89 19 23:47 10.02.2021
2695 Clouds -2 1023 83 10000 0.89 19 23:18 10.02.2021
2696 Clouds -2 1023 84 10000 0.89 11 22:42 10.02.2021
2697 Clouds -3 1022 85 10000 0.89 28 22:19 10.02.2021
2698 Clouds -2 1022 86 10000 0.45 34 21:39 10.02.2021
2699 Clouds -2 1022 86 10000 0.45 35 21:20 10.02.2021
2700 Clouds -3 1021 85 10000 0.89 33 20:50 10.02.2021
2701 Clouds -3 1021 85 10000 0.89 35 20:28 10.02.2021
2702 Snow -2 1020 63 10000 1.79 190 19:50 10.02.2021
2703 Clouds -2 1020 64 10000 1.34 165 19:27 10.02.2021
2704 Snow -2 1017 79 10000 3.69 46 18:48 10.02.2021
2705 Snow -3 1019 66 10000 0.45 135 18:26 10.02.2021
2706 Snow -2 1018 81 10000 1.79 16 17:59 10.02.2021
2707 Snow -2 1018 81 10000 1.79 39 17:39 10.02.2021
2708 Clouds -2 1018 82 10000 1.79 25 17:19 10.02.2021
2709 Clouds -2 1018 80 10000 1.79 20 16:45 10.02.2021
2710 Clouds -2 1017 78 10000 1.79 349 16:24 10.02.2021
2711 Clouds -2 1017 77 10000 2.68 21 15:25 10.02.2021
2712 Clouds -1 1016 75 10000 3.13 16 14:54 10.02.2021
2713 Clouds -1 1016 75 10000 2.68 12 14:35 10.02.2021
2714 Clouds 0 1016 75 10000 2.24 6 13:55 10.02.2021
2715 Clouds -1 1015 75 10000 2.24 25 13:30 10.02.2021
2716 Clouds -1 1015 74 10000 2.24 7 12:55 10.02.2021
2717 Clouds -1 1015 76 10000 2.24 12 12:31 10.02.2021
2718 Clouds -1 1014 79 10000 2.24 38 11:59 10.02.2021
2719 Clouds -1 1014 80 10000 2.68 4 11:40 10.02.2021
2720 Clouds -2 1014 80 10000 2.68 27 11:22 10.02.2021
2721 Clouds -2 1014 85 10000 2.68 47 10:37 10.02.2021
2722 Clouds -2 1014 87 10000 3.13 22 10:18 10.02.2021
2723 Clouds -2 1014 87 10000 3.13 22 10:18 10.02.2021
2724 Clouds -3 1013 90 10000 2.68 38 09:35 10.02.2021
2725 Clouds -4 1013 92 3501 1.34 38 08:57 10.02.2021
2726 Clouds -4 1013 92 3501 1.34 64 08:39 10.02.2021
2727 Clouds -4 1012 91 3814 0.89 37 07:52 10.02.2021
2728 Clouds -4 1012 92 4712 0.89 38 06:51 10.02.2021
2729 Clouds -4 1011 89 10000 1.34 40 02:45 10.02.2021
2730 Clouds -5 1011 90 10000 1.34 22 00:25 10.02.2021
2731 Clouds -5 1011 89 10000 0.89 31 23:34 09.02.2021
2732 Clouds -4 1011 88 10000 0.89 26 22:54 09.02.2021
2733 Clouds -4 1011 88 10000 1.34 33 22:24 09.02.2021
2734 Clouds -4 1010 87 10000 1.34 39 21:52 09.02.2021
2735 Clouds -4 1011 87 10000 1.79 52 21:33 09.02.2021
2736 Clouds -4 1010 86 10000 1.34 20 20:50 09.02.2021
2737 Clouds -4 1010 85 10000 1.79 49 20:27 09.02.2021
2738 Clouds -4 1010 84 10000 1.34 24 19:59 09.02.2021
2739 Clouds -3 1010 84 10000 1.34 43 19:38 09.02.2021
2740 Clouds -2 1010 82 10000 1.79 21 18:58 09.02.2021
2741 Clouds -2 1010 82 10000 1.79 57 18:37 09.02.2021
2742 Clouds -2 1010 79 10000 1.34 35 17:58 09.02.2021
2743 Clouds -2 1010 78 10000 1.79 20 17:40 09.02.2021
2744 Clouds -1 1010 79 10000 1.34 32 17:21 09.02.2021
2745 Clouds -1 1010 77 10000 1.79 56 16:42 09.02.2021
2746 Clouds -1 1010 78 10000 1.79 59 16:19 09.02.2021
2747 Clouds -1 1010 78 10000 1.79 16 15:50 09.02.2021
2748 Clouds -1 1010 78 10000 1.79 56 15:26 09.02.2021
2749 Clouds -1 1009 77 10000 2.24 110 14:55 09.02.2021
2750 Clouds 0 1009 77 9764 2.68 41 14:28 09.02.2021
2751 Clouds 0 1009 77 9764 2.68 39 13:52 09.02.2021
2752 Clouds -1 1009 78 7972 3.13 31 13:26 09.02.2021
2753 Clouds 0 1009 77 10000 2.68 36 12:54 09.02.2021
2754 Clouds 0 1009 76 10000 3.13 41 12:36 09.02.2021
2755 Clouds -1 1009 76 10000 3.58 54 11:59 09.02.2021
2756 Clouds -1 1009 76 10000 3.58 54 11:59 09.02.2021
2757 Clouds -1 1009 76 10000 3.13 64 11:40 09.02.2021
2758 Clouds -1 1009 78 10000 3.13 137 11:20 09.02.2021
2759 Clouds -1 1009 80 10000 3.58 72 10:50 09.02.2021
2760 Clouds -1 1009 80 10000 3.13 45 10:19 09.02.2021
2761 Clouds -2 1009 82 10000 2.68 47 09:43 09.02.2021
2762 Clouds -2 1009 84 10000 2.68 26 09:25 09.02.2021
2763 Clouds -3 1009 85 10000 3.13 31 08:51 09.02.2021
2764 Clouds -3 1009 85 10000 2.68 72 08:27 09.02.2021
2765 Clouds -3 1008 85 10000 3.13 31 07:36 09.02.2021
2766 Clouds -3 1008 87 5406 3.13 25 04:59 09.02.2021
2767 Snow -2 1007 86 10000 3.58 27 03:42 09.02.2021
2768 Clouds -2 1007 87 10000 3.13 30 01:38 09.02.2021
2769 Clouds -3 1006 88 8636 2.68 17 23:58 08.02.2021
2770 Clouds -3 1006 84 10000 3.13 24 23:22 08.02.2021
2771 Clouds -3 1006 83 10000 2.68 20 22:56 08.02.2021
2772 Clouds -3 1006 82 10000 3.13 14 22:38 08.02.2021
2773 Clouds -3 1006 81 10000 3.58 54 22:20 08.02.2021
2774 Clouds -2 1005 81 10000 3.13 48 21:39 08.02.2021
2775 Clouds -2 1005 81 10000 3.13 72 21:20 08.02.2021
2776 Clouds -2 1005 81 10000 3.58 31 20:44 08.02.2021
2777 Clouds -2 1005 80 10000 3.58 24 20:23 08.02.2021
2778 Clouds -2 1005 79 10000 3.58 72 19:49 08.02.2021
2779 Clouds -2 1005 78 10000 3.13 21 19:30 08.02.2021
2780 Clouds -2 1005 78 10000 4.02 89 18:59 08.02.2021
2781 Clouds -2 1005 77 10000 4.47 26 18:40 08.02.2021
2782 Clouds -2 1005 77 10000 4.92 47 18:18 08.02.2021
2783 Clouds -2 1004 74 10000 4.02 33 17:41 08.02.2021
2784 Clouds -1 1004 71 10000 4.92 54 17:22 08.02.2021
2785 Clouds -1 1004 71 10000 4.02 58 16:40 08.02.2021
2786 Clouds -1 1004 70 10000 4.47 33 16:20 08.02.2021
2787 Clouds -1 1004 71 10000 3.58 34 15:40 08.02.2021
2788 Clouds -1 1004 70 10000 4.02 53 15:19 08.02.2021
2789 Clouds -1 1004 71 10000 4.02 52 14:51 08.02.2021
2790 Clouds -1 1004 72 10000 4.02 62 14:30 08.02.2021
2791 Clouds -1 1004 72 10000 3.58 53 13:56 08.02.2021
2792 Clouds -2 1004 71 10000 4.47 63 13:32 08.02.2021
2793 Clouds -2 1005 73 10000 3.58 62 12:51 08.02.2021
2794 Clouds -2 1005 73 10000 4.02 49 12:33 08.02.2021
2795 Clouds -2 1005 74 10000 4.02 91 11:43 08.02.2021
2796 Clouds -2 1005 74 10000 3.58 56 11:19 08.02.2021
2797 Clouds -2 1005 72 10000 4.02 63 10:44 08.02.2021
2798 Clouds -2 1006 73 10000 4.47 45 10:23 08.02.2021
2799 Clouds -3 1006 74 10000 4.02 49 09:50 08.02.2021
2800 Clouds -2 1006 73 10000 4.92 68 09:29 08.02.2021
2801 Snow -3 1006 74 10000 4.92 43 08:32 08.02.2021
2802 Snow -3 1006 74 10000 5.81 338 07:51 08.02.2021
2803 Snow -3 1006 75 10000 4.92 34 07:22 08.02.2021
2804 Clouds -3 1006 81 10000 4.92 52 05:53 08.02.2021
2805 Clouds -4 1007 85 10000 4.47 83 02:28 08.02.2021
2806 Clouds -4 1007 92 2583 4.02 49 01:18 08.02.2021
2807 Clouds -4 1007 93 610 4.92 78 00:21 08.02.2021
2808 Snow -4 1007 93 610 5.36 70 23:48 07.02.2021
2809 Snow -4 1007 94 403 4.92 5 23:20 07.02.2021
2810 Snow -4 1007 94 403 4.47 357 22:45 07.02.2021
2811 Snow -4 1007 94 347 4.92 47 22:26 07.02.2021
2812 Snow -4 1007 94 347 5.36 83 21:52 07.02.2021
2813 Snow -5 1007 95 310 5.81 73 21:28 07.02.2021
2814 Snow -5 1007 95 310 4.92 63 20:54 07.02.2021
2815 Snow -5 1007 95 310 5.36 77 20:34 07.02.2021
2816 Snow -4 1007 95 334 4.92 22 19:55 07.02.2021
2817 Snow -5 1007 95 334 4.92 58 19:31 07.02.2021
2818 Snow -5 1007 95 263 5.36 119 18:57 07.02.2021
2819 Snow -5 1007 94 263 4.92 29 18:37 07.02.2021
2820 Snow -5 1007 94 299 4.47 40 18:18 07.02.2021
2821 Clouds -5 1007 94 299 4.47 39 17:44 07.02.2021
2822 Snow -5 1007 93 430 5.81 59 17:20 07.02.2021
2823 Snow -5 1007 93 430 4.92 69 16:48 07.02.2021
2824 Clouds -5 1007 93 504 5.36 54 16:29 07.02.2021
2825 Snow -5 1007 92 504 5.36 51 15:59 07.02.2021
2826 Snow -5 1007 92 504 5.81 76 15:40 07.02.2021
2827 Snow -4 1007 92 690 5.81 23 15:21 07.02.2021
2828 Snow -4 1007 92 690 5.36 33 14:40 07.02.2021
2829 Snow -4 1007 92 1580 4.47 61 14:22 07.02.2021
2830 Snow -4 1007 92 1580 5.81 54 13:40 07.02.2021
2831 Snow -4 1007 92 3326 4.92 52 13:22 07.02.2021
2832 Snow -4 1008 91 9429 5.36 102 12:39 07.02.2021
2833 Snow -4 1008 91 7596 5.36 59 12:20 07.02.2021
2834 Snow -4 1008 88 7596 5.36 80 11:42 07.02.2021
2835 Clouds -4 1008 88 10000 5.36 55 11:24 07.02.2021
2836 Clouds -4 1008 86 10000 5.36 34 10:29 07.02.2021
2837 Snow -4 1009 85 10000 6.26 0 09:57 07.02.2021
2838 Snow -4 1009 84 10000 5.81 56 09:38 07.02.2021
2839 Snow -4 1009 84 10000 5.81 56 09:38 07.02.2021
2840 Snow -4 1009 82 10000 5.81 32 09:18 07.02.2021
2841 Snow -3 1009 75 10000 5.81 71 07:58 07.02.2021
2842 Clouds -3 1008 72 10000 5.36 72 06:33 07.02.2021
2843 Snow -3 1009 72 10000 5.81 82 05:48 07.02.2021
2844 Clouds -2 1010 69 10000 6.26 93 02:52 07.02.2021
2845 Clouds -2 1011 78 10000 4.47 64 00:58 07.02.2021
2846 Clouds -2 1012 77 10000 5.36 68 00:28 07.02.2021
2847 Clouds -2 1012 76 10000 4.92 75 23:32 06.02.2021
2848 Clouds -1 1012 76 10000 5.36 49 22:33 06.02.2021
2849 Clouds -1 1012 76 10000 4.92 41 21:39 06.02.2021
2850 Clouds -1 1013 76 10000 5.36 88 21:21 06.02.2021
2851 Clouds -1 1013 76 10000 4.92 58 20:47 06.02.2021
2852 Clouds -1 1013 76 10000 4.92 142 20:24 06.02.2021
2853 Clouds -1 1013 77 10000 4.47 68 19:55 06.02.2021
2854 Clouds 0 1013 76 10000 4.47 63 19:29 06.02.2021
2855 Clouds 0 1014 77 10000 4.92 43 18:46 06.02.2021
2856 Clouds 0 1014 77 10000 4.47 66 18:28 06.02.2021
2857 Clouds 0 1014 78 10000 4.92 53 17:45 06.02.2021
2858 Clouds 0 1014 79 10000 4.47 159 17:22 06.02.2021
2859 Clouds 0 1014 80 10000 4.02 74 16:58 06.02.2021
2860 Clouds 0 1014 80 10000 3.13 99 16:37 06.02.2021
2861 Clouds 0 1014 80 10000 3.58 91 16:19 06.02.2021
2862 Clouds 1 1014 80 10000 4.02 77 15:40 06.02.2021
2863 Clouds 0 1015 80 10000 4.92 37 15:19 06.02.2021
2864 Clouds 1 1015 82 10000 4.47 101 14:44 06.02.2021
2865 Clouds 1 1015 83 10000 4.92 54 14:24 06.02.2021
2866 Clouds 1 1015 84 10000 4.92 72 13:47 06.02.2021
2867 Clouds 1 1015 88 10000 4.02 48 12:57 06.02.2021
2868 Clouds 0 1015 88 10000 4.47 79 12:21 06.02.2021
2869 Clouds 0 1015 89 10000 4.47 143 11:47 06.02.2021
2870 Clouds 1 1015 90 10000 3.58 90 11:22 06.02.2021
2871 Clouds 0 1015 91 10000 4.02 86 10:57 06.02.2021
2872 Clouds 0 1016 91 10000 4.47 39 10:30 06.02.2021
2873 Clouds 0 1016 91 10000 3.58 9 09:58 06.02.2021
2874 Clouds 0 1016 91 10000 4.47 40 09:37 06.02.2021
2875 Snow 0 1016 91 2137 4.92 338 09:18 06.02.2021
2876 Snow 0 1016 92 2137 3.58 63 08:33 06.02.2021
2877 Clouds 0 1015 92 923 4.02 52 08:00 06.02.2021
2878 Clouds 0 1015 94 10000 3.58 44 05:44 06.02.2021
2879 Clouds 0 1015 96 7425 2.68 110 03:58 06.02.2021
2880 Clouds 0 1015 96 3165 4.02 99 02:26 06.02.2021
2881 Clouds 1 1014 97 10000 3.58 81 00:48 06.02.2021
2882 Clouds 1 1014 97 10000 2.68 91 00:20 06.02.2021
2883 Clouds 1 1014 97 10000 2.24 105 23:46 05.02.2021
2884 Clouds 1 1014 97 10000 2.24 86 23:26 05.02.2021
2885 Clouds 1 1014 97 10000 2.24 101 22:47 05.02.2021
2886 Clouds 1 1014 98 10000 3.13 52 22:23 05.02.2021
2887 Clouds 1 1014 98 10000 3.58 66 21:51 05.02.2021
2888 Clouds 1 1014 98 10000 2.24 98 21:29 05.02.2021
2889 Clouds 1 1014 98 10000 2.68 99 20:48 05.02.2021
2890 Clouds 2 1014 98 10000 3.13 65 19:53 05.02.2021
2891 Clouds 2 1013 98 10000 2.68 97 19:22 05.02.2021
2892 Clouds 2 1013 98 10000 2.68 97 19:22 05.02.2021
2893 Clouds 2 1013 98 10000 2.24 75 18:54 05.02.2021
2894 Clouds 2 1013 98 10000 2.24 81 18:28 05.02.2021
2895 Clouds 2 1013 99 10000 2.24 128 17:56 05.02.2021
2896 Clouds 2 1013 99 10000 3.13 83 17:33 05.02.2021
2897 Clouds 2 1013 99 10000 1.79 86 16:57 05.02.2021
2898 Clouds 2 1013 99 10000 2.68 51 16:38 05.02.2021
2899 Clouds 2 1013 99 10000 1.79 95 16:19 05.02.2021
2900 Clouds 2 1013 99 10000 2.24 97 15:31 05.02.2021
2901 Rain 2 1013 99 10000 1.79 60 14:59 05.02.2021
2902 Rain 2 1013 99 10000 1.79 69 14:38 05.02.2021
2903 Clouds 2 1013 98 10000 2.24 55 14:18 05.02.2021
2904 Snow 2 1013 99 10000 2.24 79 13:42 05.02.2021
2905 Rain 2 1013 99 846 3.13 81 13:20 05.02.2021
2906 Snow 2 1014 99 846 2.68 103 12:41 05.02.2021
2907 Snow 2 1014 99 846 2.68 103 12:41 05.02.2021
2908 Rain 2 1014 99 10000 2.24 66 12:20 05.02.2021
2909 Rain 1 1014 99 10000 2.68 101 11:39 05.02.2021
2910 Rain 1 1014 99 8875 2.24 93 11:19 05.02.2021
2911 Rain 1 1014 99 8875 2.68 122 10:48 05.02.2021
2912 Rain 1 1014 99 7211 4.02 70 10:25 05.02.2021
2913 Rain 1 1014 99 7211 4.47 87 09:43 05.02.2021
2914 Rain 1 1014 99 10000 2.24 95 09:24 05.02.2021
2915 Rain 1 1014 99 10000 2.68 66 08:41 05.02.2021
2916 Rain 1 1013 99 10000 2.68 55 07:43 05.02.2021
2917 Clouds 1 1013 99 10000 3.13 43 07:24 05.02.2021
2918 Clouds 1 1014 100 10000 2.68 51 06:34 05.02.2021
2919 Clouds 1 1014 100 10000 1.79 35 05:35 05.02.2021
2920 Clouds 1 1015 100 10000 1.79 57 02:26 05.02.2021
2921 Clouds 1 1015 99 10000 2.24 68 01:43 05.02.2021
2922 Clouds 1 1015 100 10000 0.89 72 00:37 05.02.2021
2923 Clouds 1 1015 100 10000 1.34 58 00:19 05.02.2021
2924 Clouds 1 1015 99 10000 1.79 40 23:43 04.02.2021
2925 Clouds 2 1015 99 10000 1.79 57 23:25 04.02.2021
2926 Clouds 2 1015 99 10000 1.79 40 22:55 04.02.2021
2927 Clouds 2 1015 99 10000 1.79 30 22:37 04.02.2021
2928 Clouds 2 1015 99 10000 1.79 56 22:18 04.02.2021
2929 Clouds 1 1015 99 10000 1.34 71 21:41 04.02.2021
2930 Clouds 1 1015 99 10000 0.89 40 21:18 04.02.2021
2931 Clouds 1 1015 99 10000 1.34 60 20:45 04.02.2021
2932 Clouds 1 1015 99 10000 1.34 82 20:25 04.02.2021
2933 Clouds 1 1015 99 10000 1.34 52 19:41 04.02.2021
2934 Clouds 1 1015 99 10000 1.34 60 18:51 04.02.2021
2935 Clouds 1 1015 99 10000 1.34 58 18:24 04.02.2021
2936 Clouds 1 1015 99 10000 0.89 42 17:51 04.02.2021
2937 Clouds 1 1015 99 10000 1.34 62 17:24 04.02.2021
2938 Clouds 2 1014 99 10000 0.45 101 16:56 04.02.2021
2939 Clouds 2 1014 99 10000 0.89 101 16:38 04.02.2021
2940 Clouds 2 1014 99 10000 1.34 31 16:18 04.02.2021
2941 Clouds 2 1014 99 10000 0.89 101 15:39 04.02.2021
2942 Clouds 2 1014 99 10000 0.89 338 15:20 04.02.2021
2943 Clouds 2 1014 100 10000 1.34 49 14:42 04.02.2021
2944 Clouds 2 1014 100 10000 1.34 55 14:20 04.02.2021
2945 Clouds 2 1014 99 10000 1.34 63 13:45 04.02.2021
2946 Clouds 2 1013 99 10000 1.79 41 13:20 04.02.2021
2947 Clouds 2 1013 100 10000 0.45 107 12:52 04.02.2021
2948 Clouds 1 1013 100 2187 0.89 70 11:54 04.02.2021
2949 Clouds 1 1012 100 2187 1.79 60 11:34 04.02.2021
2950 Clouds 1 1012 99 206 2.24 64 10:54 04.02.2021
2951 Clouds 1 1012 100 206 1.79 60 10:34 04.02.2021
2952 Clouds 1 1011 99 106 1.34 69 09:45 04.02.2021
2953 Rain 1 1011 99 67 1.79 85 09:22 04.02.2021
2954 Rain 1 1010 99 67 1.34 60 08:51 04.02.2021
2955 Clouds 1 1010 99 2099 1.79 79 08:26 04.02.2021
2956 Clouds 1 1009 99 2099 1.34 89 07:56 04.02.2021
2957 Rain 1 1009 99 4696 1.34 75 07:33 04.02.2021
2958 Clouds 1 1008 100 10000 0.89 87 06:45 04.02.2021
2959 Clouds 1 1007 100 10000 0.89 74 05:52 04.02.2021
2960 Clouds 1 1004 99 10000 1.79 49 02:40 04.02.2021
2961 Clouds 1 1004 99 10000 1.34 36 02:18 04.02.2021
2962 Clouds 1 1001 99 560 0.45 30 00:20 04.02.2021
2963 Clouds 1 1000 99 560 0.89 29 23:34 03.02.2021
2964 Clouds 1 999 99 476 1.34 18 22:40 03.02.2021
2965 Rain 2 998 99 1004 1.34 16 22:20 03.02.2021
2966 Clouds 2 997 99 1004 1.34 15 21:51 03.02.2021
2967 Rain 2 997 99 914 1.34 12 21:24 03.02.2021
2968 Clouds 2 996 99 914 1.34 16 20:54 03.02.2021
2969 Clouds 3 996 99 914 0.45 16 20:35 03.02.2021
2970 Clouds 4 995 99 2747 0.89 16 19:56 03.02.2021
2971 Clouds 4 995 99 9280 0.89 16 19:27 03.02.2021
2972 Clouds 4 994 98 9280 0.89 9 18:58 03.02.2021
2973 Clouds 4 994 99 825 0.45 325 18:39 03.02.2021
2974 Clouds 4 994 99 825 0.45 325 18:39 03.02.2021
2975 Rain 5 994 99 1101 0.45 326 18:19 03.02.2021
2976 Rain 5 993 99 1101 0.45 188 17:46 03.02.2021
2977 Rain 5 993 100 3792 0.45 188 17:26 03.02.2021
2978 Clouds 5 993 99 3792 0.89 162 16:48 03.02.2021
2979 Clouds 6 993 99 3579 1.48 105 16:26 03.02.2021
2980 Clouds 6 992 99 3579 1.48 105 15:41 03.02.2021
2981 Clouds 7 993 100 4276 1.08 101 15:22 03.02.2021
2982 Clouds 7 993 100 4276 0.45 161 14:47 03.02.2021
2983 Clouds 7 993 100 4799 1.65 159 14:25 03.02.2021
2984 Clouds 7 993 100 4799 0.45 163 13:53 03.02.2021
2985 Clouds 7 993 100 5642 0.89 163 13:21 03.02.2021
2986 Clouds 7 993 100 5642 0.89 172 12:47 03.02.2021
2987 Clouds 7 994 100 8749 0.89 338 12:24 03.02.2021
2988 Clouds 6 994 100 8749 1.34 172 11:49 03.02.2021
2989 Clouds 6 994 100 8679 1.34 338 11:28 03.02.2021
2990 Clouds 5 995 100 8679 1.34 187 10:53 03.02.2021
2991 Clouds 4 995 100 6529 1.79 338 10:21 03.02.2021
2992 Clouds 3 995 100 6529 1.34 170 09:47 03.02.2021
2993 Clouds 3 995 99 5567 1.34 166 09:28 03.02.2021
2994 Clouds 2 995 100 5567 1.34 155 08:52 03.02.2021
2995 Clouds 3 995 99 8463 1.79 124 08:27 03.02.2021
2996 Clouds 2 993 96 8463 2.97 193 07:39 03.02.2021
2997 Clouds 2 997 98 697 3.32 133 06:41 03.02.2021
2998 Rain 0 996 99 1376 2.24 134 04:54 03.02.2021
2999 Snow 0 997 98 1376 2.24 112 04:31 03.02.2021
3000 Clouds 1 997 98 10000 2.68 86 03:24 03.02.2021
3001 Clouds 1 997 98 10000 3.58 101 02:36 03.02.2021
3002 Snow 1 998 98 10000 3.58 150 00:46 03.02.2021
3003 Clouds 1 998 98 10000 2.24 118 23:56 02.02.2021
3004 Clouds 1 998 98 10000 2.24 91 23:36 02.02.2021
3005 Clouds 1 998 98 10000 3.13 72 23:18 02.02.2021
3006 Rain 1 998 98 10000 2.24 91 22:23 02.02.2021
3007 Rain 1 999 98 10000 2.24 56 21:58 02.02.2021
3008 Rain 1 998 98 10000 1.79 22 21:39 02.02.2021
3009 Clouds 1 998 98 10000 2.24 49 21:19 02.02.2021
3010 Clouds 0 999 98 10000 2.68 91 20:44 02.02.2021
3011 Clouds 0 999 97 10000 1.79 93 20:20 02.02.2021
3012 Clouds 0 999 97 10000 1.34 43 19:48 02.02.2021
3013 Clouds 0 999 97 10000 1.34 44 19:30 02.02.2021
3014 Snow 0 998 97 265 1.79 61 18:46 02.02.2021
3015 Clouds 0 999 97 10000 1.79 43 18:26 02.02.2021
3016 Snow 0 998 96 10000 1.79 10 17:51 02.02.2021
3017 Snow 0 998 96 123 1.79 26 17:24 02.02.2021
3018 Snow 1 998 96 123 1.34 32 16:58 02.02.2021
3019 Snow 1 998 95 123 1.34 37 16:38 02.02.2021
3020 Snow 1 998 95 204 1.79 66 16:18 02.02.2021
3021 Snow 1 998 94 204 1.79 41 15:42 02.02.2021
3022 Snow 1 998 94 2583 1.79 54 15:21 02.02.2021
3023 Snow 2 998 95 2583 2.24 56 14:41 02.02.2021
3024 Clouds 2 999 95 9130 1.79 91 14:20 02.02.2021
3025 Snow 1 999 94 9130 1.79 97 13:55 02.02.2021
3026 Snow 1 999 94 9130 2.68 106 13:37 02.02.2021
3027 Snow 1 1000 93 10000 2.68 105 13:18 02.02.2021
3028 Snow 1 1000 91 7638 2.68 123 12:36 02.02.2021
3029 Clouds 1 1000 89 9867 1.79 124 11:45 02.02.2021
3030 Clouds 1 1001 88 10000 2.24 99 11:22 02.02.2021
3031 Clouds 1 1001 88 10000 2.24 99 11:22 02.02.2021
3032 Clouds 0 1001 90 10000 1.34 133 10:55 02.02.2021
3033 Clouds 0 1001 92 10000 0.89 112 10:27 02.02.2021
3034 Clouds -1 1002 92 10000 0.89 133 09:47 02.02.2021
3035 Clouds -1 1002 92 10000 0.89 128 09:26 02.02.2021
3036 Clouds -1 1002 93 10000 0.89 126 08:55 02.02.2021
3037 Clouds -2 1002 93 10000 0.89 153 08:28 02.02.2021
3038 Clouds -1 1003 92 10000 0.89 179 07:37 02.02.2021
3039 Clouds -1 1002 91 10000 1.34 322 06:43 02.02.2021
3040 Clouds -1 1002 92 10000 0.89 338 05:53 02.02.2021
3041 Clouds -1 1002 92 10000 2.23 235 04:57 02.02.2021
3042 Clouds 0 1002 94 10000 0.45 338 02:45 02.02.2021
3043 Clouds 0 1002 94 10000 0.45 303 02:23 02.02.2021
3044 Clouds -1 1001 94 10000 1.44 287 00:36 02.02.2021
3045 Clouds -1 1000 94 10000 0.45 303 23:30 01.02.2021
3046 Clouds -1 1000 94 10000 0.45 302 22:51 01.02.2021
3047 Clouds -1 1000 94 10000 0.45 303 22:33 01.02.2021
3048 Clouds -1 1000 93 10000 0.89 303 21:53 01.02.2021
3049 Clouds -1 1000 93 10000 0.45 290 21:35 01.02.2021
3050 Clouds -1 999 93 10000 0.45 311 20:58 01.02.2021
3051 Clouds -1 999 92 10000 0.45 37 20:40 01.02.2021
3052 Clouds -1 999 92 10000 0.45 37 20:22 01.02.2021
3053 Clouds -1 999 92 10000 1.29 12 19:41 01.02.2021
3054 Clouds -1 998 92 10000 0.45 39 19:21 01.02.2021
3055 Clouds -1 998 92 10000 0.45 37 18:49 01.02.2021
3056 Clouds -1 998 92 10000 0.45 36 18:28 01.02.2021
3057 Clouds -1 997 91 10000 0.45 37 17:48 01.02.2021
3058 Clouds -1 997 91 10000 0.45 58 17:25 01.02.2021
3059 Clouds -1 997 90 10000 0.89 74 16:58 01.02.2021
3060 Clouds -1 996 90 10000 0.45 74 16:30 01.02.2021
3061 Clouds -1 996 90 10000 0.45 78 15:47 01.02.2021
3062 Clouds -1 996 89 10000 0.89 75 15:19 01.02.2021
3063 Clouds -1 996 89 10000 0.89 79 14:52 01.02.2021
3064 Clouds -1 996 89 10000 0.89 79 14:52 01.02.2021
3065 Clouds 0 995 90 10000 0.89 80 14:33 01.02.2021
3066 Clouds -1 995 90 10000 1.79 83 13:51 01.02.2021
3067 Snow -1 995 89 6019 1.34 85 13:28 01.02.2021
3068 Clouds -1 995 89 7876 1.79 131 12:58 01.02.2021
3069 Clouds -1 995 89 7876 2.24 90 12:40 01.02.2021
3070 Clouds -1 995 89 7876 2.24 90 12:40 01.02.2021
3071 Clouds -1 995 89 7876 2.24 90 12:40 01.02.2021
3072 Clouds -1 995 88 10000 1.79 70 12:21 01.02.2021
3073 Clouds -2 995 89 10000 2.24 74 11:39 01.02.2021
3074 Clouds -2 995 89 10000 2.24 72 11:19 01.02.2021
3075 Clouds -2 995 90 10000 2.24 126 10:44 01.02.2021
3076 Clouds -3 995 90 9874 1.79 66 10:19 01.02.2021
3077 Snow -3 995 89 9874 2.68 63 09:43 01.02.2021
3078 Snow -4 995 90 5130 2.24 46 09:19 01.02.2021
3079 Clouds -4 995 90 5130 2.24 83 08:41 01.02.2021
3080 Clouds -4 995 91 10000 2.24 124 07:37 01.02.2021
3081 Clouds -5 995 90 10000 2.68 71 05:59 01.02.2021
3082 Clouds -5 996 90 10000 2.68 60 02:43 01.02.2021
3083 Clouds -4 997 83 10000 2.24 124 00:40 01.02.2021
3084 Clouds -3 997 82 10000 1.79 91 23:40 31.01.2021
3085 Clouds -2 998 78 10000 3.13 131 22:43 31.01.2021
3086 Clouds -3 998 78 10000 2.68 75 22:23 31.01.2021
3087 Clouds -3 998 81 10000 2.68 100 21:50 31.01.2021
3088 Clouds -3 998 82 10000 2.68 112 21:23 31.01.2021
3089 Clouds -3 998 82 10000 2.68 112 21:23 31.01.2021
3090 Clouds -3 999 85 10000 2.24 76 20:50 31.01.2021
3091 Clouds -2 999 88 10000 1.34 131 20:21 31.01.2021
3092 Clouds -2 1000 87 10000 2.24 112 19:56 31.01.2021
3093 Clouds -2 1000 87 10000 2.24 102 19:37 31.01.2021
3094 Clouds -3 998 89 10000 3.36 111 19:19 31.01.2021
3095 Clouds -2 999 88 10000 3.36 111 18:41 31.01.2021
3096 Clouds -2 999 88 10000 3.36 111 18:41 31.01.2021
3097 Clouds -2 999 86 10000 3 115 18:21 31.01.2021
3098 Clouds -1 999 84 10000 3 115 17:47 31.01.2021
3099 Clouds 0 999 83 10000 2.49 111 17:23 31.01.2021
3100 Clouds 2 1000 81 10000 2.49 111 16:51 31.01.2021
3101 Clouds 2 1000 81 10000 2.49 111 16:51 31.01.2021
3102 Clouds 2 1000 82 10000 2.49 111 16:33 31.01.2021
3103 Clouds 2 1002 86 10000 0.89 338 15:52 31.01.2021
3104 Clouds 2 1003 85 10000 0.89 129 15:34 31.01.2021
3105 Clouds 1 1003 85 10000 0.89 125 14:45 31.01.2021
3106 Clouds 1 1004 85 10000 0.89 143 14:25 31.01.2021
3107 Clouds 1 1004 87 10000 0.89 143 13:56 31.01.2021
3108 Clouds 1 1004 87 10000 0.89 143 13:56 31.01.2021
3109 Clouds 1 1004 85 10000 1.34 161 13:37 31.01.2021
3110 Clouds 2 1005 86 10000 1.34 179 12:50 31.01.2021
3111 Clouds 2 1005 88 10000 1.34 338 12:23 31.01.2021
3112 Clouds 2 1005 88 10000 1.34 338 12:23 31.01.2021
3113 Clouds 1 1006 91 10000 0.89 338 11:58 31.01.2021
3114 Clouds 1 1006 94 10000 0.89 338 11:38 31.01.2021
3115 Clear 0 1006 96 10000 1.34 186 11:19 31.01.2021
3116 Clear -2 1004 90 10000 1.81 224 10:43 31.01.2021
3117 Clear -2 1006 97 10000 0.89 338 10:24 31.01.2021
3118 Clear -5 1004 93 10000 2.15 219 09:33 31.01.2021
3119 Clear -6 1006 92 7000 1.03 230 08:34 31.01.2021
3120 Clear -7 1006 92 6000 1.03 220 07:48 31.01.2021
3121 Clouds -6 1004 93 10000 0.74 196 05:53 31.01.2021
3122 Clouds -4 1006 96 10000 1.05 86 00:53 31.01.2021
3123 Clouds -4 1006 96 10000 1.28 83 00:28 31.01.2021
3124 Clouds -4 1006 95 10000 1.28 83 23:34 30.01.2021
3125 Clouds -3 1006 95 10000 1.67 89 22:59 30.01.2021
3126 Clouds -3 1006 94 10000 1.67 89 22:37 30.01.2021
3127 Clouds -3 1006 94 10000 1.67 89 22:37 30.01.2021
3128 Clouds -3 1006 94 10000 2.1 81 21:43 30.01.2021
3129 Clouds -2 1006 94 10000 0.89 338 21:24 30.01.2021
3130 Clouds -2 1006 94 10000 1.34 338 20:55 30.01.2021
3131 Clouds -2 1006 93 10000 0.89 100 20:35 30.01.2021
3132 Clouds -2 1006 93 10000 1.34 104 19:58 30.01.2021
3133 Clouds -2 1006 92 10000 1.34 94 19:39 30.01.2021
3134 Clouds -2 1005 92 10000 1.79 133 19:19 30.01.2021
3135 Clouds -2 1005 92 10000 0.89 338 18:40 30.01.2021
3136 Clouds -4 1005 92 10000 1.34 78 18:19 30.01.2021
3137 Clouds -2 1005 92 10000 1.34 71 17:45 30.01.2021
3138 Clouds -2 1005 91 10000 1.34 45 17:18 30.01.2021
3139 Clouds -2 1005 91 10000 1.79 55 16:41 30.01.2021
3140 Clouds -2 1004 90 10000 1.34 38 16:22 30.01.2021
3141 Clouds -1 1004 90 10000 1.79 75 15:49 30.01.2021
3142 Clouds -1 1004 89 10000 1.79 81 15:24 30.01.2021
3143 Clouds 0 1004 88 10000 1.79 55 14:52 30.01.2021
3144 Clouds 1 1004 87 10000 2.68 83 14:32 30.01.2021
3145 Clouds 1 1004 86 10000 2.24 85 13:57 30.01.2021
3146 Clouds 0 1005 87 10000 2.24 66 13:21 30.01.2021
3147 Clouds 1 1005 89 10000 1.79 60 12:44 30.01.2021
3148 Clouds 0 1005 90 10000 1.79 16 12:26 30.01.2021
3149 Clouds 0 1005 91 10000 2.24 44 11:47 30.01.2021
3150 Clouds -1 1005 93 10000 1.79 104 10:57 30.01.2021
3151 Clear 0 1005 94 10000 1.79 94 10:28 30.01.2021
3152 Clear -1 1005 97 10000 0.89 44 09:42 30.01.2021
3153 Clouds -2 1005 96 10000 0.89 45 09:24 30.01.2021
3154 Clouds -2 1005 96 10000 0.45 61 08:44 30.01.2021
3155 Clear -2 1005 96 10000 0.89 40 07:44 30.01.2021
3156 Clouds -1 1004 96 10000 1.34 38 06:33 30.01.2021
3157 Clouds 0 1004 96 10000 2.24 29 03:53 30.01.2021
3158 Clouds 0 1003 96 10000 1.79 10 03:31 30.01.2021
3159 Clouds 0 1003 96 10000 2.24 5 02:22 30.01.2021
3160 Clouds 0 1002 95 3845 2.68 19 00:58 30.01.2021
3161 Clouds 0 1001 96 3845 3.13 18 00:34 30.01.2021
3162 Clouds 0 1001 96 3041 2.24 15 23:55 29.01.2021
3163 Clouds 0 1000 96 2044 2.68 24 23:28 29.01.2021
3164 Clouds 0 999 97 2044 2.68 37 22:52 29.01.2021
3165 Clouds 0 999 97 2044 2.68 35 22:32 29.01.2021
3166 Clouds -1 998 97 3724 2.68 30 21:59 29.01.2021
3167 Clouds -1 997 97 7059 3.13 43 21:28 29.01.2021
3168 Clouds -1 996 98 7059 3.13 23 20:43 29.01.2021
3169 Snow -1 996 98 1538 2.68 24 20:24 29.01.2021
3170 Snow -1 995 98 1538 3.13 26 19:42 29.01.2021
3171 Snow -1 994 98 450 3.13 80 19:22 29.01.2021
3172 Snow -1 994 98 627 2.68 62 18:57 29.01.2021
3173 Clouds 0 993 98 9554 2.24 66 17:59 29.01.2021
3174 Clouds 0 993 98 9554 2.24 39 17:37 29.01.2021
3175 Snow 0 992 98 10000 2.24 52 17:18 29.01.2021
3176 Snow 0 992 98 10000 3.58 72 16:39 29.01.2021
3177 Snow 0 991 98 5517 2.24 37 16:21 29.01.2021
3178 Snow 0 991 98 5517 2.24 37 16:21 29.01.2021
3179 Snow 1 991 98 5517 1.79 69 15:42 29.01.2021
3180 Rain 1 990 98 9747 1.79 58 15:23 29.01.2021
3181 Rain 1 991 98 9747 1.79 101 14:30 29.01.2021
3182 Snow 1 991 98 4822 2.68 93 13:59 29.01.2021
3183 Snow 1 990 98 4822 2.24 121 13:36 29.01.2021
3184 Snow 1 991 98 128 3.58 110 12:49 29.01.2021
3185 Snow 1 991 98 469 2.68 125 12:22 29.01.2021
3186 Snow 0 991 98 469 2.68 106 11:46 29.01.2021
3187 Snow 0 991 98 1539 2.68 85 11:18 29.01.2021
3188 Snow 1 991 98 1539 3.58 101 10:48 29.01.2021
3189 Snow 1 990 98 7873 4.47 87 10:27 29.01.2021
3190 Snow 1 991 98 7873 4.47 101 09:45 29.01.2021
3191 Snow 0 991 98 4313 4.47 127 08:57 29.01.2021
3192 Snow 1 991 98 4313 4.02 101 08:33 29.01.2021
3193 Snow 0 992 97 5369 4.02 112 07:58 29.01.2021
3194 Snow 0 992 97 5369 3.58 70 07:40 29.01.2021
3195 Snow 0 992 97 3822 4.92 91 07:19 29.01.2021
3196 Snow 0 995 96 10000 4.47 116 05:23 29.01.2021
3197 Snow 1 997 96 2022 3.58 132 03:33 29.01.2021
3198 Clouds 1 1001 93 10000 3.13 85 00:43 29.01.2021
3199 Clouds 0 1001 93 10000 2.68 119 00:22 29.01.2021
3200 Clouds 1 1001 93 10000 2.24 53 23:44 28.01.2021
3201 Clouds 1 1002 94 10000 2.68 112 23:25 28.01.2021
3202 Clouds 0 1002 93 10000 2.24 106 22:47 28.01.2021
3203 Clouds 0 1002 93 10000 2.68 105 22:27 28.01.2021
3204 Clouds 1 1003 93 10000 2.24 128 21:57 28.01.2021
3205 Clouds 0 1003 93 10000 2.68 94 21:34 28.01.2021
3206 Clouds 0 1003 93 10000 2.24 102 20:59 28.01.2021
3207 Clouds 0 1004 92 10000 2.68 121 20:39 28.01.2021
3208 Clouds 0 1004 92 10000 2.24 86 20:18 28.01.2021
3209 Clouds 1 1003 91 10000 1.79 53 19:46 28.01.2021
3210 Clouds 1 1003 92 10000 1.34 68 19:23 28.01.2021
3211 Clouds 1 1003 91 10000 1.79 59 18:45 28.01.2021
3212 Clouds 1 1004 91 10000 1.34 43 18:27 28.01.2021
3213 Clouds 1 1003 90 10000 1.34 37 17:47 28.01.2021
3214 Clouds 1 1003 89 10000 1.34 46 17:28 28.01.2021
3215 Clouds 1 1003 88 10000 1.34 34 16:45 28.01.2021
3216 Clouds 2 1003 89 10000 0.89 53 16:25 28.01.2021
3217 Clouds 2 1002 88 10000 0.89 50 15:56 28.01.2021
3218 Clouds 2 1002 88 10000 1.34 114 15:23 28.01.2021
3219 Clouds 2 1002 88 10000 1.79 109 14:43 28.01.2021
3220 Clouds 2 1002 88 10000 1.79 46 14:23 28.01.2021
3221 Clouds 2 1002 89 10000 1.34 49 13:49 28.01.2021
3222 Clouds 2 1002 89 10000 1.79 70 13:23 28.01.2021
3223 Clouds 2 1003 90 10000 1.79 71 12:48 28.01.2021
3224 Clouds 2 1003 90 10000 2.68 71 12:23 28.01.2021
3225 Clouds 1 1003 92 10000 2.68 80 11:44 28.01.2021
3226 Clouds 1 1003 95 10000 2.24 66 11:21 28.01.2021
3227 Clouds 1 1003 96 10000 2.24 34 10:56 28.01.2021
3228 Clouds 1 1003 97 10000 2.24 79 10:38 28.01.2021
3229 Clouds 1 1003 98 10000 2.24 74 10:20 28.01.2021
3230 Clouds 2 1004 99 10000 1.34 91 09:36 28.01.2021
3231 Clouds 2 1004 99 10000 1.79 69 09:18 28.01.2021
3232 Clouds 2 1005 99 10000 0.45 54 08:40 28.01.2021
3233 Clouds 1 1005 99 10000 0.89 255 07:49 28.01.2021
3234 Clouds 1 1005 99 10000 3.23 87 07:18 28.01.2021
3235 Clouds 1 1006 99 10000 3.23 87 06:44 28.01.2021
3236 Clouds 2 1007 98 10000 2.69 58 04:30 28.01.2021
3237 Clouds 3 1008 99 10000 2.32 357 02:33 28.01.2021
3238 Clouds 3 1008 99 10000 1.34 253 00:35 28.01.2021
3239 Clouds 4 1008 99 10000 1.34 253 23:25 27.01.2021
3240 Clouds 4 1008 98 10000 1.34 267 22:44 27.01.2021
3241 Clouds 4 1008 99 10000 1.34 266 22:26 27.01.2021
3242 Clouds 4 1008 99 10000 1.79 338 21:59 27.01.2021
3243 Clouds 4 1008 99 10000 1.79 255 21:41 27.01.2021
3244 Clouds 4 1008 99 10000 1.79 251 21:22 27.01.2021
3245 Clouds 4 1008 99 10000 1.79 261 20:41 27.01.2021
3246 Clouds 4 1008 99 10000 1.79 239 19:59 27.01.2021
3247 Clouds 4 1007 99 10000 2.24 263 19:41 27.01.2021
3248 Clouds 4 1008 99 10000 2.68 257 19:21 27.01.2021
3249 Clouds 4 1008 99 10000 2.68 255 18:43 27.01.2021
3250 Clouds 4 1007 99 10000 1.79 247 18:23 27.01.2021
3251 Clouds 4 1007 99 10000 1.34 241 17:46 27.01.2021
3252 Clouds 4 1007 99 10000 1.34 240 17:28 27.01.2021
3253 Clouds 3 1007 99 10000 1.79 338 16:49 27.01.2021
3254 Clouds 3 1007 99 10000 1.34 241 16:28 27.01.2021
3255 Clouds 2 1007 99 10000 0.89 338 15:51 27.01.2021
3256 Clouds 2 1007 98 10000 1.34 188 15:32 27.01.2021
3257 Clouds 1 1007 98 10000 2.24 338 14:45 27.01.2021
3258 Clouds 1 1007 98 10000 2.24 170 14:22 27.01.2021
3259 Clouds 1 1007 98 10000 2.24 156 13:48 27.01.2021
3260 Clouds 1 1007 98 10000 2.68 168 13:26 27.01.2021
3261 Clouds 1 1008 98 10000 2.68 176 12:41 27.01.2021
3262 Clouds 1 1008 98 10000 2.68 168 12:22 27.01.2021
3263 Clouds 1 1008 98 10000 3.13 170 11:46 27.01.2021
3264 Rain 1 1009 98 2173 2.24 148 11:22 27.01.2021
3265 Clouds 1 1009 98 2173 2.68 147 10:41 27.01.2021
3266 Rain 1 1009 98 107 3.13 168 10:21 27.01.2021
3267 Snow 1 1009 97 107 2.24 338 09:49 27.01.2021
3268 Snow 0 1009 97 66 1.34 150 09:25 27.01.2021
3269 Snow 0 1010 96 66 1.34 152 08:32 27.01.2021
3270 Snow 1 1010 95 46 1.34 160 07:45 27.01.2021
3271 Snow 1 1010 94 88 2.24 168 07:21 27.01.2021
3272 Snow 2 1010 92 168 3.13 153 06:21 27.01.2021
3273 Snow 2 1010 92 168 3.13 170 05:46 27.01.2021
3274 Clouds 2 1012 93 10000 1.79 169 04:37 27.01.2021
3275 Clouds 2 1013 96 10000 2.24 338 02:24 27.01.2021
3276 Clouds 2 1013 96 10000 1.79 181 01:52 27.01.2021
3277 Clouds 1 1013 96 10000 1.79 177 00:48 27.01.2021
3278 Clouds 2 1014 96 10000 1.79 338 23:51 26.01.2021
3279 Clouds 2 1014 96 10000 1.34 184 23:32 26.01.2021
3280 Clouds 2 1015 96 10000 1.34 219 22:52 26.01.2021
3281 Clouds 2 1015 96 10000 1.34 197 22:33 26.01.2021
3282 Clouds 2 1015 96 10000 1.34 194 21:59 26.01.2021
3283 Clouds 2 1015 95 10000 1.34 192 21:40 26.01.2021
3284 Clouds 2 1015 95 10000 1.34 199 21:21 26.01.2021
3285 Clouds 2 1015 95 10000 0.89 193 20:41 26.01.2021
3286 Clouds 2 1015 95 10000 1.34 193 20:22 26.01.2021
3287 Clouds 2 1015 95 10000 0.89 227 19:48 26.01.2021
3288 Clouds 2 1015 95 10000 0.89 230 19:29 26.01.2021
3289 Clouds 2 1015 94 10000 0.45 338 18:57 26.01.2021
3290 Clouds 2 1015 94 10000 0.89 234 18:39 26.01.2021
3291 Clouds 2 1015 92 10000 0.45 232 18:19 26.01.2021
3292 Clouds 3 1015 92 10000 0.45 231 17:46 26.01.2021
3293 Clouds 4 1015 91 10000 0.89 231 17:22 26.01.2021
3294 Clouds 4 1015 90 10000 1.34 267 16:42 26.01.2021
3295 Clouds 4 1015 90 10000 1.34 267 16:42 26.01.2021
3296 Clouds 4 1015 89 10000 1.79 338 16:20 26.01.2021
3297 Clouds 5 1015 87 10000 1.79 249 15:49 26.01.2021
3298 Clouds 5 1015 88 10000 1.79 230 15:30 26.01.2021
3299 Clouds 6 1015 86 10000 1.79 224 14:49 26.01.2021
3300 Clouds 6 1015 85 10000 2.24 281 14:30 26.01.2021
3301 Clear 5 1014 85 10000 2.68 240 13:48 26.01.2021
3302 Clear 6 1014 84 10000 2.68 250 13:27 26.01.2021
3303 Clouds 6 1014 84 10000 2.24 253 12:45 26.01.2021
3304 Clouds 6 1014 87 10000 1.79 228 12:25 26.01.2021
3305 Clouds 4 1014 90 10000 1.34 252 11:59 26.01.2021
3306 Clouds 5 1014 93 10000 1.79 338 11:39 26.01.2021
3307 Clouds 3 1014 96 10000 1.34 277 10:55 26.01.2021
3308 Clouds 3 1014 96 10000 0.45 212 10:33 26.01.2021
3309 Clouds 3 1014 96 10000 0.45 212 10:33 26.01.2021
3310 Clouds 0 1014 98 10000 1.34 264 09:49 26.01.2021
3311 Clouds 0 1013 98 10000 1.34 287 09:30 26.01.2021
3312 Clouds 0 1013 97 10000 0.89 338 08:53 26.01.2021
3313 Clouds 1 1013 96 10000 0.45 320 08:34 26.01.2021
3314 Clouds 1 1012 96 10000 0.45 318 07:53 26.01.2021
3315 Clouds 1 1011 97 10000 3.25 15 06:53 26.01.2021
3316 Clouds 1 1010 96 10000 0.45 319 05:45 26.01.2021
3317 Clouds 1 1009 97 10000 0.45 338 05:24 26.01.2021
3318 Clouds 1 1006 97 10000 2.24 358 02:58 26.01.2021
3319 Clouds 1 1004 97 10000 1.34 137 00:58 26.01.2021
3320 Clouds 1 1004 96 10000 2.68 173 23:44 25.01.2021
3321 Rain 1 1004 96 4901 2.24 178 23:25 25.01.2021
3322 Clouds 1 1004 96 4901 2.24 176 22:40 25.01.2021
3323 Rain 2 1004 96 42 2.68 173 22:21 25.01.2021
3324 Rain 1 1004 96 42 3.13 195 21:40 25.01.2021
3325 Snow 2 1003 88 37 0.45 181 20:59 25.01.2021
3326 Clouds 2 1005 93 37 3.58 123 20:39 25.01.2021
3327 Clouds 2 1005 92 10000 2.24 170 20:19 25.01.2021
3328 Clouds 2 1005 90 10000 2.24 204 19:46 25.01.2021
3329 Clouds 2 1005 89 10000 2.24 214 19:22 25.01.2021
3330 Clouds 2 1005 88 10000 1.79 180 18:43 25.01.2021
3331 Clouds 2 1005 88 10000 1.79 164 18:24 25.01.2021
3332 Clouds 2 1005 86 10000 1.79 338 17:44 25.01.2021
3333 Clouds 2 1005 86 10000 1.79 338 17:44 25.01.2021
3334 Clouds 2 1005 85 10000 1.79 338 17:24 25.01.2021
3335 Clouds 3 1004 83 10000 1.79 202 16:44 25.01.2021
3336 Clouds 3 1004 83 10000 0.89 198 16:25 25.01.2021
3337 Clouds 4 1004 80 10000 1.34 338 15:54 25.01.2021
3338 Clouds 4 1004 80 10000 1.34 338 15:54 25.01.2021
3339 Clouds 4 1004 79 10000 1.79 226 15:34 25.01.2021
3340 Clouds 5 1004 82 10000 2.24 338 14:57 25.01.2021
3341 Clouds 5 1004 83 10000 2.24 257 14:38 25.01.2021
3342 Clear 5 1004 83 10000 2.24 243 14:18 25.01.2021
3343 Clear 5 1004 85 10000 2.24 265 13:40 25.01.2021
3344 Clouds 5 1004 85 10000 2.24 245 13:19 25.01.2021
3345 Clouds 5 1003 89 10000 1.79 218 12:40 25.01.2021
3346 Clouds 4 1003 90 10000 1.34 220 12:18 25.01.2021
3347 Clouds 1 1003 97 10000 0.89 212 11:28 25.01.2021
3348 Clouds 1 1000 93 10000 2.77 261 10:49 25.01.2021
3349 Clouds 0 1003 98 10000 0.89 224 10:22 25.01.2021
3350 Clouds 0 1003 98 10000 0.89 224 10:22 25.01.2021
3351 Clouds -1 1000 94 10000 2.38 262 09:52 25.01.2021
3352 Clouds -2 1000 94 10000 2.24 273 09:28 25.01.2021
3353 Mist -2 1001 93 4000 1.03 250 08:38 25.01.2021
3354 Clouds -2 1000 93 10000 1.54 230 07:58 25.01.2021
3355 Clouds -2 1001 97 10000 0.45 338 07:29 25.01.2021
3356 Clouds -2 1001 98 10000 0.89 338 06:38 25.01.2021
3357 Clouds -1 997 92 10000 2.45 259 02:32 25.01.2021
3358 Clouds 0 999 96 10000 2.65 248 00:45 25.01.2021
3359 Clouds 0 999 97 10000 2.43 244 23:39 24.01.2021
3360 Clouds 0 998 96 10000 0.45 348 23:18 24.01.2021
3361 Clouds 0 998 97 10000 0.89 348 22:40 24.01.2021
3362 Clouds 0 998 96 10000 2.67 250 22:18 24.01.2021
3363 Clouds -2 998 96 10000 0.45 348 21:37 24.01.2021
3364 Clouds -1 998 96 10000 2.88 254 21:18 24.01.2021
3365 Clouds -1 998 96 10000 0.45 348 20:41 24.01.2021
3366 Clouds -1 998 95 10000 0.45 348 20:19 24.01.2021
3367 Clouds -1 998 95 10000 0.45 348 20:19 24.01.2021
3368 Clouds -1 998 95 10000 0.45 348 19:48 24.01.2021
3369 Clouds 0 998 95 10000 0.45 348 19:25 24.01.2021
3370 Clouds 0 998 94 10000 3.05 259 18:56 24.01.2021
3371 Clouds 0 998 94 10000 2.98 267 18:37 24.01.2021
3372 Clouds 0 998 94 10000 0.45 349 18:19 24.01.2021
3373 Clouds 0 998 93 10000 0.45 279 17:47 24.01.2021
3374 Clouds 1 998 93 10000 0.45 281 17:20 24.01.2021
3375 Clouds 2 998 92 10000 2.88 269 16:42 24.01.2021
3376 Clouds 3 998 92 10000 0.89 279 16:23 24.01.2021
3377 Clouds 3 998 91 10000 1.34 279 15:58 24.01.2021
3378 Clouds 3 998 90 10000 1.34 280 15:40 24.01.2021
3379 Clouds 4 998 90 10000 2.24 264 15:18 24.01.2021
3380 Clouds 4 997 92 10000 2.24 338 14:37 24.01.2021
3381 Rain 3 998 93 10000 3.13 316 13:42 24.01.2021
3382 Clouds 3 998 92 10000 3.58 278 13:23 24.01.2021
3383 Rain 3 997 92 10000 2.68 283 12:43 24.01.2021
3384 Rain 3 997 92 10000 2.68 283 12:43 24.01.2021
3385 Rain 3 997 93 10000 2.24 257 12:19 24.01.2021
3386 Clouds 3 997 97 10000 2.68 252 11:49 24.01.2021
3387 Clouds 2 997 98 10000 1.34 338 11:24 24.01.2021
3388 Clouds 2 997 98 10000 1.34 288 10:45 24.01.2021
3389 Clouds 1 997 98 10000 1.34 338 10:18 24.01.2021
3390 Clouds 0 996 98 10000 0.45 176 09:22 24.01.2021
3391 Clouds 0 996 98 10000 0.45 338 08:57 24.01.2021
3392 Clouds -1 996 97 10000 0.45 338 08:22 24.01.2021
3393 Clouds 0 994 97 10000 0.77 166 02:52 24.01.2021
3394 Clouds 0 994 97 10000 0.04 177 01:52 24.01.2021
3395 Clouds 1 993 97 10000 1.23 206 00:26 24.01.2021
3396 Clouds 1 993 97 10000 1.23 206 23:53 23.01.2021
3397 Clouds 1 993 96 10000 0.45 179 23:27 23.01.2021
3398 Clouds 1 993 96 10000 1.92 196 22:57 23.01.2021
3399 Clouds 1 993 96 10000 1.92 196 22:37 23.01.2021
3400 Clouds 1 993 96 10000 1.99 187 21:53 23.01.2021
3401 Clouds 1 994 96 10000 0.89 176 21:22 23.01.2021
3402 Clouds 1 993 96 10000 1.34 338 20:49 23.01.2021
3403 Clouds 1 993 95 10000 0.45 211 20:29 23.01.2021
3404 Clouds 2 991 89 10000 1.88 213 19:47 23.01.2021
3405 Clouds 2 991 89 10000 1.88 213 19:47 23.01.2021
3406 Clouds 2 991 89 10000 1.71 241 19:25 23.01.2021
3407 Clouds 2 991 89 10000 1.71 241 19:25 23.01.2021
3408 Clouds 2 993 94 10000 0.89 338 18:52 23.01.2021
3409 Clouds 2 993 93 10000 0.89 217 18:28 23.01.2021
3410 Clouds 3 993 92 10000 1.34 216 17:56 23.01.2021
3411 Clouds 3 993 91 10000 0.89 221 17:28 23.01.2021
3412 Clouds 4 993 90 10000 2.24 205 16:52 23.01.2021
3413 Clouds 4 993 92 10000 2.24 222 16:32 23.01.2021
3414 Clouds 4 993 90 10000 3.13 338 15:49 23.01.2021
3415 Clouds 4 993 89 10000 2.68 216 15:27 23.01.2021
3416 Clouds 4 993 90 10000 3.13 338 14:38 23.01.2021
3417 Clouds 4 993 90 10000 3.13 228 14:19 23.01.2021
3418 Clouds 4 992 90 10000 3.13 224 13:40 23.01.2021
3419 Clouds 4 993 91 10000 2.68 338 13:22 23.01.2021
3420 Clouds 4 993 94 10000 3.13 191 12:43 23.01.2021
3421 Clouds 4 993 94 10000 3.13 338 12:23 23.01.2021
3422 Clouds 4 993 95 10000 3.58 192 11:35 23.01.2021
3423 Clouds 3 993 97 10000 3.58 247 10:55 23.01.2021
3424 Clouds 2 993 97 10000 3.13 160 10:24 23.01.2021
3425 Clouds 2 993 98 10000 3.58 338 09:52 23.01.2021
3426 Clouds 2 993 97 10000 3.58 132 09:28 23.01.2021
3427 Clouds 1 994 97 10000 3.13 165 08:42 23.01.2021
3428 Snow 1 993 97 10000 2.24 148 07:48 23.01.2021
3429 Clouds 0 994 97 10000 2.68 150 06:49 23.01.2021
3430 Clouds 1 995 97 10000 1.34 170 02:20 23.01.2021
3431 Clouds 1 995 96 10000 1.79 188 00:32 23.01.2021
3432 Clouds 2 995 95 10000 1.34 178 23:36 22.01.2021
3433 Clouds 2 995 94 10000 1.79 180 22:44 22.01.2021
3434 Clouds 2 994 93 10000 1.34 338 22:20 22.01.2021
3435 Clouds 2 994 92 10000 1.79 338 21:39 22.01.2021
3436 Clouds 2 994 92 10000 1.79 183 21:21 22.01.2021
3437 Clouds 2 994 91 10000 1.79 338 20:46 22.01.2021
3438 Clear 3 994 90 10000 1.79 203 20:26 22.01.2021
3439 Clear 3 993 88 10000 1.34 212 19:47 22.01.2021
3440 Clouds 4 993 87 10000 1.79 228 19:19 22.01.2021
3441 Clouds 4 993 86 10000 2.24 214 18:45 22.01.2021
3442 Clouds 4 993 86 10000 2.68 228 18:26 22.01.2021
3443 Clouds 4 992 84 10000 2.68 222 17:50 22.01.2021
3444 Clouds 5 992 84 10000 3.13 227 17:32 22.01.2021
3445 Clouds 5 992 84 10000 3.13 247 16:54 22.01.2021
3446 Clouds 5 991 83 10000 4.02 249 16:30 22.01.2021
3447 Clouds 6 991 83 10000 3.58 225 15:45 22.01.2021
3448 Clouds 6 990 81 10000 4.47 252 15:23 22.01.2021
3449 Clouds 6 989 82 10000 4.92 224 14:37 22.01.2021
3450 Clouds 6 989 81 10000 4.47 254 14:18 22.01.2021
3451 Clouds 7 989 85 10000 3.58 223 13:36 22.01.2021
3452 Clouds 6 989 89 10000 4.02 224 12:59 22.01.2021
3453 Clouds 6 988 89 10000 4.47 338 12:40 22.01.2021
3454 Clouds 6 988 89 10000 4.47 185 12:18 22.01.2021
3455 Clouds 5 988 91 10000 4.47 338 11:38 22.01.2021
3456 Clear 5 988 93 10000 3.58 233 10:48 22.01.2021
3457 Clear 4 987 93 10000 3.58 233 10:25 22.01.2021
3458 Clear 3 987 95 10000 4.02 338 09:45 22.01.2021
3459 Clear 3 986 95 10000 3.58 218 08:58 22.01.2021
3460 Clear 3 986 96 10000 3.58 338 08:32 22.01.2021
3461 Clouds 3 986 96 10000 3.58 218 07:50 22.01.2021
3462 Clouds 3 984 96 10000 2.68 188 05:26 22.01.2021
3463 Rain 4 981 96 454 2.68 295 02:29 22.01.2021
3464 Rain 5 982 95 5027 0.45 162 00:30 22.01.2021
3465 Rain 5 983 94 10000 2.24 162 23:50 21.01.2021
3466 Rain 6 983 90 10000 4.47 183 23:21 21.01.2021
3467 Clouds 6 983 86 10000 4.92 201 22:48 21.01.2021
3468 Clouds 6 984 85 10000 3.58 170 22:18 21.01.2021
3469 Clouds 6 984 86 10000 4.02 172 21:41 21.01.2021
3470 Clouds 6 985 86 10000 4.02 165 21:19 21.01.2021
3471 Clouds 6 985 85 10000 4.47 179 20:47 21.01.2021
3472 Clouds 6 986 84 10000 3.58 338 20:22 21.01.2021
3473 Clouds 6 986 83 10000 4.92 173 19:51 21.01.2021
3474 Clouds 6 986 82 10000 4.02 166 19:27 21.01.2021
3475 Clouds 7 986 81 10000 5.36 338 18:54 21.01.2021
3476 Clouds 7 987 80 10000 5.36 219 18:36 21.01.2021
3477 Clouds 7 987 80 10000 5.36 199 18:18 21.01.2021
3478 Clouds 7 987 80 10000 5.81 206 17:42 21.01.2021
3479 Clouds 7 987 80 10000 4.92 228 17:18 21.01.2021
3480 Clouds 7 986 78 10000 5.36 338 16:41 21.01.2021
3481 Clouds 7 986 78 10000 5.81 230 16:23 21.01.2021
3482 Clouds 8 986 78 10000 6.26 338 15:55 21.01.2021
3483 Clouds 8 986 78 10000 6.26 191 15:28 21.01.2021
3484 Clouds 8 986 78 10000 6.71 204 14:52 21.01.2021
3485 Clouds 8 986 78 10000 6.26 259 14:31 21.01.2021
3486 Clouds 8 986 78 10000 7.6 338 13:48 21.01.2021
3487 Clouds 9 986 80 10000 7.15 208 13:27 21.01.2021
3488 Clouds 8 987 77 10000 7.15 194 12:47 21.01.2021
3489 Clouds 8 987 78 10000 6.26 218 12:27 21.01.2021
3490 Clouds 8 987 77 10000 6.71 181 11:59 21.01.2021
3491 Clouds 7 987 77 10000 5.81 203 11:41 21.01.2021
3492 Clouds 7 987 79 10000 5.81 338 11:22 21.01.2021
3493 Clouds 7 987 81 10000 7.15 174 10:43 21.01.2021
3494 Clouds 7 987 82 10000 5.36 185 10:24 21.01.2021
3495 Clouds 6 986 85 10000 5.36 207 09:40 21.01.2021
3496 Clouds 6 986 86 10000 5.81 227 09:19 21.01.2021
3497 Clouds 6 985 85 10000 6.26 199 08:35 21.01.2021
3498 Clouds 7 984 89 10000 5.81 210 07:49 21.01.2021
3499 Rain 7 983 88 10000 6.26 189 07:26 21.01.2021
3500 Rain 10 982 87 10000 8.05 229 06:37 21.01.2021
3501 Rain 10 981 79 10000 7.6 166 04:58 21.01.2021
3502 Clouds 10 985 82 10000 4.92 179 02:22 21.01.2021
3503 Clouds 9 987 82 10000 5.36 172 00:43 21.01.2021
3504 Rain 10 988 79 10000 5.36 338 23:52 20.01.2021
3505 Clouds 10 988 77 10000 5.36 178 23:30 20.01.2021
3506 Clouds 9 989 75 10000 5.36 190 22:57 20.01.2021
3507 Clouds 9 989 75 10000 5.36 168 22:35 20.01.2021
3508 Clouds 9 989 77 10000 4.92 182 21:56 20.01.2021
3509 Clouds 9 990 77 10000 4.92 140 21:24 20.01.2021
3510 Clouds 9 990 76 10000 4.92 173 20:55 20.01.2021
3511 Clouds 9 991 77 10000 4.92 338 20:36 20.01.2021
3512 Clouds 9 991 77 10000 4.92 187 20:18 20.01.2021
3513 Clouds 9 991 77 10000 4.47 172 19:40 20.01.2021
3514 Clouds 9 991 76 10000 5.36 159 19:21 20.01.2021
3515 Clouds 9 991 79 10000 4.92 158 18:41 20.01.2021
3516 Clouds 9 991 79 10000 4.92 338 17:56 20.01.2021
3517 Clouds 9 992 80 10000 4.92 338 17:37 20.01.2021
3518 Clouds 9 992 82 10000 4.02 183 16:52 20.01.2021
3519 Clouds 9 992 83 10000 3.58 186 16:32 20.01.2021
3520 Rain 9 992 82 10000 4.92 169 15:51 20.01.2021
3521 Rain 10 992 82 10000 4.02 201 15:33 20.01.2021
3522 Clouds 10 992 84 10000 4.02 198 14:48 20.01.2021
3523 Clouds 10 993 84 10000 4.02 178 14:22 20.01.2021
3524 Clouds 9 993 88 10000 4.92 201 13:42 20.01.2021
3525 Clouds 9 993 89 10000 4.92 224 13:24 20.01.2021
3526 Clouds 9 994 90 10000 5.36 245 12:39 20.01.2021
3527 Clouds 9 994 91 10000 4.02 157 11:57 20.01.2021
3528 Clouds 8 994 91 10000 4.47 338 11:37 20.01.2021
3529 Clouds 8 995 92 10000 4.47 168 10:56 20.01.2021
3530 Clouds 8 995 93 10000 4.92 338 10:32 20.01.2021
3531 Clouds 8 995 93 10000 4.92 338 10:32 20.01.2021
3532 Clouds 7 995 95 10000 4.47 191 09:54 20.01.2021
3533 Clouds 7 995 95 10000 4.47 189 09:27 20.01.2021
3534 Clouds 7 995 94 10000 4.02 172 08:57 20.01.2021
3535 Clouds 7 995 93 10000 4.02 186 08:31 20.01.2021
3536 Clouds 7 995 93 10000 4.47 207 07:57 20.01.2021
3537 Clouds 7 995 94 10000 4.92 183 07:37 20.01.2021
3538 Clouds 7 996 95 10000 4.47 199 06:39 20.01.2021
3539 Rain 7 997 93 10000 5.36 199 03:28 20.01.2021
3540 Rain 7 998 95 10000 4.92 206 01:20 20.01.2021
3541 Clouds 7 998 95 10000 4.92 232 00:46 20.01.2021
3542 Clouds 8 999 96 10000 5.36 197 23:49 19.01.2021
3543 Clouds 8 999 96 10000 4.47 187 23:27 19.01.2021
3544 Clouds 8 999 96 10000 4.02 197 22:57 19.01.2021
3545 Clouds 8 999 95 10000 4.92 245 22:37 19.01.2021
3546 Clouds 8 1000 94 10000 5.81 338 22:19 19.01.2021
3547 Clouds 8 1000 95 10000 5.81 251 21:51 19.01.2021
3548 Clouds 8 1000 96 10000 5.36 338 21:27 19.01.2021
3549 Clouds 8 1000 94 10000 5.81 210 20:47 19.01.2021
3550 Rain 8 1000 94 10000 5.36 224 20:24 19.01.2021
3551 Rain 9 1000 95 10000 5.36 241 19:55 19.01.2021
3552 Clouds 9 1000 96 10000 5.36 239 19:30 19.01.2021
3553 Clouds 9 1000 97 10000 5.36 206 18:49 19.01.2021
3554 Clouds 9 1000 98 10000 4.92 242 18:30 19.01.2021
3555 Rain 8 1000 100 10000 3.58 338 17:47 19.01.2021
3556 Rain 8 1000 99 10000 2.24 228 17:29 19.01.2021
3557 Rain 8 1000 99 10000 2.68 205 16:59 19.01.2021
3558 Rain 8 1000 99 10000 2.68 212 16:38 19.01.2021
3559 Rain 8 1000 99 10000 2.68 200 16:18 19.01.2021
3560 Rain 8 1000 99 10000 2.68 218 15:47 19.01.2021
3561 Rain 8 1000 99 10000 3.13 241 15:29 19.01.2021
3562 Clouds 8 1000 99 10000 3.13 218 14:42 19.01.2021
3563 Clouds 8 999 99 10000 2.68 268 14:23 19.01.2021
3564 Clouds 8 1000 99 10000 3.13 338 13:49 19.01.2021
3565 Clouds 7 1000 99 10000 2.68 244 13:22 19.01.2021
3566 Clouds 6 1000 99 10000 2.68 221 12:48 19.01.2021
3567 Clouds 6 999 99 10000 2.68 205 12:30 19.01.2021
3568 Clouds 6 1000 98 10000 2.68 208 11:51 19.01.2021
3569 Clouds 6 1000 98 10000 2.68 167 11:28 19.01.2021
3570 Clouds 5 1000 98 10000 3.58 205 10:53 19.01.2021
3571 Clouds 5 1000 97 10000 4.02 170 10:32 19.01.2021
3572 Rain 5 1001 98 10000 3.58 170 09:54 19.01.2021
3573 Rain 5 1001 98 10000 4.02 338 09:36 19.01.2021
3574 Rain 4 1002 98 10000 4.02 200 08:59 19.01.2021
3575 Rain 4 1002 98 10000 4.47 338 08:26 19.01.2021
3576 Rain 4 1003 98 10000 4.02 177 07:51 19.01.2021
3577 Rain 4 1004 98 9874 3.58 223 06:55 19.01.2021
3578 Clouds 4 1009 97 10000 3.58 164 03:20 19.01.2021
3579 Clouds 4 1011 97 10000 2.68 222 02:21 19.01.2021
3580 Clouds 4 1013 95 10000 2.68 222 00:18 19.01.2021
3581 Clouds 4 1013 95 10000 2.68 214 23:41 18.01.2021
3582 Clouds 5 1013 95 10000 2.68 206 23:22 18.01.2021
3583 Clouds 5 1014 95 10000 2.68 212 22:41 18.01.2021
3584 Clouds 5 1014 96 10000 2.68 224 22:20 18.01.2021
3585 Clouds 5 1014 95 10000 2.24 234 21:43 18.01.2021
3586 Clouds 5 1014 95 10000 2.68 217 21:22 18.01.2021
3587 Clouds 5 1015 96 10000 2.68 185 20:53 18.01.2021
3588 Clouds 4 1014 96 10000 3.58 216 20:33 18.01.2021
3589 Clouds 5 1015 95 10000 2.68 233 19:52 18.01.2021
3590 Clouds 5 1015 95 10000 2.68 237 19:34 18.01.2021
3591 Clouds 5 1015 95 10000 2.68 246 18:48 18.01.2021
3592 Clouds 5 1015 95 10000 3.13 241 18:26 18.01.2021
3593 Clouds 5 1015 95 10000 3.13 237 17:47 18.01.2021
3594 Clouds 5 1015 95 10000 3.58 338 17:29 18.01.2021
3595 Clouds 5 1015 94 10000 3.13 251 16:50 18.01.2021
3596 Clouds 5 1015 94 10000 3.13 251 16:50 18.01.2021
3597 Clouds 5 1015 95 10000 4.02 194 16:27 18.01.2021
3598 Clouds 5 1015 95 10000 3.58 291 15:54 18.01.2021
3599 Clouds 5 1015 96 10000 4.02 338 15:29 18.01.2021
3600 Clouds 5 1015 97 10000 3.58 200 14:58 18.01.2021
3601 Clouds 5 1015 97 10000 3.58 275 14:38 18.01.2021
3602 Clouds 5 1016 98 10000 3.58 222 14:20 18.01.2021
3603 Clouds 5 1016 98 10000 4.02 217 13:44 18.01.2021
3604 Rain 5 1016 99 10000 3.13 338 13:20 18.01.2021
3605 Clouds 5 1017 99 10000 3.58 338 12:47 18.01.2021
3606 Clouds 4 1016 99 10000 3.58 221 12:19 18.01.2021
3607 Clouds 4 1017 99 10000 3.58 226 11:48 18.01.2021
3608 Clouds 4 1017 99 10000 3.13 197 11:27 18.01.2021
3609 Clouds 4 1017 99 10000 3.13 235 10:49 18.01.2021
3610 Clouds 3 1017 99 10000 3.13 217 10:30 18.01.2021
3611 Clouds 3 1018 99 10000 2.68 241 09:40 18.01.2021
3612 Clouds 3 1018 99 10000 2.68 209 09:18 18.01.2021
3613 Clouds 2 1018 99 10000 2.24 338 08:31 18.01.2021
3614 Rain 2 1018 100 10000 2.68 222 07:55 18.01.2021
3615 Clouds 1 1019 100 10000 2.24 203 06:35 18.01.2021
3616 Clouds 1 1019 99 10000 1.34 218 04:54 18.01.2021
3617 Clear 1 1020 99 10000 1.79 216 04:29 18.01.2021
3618 Clear 1 1020 99 10000 1.34 338 03:53 18.01.2021
3619 Clear 1 1020 99 10000 1.34 220 03:30 18.01.2021
3620 Clear 1 1020 99 10000 1.79 219 02:59 18.01.2021
3621 Clear 2 1020 99 10000 1.79 242 02:20 18.01.2021
3622 Clouds 2 1020 99 10000 1.34 238 00:42 18.01.2021
3623 Clouds 3 1020 99 10000 1.34 250 00:20 18.01.2021
3624 Clouds 2 1020 99 10000 0.89 255 23:44 17.01.2021
3625 Clouds 2 1020 99 10000 1.34 338 23:20 17.01.2021
3626 Clouds 1 1019 99 10000 1.34 338 22:26 17.01.2021
3627 Clouds 1 1019 99 10000 1.34 338 22:26 17.01.2021
3628 Clouds 2 1020 99 10000 1.34 338 21:58 17.01.2021
3629 Clouds 2 1019 99 10000 1.79 338 21:39 17.01.2021
3630 Clouds 2 1019 99 10000 1.79 259 21:21 17.01.2021
3631 Clouds 2 1019 99 10000 1.79 254 20:44 17.01.2021
3632 Clouds 2 1019 100 10000 1.79 338 20:25 17.01.2021
3633 Clouds 1 1019 99 10000 1.34 237 19:42 17.01.2021
3634 Clouds 1 1019 99 10000 0.89 137 19:19 17.01.2021
3635 Clouds 1 1018 99 10000 0.45 138 18:38 17.01.2021
3636 Clouds 1 1018 99 10000 0.45 140 18:19 17.01.2021
3637 Clouds 1 1018 99 10000 0.45 141 17:45 17.01.2021
3638 Snow 1 1018 99 5625 0.45 144 17:24 17.01.2021
3639 Clouds 1 1018 98 5625 0.45 141 16:43 17.01.2021
3640 Clouds 1 1018 98 10000 3.02 184 16:20 17.01.2021
3641 Clouds 1 1017 98 10000 0.45 139 15:42 17.01.2021
3642 Clouds 1 1017 99 10000 1.34 141 15:21 17.01.2021
3643 Clouds 1 1017 99 10000 1.34 138 14:48 17.01.2021
3644 Clouds 1 1017 98 10000 1.34 139 14:26 17.01.2021
3645 Clouds 1 1017 98 10000 1.34 338 13:45 17.01.2021
3646 Clouds 1 1017 98 10000 1.34 160 13:27 17.01.2021
3647 Clouds 0 1017 98 10000 1.79 167 12:52 17.01.2021
3648 Clouds 0 1017 98 10000 2.24 182 12:31 17.01.2021
3649 Clouds 0 1017 98 10000 2.68 132 11:56 17.01.2021
3650 Clouds 0 1017 98 10000 2.24 338 11:23 17.01.2021
3651 Clouds 0 1016 98 10000 2.24 159 10:48 17.01.2021
3652 Clouds -1 1016 98 10000 2.24 338 10:21 17.01.2021
3653 Clouds -1 1016 98 10000 2.24 165 09:42 17.01.2021
3654 Snow -1 1015 97 4090 2.24 338 08:45 17.01.2021
3655 Snow -1 1014 97 185 2.24 182 06:57 17.01.2021
3656 Clouds -1 1014 96 8960 2.24 176 04:28 17.01.2021
3657 Snow -1 1015 97 1737 2.24 121 02:48 17.01.2021
3658 Snow -1 1015 97 271 2.24 153 00:51 17.01.2021
3659 Snow -1 1016 97 232 2.24 338 00:20 17.01.2021
3660 Snow -1 1016 97 232 1.79 159 23:51 16.01.2021
3661 Clouds -1 1016 97 705 2.68 148 23:20 16.01.2021
3662 Snow -1 1016 97 705 1.79 147 22:45 16.01.2021
3663 Snow -1 1017 97 790 3.13 162 21:59 16.01.2021
3664 Snow 0 1017 97 790 3.13 142 21:40 16.01.2021
3665 Snow 0 1017 96 367 2.68 149 21:20 16.01.2021
3666 Snow 0 1017 96 367 2.68 181 20:45 16.01.2021
3667 Snow 0 1017 96 10000 2.68 179 20:22 16.01.2021
3668 Snow 0 1018 95 10000 3.13 338 19:48 16.01.2021
3669 Snow 0 1018 94 10000 3.13 338 19:29 16.01.2021
3670 Clouds 1 1018 86 10000 2.24 169 18:44 16.01.2021
3671 Clouds 1 1018 85 10000 2.68 168 18:26 16.01.2021
3672 Clouds 1 1018 85 10000 2.24 169 17:49 16.01.2021
3673 Clouds 1 1019 86 10000 2.24 170 17:30 16.01.2021
3674 Clouds 1 1019 86 10000 1.79 338 16:47 16.01.2021
3675 Clouds 1 1019 86 10000 1.79 338 16:47 16.01.2021
3676 Clouds 1 1020 85 10000 2.24 176 16:29 16.01.2021
3677 Clouds 1 1020 88 10000 2.24 185 15:54 16.01.2021
3678 Clouds 1 1020 89 10000 1.79 178 15:33 16.01.2021
3679 Clouds 1 1021 90 10000 1.79 178 14:30 16.01.2021
3680 Clouds 1 1021 90 10000 1.79 178 14:30 16.01.2021
3681 Clouds 2 1022 91 10000 1.79 338 13:50 16.01.2021
3682 Clouds 2 1022 92 10000 2.24 179 13:30 16.01.2021
3683 Clouds 2 1023 92 10000 1.79 178 12:47 16.01.2021
3684 Clouds 2 1023 92 10000 2.24 180 12:22 16.01.2021
3685 Clouds 2 1023 91 10000 1.79 170 11:55 16.01.2021
3686 Clouds 2 1024 91 10000 1.79 173 11:26 16.01.2021
3687 Clouds 1 1024 91 10000 0.89 164 10:51 16.01.2021
3688 Clouds 1 1024 92 10000 0.89 338 10:33 16.01.2021
3689 Clouds 1 1025 93 10000 1.34 169 09:50 16.01.2021
3690 Clouds 1 1025 93 10000 1.34 338 09:19 16.01.2021
3691 Clouds 1 1025 93 10000 1.34 338 09:19 16.01.2021
3692 Clouds 0 1025 94 10000 1.34 167 08:18 16.01.2021
3693 Clouds 0 1026 93 10000 0.45 338 06:49 16.01.2021
3694 Clouds 0 1027 92 5501 0.89 153 04:53 16.01.2021
3695 Clouds 0 1028 93 2256 0.45 141 03:18 16.01.2021
3696 Clouds 0 1028 93 2256 1.67 204 02:37 16.01.2021
3697 Snow 0 1029 91 408 0.45 142 00:45 16.01.2021
3698 Clouds 0 1029 91 1022 2.03 245 00:21 16.01.2021
3699 Clouds 0 1029 91 1022 0.89 149 23:37 15.01.2021
3700 Clouds 0 1029 89 6719 0.89 217 22:39 15.01.2021
3701 Clouds 0 1029 89 10000 0.45 217 22:21 15.01.2021
3702 Clouds 0 1029 89 10000 0.45 230 21:42 15.01.2021
3703 Clouds 0 1029 88 10000 0.89 237 20:49 15.01.2021
3704 Clouds 0 1029 88 10000 1.67 16 20:24 15.01.2021
3705 Clouds 0 1029 88 10000 1.67 16 20:24 15.01.2021
3706 Clouds 0 1029 88 10000 0.45 351 19:58 15.01.2021
3707 Clouds 0 1029 86 10000 0.45 352 19:39 15.01.2021
3708 Clouds 0 1029 86 10000 2.42 22 19:21 15.01.2021
3709 Clouds 1 1029 85 10000 2.42 22 18:42 15.01.2021
3710 Clouds 0 1029 84 10000 3 23 18:18 15.01.2021
3711 Clouds 1 1029 83 10000 0.45 351 17:41 15.01.2021
3712 Clouds 1 1029 83 10000 0.89 352 17:21 15.01.2021
3713 Clouds 1 1029 83 10000 0.45 352 16:46 15.01.2021
3714 Clouds 1 1029 82 10000 0.89 352 16:24 15.01.2021
3715 Clouds 1 1029 81 10000 0.89 353 15:41 15.01.2021
3716 Clouds 1 1029 80 10000 0.89 351 15:21 15.01.2021
3717 Clouds 1 1028 82 10000 0.45 10 14:46 15.01.2021
3718 Clouds 1 1029 82 10000 0.45 11 14:27 15.01.2021
3719 Clouds 1 1029 82 10000 0.89 11 13:43 15.01.2021
3720 Clouds 1 1029 81 10000 0.89 11 13:23 15.01.2021
3721 Clouds 1 1029 81 10000 1.34 13 12:58 15.01.2021
3722 Clouds 1 1029 81 10000 1.79 9 12:33 15.01.2021
3723 Clouds 1 1028 83 10000 1.34 16 11:56 15.01.2021
3724 Clouds 1 1028 81 10000 3.13 39 11:36 15.01.2021
3725 Clouds 1 1028 83 10000 2.68 45 10:57 15.01.2021
3726 Clouds 1 1028 84 10000 1.79 14 10:39 15.01.2021
3727 Snow 1 1028 85 10000 2.24 358 10:19 15.01.2021
3728 Snow 1 1027 87 10000 3.13 24 09:45 15.01.2021
3729 Clouds 1 1027 91 2565 0.89 16 09:27 15.01.2021
3730 Clouds 1 1027 93 9421 1.34 10 08:27 15.01.2021
3731 Clouds 1 1027 94 9421 2.24 10 07:41 15.01.2021
3732 Snow 1 1026 93 10000 0.89 6 07:20 15.01.2021
3733 Clouds 1 1026 88 10000 0.45 6 05:36 15.01.2021
3734 Clouds 1 1025 82 10000 1.34 16 02:19 15.01.2021
3735 Clouds 1 1024 90 10000 0.89 15 00:20 15.01.2021
3736 Clouds 1 1024 89 10000 1.34 11 23:29 14.01.2021
3737 Clouds 1 1024 87 10000 1.34 10 22:50 14.01.2021
3738 Clouds 1 1024 87 10000 0.45 18 22:27 14.01.2021
3739 Clouds 1 1023 87 10000 0.45 18 21:56 14.01.2021
3740 Clouds 1 1023 87 10000 0.89 18 21:38 14.01.2021
3741 Clouds 0 1023 88 10000 0.45 18 21:19 14.01.2021
3742 Clouds 0 1023 90 10000 0.45 18 20:42 14.01.2021
3743 Clouds 0 1023 92 10000 0.89 36 19:57 14.01.2021
3744 Clouds 0 1023 92 10000 0.45 37 19:36 14.01.2021
3745 Clouds 0 1022 92 10000 0.89 35 18:59 14.01.2021
3746 Clouds 0 1022 92 10000 1.34 53 18:39 14.01.2021
3747 Clouds 0 1022 91 10000 1.34 31 17:57 14.01.2021
3748 Clouds 0 1022 91 10000 1.79 43 17:30 14.01.2021
3749 Clouds 1 1022 89 10000 2.24 20 16:56 14.01.2021
3750 Clouds 1 1022 89 10000 1.79 26 16:35 14.01.2021
3751 Clouds 1 1021 88 10000 1.34 44 15:55 14.01.2021
3752 Clouds 2 1021 87 10000 1.34 45 15:32 14.01.2021
3753 Clouds 2 1021 85 10000 1.79 35 14:48 14.01.2021
3754 Clouds 2 1021 85 10000 0.89 33 14:30 14.01.2021
3755 Clouds 2 1021 85 10000 1.34 54 13:56 14.01.2021
3756 Clouds 2 1021 86 10000 1.34 60 13:25 14.01.2021
3757 Clouds 2 1022 85 10000 1.79 49 12:58 14.01.2021
3758 Clouds 2 1021 86 10000 1.79 49 12:24 14.01.2021
3759 Clouds 2 1021 87 10000 1.79 56 11:59 14.01.2021
3760 Clouds 2 1021 88 10000 1.79 16 11:41 14.01.2021
3761 Clouds 2 1021 89 10000 1.79 45 11:20 14.01.2021
3762 Clouds 2 1021 88 10000 1.79 47 10:43 14.01.2021
3763 Clouds 1 1021 89 10000 1.79 45 10:20 14.01.2021
3764 Clouds 0 1021 91 10000 0.89 53 09:44 14.01.2021
3765 Clouds 0 1021 91 10000 0.89 26 09:22 14.01.2021
3766 Clouds 0 1020 91 10000 1.34 31 08:43 14.01.2021
3767 Clouds 1 1020 91 10000 1.34 17 08:22 14.01.2021
3768 Clouds 1 1020 90 10000 1.34 17 07:45 14.01.2021
3769 Clouds 1 1019 88 10000 1.79 0 06:43 14.01.2021
3770 Clouds 1 1019 87 10000 1.34 3 05:45 14.01.2021
3771 Clouds 2 1015 83 10000 3.13 350 00:44 14.01.2021
3772 Clouds 2 1015 92 10000 1.79 328 23:51 13.01.2021
3773 Clouds 2 1014 93 10000 2.68 1 23:22 13.01.2021
3774 Clouds 2 1013 88 10000 2.68 314 22:28 13.01.2021
3775 Clouds 2 1013 82 10000 1.79 303 21:57 13.01.2021
3776 Clouds 2 1013 80 10000 2.24 321 21:38 13.01.2021
3777 Clouds 2 1012 77 10000 4.02 338 20:59 13.01.2021
3778 Clouds 2 1012 81 10000 2.68 338 20:33 13.01.2021
3779 Clouds 2 1012 81 10000 3.13 349 19:58 13.01.2021
3780 Clouds 2 1011 83 10000 2.68 338 19:39 13.01.2021
3781 Clouds 2 1011 86 10000 2.68 319 19:19 13.01.2021
3782 Clouds 2 1010 87 10000 3.13 338 18:40 13.01.2021
3783 Clouds 3 1009 82 10000 4.02 322 17:51 13.01.2021
3784 Clouds 4 1009 93 10000 3.58 324 17:26 13.01.2021
3785 Clouds 4 1009 93 10000 4.02 338 16:58 13.01.2021
3786 Clouds 4 1009 94 10000 4.92 325 16:22 13.01.2021
3787 Clouds 4 1009 94 10000 4.92 325 16:22 13.01.2021
3788 Clouds 5 1009 88 10000 5.36 338 15:59 13.01.2021
3789 Rain 5 1008 86 10000 4.47 338 15:39 13.01.2021
3790 Clouds 5 1008 86 10000 5.36 338 14:49 13.01.2021
3791 Clouds 6 1009 89 10000 5.36 257 13:58 13.01.2021
3792 Clouds 6 1009 85 10000 5.81 272 13:37 13.01.2021
3793 Clouds 6 1009 86 10000 5.36 247 13:18 13.01.2021
3794 Clouds 6 1009 85 10000 4.47 244 12:43 13.01.2021
3795 Clouds 5 1010 89 10000 4.02 230 12:22 13.01.2021
3796 Rain 5 1010 89 10000 4.02 268 11:47 13.01.2021
3797 Clouds 5 1010 89 10000 4.47 338 11:26 13.01.2021
3798 Clouds 4 1011 92 10000 4.47 244 10:46 13.01.2021
3799 Clouds 4 1011 92 10000 4.02 233 10:25 13.01.2021
3800 Clouds 3 1011 93 10000 3.13 268 09:40 13.01.2021
3801 Rain 3 1011 94 10000 3.13 255 08:57 13.01.2021
3802 Clouds 3 1011 93 10000 2.68 338 08:34 13.01.2021
3803 Clouds 3 1011 94 10000 3.58 338 07:56 13.01.2021
3804 Clouds 3 1011 94 10000 1.79 256 07:27 13.01.2021
3805 Rain 3 1012 93 10000 2.68 268 05:27 13.01.2021
3806 Rain 3 1011 94 10000 3.58 338 04:18 13.01.2021
3807 Clouds 3 1011 94 10000 3.13 226 03:41 13.01.2021
3808 Clouds 3 1012 93 10000 4.02 221 03:19 13.01.2021
3809 Clouds 3 1012 90 10000 3.13 260 00:44 13.01.2021
3810 Clouds 3 1011 88 10000 4.02 236 23:37 12.01.2021
3811 Clouds 3 1011 90 10000 3.13 338 22:57 12.01.2021
3812 Rain 3 1011 90 10000 1.79 338 22:36 12.01.2021
3813 Clouds 3 1011 91 10000 2.24 338 22:18 12.01.2021
3814 Clouds 3 1011 92 10000 3.13 257 21:42 12.01.2021
3815 Clouds 3 1011 93 10000 3.13 313 21:23 12.01.2021
3816 Clouds 3 1011 88 10000 1.34 272 20:46 12.01.2021
3817 Clouds 4 1010 87 10000 1.79 293 20:26 12.01.2021
3818 Clouds 4 1010 87 10000 1.79 293 20:26 12.01.2021
3819 Clouds 4 1010 87 10000 2.68 269 19:43 12.01.2021
3820 Clouds 4 1009 85 10000 2.24 277 18:57 12.01.2021
3821 Clouds 4 1009 85 10000 2.68 338 18:38 12.01.2021
3822 Clouds 4 1008 87 10000 3.13 310 18:20 12.01.2021
3823 Clouds 4 1008 90 10000 1.79 338 17:34 12.01.2021
3824 Clouds 4 1008 86 10000 1.79 309 16:54 12.01.2021
3825 Clouds 4 1007 84 10000 2.24 280 16:36 12.01.2021
3826 Clouds 4 1007 84 10000 2.68 293 16:18 12.01.2021
3827 Clouds 5 1006 84 10000 3.58 319 15:29 12.01.2021
3828 Clouds 5 1005 89 10000 4.02 274 14:57 12.01.2021
3829 Clouds 4 1005 88 10000 4.02 270 14:39 12.01.2021
3830 Clouds 5 1005 92 10000 3.13 293 14:18 12.01.2021
3831 Clouds 5 1005 94 10000 3.13 276 13:45 12.01.2021
3832 Clouds 5 1004 88 10000 4.47 255 12:39 12.01.2021
3833 Clouds 6 1004 87 10000 2.68 275 11:55 12.01.2021
3834 Clouds 6 1004 87 10000 2.68 294 11:36 12.01.2021
3835 Clouds 4 1004 97 10000 1.79 259 10:45 12.01.2021
3836 Clouds 4 1004 97 10000 0.89 286 10:20 12.01.2021
3837 Clouds 4 1004 97 10000 0.89 286 10:20 12.01.2021
3838 Clouds 4 1004 97 10000 1.79 285 09:55 12.01.2021
3839 Clouds 4 1003 97 10000 0.45 349 09:24 12.01.2021
3840 Clouds 4 1003 98 10000 0.45 338 08:42 12.01.2021
3841 Clouds 4 1002 98 10000 1.34 352 08:23 12.01.2021
3842 Clouds 5 1002 98 10000 0.89 351 07:35 12.01.2021
3843 Rain 5 1001 98 10000 1.79 305 06:22 12.01.2021
3844 Rain 6 1001 98 10000 1.34 314 05:30 12.01.2021
3845 Rain 7 1002 98 10000 3.58 215 03:26 12.01.2021
3846 Rain 7 1002 98 10000 4.47 338 02:19 12.01.2021
3847 Rain 6 1002 98 9623 4.47 253 01:28 12.01.2021
3848 Rain 6 1003 97 9932 4.47 203 23:51 11.01.2021
3849 Clouds 6 1004 97 9005 5.36 200 23:23 11.01.2021
3850 Rain 6 1004 97 9005 4.47 205 22:59 11.01.2021
3851 Rain 6 1004 98 9005 5.36 222 22:40 11.01.2021
3852 Rain 6 1004 98 7637 4.92 235 22:19 11.01.2021
3853 Rain 5 1005 97 7637 5.36 212 21:38 11.01.2021
3854 Rain 5 1005 97 9211 4.02 205 21:20 11.01.2021
3855 Rain 5 1006 97 8696 4.47 338 20:41 11.01.2021
3856 Rain 5 1006 96 10000 5.36 199 20:23 11.01.2021
3857 Rain 5 1006 96 10000 4.47 216 19:56 11.01.2021
3858 Rain 5 1007 95 10000 4.92 210 19:30 11.01.2021
3859 Clouds 5 1007 93 10000 4.47 246 18:46 11.01.2021
3860 Clouds 5 1007 92 10000 4.02 338 18:27 11.01.2021
3861 Clouds 5 1008 94 10000 4.02 237 17:56 11.01.2021
3862 Clouds 5 1008 94 10000 3.58 338 17:38 11.01.2021
3863 Clouds 5 1008 93 10000 4.02 213 17:19 11.01.2021
3864 Clouds 5 1009 93 10000 4.02 212 16:40 11.01.2021
3865 Clouds 5 1009 93 10000 4.47 208 16:21 11.01.2021
3866 Clouds 5 1009 94 10000 4.02 338 15:49 11.01.2021
3867 Clouds 5 1010 95 10000 4.02 226 15:27 11.01.2021
3868 Clouds 4 1010 95 10000 4.02 338 14:40 11.01.2021
3869 Clouds 4 1011 95 10000 4.02 338 14:19 11.01.2021
3870 Clouds 5 1011 96 10000 3.13 218 13:43 11.01.2021
3871 Clouds 5 1011 97 10000 4.47 215 13:19 11.01.2021
3872 Clouds 4 1012 98 10000 4.02 338 12:41 11.01.2021
3873 Clouds 4 1012 99 10000 3.58 232 12:21 11.01.2021
3874 Clouds 4 1013 99 10000 3.58 179 11:43 11.01.2021
3875 Clouds 4 1014 99 10000 3.58 218 10:55 11.01.2021
3876 Clouds 4 1014 99 10000 3.58 338 10:28 11.01.2021
3877 Clouds 4 1014 99 10000 3.58 182 09:48 11.01.2021
3878 Clouds 4 1014 99 10000 4.02 193 09:25 11.01.2021
3879 Clouds 4 1015 99 10000 4.02 204 08:47 11.01.2021
3880 Clouds 4 1015 99 10000 3.58 338 08:22 11.01.2021
3881 Clouds 4 1015 99 10000 3.58 232 07:41 11.01.2021
3882 Clouds 4 1015 99 10000 4.02 217 07:21 11.01.2021
3883 Clouds 4 1016 99 10000 3.58 184 06:49 11.01.2021
3884 Clouds 4 1018 100 10000 3.13 223 02:23 11.01.2021
3885 Clouds 4 1018 99 10000 2.68 218 00:40 11.01.2021
3886 Clouds 4 1019 99 10000 2.68 169 23:47 10.01.2021
3887 Clouds 4 1019 99 10000 2.24 193 22:57 10.01.2021
3888 Clouds 4 1019 99 10000 1.79 230 22:38 10.01.2021
3889 Clouds 4 1019 99 10000 2.24 207 22:18 10.01.2021
3890 Clouds 4 1019 99 10000 2.24 218 21:40 10.01.2021
3891 Clouds 4 1019 99 10000 2.24 222 21:18 10.01.2021
3892 Clouds 4 1019 99 10000 2.68 338 20:47 10.01.2021
3893 Clouds 4 1019 99 10000 2.68 222 20:27 10.01.2021
3894 Clouds 4 1020 99 10000 2.68 226 19:40 10.01.2021
3895 Clouds 4 1020 99 10000 3.13 211 19:22 10.01.2021
3896 Clouds 4 1020 99 10000 3.13 211 19:22 10.01.2021
3897 Clouds 4 1019 99 10000 2.68 246 18:45 10.01.2021
3898 Clouds 3 1020 99 10000 3.13 193 18:20 10.01.2021
3899 Clouds 3 1020 99 10000 3.13 209 17:26 10.01.2021
3900 Clouds 3 1020 98 10000 2.68 217 16:51 10.01.2021
3901 Clouds 3 1020 98 10000 3.13 225 16:30 10.01.2021
3902 Clouds 3 1020 98 10000 2.68 212 15:42 10.01.2021
3903 Clouds 3 1021 98 10000 2.68 206 15:24 10.01.2021
3904 Clouds 3 1021 98 10000 3.13 230 14:41 10.01.2021
3905 Clouds 3 1021 98 10000 3.13 338 14:23 10.01.2021
3906 Clouds 3 1021 98 10000 2.68 205 13:54 10.01.2021
3907 Clouds 3 1021 98 10000 3.13 201 13:36 10.01.2021
3908 Clouds 2 1021 98 10000 2.68 195 13:18 10.01.2021
3909 Clouds 2 1022 99 10000 2.68 338 12:41 10.01.2021
3910 Clouds 2 1022 99 10000 2.24 205 11:58 10.01.2021
3911 Clouds 1 1022 100 10000 1.79 200 11:22 10.01.2021
3912 Clouds 1 1022 100 10000 2.24 185 10:58 10.01.2021
3913 Clouds 1 1022 100 10000 1.34 198 10:28 10.01.2021
3914 Clouds 0 1022 100 10000 1.79 195 09:57 10.01.2021
3915 Clouds 0 1023 100 10000 1.34 182 09:18 10.01.2021
3916 Clouds 0 1022 100 10000 0.89 179 08:19 10.01.2021
3917 Clouds 0 1022 100 10000 1.34 183 07:28 10.01.2021
3918 Clouds 0 1022 100 10000 1.34 180 06:19 10.01.2021
3919 Clouds 0 1023 99 10000 1.34 181 05:35 10.01.2021
3920 Clouds 1 1023 99 10000 1.34 192 02:56 10.01.2021
3921 Clear 0 1023 99 10000 0.89 145 00:48 10.01.2021
3922 Clear 1 1023 99 10000 0.89 143 23:48 09.01.2021
3923 Clear 1 1023 99 10000 0.89 143 23:29 09.01.2021
3924 Clear 1 1023 99 10000 1.34 141 22:47 09.01.2021
3925 Clear -1 1023 99 10000 1.34 141 22:18 09.01.2021
3926 Clear -1 1023 99 10000 1.34 134 21:57 09.01.2021
3927 Clear -1 1023 99 10000 0.89 133 21:38 09.01.2021
3928 Clear -1 1023 99 10000 0.89 338 21:18 09.01.2021
3929 Clear -1 1023 98 10000 0.89 136 20:44 09.01.2021
3930 Clear 0 1023 98 10000 1.34 137 19:45 09.01.2021
3931 Clouds 0 1023 97 10000 1.34 153 19:22 09.01.2021
3932 Clouds 0 1023 97 10000 1.34 123 18:56 09.01.2021
3933 Clouds 0 1023 97 10000 0.89 142 18:34 09.01.2021
3934 Clouds 1 1023 97 10000 0.89 121 17:50 09.01.2021
3935 Clouds 1 1023 97 10000 1.34 123 17:31 09.01.2021
3936 Clouds 1 1022 96 10000 0.89 160 16:36 09.01.2021
3937 Clouds 2 1022 96 10000 0.89 160 15:53 09.01.2021
3938 Clouds 2 1022 95 10000 0.89 166 15:34 09.01.2021
3939 Clouds 3 1022 95 10000 0.45 197 14:42 09.01.2021
3940 Clouds 3 1022 95 10000 0.89 195 14:21 09.01.2021
3941 Clouds 3 1022 95 10000 0.45 338 13:50 09.01.2021
3942 Clouds 4 1022 95 10000 0.45 338 13:31 09.01.2021
3943 Clouds 4 1022 97 10000 0.45 195 12:59 09.01.2021
3944 Clouds 3 1023 98 10000 0.89 197 12:27 09.01.2021
3945 Clouds 2 1023 99 10000 0.89 265 11:57 09.01.2021
3946 Clouds 2 1023 99 10000 0.45 280 11:36 09.01.2021
3947 Clouds 2 1023 99 10000 0.69 60 10:56 09.01.2021
3948 Clouds 1 1023 99 10000 0.69 60 10:37 09.01.2021
3949 Clouds 1 1020 94 10000 0.95 7 10:19 09.01.2021
3950 Snow 0 1020 93 10000 0.95 7 09:43 09.01.2021
3951 Clouds 0 1020 94 10000 1.16 335 09:19 09.01.2021
3952 Clouds 0 1021 98 10000 1.29 319 07:48 09.01.2021
3953 Clouds 0 1021 98 10000 0.45 338 06:42 09.01.2021
3954 Clouds 0 1021 98 10000 1.24 334 06:23 09.01.2021
3955 Clouds 0 1021 98 10000 2.04 8 03:53 09.01.2021
3956 Clouds -1 1020 97 10000 2.34 3 02:41 09.01.2021
3957 Clouds -1 1020 98 10000 0.45 338 02:23 09.01.2021
3958 Clouds 0 1020 97 10000 2.66 356 01:24 09.01.2021
3959 Clouds 1 1020 97 10000 2.74 358 00:33 09.01.2021
3960 Clouds 1 1020 97 10000 2.74 358 00:33 09.01.2021
3961 Clouds 0 1020 97 10000 2.88 354 23:45 08.01.2021
3962 Clouds 0 1019 96 10000 3.21 351 22:46 08.01.2021
3963 Clouds 1 1018 96 10000 0.45 300 21:53 08.01.2021
3964 Clouds 1 1018 96 10000 3.08 351 21:19 08.01.2021
3965 Clouds 1 1018 96 10000 3.08 351 20:37 08.01.2021
3966 Clouds 1 1018 96 10000 0.45 338 19:58 08.01.2021
3967 Clouds 1 1018 96 10000 0.45 298 19:25 08.01.2021
3968 Clouds 1 1017 95 10000 3.12 353 18:54 08.01.2021
3969 Clouds 1 1017 95 10000 2.95 359 18:33 08.01.2021
3970 Clouds 1 1017 94 10000 3.02 356 17:55 08.01.2021
3971 Clouds 1 1017 93 10000 2.95 356 17:25 08.01.2021
3972 Clouds 2 1016 92 10000 2.95 356 16:49 08.01.2021
3973 Clouds 2 1016 91 10000 3.04 357 15:55 08.01.2021
3974 Clouds 3 1015 90 10000 0.45 355 15:33 08.01.2021
3975 Clouds 3 1015 87 10000 1.79 355 14:40 08.01.2021
3976 Clouds 4 1015 89 10000 2.24 343 14:20 08.01.2021
3977 Clouds 4 1015 96 10000 0.89 278 13:22 08.01.2021
3978 Clouds 3 1015 97 10000 0.89 278 12:52 08.01.2021
3979 Clouds 4 1015 99 1041 1.34 276 12:23 08.01.2021
3980 Clouds 3 1015 99 1041 0.89 278 11:59 08.01.2021
3981 Clouds 2 1015 99 1041 0.89 274 11:40 08.01.2021
3982 Clouds 2 1015 99 330 0.45 338 11:20 08.01.2021
3983 Clouds 1 1015 99 330 3.44 16 10:45 08.01.2021
3984 Clouds 1 1015 99 282 3.8 13 10:23 08.01.2021
3985 Clouds 0 1014 99 282 3.8 13 09:41 08.01.2021
3986 Clouds 0 1014 99 108 3.41 13 09:20 08.01.2021
3987 Clouds 1 1013 99 573 0.45 8 07:44 08.01.2021
3988 Clouds 1 1013 99 4847 0.45 8 07:25 08.01.2021
3989 Snow 1 1011 99 360 0.45 269 04:20 08.01.2021
3990 Clouds 1 1010 99 208 2.11 7 23:45 07.01.2021
3991 Clouds 1 1010 99 1119 1.77 8 23:27 07.01.2021
3992 Clouds 1 1010 99 1119 1.77 8 22:38 07.01.2021
3993 Clouds 1 1010 99 9691 1.42 8 22:18 07.01.2021
3994 Clouds 1 1010 99 9691 1.42 8 21:40 07.01.2021
3995 Clouds 1 1010 99 10000 1.48 11 21:21 07.01.2021
3996 Clouds 2 1010 98 10000 1.48 11 20:44 07.01.2021
3997 Clouds 2 1010 99 10000 1.85 13 20:23 07.01.2021
3998 Clouds 2 1010 99 10000 1.85 13 19:42 07.01.2021
3999 Clouds 1 1010 98 2412 0.45 338 18:55 07.01.2021
4000 Clouds 2 1010 98 2412 2.09 352 18:30 07.01.2021
4001 Clouds 2 1009 98 8094 0.45 267 17:42 07.01.2021
4002 Clouds 2 1009 98 1488 0.45 268 17:22 07.01.2021
4003 Clouds 2 1009 98 1488 2.25 344 16:53 07.01.2021
4004 Clouds 2 1009 98 1083 2.05 343 16:27 07.01.2021
4005 Clouds 3 1009 98 1083 0.45 268 15:40 07.01.2021
4006 Clouds 3 1009 99 626 0.89 264 14:55 07.01.2021
4007 Clouds 3 1009 99 155 0.45 264 14:27 07.01.2021
4008 Clouds 3 1009 99 155 0.89 264 13:43 07.01.2021
4009 Clouds 3 1010 99 119 0.89 253 13:18 07.01.2021
4010 Clouds 3 1008 96 92 2.28 321 12:42 07.01.2021
4011 Rain 2 1010 100 76 0.89 236 11:55 07.01.2021
4012 Clouds 2 1011 100 76 0.89 234 11:36 07.01.2021
4013 Clouds 2 1011 100 78 0.45 338 10:50 07.01.2021
4014 Rain 2 1011 99 95 0.45 237 10:27 07.01.2021
4015 Clouds 1 1011 99 95 0.89 238 09:48 07.01.2021
4016 Rain 1 1011 99 70 0.89 233 09:20 07.01.2021
4017 Snow 1 1011 99 69 0.45 232 08:29 07.01.2021
4018 Snow 1 1011 99 69 0.89 249 07:53 07.01.2021
4019 Snow 1 1011 99 69 1.34 247 07:32 07.01.2021
4020 Snow 1 1011 99 59 0.89 241 05:26 07.01.2021
4021 Snow 1 1012 98 33 1.34 268 00:32 07.01.2021
4022 Clouds 1 1013 98 31 0.89 269 23:51 06.01.2021
4023 Snow 1 1013 98 32 0.89 338 22:50 06.01.2021
4024 Snow 1 1013 98 59 0.89 266 21:59 06.01.2021
4025 Snow 1 1013 98 59 0.89 268 21:41 06.01.2021
4026 Clouds 1 1014 98 265 0.89 269 21:21 06.01.2021
4027 Clouds 1 1013 98 265 0.89 267 20:40 06.01.2021
4028 Clouds 1 1013 98 209 0.89 314 20:19 06.01.2021
4029 Clouds 1 1014 98 209 0.89 338 19:42 06.01.2021
4030 Snow 1 1014 98 59 0.89 314 19:24 06.01.2021
4031 Clouds 1 1014 97 204 0.89 314 18:45 06.01.2021
4032 Snow 1 1014 97 127 0.45 325 18:26 06.01.2021
4033 Snow 1 1014 97 127 0.45 325 17:43 06.01.2021
4034 Snow 1 1014 96 53 0.45 325 17:25 06.01.2021
4035 Snow 1 1014 96 53 1.34 338 16:51 06.01.2021
4036 Snow 1 1014 95 31 1.79 347 16:20 06.01.2021
4037 Snow 1 1014 96 31 0.89 349 15:57 06.01.2021
4038 Snow 1 1014 96 31 2.24 8 15:32 06.01.2021
4039 Clouds 2 1015 95 32 2.24 18 14:56 06.01.2021
4040 Snow 2 1015 96 32 2.24 355 14:30 06.01.2021
4041 Snow 2 1015 96 32 2.24 355 14:30 06.01.2021
4042 Clouds 2 1015 95 192 1.79 343 13:51 06.01.2021
4043 Clouds 2 1015 94 450 1.79 2 13:25 06.01.2021
4044 Clouds 2 1016 94 526 1.34 10 12:54 06.01.2021
4045 Clouds 2 1016 94 526 0.89 347 12:30 06.01.2021
4046 Clouds 2 1017 92 717 1.79 359 11:44 06.01.2021
4047 Clouds 2 1017 92 4960 0.89 358 11:21 06.01.2021
4048 Clouds 2 1017 93 4960 1.34 1 10:35 06.01.2021
4049 Clouds 2 1018 93 10000 0.89 22 09:52 06.01.2021
4050 Clouds 2 1018 92 10000 2.24 25 09:27 06.01.2021
4051 Clouds 2 1018 91 10000 0.89 11 08:51 06.01.2021
4052 Clouds 2 1018 91 10000 0.89 11 08:18 06.01.2021
4053 Clouds 2 1018 91 10000 0.89 10 07:49 06.01.2021
4054 Clouds 2 1018 94 10000 1.34 24 05:59 06.01.2021
4055 Clouds 1 1018 94 10000 1.34 10 05:28 06.01.2021
4056 Clouds 2 1019 94 10000 1.79 13 02:59 06.01.2021
4057 Clouds 2 1019 94 10000 2.24 27 02:40 06.01.2021
4058 Clouds 2 1020 94 10000 1.79 24 02:19 06.01.2021
4059 Clouds 2 1020 93 10000 2.24 39 23:48 05.01.2021
4060 Clouds 2 1020 93 10000 1.79 18 22:57 05.01.2021
4061 Clouds 2 1020 93 10000 2.24 2 22:38 05.01.2021
4062 Clouds 2 1020 93 10000 2.68 21 22:19 05.01.2021
4063 Clouds 2 1020 94 10000 2.68 39 21:21 05.01.2021
4064 Clouds 3 1020 94 10000 2.68 58 20:30 05.01.2021
4065 Clouds 3 1020 94 10000 3.13 19 19:55 05.01.2021
4066 Clouds 3 1020 94 10000 2.68 59 19:36 05.01.2021
4067 Clouds 3 1020 94 3185 2.68 51 19:18 05.01.2021
4068 Clouds 3 1020 95 1300 2.68 34 18:42 05.01.2021
4069 Clouds 3 1020 95 1045 3.13 74 18:18 05.01.2021
4070 Clouds 3 1020 95 1045 3.13 18 17:40 05.01.2021
4071 Clouds 3 1020 95 726 3.58 49 17:20 05.01.2021
4072 Clouds 3 1019 95 726 3.13 20 16:39 05.01.2021
4073 Rain 3 1019 95 280 3.13 73 16:20 05.01.2021
4074 Clouds 3 1019 95 280 3.13 29 15:49 05.01.2021
4075 Clouds 3 1019 95 356 3.13 18 14:49 05.01.2021
4076 Clouds 3 1019 95 296 2.68 29 14:20 05.01.2021
4077 Clouds 3 1019 95 296 3.13 40 13:46 05.01.2021
4078 Clouds 3 1020 95 3164 3.13 34 13:22 05.01.2021
4079 Clouds 3 1020 95 3164 3.13 24 12:47 05.01.2021
4080 Clouds 3 1020 96 2582 2.68 18 12:24 05.01.2021
4081 Clouds 3 1020 96 2582 3.13 36 11:39 05.01.2021
4082 Clouds 3 1020 96 2582 3.13 40 11:39 05.01.2021
4083 Clouds 3 1020 96 2582 3.13 36 11:39 05.01.2021
4084 Clouds 3 1020 96 2582 3.13 40 11:39 05.01.2021
4085 Clouds 3 1020 96 10000 3.58 22 10:46 05.01.2021
4086 Clouds 3 1020 96 10000 3.13 48 10:27 05.01.2021
4087 Clouds 2 1020 96 10000 2.68 30 09:49 05.01.2021
4088 Clouds 2 1020 96 10000 2.68 30 09:49 05.01.2021
4089 Clouds 2 1020 95 10000 2.68 39 09:28 05.01.2021
4090 Rain 2 1020 94 10000 2.68 20 08:27 05.01.2021
4091 Clouds 3 1020 95 10000 3.13 31 07:45 05.01.2021
4092 Clouds 2 1019 96 1548 3.58 349 04:55 05.01.2021
4093 Clouds 2 1019 95 78 4.02 33 00:51 05.01.2021
4094 Snow 2 1019 95 79 3.58 69 23:59 04.01.2021
4095 Snow 2 1019 94 79 3.58 43 23:36 04.01.2021
4096 Snow 2 1019 94 335 3.58 42 23:18 04.01.2021
4097 Clouds 2 1019 93 335 4.02 34 22:41 04.01.2021
4098 Clouds 2 1020 92 572 4.47 19 21:53 04.01.2021
4099 Clouds 2 1020 91 572 3.58 46 21:35 04.01.2021
4100 Clouds 2 1020 90 493 3.13 39 20:51 04.01.2021
4101 Clouds 2 1020 89 493 3.58 55 20:31 04.01.2021
4102 Clouds 2 1020 89 3151 3.13 43 19:53 04.01.2021
4103 Clouds 2 1020 88 6387 3.58 25 19:29 04.01.2021
4104 Clouds 2 1020 89 6387 4.02 41 18:58 04.01.2021
4105 Clouds 2 1020 89 1217 2.68 35 18:29 04.01.2021
4106 Clouds 2 1020 89 1217 2.68 22 17:44 04.01.2021
4107 Clouds 2 1020 89 4928 3.13 22 17:26 04.01.2021
4108 Clouds 2 1020 89 4928 3.58 29 16:48 04.01.2021
4109 Clouds 2 1020 89 10000 3.13 23 16:27 04.01.2021
4110 Clouds 2 1020 89 10000 3.13 20 15:51 04.01.2021
4111 Clouds 2 1020 89 10000 4.02 12 15:32 04.01.2021
4112 Clouds 2 1020 89 10000 3.13 27 14:50 04.01.2021
4113 Clouds 2 1020 90 10000 3.58 68 13:53 04.01.2021
4114 Clouds 2 1020 90 10000 2.68 357 13:34 04.01.2021
4115 Clouds 2 1021 89 10000 4.02 41 12:50 04.01.2021
4116 Clouds 2 1021 89 10000 3.13 53 12:25 04.01.2021
4117 Clouds 2 1022 90 10000 3.58 24 11:32 04.01.2021
4118 Clouds 2 1022 90 10000 4.02 43 10:56 04.01.2021
4119 Clouds 2 1022 90 10000 3.58 47 10:38 04.01.2021
4120 Clouds 2 1022 90 10000 3.58 15 10:19 04.01.2021
4121 Clouds 2 1021 91 10000 4.02 19 09:24 04.01.2021
4122 Clouds 2 1021 91 10000 3.58 13 08:50 04.01.2021
4123 Clouds 2 1021 91 10000 4.47 56 08:21 04.01.2021
4124 Clouds 3 1021 92 10000 4.02 24 07:45 04.01.2021
4125 Clouds 3 1020 92 10000 4.47 43 05:35 04.01.2021
4126 Clouds 3 1020 92 10000 4.47 45 04:56 04.01.2021
4127 Clouds 3 1019 94 10000 4.47 43 01:31 04.01.2021
4128 Rain 3 1016 91 10000 1.79 38 23:57 03.01.2021
4129 Rain 3 1016 91 10000 1.79 100 23:37 03.01.2021
4130 Clouds 3 1019 94 10000 4.47 39 22:57 03.01.2021
4131 Clouds 3 1019 94 10000 4.02 41 22:39 03.01.2021
4132 Rain 3 1019 93 10000 4.02 76 22:21 03.01.2021
4133 Rain 3 1019 93 10000 4.02 76 22:21 03.01.2021
4134 Clouds 4 1019 93 10000 3.58 88 21:40 03.01.2021
4135 Rain 4 1019 93 10000 3.58 23 21:22 03.01.2021
4136 Clouds 4 1019 92 10000 4.02 8 20:40 03.01.2021
4137 Clouds 4 1019 92 10000 3.13 351 20:19 03.01.2021
4138 Clouds 4 1019 91 10000 3.58 35 19:46 03.01.2021
4139 Clouds 4 1019 91 10000 4.02 41 19:27 03.01.2021
4140 Clouds 4 1019 91 10000 3.13 24 18:46 03.01.2021
4141 Clouds 4 1019 91 10000 3.13 53 18:25 03.01.2021
4142 Clouds 3 1019 91 10000 3.13 37 17:53 03.01.2021
4143 Clouds 4 1019 92 10000 3.13 15 17:27 03.01.2021
4144 Clouds 3 1019 91 10000 2.24 24 16:55 03.01.2021
4145 Clouds 3 1019 91 10000 3.13 13 16:37 03.01.2021
4146 Clouds 3 1019 91 10000 3.13 16 16:18 03.01.2021
4147 Clouds 4 1019 91 10000 2.24 35 15:40 03.01.2021
4148 Clouds 4 1019 91 10000 2.24 14 14:59 03.01.2021
4149 Clouds 4 1019 91 10000 2.24 31 14:41 03.01.2021
4150 Clouds 4 1019 91 10000 2.24 31 13:54 03.01.2021
4151 Clouds 4 1019 91 10000 2.68 60 13:26 03.01.2021
4152 Clouds 4 1019 91 10000 2.68 32 12:58 03.01.2021
4153 Clouds 4 1019 97 10000 1.79 31 11:46 03.01.2021
4154 Clouds 4 1019 97 10000 2.24 14 11:27 03.01.2021
4155 Clouds 3 1019 97 10000 1.79 43 10:57 03.01.2021
4156 Clouds 3 1019 97 10000 1.79 41 10:32 03.01.2021
4157 Clouds 3 1019 98 10000 1.34 40 09:49 03.01.2021
4158 Clouds 3 1019 98 10000 1.79 57 09:25 03.01.2021
4159 Clouds 3 1018 98 10000 1.79 21 08:29 03.01.2021
4160 Clouds 3 1017 98 10000 1.34 40 06:57 03.01.2021
4161 Clouds 3 1016 99 10000 1.34 97 03:29 03.01.2021
4162 Clouds 3 1016 99 10000 0.45 114 02:26 03.01.2021
4163 Clouds 4 1016 99 10000 0.45 143 00:27 03.01.2021
4164 Rain 4 1016 99 10000 0.89 139 23:52 02.01.2021
4165 Clouds 4 1015 99 10000 2.26 104 23:19 02.01.2021
4166 Clouds 4 1015 99 10000 0.45 338 22:47 02.01.2021
4167 Clouds 4 1015 99 10000 1.34 338 22:29 02.01.2021
4168 Clouds 4 1015 99 10000 1.34 135 21:48 02.01.2021
4169 Clouds 4 1015 99 10000 0.89 172 21:29 02.01.2021
4170 Clouds 4 1015 99 10000 0.45 191 20:45 02.01.2021
4171 Clouds 4 1014 99 10000 2.7 144 20:25 02.01.2021
4172 Clouds 4 1014 99 10000 2.7 144 19:47 02.01.2021
4173 Clouds 4 1014 99 10000 2.52 152 19:20 02.01.2021
4174 Clouds 4 1014 99 10000 0.89 338 18:51 02.01.2021
4175 Clouds 4 1014 98 10000 2.17 154 18:32 02.01.2021
4176 Clouds 4 1013 99 10000 2.17 154 17:46 02.01.2021
4177 Clouds 4 1013 99 10000 1.85 160 17:28 02.01.2021
4178 Clouds 4 1013 99 10000 1.85 160 16:46 02.01.2021
4179 Clouds 5 1013 98 10000 0.45 193 16:22 02.01.2021
4180 Clouds 5 1013 99 10000 1.52 167 15:48 02.01.2021
4181 Clouds 5 1013 99 10000 0.89 190 15:28 02.01.2021
4182 Clouds 5 1012 99 10000 0.45 189 14:47 02.01.2021
4183 Clouds 4 1012 99 10000 0.45 193 14:24 02.01.2021
4184 Clouds 4 1012 99 10000 0.89 189 13:44 02.01.2021
4185 Clouds 4 1012 99 10000 1.79 210 12:59 02.01.2021
4186 Clouds 4 1012 99 10000 1.79 211 12:40 02.01.2021
4187 Clouds 4 1012 99 10000 1.34 187 12:19 02.01.2021
4188 Clouds 4 1012 99 10000 1.34 338 11:38 02.01.2021
4189 Clouds 4 1012 99 10000 1.34 196 11:20 02.01.2021
4190 Clouds 4 1012 99 10000 1.34 188 10:41 02.01.2021
4191 Clouds 3 1012 99 10000 1.34 179 10:23 02.01.2021
4192 Clouds 3 1012 99 10000 0.89 177 09:43 02.01.2021
4193 Clear 3 1012 99 10000 0.45 177 09:20 02.01.2021
4194 Clear 3 1011 98 10000 0.45 176 08:48 02.01.2021
4195 Clouds 3 1011 99 10000 0.89 175 08:19 02.01.2021
4196 Clouds 3 1011 98 10000 1.34 183 07:25 02.01.2021
4197 Clouds 3 1011 98 10000 1.34 180 06:58 02.01.2021
4198 Clouds 3 1010 98 10000 1.34 195 06:18 02.01.2021
4199 Clouds 4 1010 98 10000 1.34 210 04:27 02.01.2021
4200 Clouds 4 1009 97 10000 1.79 222 00:53 02.01.2021
4201 Clouds 4 1009 97 10000 1.79 214 00:33 02.01.2021
4202 Clouds 4 1009 97 10000 2.24 203 23:43 01.01.2021
4203 Clouds 4 1009 97 10000 1.79 197 23:20 01.01.2021
4204 Clouds 4 1009 97 10000 1.79 208 22:47 01.01.2021
4205 Clouds 4 1009 97 10000 1.79 338 22:22 01.01.2021
4206 Clouds 4 1008 97 10000 1.79 201 21:43 01.01.2021
4207 Clouds 4 1008 97 10000 1.79 199 21:21 01.01.2021
4208 Clouds 4 1008 97 10000 2.24 210 20:51 01.01.2021
4209 Clouds 4 1008 97 10000 2.24 209 20:20 01.01.2021
4210 Clouds 4 1008 96 10000 2.24 194 19:43 01.01.2021
4211 Clouds 4 1008 96 10000 2.24 338 19:23 01.01.2021
4212 Clouds 4 1007 96 10000 1.79 215 18:57 01.01.2021
4213 Clouds 4 1007 95 10000 1.79 216 18:39 01.01.2021
4214 Clouds 4 1007 95 10000 1.34 211 17:59 01.01.2021
4215 Clouds 4 1007 94 10000 1.34 214 17:41 01.01.2021
4216 Clouds 4 1007 94 10000 0.89 207 17:18 01.01.2021
4217 Clouds 4 1007 93 10000 0.89 207 16:37 01.01.2021
4218 Clouds 5 1007 93 10000 1.79 218 15:56 01.01.2021
4219 Clouds 5 1007 93 10000 1.79 338 15:36 01.01.2021
4220 Clouds 5 1006 94 10000 0.89 219 14:41 01.01.2021
4221 Clouds 4 1006 95 10000 1.79 218 13:54 01.01.2021
4222 Clouds 4 1006 96 10000 1.34 224 13:36 01.01.2021
4223 Clouds 4 1006 98 10000 1.34 235 12:47 01.01.2021
4224 Clouds 4 1007 98 10000 1.34 247 12:25 01.01.2021
4225 Clouds 3 1004 93 10000 2.61 249 11:39 01.01.2021
4226 Clear 2 1004 93 10000 1.89 265 11:18 01.01.2021
4227 Clear 2 1004 93 10000 1.89 265 10:51 01.01.2021
4228 Clear 1 1004 93 10000 1.47 286 09:53 01.01.2021
4229 Clear 1 1006 97 10000 0.89 338 09:24 01.01.2021
4230 Clear 1 1003 94 10000 1.59 300 08:30 01.01.2021
4231 Clouds 1 1005 96 10000 1.34 212 06:42 01.01.2021
4232 Clouds 2 1004 95 10000 1.34 218 04:49 01.01.2021
4233 Clouds 2 1004 97 10000 1.79 220 01:42 01.01.2021
4234 Clouds 1 1004 97 10000 1.79 338 00:32 01.01.2021
4235 Clouds 2 1003 97 10000 1.79 203 23:41 31.12.2020
4236 Clouds 2 1003 97 10000 1.34 201 23:21 31.12.2020
4237 Clouds 2 1003 97 10000 1.34 212 22:42 31.12.2020
4238 Clouds 2 1003 97 10000 1.34 210 22:23 31.12.2020
4239 Clouds 2 1003 97 10000 1.34 338 21:56 31.12.2020
4240 Clouds 2 1003 97 10000 1.34 234 21:36 31.12.2020
4241 Clouds 2 1003 97 10000 1.34 338 20:58 31.12.2020
4242 Clouds 2 1003 97 10000 1.34 224 20:31 31.12.2020
4243 Clouds 2 1003 97 10000 1.34 204 19:51 31.12.2020
4244 Clouds 2 1002 96 10000 0.89 229 19:33 31.12.2020
4245 Clouds 2 1002 96 10000 1.79 199 18:56 31.12.2020
4246 Clouds 3 1002 96 10000 1.34 193 18:26 31.12.2020
4247 Clouds 3 1002 96 10000 1.34 338 17:55 31.12.2020
4248 Clouds 3 1002 96 10000 1.34 194 17:37 31.12.2020
4249 Clouds 3 1002 96 10000 1.34 197 17:18 31.12.2020
4250 Clouds 3 1002 95 10000 1.34 212 16:38 31.12.2020
4251 Clouds 3 1002 95 10000 1.79 200 16:20 31.12.2020
4252 Clouds 4 1002 94 10000 1.34 203 15:43 31.12.2020
4253 Clouds 4 1002 94 10000 1.79 205 15:20 31.12.2020
4254 Clouds 4 1002 94 10000 2.24 236 14:43 31.12.2020
4255 Clouds 4 1002 94 10000 2.24 226 14:24 31.12.2020
4256 Clouds 4 1001 94 10000 2.24 213 13:59 31.12.2020
4257 Clouds 4 1001 94 10000 1.79 338 13:38 31.12.2020
4258 Clouds 4 1001 94 10000 2.24 223 13:19 31.12.2020
4259 Clouds 4 1002 94 10000 2.24 235 12:50 31.12.2020
4260 Clouds 4 1001 94 10000 2.24 224 12:32 31.12.2020
4261 Clouds 4 1002 95 10000 2.24 235 11:48 31.12.2020
4262 Clouds 3 1002 95 10000 2.24 212 11:30 31.12.2020
4263 Clouds 3 1002 96 10000 1.79 224 10:46 31.12.2020
4264 Clouds 3 1002 96 10000 1.79 199 10:28 31.12.2020
4265 Clouds 3 1002 97 10000 1.79 241 09:51 31.12.2020
4266 Clouds 3 1002 97 10000 1.79 172 09:26 31.12.2020
4267 Clouds 3 1001 97 10000 1.79 214 08:50 31.12.2020
4268 Clouds 3 1001 97 10000 1.79 203 08:31 31.12.2020
4269 Clouds 3 1001 97 10000 2.24 338 07:57 31.12.2020
4270 Clouds 3 1001 97 10000 2.68 204 07:28 31.12.2020
4271 Clouds 3 1001 97 10000 1.79 197 05:31 31.12.2020
4272 Clouds 3 1001 97 10000 1.79 338 03:40 31.12.2020
4273 Clouds 3 1001 97 10000 2.68 232 02:45 31.12.2020
4274 Clouds 3 1001 97 10000 2.68 197 02:25 31.12.2020
4275 Clouds 3 1001 97 10000 2.68 202 01:44 31.12.2020
4276 Clouds 2 1001 97 10000 2.68 193 01:24 31.12.2020
4277 Clouds 3 1001 97 10000 3.13 338 00:46 31.12.2020
4278 Clouds 3 1001 97 10000 2.24 200 23:48 30.12.2020
4279 Clouds 3 1001 97 10000 2.24 191 23:19 30.12.2020
4280 Clouds 3 1000 97 10000 2.24 222 22:49 30.12.2020
4281 Clouds 3 1000 97 10000 2.68 184 22:30 30.12.2020
4282 Clouds 3 1000 97 10000 2.24 199 21:46 30.12.2020
4283 Clouds 3 1000 97 10000 2.68 205 21:24 30.12.2020
4284 Clouds 3 1000 97 10000 2.24 338 20:51 30.12.2020
4285 Clouds 4 1000 97 10000 2.68 338 20:22 30.12.2020
4286 Clouds 3 999 97 10000 3.13 221 19:41 30.12.2020
4287 Clouds 3 999 97 10000 1.79 193 19:23 30.12.2020
4288 Clouds 4 999 97 10000 2.24 338 18:47 30.12.2020
4289 Clouds 4 999 96 10000 2.68 208 18:29 30.12.2020
4290 Clouds 4 999 97 10000 2.24 211 17:52 30.12.2020
4291 Clouds 4 999 97 10000 2.68 171 17:33 30.12.2020
4292 Clouds 4 999 96 10000 2.68 173 16:59 30.12.2020
4293 Clouds 5 998 96 10000 2.24 198 16:37 30.12.2020
4294 Clouds 5 998 94 10000 2.68 180 15:49 30.12.2020
4295 Clouds 5 998 94 10000 2.68 209 15:26 30.12.2020
4296 Clouds 5 998 96 10000 2.68 236 14:44 30.12.2020
4297 Clouds 5 998 96 10000 2.68 201 14:26 30.12.2020
4298 Clouds 5 998 97 10000 3.13 207 13:52 30.12.2020
4299 Clouds 4 997 99 10000 2.24 173 12:49 30.12.2020
4300 Clouds 4 998 99 10000 2.68 239 12:24 30.12.2020
4301 Clouds 4 997 99 10000 2.24 221 11:39 30.12.2020
4302 Clouds 4 997 99 10000 2.24 215 11:20 30.12.2020
4303 Clouds 3 997 98 10000 2.68 338 10:55 30.12.2020
4304 Clouds 3 997 99 10000 2.24 174 10:36 30.12.2020
4305 Clouds 3 997 99 10000 1.79 200 09:55 30.12.2020
4306 Clouds 3 997 99 10000 2.24 191 09:36 30.12.2020
4307 Clouds 3 996 99 10000 2.24 174 08:35 30.12.2020
4308 Clouds 3 995 98 10000 2.68 178 07:46 30.12.2020
4309 Clouds 3 995 98 10000 2.24 229 07:21 30.12.2020
4310 Clouds 3 995 98 10000 2.68 212 06:38 30.12.2020
4311 Clouds 3 994 99 10000 2.24 338 05:47 30.12.2020
4312 Clouds 3 994 98 10000 2.24 177 05:27 30.12.2020
4313 Clouds 3 993 98 10000 3.13 231 03:29 30.12.2020
4314 Clouds 3 993 98 10000 2.68 219 02:52 30.12.2020
4315 Clouds 3 993 99 10000 2.68 218 02:31 30.12.2020
4316 Clouds 4 993 99 10000 2.24 230 01:42 30.12.2020
4317 Clouds 3 992 99 10000 2.24 201 01:23 30.12.2020
4318 Clouds 3 992 99 10000 2.68 232 00:40 30.12.2020
4319 Clouds 3 992 98 10000 2.68 221 00:21 30.12.2020
4320 Clouds 3 992 99 10000 2.68 216 23:42 29.12.2020
4321 Clouds 3 991 98 10000 2.68 213 23:24 29.12.2020
4322 Clouds 4 991 98 10000 2.68 203 22:46 29.12.2020
4323 Clouds 4 991 99 10000 2.68 200 22:26 29.12.2020
4324 Clouds 4 991 99 10000 2.68 241 21:54 29.12.2020
4325 Clouds 4 991 99 10000 2.24 199 21:36 29.12.2020
4326 Clouds 3 990 99 7101 2.24 195 20:57 29.12.2020
4327 Clouds 3 990 99 7101 2.24 216 20:39 29.12.2020
4328 Clouds 3 990 99 10000 2.68 236 20:20 29.12.2020
4329 Clouds 3 990 99 10000 1.79 199 19:42 29.12.2020
4330 Clouds 3 989 99 10000 1.79 338 19:21 29.12.2020
4331 Clouds 3 989 100 10000 2.24 212 18:49 29.12.2020
4332 Clouds 3 989 99 10000 1.79 338 18:28 29.12.2020
4333 Clouds 3 988 100 10000 1.79 227 17:45 29.12.2020
4334 Clouds 3 988 100 10000 1.34 213 17:21 29.12.2020
4335 Rain 3 988 100 10000 1.34 338 16:52 29.12.2020
4336 Clouds 2 988 99 10000 0.89 221 16:25 29.12.2020
4337 Rain 2 987 100 10000 1.34 223 15:39 29.12.2020
4338 Clouds 2 987 99 10000 1.34 229 15:20 29.12.2020
4339 Clouds 2 986 99 10000 1.34 231 14:40 29.12.2020
4340 Clouds 2 986 99 10000 1.79 217 14:20 29.12.2020
4341 Clouds 2 986 99 10000 1.34 219 13:54 29.12.2020
4342 Clouds 2 983 96 10000 2.94 264 13:23 29.12.2020
4343 Clouds 2 983 96 10000 3.21 258 12:45 29.12.2020
4344 Clouds 2 985 99 10000 1.34 338 12:26 29.12.2020
4345 Clouds 1 985 99 10000 1.34 246 11:58 29.12.2020
4346 Clouds 2 983 89 10000 2.27 261 11:31 29.12.2020
4347 Clouds 2 982 96 10000 1.43 287 10:40 29.12.2020
4348 Rain 2 981 96 10000 1.48 336 10:19 29.12.2020
4349 Clouds 2 981 96 10000 1.48 336 09:39 29.12.2020
4350 Rain 2 981 96 10000 2.09 357 09:18 29.12.2020
4351 Clouds 1 980 96 10000 2.09 357 08:45 29.12.2020
4352 Clouds 1 979 96 10000 2.63 5 07:35 29.12.2020
4353 Snow 2 979 96 10000 1.76 31 06:58 29.12.2020
4354 Snow 2 981 98 1487 1.34 145 05:40 29.12.2020
4355 Rain 2 980 98 10000 0.45 70 01:46 29.12.2020
4356 Clouds 2 980 98 10000 0.45 71 00:24 29.12.2020
4357 Clouds 2 980 98 10000 0.45 71 00:24 29.12.2020
4358 Clouds 2 980 98 10000 0.45 71 00:24 29.12.2020
4359 Clouds 2 980 98 10000 0.45 70 23:37 28.12.2020
4360 Clouds 2 980 98 10000 0.89 85 22:44 28.12.2020
4361 Clouds 2 980 98 10000 0.89 92 21:57 28.12.2020
4362 Clouds 2 980 98 10000 0.45 51 21:39 28.12.2020
4363 Clouds 2 980 98 10000 0.89 50 21:19 28.12.2020
4364 Clouds 2 980 98 10000 4.09 93 20:40 28.12.2020
4365 Clouds 2 980 97 10000 3.54 82 20:20 28.12.2020
4366 Clouds 1 980 97 10000 0.89 85 19:41 28.12.2020
4367 Clouds 2 980 97 10000 0.89 72 19:22 28.12.2020
4368 Clouds 2 980 96 10000 0.89 92 18:49 28.12.2020
4369 Clear 2 980 96 10000 0.45 92 18:27 28.12.2020
4370 Clear 2 979 95 10000 0.89 60 17:41 28.12.2020
4371 Clear 2 980 94 10000 0.89 99 17:18 28.12.2020
4372 Clear 3 980 95 10000 1.34 99 16:33 28.12.2020
4373 Clear 3 979 94 10000 0.89 107 15:59 28.12.2020
4374 Clear 4 979 94 10000 0.89 108 15:41 28.12.2020
4375 Clear 5 979 93 10000 0.89 108 14:54 28.12.2020
4376 Clear 4 979 93 10000 1.79 147 13:55 28.12.2020
4377 Clear 4 979 94 10000 0.89 117 13:32 28.12.2020
4378 Clouds 4 978 97 10000 1.34 338 12:51 28.12.2020
4379 Clouds 4 979 98 10000 1.79 162 12:23 28.12.2020
4380 Clouds 4 979 98 10000 2.24 180 11:47 28.12.2020
4381 Clouds 4 979 99 10000 1.34 169 11:24 28.12.2020
4382 Clouds 4 978 98 10000 0.89 338 10:49 28.12.2020
4383 Clouds 4 978 99 10000 0.45 132 10:28 28.12.2020
4384 Clouds 3 978 98 10000 1.34 338 09:49 28.12.2020
4385 Clouds 4 978 98 10000 2.76 178 09:21 28.12.2020
4386 Clouds 4 978 98 10000 0.89 147 08:55 28.12.2020
4387 Clouds 4 977 98 10000 0.89 147 06:51 28.12.2020
4388 Clouds 4 976 98 10000 0.89 160 04:44 28.12.2020
4389 Clouds 3 976 98 10000 1.79 126 02:59 28.12.2020
4390 Clouds 3 976 97 10000 2.68 168 01:52 28.12.2020
4391 Clouds 3 975 97 10000 3.13 164 23:50 27.12.2020
4392 Rain 3 975 97 10000 3.58 174 23:20 27.12.2020
4393 Rain 4 975 98 8848 3.13 170 22:24 27.12.2020
4394 Rain 4 975 98 8848 3.58 338 21:47 27.12.2020
4395 Clouds 4 974 98 10000 3.58 177 21:20 27.12.2020
4396 Rain 4 975 97 10000 3.58 147 19:59 27.12.2020
4397 Clouds 4 975 97 8180 4.02 183 19:24 27.12.2020
4398 Clouds 4 975 96 10000 4.47 147 18:49 27.12.2020
4399 Clouds 4 975 96 10000 5.36 182 18:20 27.12.2020
4400 Clouds 4 975 96 10000 6.26 191 17:56 27.12.2020
4401 Rain 4 975 96 10000 5.81 187 17:35 27.12.2020
4402 Clouds 4 975 96 8412 5.81 168 16:56 27.12.2020
4403 Rain 4 976 96 10000 6.71 174 16:22 27.12.2020
4404 Rain 4 976 96 10000 6.71 169 15:31 27.12.2020
4405 Rain 4 976 96 10000 7.6 184 14:53 27.12.2020
4406 Rain 4 976 96 10000 8.49 157 14:35 27.12.2020
4407 Rain 4 976 96 9269 9.39 158 13:36 27.12.2020
4408 Rain 4 977 96 10000 8.05 162 12:56 27.12.2020
4409 Rain 4 978 96 10000 8.94 338 12:26 27.12.2020
4410 Rain 4 979 97 10000 8.05 206 11:42 27.12.2020
4411 Rain 4 980 97 10000 8.05 203 11:21 27.12.2020
4412 Rain 4 981 96 10000 7.6 338 10:45 27.12.2020
4413 Rain 4 981 96 10000 8.05 163 10:21 27.12.2020
4414 Rain 4 982 96 10000 7.6 166 09:39 27.12.2020
4415 Rain 4 984 95 10000 8.49 187 08:28 27.12.2020
4416 Rain 4 985 95 10000 8.49 160 07:46 27.12.2020
4417 Rain 4 986 95 10000 9.39 182 07:18 27.12.2020
4418 Rain 4 990 93 10000 8.05 162 05:39 27.12.2020
4419 Clouds 5 994 92 10000 7.6 224 03:26 27.12.2020
4420 Clouds 5 995 94 10000 6.71 195 02:30 27.12.2020
4421 Clouds 5 998 96 10000 6.26 190 00:58 27.12.2020
4422 Clouds 5 1001 95 10000 5.81 176 23:44 26.12.2020
4423 Clouds 5 1001 94 10000 6.71 266 23:26 26.12.2020
4424 Clouds 5 1002 95 10000 5.36 203 22:47 26.12.2020
4425 Clouds 5 1003 96 10000 6.26 178 22:20 26.12.2020
4426 Clouds 5 1004 96 10000 5.36 217 21:55 26.12.2020
4427 Clouds 5 1004 97 10000 5.36 222 21:31 26.12.2020
4428 Clouds 5 1005 97 10000 5.36 218 20:58 26.12.2020
4429 Clouds 5 1006 97 10000 5.36 210 20:28 26.12.2020
4430 Clouds 5 1007 98 10000 4.92 338 19:57 26.12.2020
4431 Clouds 5 1008 97 10000 4.47 185 19:24 26.12.2020
4432 Clouds 4 1009 97 10000 4.02 190 18:49 26.12.2020
4433 Clouds 4 1009 97 10000 4.47 168 18:27 26.12.2020
4434 Clouds 4 1010 97 10000 4.02 182 17:40 26.12.2020
4435 Clouds 4 1011 96 10000 4.02 211 17:20 26.12.2020
4436 Clouds 5 1012 95 10000 4.02 172 16:35 26.12.2020
4437 Clouds 5 1013 92 10000 4.47 338 15:27 26.12.2020
4438 Clouds 5 1013 92 10000 4.47 338 15:27 26.12.2020
4439 Clouds 5 1013 91 10000 4.92 216 14:50 26.12.2020
4440 Clouds 5 1014 91 10000 4.47 338 14:28 26.12.2020
4441 Clouds 5 1014 92 10000 4.02 211 13:47 26.12.2020
4442 Clouds 5 1015 92 10000 4.47 178 13:28 26.12.2020
4443 Clouds 5 1016 92 10000 3.58 229 12:48 26.12.2020
4444 Clouds 5 1016 93 10000 3.58 199 12:30 26.12.2020
4445 Clouds 5 1017 94 10000 3.13 217 11:51 26.12.2020
4446 Clouds 5 1017 94 10000 3.13 338 11:22 26.12.2020
4447 Clouds 4 1018 95 10000 3.13 202 10:55 26.12.2020
4448 Clouds 4 1018 96 10000 3.13 245 10:27 26.12.2020
4449 Clouds 3 1019 97 10000 2.68 213 09:51 26.12.2020
4450 Clouds 3 1019 97 10000 2.68 213 09:29 26.12.2020
4451 Clouds 3 1019 96 10000 2.68 212 08:35 26.12.2020
4452 Clouds 3 1019 96 10000 3.13 227 07:55 26.12.2020
4453 Clouds 2 1020 96 10000 2.68 213 06:47 26.12.2020
4454 Clouds 3 1022 95 10000 1.34 193 03:46 26.12.2020
4455 Clouds 3 1022 95 10000 1.34 205 01:44 26.12.2020
4456 Clouds 2 1023 96 10000 1.34 278 00:27 26.12.2020
4457 Clouds 2 1022 96 10000 1.34 235 23:41 25.12.2020
4458 Clouds 2 1022 96 10000 1.34 235 23:41 25.12.2020
4459 Clouds 3 1023 96 10000 1.34 235 23:23 25.12.2020
4460 Clouds 3 1022 95 10000 1.34 338 22:48 25.12.2020
4461 Clouds 2 1023 95 10000 1.34 222 22:23 25.12.2020
4462 Clouds 3 1023 94 10000 0.89 239 21:35 25.12.2020
4463 Clouds 2 1023 94 10000 1.79 297 20:59 25.12.2020
4464 Clouds 2 1023 93 10000 0.89 246 20:37 25.12.2020
4465 Clouds 3 1023 93 10000 1.34 246 19:52 25.12.2020
4466 Clouds 2 1023 92 10000 1.34 338 19:33 25.12.2020
4467 Clear 2 1023 90 10000 0.89 265 18:39 25.12.2020
4468 Clear 2 1023 92 10000 1.79 271 17:57 25.12.2020
4469 Clear 2 1023 94 10000 2.24 280 17:35 25.12.2020
4470 Clear 3 1023 92 10000 1.79 263 16:48 25.12.2020
4471 Clear 3 1023 91 10000 1.34 338 16:21 25.12.2020
4472 Clear 4 1023 89 10000 1.34 239 15:46 25.12.2020
4473 Clear 4 1023 88 10000 1.34 241 15:22 25.12.2020
4474 Clear 4 1023 87 10000 1.79 257 14:32 25.12.2020
4475 Clear 5 1023 87 10000 0.45 18 13:48 25.12.2020
4476 Clouds 5 1023 87 10000 0.45 17 13:26 25.12.2020
4477 Clouds 5 1023 87 10000 1.34 347 12:56 25.12.2020
4478 Clouds 4 1023 89 10000 2.85 128 12:27 25.12.2020
4479 Clouds 4 1023 91 10000 0.45 6 11:47 25.12.2020
4480 Clouds 3 1023 91 10000 2.53 118 11:24 25.12.2020
4481 Clouds 2 1023 94 10000 2.53 118 10:43 25.12.2020
4482 Rain 2 1023 93 10000 1.48 65 10:19 25.12.2020
4483 Clouds 2 1022 92 10000 1.34 6 09:26 25.12.2020
4484 Clouds 2 1022 92 10000 3.13 358 08:37 25.12.2020
4485 Clouds 2 1021 92 10000 1.34 325 07:35 25.12.2020
4486 Clouds 3 1021 94 10000 0.89 338 06:44 25.12.2020
4487 Clear 2 1020 95 10000 0.89 309 02:36 25.12.2020
4488 Clouds 4 1018 91 10000 1.79 8 00:35 25.12.2020
4489 Clouds 4 1018 89 10000 2.68 14 23:40 24.12.2020
4490 Clouds 4 1018 88 10000 4.47 33 23:21 24.12.2020
4491 Clouds 4 1017 92 10000 3.13 8 22:26 24.12.2020
4492 Clouds 4 1017 90 10000 3.58 27 21:54 24.12.2020
4493 Clouds 4 1017 90 10000 4.47 15 21:27 24.12.2020
4494 Clouds 4 1016 91 10000 4.47 37 20:19 24.12.2020
4495 Clouds 5 1013 94 10000 3.58 343 18:22 24.12.2020
4496 Clouds 5 1013 96 10000 2.24 2 17:58 24.12.2020
4497 Clouds 5 1012 95 10000 1.79 338 17:36 24.12.2020
4498 Clouds 5 1012 91 10000 2.24 296 16:28 24.12.2020
4499 Clouds 6 1011 92 10000 3.13 351 15:59 24.12.2020
4500 Clouds 6 1011 92 10000 2.24 306 15:41 24.12.2020
4501 Clouds 6 1011 92 10000 2.68 311 15:19 24.12.2020
4502 Rain 6 1010 92 10000 1.79 323 14:42 24.12.2020
4503 Clouds 6 1010 92 10000 1.79 338 14:23 24.12.2020
4504 Clouds 6 1010 92 10000 2.24 309 13:41 24.12.2020
4505 Clouds 7 1010 92 10000 2.24 338 13:21 24.12.2020
4506 Clouds 6 1010 93 10000 2.24 338 12:41 24.12.2020
4507 Rain 6 1009 93 10000 1.79 313 12:21 24.12.2020
4508 Clouds 6 1009 95 10000 2.24 343 11:39 24.12.2020
4509 Clouds 5 1009 96 10000 1.34 338 11:20 24.12.2020
4510 Clouds 5 1009 96 10000 1.79 338 10:51 24.12.2020
4511 Clouds 5 1009 97 10000 1.34 317 10:32 24.12.2020
4512 Clouds 5 1008 97 10000 1.34 333 09:52 24.12.2020
4513 Clouds 5 1008 97 10000 1.34 316 09:24 24.12.2020
4514 Clouds 5 1007 99 10000 0.45 253 08:20 24.12.2020
4515 Rain 4 1007 98 10000 0.45 255 07:39 24.12.2020
4516 Clouds 4 1007 98 10000 0.45 254 07:18 24.12.2020
4517 Rain 4 1005 97 10000 0.45 23 04:28 24.12.2020
4518 Clouds 4 1004 99 7228 4.02 20 01:56 24.12.2020
4519 Clouds 4 1004 99 7228 3.13 11 01:36 24.12.2020
4520 Clouds 5 1004 99 10000 3.13 349 01:18 24.12.2020
4521 Clouds 5 1004 99 10000 3.13 18 00:21 24.12.2020
4522 Rain 5 1004 99 10000 3.13 17 23:46 23.12.2020
4523 Rain 5 1004 99 10000 2.68 8 23:26 23.12.2020
4524 Clouds 5 1004 99 10000 2.24 21 22:55 23.12.2020
4525 Clouds 5 1004 99 10000 2.68 4 22:30 23.12.2020
4526 Clouds 5 1004 100 4810 2.68 30 21:52 23.12.2020
4527 Clouds 6 1004 100 10000 2.68 62 21:27 23.12.2020
4528 Clouds 6 1004 100 10000 1.79 16 20:54 23.12.2020
4529 Clouds 6 1004 99 10000 2.68 41 20:36 23.12.2020
4530 Clouds 6 1003 99 3609 2.68 18 20:18 23.12.2020
4531 Rain 6 1004 100 3609 1.79 17 19:39 23.12.2020
4532 Rain 6 1004 99 5986 2.24 22 19:20 23.12.2020
4533 Rain 6 1004 99 5305 2.24 3 18:48 23.12.2020
4534 Rain 6 1004 100 8605 1.79 29 18:29 23.12.2020
4535 Rain 6 1004 100 8605 1.79 36 17:41 23.12.2020
4536 Rain 6 1004 100 7805 1.34 24 17:22 23.12.2020
4537 Rain 6 1005 99 7805 1.34 36 16:49 23.12.2020
4538 Rain 6 1005 99 10000 1.79 66 16:29 23.12.2020
4539 Rain 7 1006 99 10000 1.79 67 15:58 23.12.2020
4540 Rain 7 1006 99 10000 1.34 58 15:38 23.12.2020
4541 Clouds 7 1006 100 10000 1.34 41 15:20 23.12.2020
4542 Rain 7 1006 99 10000 1.34 43 14:41 23.12.2020
4543 Rain 7 1007 100 10000 0.89 22 14:21 23.12.2020
4544 Rain 7 1008 100 10000 0.89 68 13:44 23.12.2020
4545 Clouds 7 1008 100 10000 1.34 49 13:20 23.12.2020
4546 Clouds 7 1008 99 10000 1.79 75 12:54 23.12.2020
4547 Rain 7 1009 99 10000 1.79 52 12:30 23.12.2020
4548 Rain 6 1009 99 10000 1.34 49 11:56 23.12.2020
4549 Rain 6 1009 99 10000 1.79 47 11:36 23.12.2020
4550 Clouds 6 1010 99 10000 1.34 57 10:56 23.12.2020
4551 Rain 6 1010 99 10000 0.89 79 10:38 23.12.2020
4552 Clouds 5 1011 99 10000 1.34 112 09:38 23.12.2020
4553 Clouds 5 1011 99 10000 1.34 112 09:38 23.12.2020
4554 Clouds 5 1012 99 10000 0.45 52 08:58 23.12.2020
4555 Clouds 5 1012 99 10000 0.45 52 08:58 23.12.2020
4556 Rain 5 1012 99 10000 0.45 53 08:33 23.12.2020
4557 Clouds 4 1012 99 10000 1.34 110 07:49 23.12.2020
4558 Clouds 6 1012 99 10000 0.45 119 06:53 23.12.2020
4559 Clouds 6 1012 99 10000 0.45 119 06:34 23.12.2020
4560 Clouds 6 1013 99 10000 1.52 99 05:24 23.12.2020
4561 Clouds 5 1013 99 10000 0.45 226 03:56 23.12.2020
4562 Clouds 5 1014 96 10000 1.37 233 00:33 23.12.2020
4563 Clouds 4 1014 96 10000 1.32 261 23:45 22.12.2020
4564 Clouds 4 1014 96 10000 1.93 231 23:25 22.12.2020
4565 Clouds 5 1014 96 10000 1.93 231 22:43 22.12.2020
4566 Clouds 5 1014 96 10000 2.26 229 22:25 22.12.2020
4567 Clouds 5 1014 96 10000 2.26 229 22:25 22.12.2020
4568 Clouds 5 1014 96 10000 0.45 236 21:54 22.12.2020
4569 Clouds 5 1014 95 10000 1.69 226 21:22 22.12.2020
4570 Clouds 5 1014 95 10000 1.69 226 20:57 22.12.2020
4571 Clouds 6 1013 94 10000 0.45 239 20:38 22.12.2020
4572 Clouds 6 1013 94 10000 0.45 237 20:20 22.12.2020
4573 Clouds 5 1014 93 10000 0.45 236 19:42 22.12.2020
4574 Clouds 5 1013 92 10000 1.75 278 19:21 22.12.2020
4575 Clouds 6 1013 92 10000 0.89 239 18:48 22.12.2020
4576 Clouds 6 1013 92 10000 0.89 338 18:28 22.12.2020
4577 Clouds 7 1013 91 10000 0.89 268 17:50 22.12.2020
4578 Clouds 7 1013 91 10000 1.34 338 17:23 22.12.2020
4579 Clouds 8 1013 92 10000 1.34 251 16:55 22.12.2020
4580 Clouds 8 1013 92 10000 1.79 338 16:36 22.12.2020
4581 Clouds 8 1013 92 10000 1.79 246 16:18 22.12.2020
4582 Clouds 8 1012 92 10000 2.68 249 15:42 22.12.2020
4583 Clouds 9 1012 93 10000 2.24 338 15:20 22.12.2020
4584 Clouds 9 1012 92 10000 2.68 250 14:43 22.12.2020
4585 Clouds 9 1011 92 10000 2.24 265 14:25 22.12.2020
4586 Clouds 9 1011 95 10000 2.68 243 13:47 22.12.2020
4587 Clouds 9 1010 96 10000 3.13 338 13:19 22.12.2020
4588 Clouds 9 1010 96 10000 2.68 263 12:57 22.12.2020
4589 Clouds 9 1010 97 10000 3.13 338 12:38 22.12.2020
4590 Clouds 9 1009 97 10000 3.13 272 12:19 22.12.2020
4591 Clouds 9 1008 97 10000 3.13 338 11:42 22.12.2020
4592 Clouds 9 1008 98 10000 3.13 266 11:22 22.12.2020
4593 Clouds 9 1008 98 10000 3.13 266 10:55 22.12.2020
4594 Clouds 9 1007 98 10000 3.13 273 10:27 22.12.2020
4595 Clouds 10 1006 98 10000 2.68 289 09:58 22.12.2020
4596 Clouds 11 1005 98 10000 3.13 289 09:30 22.12.2020
4597 Clouds 11 1004 99 10000 4.02 251 08:57 22.12.2020
4598 Clouds 11 1004 99 10000 4.47 239 08:38 22.12.2020
4599 Clouds 11 1003 99 10000 3.13 199 07:57 22.12.2020
4600 Clouds 11 1003 99 8094 4.47 217 07:27 22.12.2020
4601 Clouds 11 1002 99 10000 4.47 338 06:32 22.12.2020
4602 Clouds 11 1002 100 10000 4.47 338 05:30 22.12.2020
4603 Clouds 10 1002 100 4342 2.68 180 02:31 22.12.2020
4604 Rain 9 1003 99 10000 3.58 187 00:26 22.12.2020
4605 Clouds 9 1003 99 10000 4.02 183 23:50 21.12.2020
4606 Clouds 8 1003 99 10000 4.02 184 23:22 21.12.2020
4607 Clouds 8 1004 99 10000 4.47 178 22:37 21.12.2020
4608 Clouds 8 1004 99 10000 4.47 187 22:19 21.12.2020
4609 Clouds 8 1004 99 10000 4.47 187 22:19 21.12.2020
4610 Clouds 8 1005 98 10000 3.58 174 21:48 21.12.2020
4611 Clouds 7 1005 98 10000 4.47 170 21:30 21.12.2020
4612 Rain 7 1006 98 10000 4.02 145 20:45 21.12.2020
4613 Clouds 7 1006 98 10000 4.47 137 20:21 21.12.2020
4614 Rain 7 1006 97 10000 3.58 153 19:55 21.12.2020
4615 Rain 7 1007 97 10000 4.02 141 19:36 21.12.2020
4616 Clouds 7 1007 97 10000 4.02 136 19:18 21.12.2020
4617 Clouds 7 1007 97 9114 4.02 124 18:45 21.12.2020
4618 Clouds 7 1008 97 9711 4.47 130 18:27 21.12.2020
4619 Rain 7 1009 97 9711 3.13 149 17:43 21.12.2020
4620 Rain 7 1009 97 10000 3.58 338 17:24 21.12.2020
4621 Rain 7 1010 96 10000 4.02 126 16:46 21.12.2020
4622 Rain 7 1011 96 10000 3.58 135 16:25 21.12.2020
4623 Rain 7 1011 96 10000 3.58 141 15:45 21.12.2020
4624 Rain 7 1012 96 10000 3.13 143 15:26 21.12.2020
4625 Clouds 7 1012 96 10000 3.13 145 14:56 21.12.2020
4626 Clouds 7 1012 96 10000 3.13 145 14:56 21.12.2020
4627 Rain 7 1013 95 10000 2.24 136 14:20 21.12.2020
4628 Rain 7 1014 95 10000 3.13 180 13:42 21.12.2020
4629 Rain 7 1014 95 10000 3.13 183 13:22 21.12.2020
4630 Clouds 7 1015 96 10000 3.58 156 12:43 21.12.2020
4631 Clouds 6 1015 97 10000 1.79 170 12:24 21.12.2020
4632 Clouds 6 1015 97 10000 2.24 153 11:55 21.12.2020
4633 Clouds 6 1016 97 10000 2.24 175 11:37 21.12.2020
4634 Clouds 6 1016 97 10000 1.79 162 11:18 21.12.2020
4635 Clouds 5 1017 97 10000 2.68 171 10:40 21.12.2020
4636 Clouds 6 1017 97 10000 2.68 173 10:22 21.12.2020
4637 Clouds 5 1018 98 10000 3.13 338 09:43 21.12.2020
4638 Clouds 5 1018 98 10000 3.13 175 09:24 21.12.2020
4639 Clouds 4 1017 98 10000 2.24 149 08:50 21.12.2020
4640 Clouds 4 1017 97 10000 1.79 338 07:51 21.12.2020
4641 Clouds 4 1017 97 10000 2.24 183 06:43 21.12.2020
4642 Clouds 5 1017 95 10000 2.68 168 04:46 21.12.2020
4643 Clouds 7 1017 93 10000 3.13 227 01:26 21.12.2020
4644 Clouds 7 1016 93 10000 2.68 185 00:32 21.12.2020
4645 Clouds 6 1016 94 10000 2.68 180 23:36 20.12.2020
4646 Clouds 6 1016 94 10000 2.68 184 22:59 20.12.2020
4647 Clouds 6 1016 94 10000 2.68 184 22:59 20.12.2020
4648 Clouds 6 1016 94 10000 2.24 173 22:41 20.12.2020
4649 Clouds 7 1016 94 10000 2.24 183 22:22 20.12.2020
4650 Clouds 7 1016 93 10000 2.68 191 21:40 20.12.2020
4651 Clouds 7 1016 93 10000 2.24 191 21:21 20.12.2020
4652 Clouds 8 1016 93 10000 2.68 181 20:51 20.12.2020
4653 Clouds 8 1016 93 10000 3.13 338 20:25 20.12.2020
4654 Rain 8 1016 93 10000 2.68 166 19:49 20.12.2020
4655 Clouds 8 1016 92 10000 2.24 188 19:31 20.12.2020
4656 Clouds 8 1016 91 10000 2.68 169 18:59 20.12.2020
4657 Clouds 8 1016 91 10000 2.24 338 18:40 20.12.2020
4658 Clouds 8 1016 92 10000 2.24 178 18:22 20.12.2020
4659 Clouds 9 1015 92 10000 2.24 183 17:44 20.12.2020
4660 Clouds 9 1015 91 10000 2.24 183 17:23 20.12.2020
4661 Clouds 9 1015 90 10000 2.24 189 16:45 20.12.2020
4662 Clouds 9 1015 91 10000 2.24 178 16:27 20.12.2020
4663 Clouds 9 1015 91 10000 2.68 210 15:49 20.12.2020
4664 Clouds 10 1015 92 10000 2.24 197 15:25 20.12.2020
4665 Clouds 10 1015 92 10000 2.24 202 14:55 20.12.2020
4666 Clouds 10 1015 92 10000 2.24 187 14:34 20.12.2020
4667 Clouds 10 1015 92 10000 2.68 199 13:47 20.12.2020
4668 Clouds 10 1015 93 10000 2.24 187 13:28 20.12.2020
4669 Clouds 9 1015 94 10000 2.24 192 12:59 20.12.2020
4670 Clouds 9 1015 94 10000 2.68 239 12:39 20.12.2020
4671 Clouds 9 1015 95 10000 3.13 338 12:21 20.12.2020
4672 Clouds 9 1015 96 10000 2.68 185 11:44 20.12.2020
4673 Clouds 9 1015 96 10000 2.68 338 11:25 20.12.2020
4674 Clouds 9 1016 97 10000 2.24 170 10:48 20.12.2020
4675 Clouds 8 1015 97 10000 1.79 153 10:20 20.12.2020
4676 Clouds 8 1015 97 10000 2.68 155 09:46 20.12.2020
4677 Clouds 8 1015 97 10000 2.24 181 09:27 20.12.2020
4678 Clouds 8 1015 97 10000 2.24 181 09:27 20.12.2020
4679 Clouds 8 1015 97 10000 1.79 164 08:59 20.12.2020
4680 Clouds 8 1015 97 10000 2.24 180 08:40 20.12.2020
4681 Clouds 7 1014 97 10000 2.24 173 07:29 20.12.2020
4682 Clouds 8 1014 96 10000 2.24 181 06:18 20.12.2020
4683 Clouds 8 1014 94 10000 2.68 181 02:37 20.12.2020
4684 Clouds 8 1013 93 10000 2.68 338 00:41 20.12.2020
4685 Clouds 9 1013 92 10000 2.68 188 23:36 19.12.2020
4686 Clouds 9 1013 92 10000 2.68 179 23:18 19.12.2020
4687 Clouds 9 1013 91 10000 2.68 191 22:41 19.12.2020
4688 Clouds 10 1013 91 10000 3.13 189 22:20 19.12.2020
4689 Clouds 10 1013 90 10000 3.58 191 21:44 19.12.2020
4690 Clouds 10 1012 90 10000 2.68 184 21:25 19.12.2020
4691 Clouds 10 1012 91 10000 2.68 187 20:55 19.12.2020
4692 Clouds 10 1012 90 10000 3.13 172 20:24 19.12.2020
4693 Clouds 10 1012 90 10000 2.68 207 19:59 19.12.2020
4694 Clouds 10 1012 90 10000 2.68 191 19:41 19.12.2020
4695 Clouds 10 1012 90 10000 3.58 181 19:21 19.12.2020
4696 Clouds 10 1011 90 10000 2.68 176 18:33 19.12.2020
4697 Clouds 10 1011 90 10000 2.68 194 17:56 19.12.2020
4698 Clouds 10 1011 90 10000 2.24 200 17:36 19.12.2020
4699 Rain 11 1011 89 10000 3.58 201 17:18 19.12.2020
4700 Clouds 11 1010 89 10000 3.58 158 16:40 19.12.2020
4701 Clouds 10 1010 91 10000 2.68 183 16:22 19.12.2020
4702 Clouds 10 1010 91 10000 2.68 338 15:54 19.12.2020
4703 Clear 10 1010 92 10000 3.13 167 15:21 19.12.2020
4704 Clear 10 1010 91 10000 3.13 175 14:38 19.12.2020
4705 Clear 10 1010 90 10000 3.13 156 13:59 19.12.2020
4706 Clear 10 1010 90 10000 3.13 128 13:40 19.12.2020
4707 Clear 10 1010 88 10000 3.58 116 13:18 19.12.2020
4708 Clear 10 1010 89 10000 3.13 165 12:42 19.12.2020
4709 Clear 10 1010 90 10000 3.58 134 12:24 19.12.2020
4710 Clear 9 1011 91 10000 3.13 338 11:56 19.12.2020
4711 Clear 8 1011 92 10000 3.58 181 11:35 19.12.2020
4712 Clear 7 1012 95 10000 2.68 151 10:42 19.12.2020
4713 Clear 6 1012 96 10000 3.13 148 10:21 19.12.2020
4714 Clear 5 1012 96 10000 2.68 338 09:45 19.12.2020
4715 Clear 5 1012 97 10000 3.13 147 09:27 19.12.2020
4716 Clear 4 1012 97 10000 2.68 147 08:32 19.12.2020
4717 Clouds 5 1012 96 10000 2.24 134 07:24 19.12.2020
4718 Clouds 5 1012 96 10000 2.68 137 06:52 19.12.2020
4719 Clouds 5 1013 96 10000 2.68 170 06:19 19.12.2020
4720 Clouds 6 1013 96 10000 2.68 172 05:18 19.12.2020
4721 Clouds 6 1014 96 10000 3.13 128 03:19 19.12.2020
4722 Clouds 6 1015 94 10000 3.13 174 00:37 19.12.2020
4723 Clouds 6 1015 93 10000 3.13 338 00:18 19.12.2020
4724 Clouds 6 1015 93 10000 3.13 178 23:47 18.12.2020
4725 Clouds 6 1015 93 10000 3.13 176 23:23 18.12.2020
4726 Clouds 7 1015 92 10000 3.58 185 22:46 18.12.2020
4727 Clouds 7 1015 92 10000 3.13 183 22:22 18.12.2020
4728 Clouds 7 1015 92 10000 2.68 181 21:50 18.12.2020
4729 Clouds 7 1015 91 10000 3.13 338 21:31 18.12.2020
4730 Clouds 8 1016 91 10000 3.58 338 20:42 18.12.2020
4731 Clouds 8 1016 91 10000 3.58 183 20:21 18.12.2020
4732 Clouds 8 1016 91 10000 3.13 180 19:45 18.12.2020
4733 Clouds 8 1016 90 10000 3.13 162 19:21 18.12.2020
4734 Clouds 8 1017 91 10000 4.47 153 18:43 18.12.2020
4735 Clouds 8 1017 91 10000 3.58 132 18:24 18.12.2020
4736 Clouds 8 1017 92 10000 3.58 338 17:28 18.12.2020
4737 Clouds 8 1017 93 10000 3.58 338 16:57 18.12.2020
4738 Clouds 8 1016 93 10000 3.58 176 16:38 18.12.2020
4739 Clouds 8 1016 93 10000 3.58 185 16:18 18.12.2020
4740 Clouds 8 1016 93 10000 3.58 188 15:42 18.12.2020
4741 Clouds 9 1016 93 10000 3.13 176 15:24 18.12.2020
4742 Clouds 9 1016 93 10000 4.02 176 14:55 18.12.2020
4743 Clouds 9 1017 93 10000 4.02 338 14:22 18.12.2020
4744 Clouds 8 1017 93 10000 4.47 164 13:51 18.12.2020
4745 Clouds 8 1017 94 10000 3.58 164 13:31 18.12.2020
4746 Clouds 8 1018 94 10000 4.02 197 12:50 18.12.2020
4747 Clouds 8 1018 95 10000 3.58 338 12:27 18.12.2020
4748 Clouds 8 1018 95 10000 3.58 253 11:26 18.12.2020
4749 Clouds 7 1018 96 10000 4.02 161 10:40 18.12.2020
4750 Clouds 7 1018 97 10000 3.13 204 10:21 18.12.2020
4751 Clouds 6 1019 98 10000 3.58 151 09:55 18.12.2020
4752 Clouds 6 1018 98 10000 3.13 138 09:36 18.12.2020
4753 Clouds 6 1018 98 10000 3.58 338 09:18 18.12.2020
4754 Clouds 6 1018 98 10000 3.58 338 08:42 18.12.2020
4755 Clouds 6 1019 98 10000 4.02 176 07:56 18.12.2020
4756 Clouds 6 1019 98 10000 3.58 167 07:19 18.12.2020
4757 Clouds 6 1019 98 10000 3.13 174 06:59 18.12.2020
4758 Clouds 5 1019 98 10000 2.68 178 05:44 18.12.2020
4759 Clouds 6 1019 97 10000 2.68 158 04:52 18.12.2020
4760 Clouds 6 1019 97 10000 2.24 186 03:20 18.12.2020
4761 Clouds 6 1019 97 10000 2.24 202 01:44 18.12.2020
4762 Clear 7 1019 96 10000 2.24 197 00:29 18.12.2020
4763 Clear 6 1019 96 10000 2.24 203 23:52 17.12.2020
4764 Clear 7 1019 96 10000 1.79 214 23:23 17.12.2020
4765 Clear 7 1019 95 10000 2.24 216 22:48 17.12.2020
4766 Clear 7 1019 95 10000 2.68 218 22:27 17.12.2020
4767 Clear 8 1019 94 10000 2.68 224 21:46 17.12.2020
4768 Clear 8 1019 94 10000 2.68 338 21:22 17.12.2020
4769 Clear 8 1019 94 10000 3.13 203 20:55 17.12.2020
4770 Clear 8 1018 95 10000 2.68 205 20:36 17.12.2020
4771 Clear 8 1018 94 10000 2.68 229 20:18 17.12.2020
4772 Clear 8 1018 95 10000 2.68 208 19:41 17.12.2020
4773 Clouds 8 1018 95 10000 2.68 338 19:22 17.12.2020
4774 Clouds 8 1018 95 10000 2.24 338 18:41 17.12.2020
4775 Clouds 8 1018 95 10000 2.24 338 18:21 17.12.2020
4776 Clouds 8 1018 95 10000 2.24 164 17:49 17.12.2020
4777 Clouds 8 1017 95 10000 2.24 203 17:31 17.12.2020
4778 Clouds 8 1017 94 10000 3.13 201 16:42 17.12.2020
4779 Clouds 9 1016 94 10000 2.68 338 16:23 17.12.2020
4780 Clouds 9 1016 93 10000 2.24 224 15:52 17.12.2020
4781 Clouds 9 1016 93 10000 3.13 338 15:30 17.12.2020
4782 Clouds 9 1015 93 10000 3.58 173 14:54 17.12.2020
4783 Clouds 9 1015 95 10000 3.58 212 14:30 17.12.2020
4784 Clouds 9 1015 96 10000 3.58 338 13:52 17.12.2020
4785 Rain 9 1015 96 10000 3.13 238 13:33 17.12.2020
4786 Clouds 9 1015 97 10000 3.13 214 12:47 17.12.2020
4787 Clouds 9 1015 98 10000 3.58 179 12:25 17.12.2020
4788 Clouds 9 1014 98 10000 2.24 338 11:45 17.12.2020
4789 Clouds 8 1014 99 10000 2.24 185 11:25 17.12.2020
4790 Clouds 8 1014 99 10000 1.79 216 10:55 17.12.2020
4791 Rain 8 1014 98 10000 1.79 338 10:19 17.12.2020
4792 Rain 8 1013 98 9829 2.24 217 09:28 17.12.2020
4793 Rain 9 1012 98 9435 1.79 218 07:54 17.12.2020
4794 Rain 9 1012 98 9435 2.24 197 07:35 17.12.2020
4795 Clouds 9 1012 97 10000 2.24 338 06:54 17.12.2020
4796 Rain 9 1012 97 10000 2.68 185 06:32 17.12.2020
4797 Clouds 9 1012 97 10000 2.68 338 05:59 17.12.2020
4798 Clouds 9 1012 96 10000 2.24 144 00:40 17.12.2020
4799 Clouds 9 1013 97 10000 2.24 126 23:54 16.12.2020
4800 Clouds 9 1013 98 10000 2.24 338 23:22 16.12.2020
4801 Clouds 9 1013 98 10000 2.24 152 22:57 16.12.2020
4802 Clouds 9 1013 99 10000 2.24 137 22:36 16.12.2020
4803 Clouds 8 1014 100 10000 2.68 170 21:54 16.12.2020
4804 Clouds 8 1013 100 10000 2.24 135 21:36 16.12.2020
4805 Clouds 8 1013 100 10000 2.24 155 20:56 16.12.2020
4806 Clouds 7 1014 100 10000 1.79 143 20:37 16.12.2020
4807 Clouds 7 1014 100 10000 1.79 134 20:18 16.12.2020
4808 Clouds 6 1014 100 10000 0.89 128 19:20 16.12.2020
4809 Clouds 6 1014 100 10000 1.34 122 18:56 16.12.2020
4810 Clouds 6 1015 99 10000 1.34 134 18:31 16.12.2020
4811 Clouds 6 1015 100 10000 1.34 175 17:57 16.12.2020
4812 Clouds 7 1015 100 10000 1.34 117 17:31 16.12.2020
4813 Clear 6 1015 100 10000 1.79 120 16:42 16.12.2020
4814 Clear 6 1015 100 10000 1.79 148 16:22 16.12.2020
4815 Clear 6 1015 100 10000 1.79 148 16:22 16.12.2020
4816 Clear 6 1015 100 10000 1.79 148 16:22 16.12.2020
4817 Clear 7 1015 100 10000 1.34 121 15:51 16.12.2020
4818 Clear 7 1015 100 10000 1.79 134 15:30 16.12.2020
4819 Clear 8 1015 100 10000 2.24 128 14:55 16.12.2020
4820 Clear 8 1016 100 10000 1.79 75 14:37 16.12.2020
4821 Clear 8 1016 100 10000 2.24 112 14:19 16.12.2020
4822 Clear 7 1016 100 10000 2.24 116 13:37 16.12.2020
4823 Clouds 7 1016 100 10000 2.24 123 13:18 16.12.2020
4824 Clouds 7 1016 100 10000 2.68 338 12:42 16.12.2020
4825 Clouds 6 1016 100 10000 2.24 162 11:43 16.12.2020
4826 Clouds 7 1016 100 10000 1.79 149 11:23 16.12.2020
4827 Clouds 7 1016 100 10000 2.68 141 10:52 16.12.2020
4828 Clouds 7 1016 100 200 2.68 179 10:27 16.12.2020
4829 Clouds 6 1016 100 200 1.34 131 09:50 16.12.2020
4830 Clouds 6 1016 100 857 0.89 167 09:23 16.12.2020
4831 Clear 6 1016 100 9206 2.68 176 08:22 16.12.2020
4832 Clear 7 1016 100 9206 3.13 160 07:42 16.12.2020
4833 Clouds 7 1016 100 10000 2.24 146 07:20 16.12.2020
4834 Clear 6 1015 99 10000 2.24 185 03:35 16.12.2020
4835 Clear 6 1014 97 10000 1.34 178 01:57 16.12.2020
4836 Clouds 8 1014 98 10000 0.89 187 23:46 15.12.2020
4837 Clouds 8 1014 98 10000 0.89 190 23:19 15.12.2020
4838 Clouds 8 1013 97 10000 1.34 189 22:41 15.12.2020
4839 Clouds 8 1013 97 10000 1.34 338 22:20 15.12.2020
4840 Clouds 9 1012 99 10000 2.24 188 21:46 15.12.2020
4841 Clouds 9 1012 99 10000 1.34 210 21:23 15.12.2020
4842 Clouds 9 1012 99 10000 1.34 203 20:45 15.12.2020
4843 Clouds 9 1012 99 10000 1.79 222 20:26 15.12.2020
4844 Clouds 9 1012 99 10000 1.34 338 19:55 15.12.2020
4845 Clouds 9 1011 99 10000 1.79 338 19:33 15.12.2020
4846 Clouds 8 1011 99 10000 1.34 338 18:41 15.12.2020
4847 Clouds 9 1011 99 10000 1.34 208 18:22 15.12.2020
4848 Clouds 9 1010 99 10000 1.34 207 17:58 15.12.2020
4849 Clouds 9 1010 99 10000 0.89 201 17:40 15.12.2020
4850 Rain 9 1010 99 10000 0.45 201 17:20 15.12.2020
4851 Rain 9 1009 99 10000 0.89 338 16:32 15.12.2020
4852 Rain 9 1009 99 10000 1.34 202 15:52 15.12.2020
4853 Rain 9 1008 99 10000 0.89 203 15:31 15.12.2020
4854 Rain 9 1008 99 10000 1.34 201 14:48 15.12.2020
4855 Clouds 9 1008 98 10000 1.34 198 14:23 15.12.2020
4856 Clouds 9 1008 99 10000 1.79 181 13:52 15.12.2020
4857 Rain 9 1008 98 10000 1.79 190 13:32 15.12.2020
4858 Rain 9 1008 98 7620 2.24 176 12:47 15.12.2020
4859 Rain 9 1008 98 10000 2.24 180 12:25 15.12.2020
4860 Clouds 9 1008 98 10000 1.79 178 11:57 15.12.2020
4861 Clouds 8 1008 98 10000 1.79 182 11:39 15.12.2020
4862 Clouds 8 1008 99 10000 1.79 178 11:20 15.12.2020
4863 Clouds 8 1008 98 10000 2.24 172 10:41 15.12.2020
4864 Clouds 8 1007 98 10000 2.24 173 09:53 15.12.2020
4865 Clouds 8 1007 99 10000 2.24 170 09:32 15.12.2020
4866 Clouds 8 1007 99 10000 2.24 170 09:32 15.12.2020
4867 Clouds 8 1007 99 10000 1.79 174 08:58 15.12.2020
4868 Clouds 8 1007 98 10000 1.79 173 08:37 15.12.2020
4869 Clouds 8 1006 98 10000 1.79 174 08:19 15.12.2020
4870 Clouds 8 1006 98 10000 2.68 183 07:40 15.12.2020
4871 Rain 8 1006 98 10000 1.79 178 06:40 15.12.2020
4872 Clouds 8 1006 98 10000 2.24 156 04:55 15.12.2020
4873 Rain 8 1006 97 10000 2.68 170 00:38 15.12.2020
4874 Rain 9 1006 97 10000 2.68 168 23:48 14.12.2020
4875 Clouds 9 1006 96 10000 1.79 338 23:19 14.12.2020
4876 Rain 9 1006 95 10000 2.24 338 22:39 14.12.2020
4877 Clouds 9 1007 96 10000 2.68 338 21:56 14.12.2020
4878 Clouds 9 1007 96 10000 2.68 173 21:36 14.12.2020
4879 Clouds 9 1006 96 10000 2.24 175 21:18 14.12.2020
4880 Clouds 9 1006 96 10000 2.68 182 20:43 14.12.2020
4881 Clouds 9 1006 96 10000 2.24 171 20:24 14.12.2020
4882 Clouds 9 1006 96 10000 2.24 149 19:39 14.12.2020
4883 Clouds 9 1006 97 10000 3.13 152 19:21 14.12.2020
4884 Clouds 9 1006 98 10000 3.13 338 18:42 14.12.2020
4885 Clouds 9 1006 97 10000 2.68 144 18:22 14.12.2020
4886 Clouds 9 1006 97 10000 1.79 143 17:38 14.12.2020
4887 Clouds 9 1006 96 10000 2.24 180 17:19 14.12.2020
4888 Clouds 9 1006 96 10000 1.79 183 16:40 14.12.2020
4889 Clouds 9 1005 96 10000 2.24 160 16:22 14.12.2020
4890 Clouds 10 1005 96 10000 2.68 189 15:33 14.12.2020
4891 Clouds 10 1005 96 10000 2.68 338 15:33 14.12.2020
4892 Clouds 10 1005 96 10000 3.13 168 14:50 14.12.2020
4893 Clouds 10 1005 96 10000 3.13 166 14:29 14.12.2020
4894 Clouds 9 1005 97 10000 3.13 174 13:56 14.12.2020
4895 Clouds 9 1004 97 10000 4.02 190 13:34 14.12.2020
4896 Clouds 9 1004 98 10000 4.02 149 12:56 14.12.2020
4897 Clouds 8 1004 99 10000 4.47 176 12:34 14.12.2020
4898 Clouds 8 1004 99 10000 4.02 162 11:58 14.12.2020
4899 Clouds 7 1004 99 10000 3.58 173 11:25 14.12.2020
4900 Clouds 6 1004 98 10000 4.02 179 10:28 14.12.2020
4901 Rain 6 1004 98 10000 3.13 193 09:53 14.12.2020
4902 Clouds 6 1004 98 10000 3.13 185 09:25 14.12.2020
4903 Rain 6 1004 98 10000 2.68 154 08:45 14.12.2020
4904 Rain 6 1004 97 10000 3.13 338 08:25 14.12.2020
4905 Rain 6 1004 95 10000 3.13 158 07:26 14.12.2020
4906 Clouds 6 1004 93 10000 4.02 164 06:44 14.12.2020
4907 Clouds 6 1005 92 10000 3.58 338 04:27 14.12.2020
4908 Clouds 6 1006 90 10000 4.02 137 02:26 14.12.2020
4909 Clouds 6 1006 89 10000 3.58 131 00:54 14.12.2020
4910 Clouds 6 1006 89 10000 4.02 108 00:30 14.12.2020
4911 Clouds 6 1007 91 10000 3.58 152 23:46 13.12.2020
4912 Clouds 6 1007 92 10000 3.13 132 23:24 13.12.2020
4913 Clouds 6 1007 94 10000 3.58 112 22:45 13.12.2020
4914 Clouds 6 1007 95 10000 3.58 136 22:18 13.12.2020
4915 Clouds 6 1008 98 10000 4.02 338 21:42 13.12.2020
4916 Clouds 6 1008 99 10000 2.68 146 21:23 13.12.2020
4917 Clouds 6 1008 100 10000 2.68 149 20:35 13.12.2020
4918 Clouds 5 1008 100 10000 2.68 153 19:53 13.12.2020
4919 Clouds 6 1008 100 10000 3.13 144 19:32 13.12.2020
4920 Clouds 5 1008 100 10000 2.24 139 18:59 13.12.2020
4921 Clouds 5 1008 100 10000 1.79 156 18:41 13.12.2020
4922 Clouds 6 1009 100 10000 2.24 145 18:19 13.12.2020
4923 Clouds 6 1009 100 10000 1.79 150 17:46 13.12.2020
4924 Clouds 6 1009 100 10000 2.24 140 17:21 13.12.2020
4925 Clouds 6 1009 100 10000 1.34 144 16:55 13.12.2020
4926 Clouds 6 1009 100 10000 0.89 162 16:36 13.12.2020
4927 Clouds 6 1009 100 10000 1.79 163 15:58 13.12.2020
4928 Clouds 6 1009 100 10000 1.79 174 15:38 13.12.2020
4929 Clouds 6 1009 100 10000 1.34 174 15:20 13.12.2020
4930 Clouds 6 1009 100 10000 2.24 177 14:43 13.12.2020
4931 Clouds 5 1009 100 10000 1.79 338 14:20 13.12.2020
4932 Clouds 5 1009 100 10000 1.79 142 13:43 13.12.2020
4933 Clouds 5 1009 100 10000 1.79 141 13:24 13.12.2020
4934 Clouds 5 1007 97 10000 0.45 147 12:48 13.12.2020
4935 Clouds 5 1009 100 10000 2.24 150 12:22 13.12.2020
4936 Clouds 4 1009 100 10000 1.34 163 11:40 13.12.2020
4937 Clouds 4 1007 91 10000 3.58 286 10:56 13.12.2020
4938 Clouds 4 1007 96 10000 3.2 210 10:38 13.12.2020
4939 Clouds 4 1009 100 10000 1.34 338 09:55 13.12.2020
4940 Clouds 4 1009 100 10000 1.34 189 09:55 13.12.2020
4941 Clouds 4 1008 100 10000 1.34 193 09:26 13.12.2020
4942 Clouds 4 1008 100 10000 1.34 198 08:35 13.12.2020
4943 Clouds 4 1007 99 10000 0.45 193 07:47 13.12.2020
4944 Clouds 5 1006 99 10000 1.34 219 04:48 13.12.2020
4945 Clouds 6 1004 99 10000 1.79 242 02:42 13.12.2020
4946 Clouds 6 1004 99 10000 0.89 123 01:58 13.12.2020
4947 Clouds 5 1003 99 10000 0.89 116 00:51 13.12.2020
4948 Clouds 5 1003 99 10000 0.89 116 00:51 13.12.2020
4949 Clouds 5 1003 99 10000 0.89 117 00:33 13.12.2020
4950 Clouds 5 1002 99 10000 0.89 115 23:33 12.12.2020
4951 Clouds 5 1002 99 10000 0.89 116 22:56 12.12.2020
4952 Clouds 5 1002 99 10000 0.89 338 22:25 12.12.2020
4953 Clouds 5 1002 99 10000 0.45 338 21:44 12.12.2020
4954 Clouds 5 1001 99 10000 0.89 338 21:18 12.12.2020
4955 Clouds 5 1001 99 10000 1.79 338 20:43 12.12.2020
4956 Clouds 4 1001 99 10000 1.79 119 20:19 12.12.2020
4957 Clouds 4 1001 99 10000 1.34 136 19:47 12.12.2020
4958 Clouds 4 1001 99 10000 0.89 117 19:29 12.12.2020
4959 Clouds 4 1000 98 10000 1.34 124 18:48 12.12.2020
4960 Clouds 4 1000 98 10000 2.24 91 18:30 12.12.2020
4961 Clouds 4 1000 98 10000 2.24 106 17:59 12.12.2020
4962 Clouds 4 1000 98 10000 2.24 338 17:40 12.12.2020
4963 Clouds 4 999 97 10000 0.89 92 16:30 12.12.2020
4964 Clouds 4 999 97 10000 1.79 91 15:53 12.12.2020
4965 Clouds 4 999 97 10000 1.79 101 15:35 12.12.2020
4966 Clouds 4 998 96 10000 1.79 95 14:53 12.12.2020
4967 Clouds 4 998 96 10000 1.34 122 14:20 12.12.2020
4968 Clouds 4 998 96 10000 2.24 147 13:40 12.12.2020
4969 Clouds 4 998 96 10000 1.79 112 13:22 12.12.2020
4970 Clouds 4 997 96 10000 2.24 95 12:33 12.12.2020
4971 Clouds 3 997 95 10000 2.68 70 11:19 12.12.2020
4972 Clouds 3 997 95 10000 2.68 110 10:45 12.12.2020
4973 Clouds 3 996 94 10000 2.24 101 09:23 12.12.2020
4974 Clouds 3 995 93 10000 2.68 70 07:42 12.12.2020
4975 Clouds 3 993 90 10000 2.68 128 01:39 12.12.2020
4976 Clouds 3 993 90 10000 3.13 152 23:21 11.12.2020
4977 Clouds 4 993 88 10000 3.13 85 20:57 11.12.2020
4978 Clouds 4 993 89 10000 3.13 93 19:42 11.12.2020
4979 Clouds 4 993 89 10000 2.24 93 16:52 11.12.2020
4980 Clouds 4 993 87 10000 3.13 106 14:37 11.12.2020
4981 Clouds 4 994 88 10000 3.58 118 13:45 11.12.2020
4982 Clouds 3 995 89 10000 2.68 74 12:23 11.12.2020
4983 Clouds 3 995 90 10000 3.13 85 11:55 11.12.2020
4984 Clouds 2 996 91 10000 3.13 135 11:36 11.12.2020
4985 Clouds 2 996 93 10000 2.68 112 10:40 11.12.2020
4986 Clouds 1 998 93 10000 3.13 96 07:42 11.12.2020
4987 Clouds 1 1000 94 10000 2.24 104 05:36 11.12.2020
4988 Clouds 1 1000 95 10000 2.68 133 04:47 11.12.2020
4989 Clouds 2 1003 95 10000 2.24 168 00:54 11.12.2020
4990 Clouds 2 1004 96 10000 2.24 164 23:28 10.12.2020
4991 Clouds 2 1005 95 10000 1.79 188 21:55 10.12.2020
4992 Clouds 2 1005 95 10000 2.24 338 21:28 10.12.2020
4993 Clouds 3 1005 95 10000 2.24 158 20:36 10.12.2020
4994 Clouds 3 1005 95 10000 1.34 129 19:31 10.12.2020
4995 Clouds 3 1006 95 10000 1.34 126 18:50 10.12.2020
4996 Clouds 3 1006 95 10000 1.34 143 17:36 10.12.2020
4997 Clouds 3 1006 95 10000 1.79 151 16:18 10.12.2020
4998 Clouds 3 1006 94 10000 0.89 139 15:24 10.12.2020
4999 Clouds 3 1006 95 10000 1.34 120 14:47 10.12.2020
5000 Clouds 3 1007 96 10000 1.34 94 14:21 10.12.2020
5001 Clouds 2 1007 97 10000 1.34 132 12:33 10.12.2020
5002 Clouds 1 1008 97 10000 1.34 137 10:59 10.12.2020
5003 Clouds 1 1008 97 10000 1.79 107 08:44 10.12.2020
5004 Clouds 1 1008 97 10000 1.34 130 07:34 10.12.2020
5005 Clouds 1 1008 97 10000 1.79 138 06:40 10.12.2020
5006 Clouds 1 1008 96 10000 2.24 115 02:51 10.12.2020
5007 Clouds 1 1008 96 10000 2.68 137 01:56 10.12.2020
5008 Clouds 1 1009 96 10000 3.13 141 23:49 09.12.2020
5009 Clouds 2 1009 95 10000 2.24 142 20:43 09.12.2020
5010 Clouds 2 1009 95 10000 3.13 166 20:24 09.12.2020
5011 Clouds 2 1009 95 10000 1.34 338 18:58 09.12.2020
5012 Clouds 2 1009 95 10000 1.34 338 18:58 09.12.2020
5013 Clouds 2 1009 93 10000 2.24 138 17:39 09.12.2020
5014 Clouds 3 1009 94 10000 1.34 125 16:40 09.12.2020
5015 Clouds 3 1009 94 10000 0.89 151 16:20 09.12.2020
5016 Clouds 3 1009 94 10000 1.79 145 14:53 09.12.2020
5017 Clouds 3 1009 94 10000 1.79 141 14:27 09.12.2020
5018 Clouds 3 1009 94 10000 1.79 147 13:51 09.12.2020
5019 Clouds 3 1009 96 10000 1.79 158 13:18 09.12.2020
5020 Clouds 3 1009 97 10000 1.34 145 12:43 09.12.2020
5021 Clouds 3 1009 97 10000 1.34 165 11:48 09.12.2020
5022 Clouds 3 1010 97 10000 1.34 151 10:31 09.12.2020
5023 Clouds 3 1009 97 10000 0.89 139 08:45 09.12.2020
5024 Clouds 3 1009 97 10000 0.45 95 07:43 09.12.2020
5025 Clouds 3 1008 96 10000 2.1 110 05:48 09.12.2020
5026 Clouds 3 1008 93 2200 2.1 90 03:21 09.12.2020
5027 Clouds 3 1008 95 10000 0.45 95 01:21 09.12.2020
5028 Clouds 3 1007 95 10000 0.45 85 23:41 08.12.2020
5029 Clouds 4 1007 95 10000 0.89 115 22:43 08.12.2020
5030 Clouds 4 1007 94 10000 0.45 106 20:54 08.12.2020
5031 Clouds 4 1007 93 10000 0.89 106 19:32 08.12.2020
5032 Clouds 4 1006 93 10000 0.89 113 18:57 08.12.2020
5033 Clouds 4 1006 94 10000 1.34 119 17:31 08.12.2020
5034 Clouds 4 1005 94 10000 0.45 88 15:44 08.12.2020
5035 Clear 5 1005 94 10000 0.45 116 14:18 08.12.2020
5036 Clear 5 1005 95 10000 0.45 114 13:24 08.12.2020
5037 Clear 4 1005 96 10000 0.45 338 12:24 08.12.2020
5038 Clear 4 1005 97 10000 0.45 114 11:42 08.12.2020
5039 Clear 3 1005 98 10000 0.45 115 10:45 08.12.2020
5040 Clear 2 1005 98 10000 0.45 114 09:50 08.12.2020
5041 Clouds 2 1005 98 10000 1.34 114 07:59 08.12.2020
5042 Clouds 2 1004 96 10000 3.4 121 06:36 08.12.2020
5043 Clouds 4 1003 98 10000 1.34 141 03:29 08.12.2020
5044 Clouds 4 1002 97 10000 0.89 156 00:46 08.12.2020
5045 Clouds 4 1002 97 10000 1.79 338 23:52 07.12.2020
5046 Clouds 4 1001 97 10000 2.68 154 22:38 07.12.2020
5047 Clouds 4 1001 97 10000 3.13 173 21:51 07.12.2020
5048 Clouds 4 998 95 10000 0.45 193 19:52 07.12.2020
5049 Clouds 5 998 97 10000 3.58 338 18:42 07.12.2020
5050 Rain 5 997 98 10000 3.13 338 17:26 07.12.2020
5051 Rain 5 997 98 10000 3.13 189 16:54 07.12.2020
5052 Rain 6 995 99 10000 3.13 212 15:30 07.12.2020
5053 Rain 6 994 100 10000 3.13 185 14:51 07.12.2020
5054 Clouds 6 994 100 10000 3.13 197 14:18 07.12.2020
5055 Clouds 5 993 100 10000 3.13 338 13:23 07.12.2020
5056 Clouds 4 993 100 10000 2.24 152 11:44 07.12.2020
5057 Clouds 4 993 100 10000 2.24 115 11:19 07.12.2020
5058 Clouds 3 993 99 10000 2.68 144 09:56 07.12.2020
5059 Rain 3 993 99 10000 1.79 160 08:29 07.12.2020
5060 Rain 4 993 99 10000 1.79 145 06:44 07.12.2020
5061 Rain 4 994 100 10000 0.89 135 04:58 07.12.2020
5062 Rain 4 994 100 10000 0.89 135 04:58 07.12.2020
5063 Clouds 5 995 99 10000 2.04 103 01:57 07.12.2020
5064 Rain 5 997 99 10000 0.89 4 00:30 07.12.2020
5065 Clouds 5 997 99 10000 0.45 329 22:33 06.12.2020
5066 Clouds 5 997 99 10000 0.89 338 21:32 06.12.2020
5067 Clouds 5 998 99 10000 0.45 1 20:34 06.12.2020
5068 Clouds 5 999 99 10000 0.89 1 19:57 06.12.2020
5069 Clouds 5 999 99 10000 1.79 4 18:52 06.12.2020
5070 Rain 5 1000 99 10000 3.13 343 17:23 06.12.2020
5071 Clouds 5 1000 98 10000 2.24 0 15:53 06.12.2020
5072 Clouds 5 1001 98 10000 1.34 14 13:59 06.12.2020
5073 Rain 4 1002 98 10000 0.89 22 12:52 06.12.2020
5074 Clouds 4 1002 98 10000 1.34 6 12:27 06.12.2020
5075 Clouds 3 1002 98 10000 1.79 11 11:37 06.12.2020
5076 Clouds 3 1002 99 10000 1.79 17 11:18 06.12.2020
5077 Clouds 3 1003 99 10000 0.89 21 10:31 06.12.2020
5078 Clouds 1 1003 99 10000 1.34 26 08:49 06.12.2020
5079 Clouds 1 1003 98 10000 0.45 73 06:53 06.12.2020
5080 Clouds 1 1003 98 10000 0.45 97 03:50 06.12.2020
5081 Clouds 1 1003 98 10000 0.89 113 00:43 06.12.2020
5082 Clouds 1 1003 97 10000 0.89 107 00:25 06.12.2020
5083 Clouds 1 1003 97 10000 1.34 95 23:44 05.12.2020
5084 Clouds 1 1003 97 10000 1.34 108 22:23 05.12.2020
5085 Clouds 1 1003 96 10000 0.89 123 21:51 05.12.2020
5086 Clouds 1 1003 96 10000 0.89 123 21:27 05.12.2020
5087 Clouds 1 1001 95 10000 0.89 145 19:49 05.12.2020
5088 Clear 1 1001 94 10000 0.45 158 18:45 05.12.2020
5089 Clouds 2 1000 93 10000 1.79 164 17:35 05.12.2020
5090 Clouds 3 1000 90 10000 1.79 176 16:43 05.12.2020
5091 Clouds 4 1000 90 10000 2.68 174 16:23 05.12.2020
5092 Clouds 6 998 90 10000 2.24 173 14:30 05.12.2020
5093 Clouds 5 996 96 10000 1.79 187 12:32 05.12.2020
5094 Clouds 4 996 98 10000 1.34 338 11:49 05.12.2020
5095 Clouds 3 996 98 10000 0.45 191 10:34 05.12.2020
5096 Rain 3 994 97 10000 2.9 100 08:27 05.12.2020
5097 Rain 3 994 97 10000 0.89 78 07:47 05.12.2020
5098 Rain 3 993 96 10000 0.45 94 05:30 05.12.2020
5099 Clouds 4 992 93 10000 1.34 98 23:57 04.12.2020
5100 Clouds 4 992 92 10000 1.34 104 22:47 04.12.2020
5101 Clouds 5 990 91 10000 1.34 113 20:35 04.12.2020
5102 Clouds 6 989 90 10000 1.79 113 18:54 04.12.2020
5103 Clouds 6 989 89 10000 1.34 147 18:28 04.12.2020
5104 Clouds 6 988 88 10000 1.79 93 17:41 04.12.2020
5105 Clouds 7 986 88 10000 2.24 128 15:54 04.12.2020
5106 Clouds 7 986 87 10000 2.68 118 15:21 04.12.2020
5107 Clouds 7 985 88 10000 3.13 104 13:36 04.12.2020
5108 Clouds 7 984 87 10000 2.68 143 13:18 04.12.2020
5109 Clouds 6 984 89 10000 3.13 160 12:20 04.12.2020
5110 Clouds 5 984 92 10000 4.02 148 10:37 04.12.2020
5111 Rain 3 983 94 10000 4.47 64 08:29 04.12.2020
5112 Clouds 4 982 91 10000 3.58 70 06:40 04.12.2020
5113 Clouds 3 983 89 10000 3.58 93 04:52 04.12.2020
5114 Clouds 3 985 92 10000 3.58 338 01:52 04.12.2020
5115 Clouds 3 988 96 10000 3.58 107 22:49 03.12.2020
5116 Rain 4 989 97 10000 3.13 124 21:23 03.12.2020
5117 Rain 4 990 96 10000 3.58 114 20:46 03.12.2020
5118 Rain 4 990 96 10000 4.02 123 19:23 03.12.2020
5119 Clouds 4 991 96 10000 3.13 338 18:47 03.12.2020
5120 Clouds 4 992 97 10000 3.58 142 17:21 03.12.2020
5121 Clouds 4 994 97 10000 3.13 139 15:59 03.12.2020
5122 Clouds 5 994 96 10000 3.13 178 15:33 03.12.2020
5123 Clouds 5 994 97 10000 4.02 190 14:49 03.12.2020
5124 Clouds 5 995 98 10000 3.13 159 13:55 03.12.2020
5125 Clouds 5 995 98 10000 3.13 159 13:55 03.12.2020
5126 Clouds 5 997 98 10000 2.24 187 12:50 03.12.2020
5127 Clouds 5 997 98 10000 2.24 177 12:23 03.12.2020
5128 Rain 5 999 98 10000 2.68 161 10:54 03.12.2020
5129 Clouds 5 1000 98 10000 3.13 189 08:49 03.12.2020
5130 Clouds 4 1004 98 10000 3.13 169 04:21 03.12.2020
5131 Clouds 4 1004 89 10000 5.81 300 02:20 03.12.2020
5132 Clouds 4 1007 98 10000 2.24 164 00:32 03.12.2020
5133 Clouds 4 1009 98 10000 2.68 168 22:47 02.12.2020
5134 Clouds 4 1010 98 10000 2.24 169 21:56 02.12.2020
5135 Clouds 4 1011 98 10000 1.79 338 20:52 02.12.2020
5136 Clouds 4 1011 98 10000 1.79 159 20:34 02.12.2020
5137 Clouds 4 1011 98 10000 1.79 338 19:55 02.12.2020
5138 Clouds 4 1013 97 10000 1.79 143 17:54 02.12.2020
5139 Clouds 4 1013 97 10000 1.34 138 17:35 02.12.2020
5140 Clouds 4 1013 96 10000 1.34 145 16:59 02.12.2020
5141 Clouds 4 1015 96 10000 1.34 133 14:47 02.12.2020
5142 Clouds 4 1018 97 10000 0.89 145 11:34 02.12.2020
5143 Clouds 4 1019 96 10000 1.34 147 10:28 02.12.2020
5144 Clouds 4 1020 96 10000 1.79 91 08:36 02.12.2020
5145 Clouds 5 1022 96 10000 0.89 33 01:39 02.12.2020
5146 Clouds 5 1021 96 10000 1.34 17 22:21 01.12.2020
5147 Clouds 5 1021 96 10000 1.34 38 20:49 01.12.2020
5148 Clouds 6 1020 95 10000 1.34 26 19:35 01.12.2020
5149 Clouds 6 1019 95 10000 1.79 351 17:49 01.12.2020
5150 Clouds 6 1017 96 10000 3.58 14 15:44 01.12.2020
5151 Clouds 7 1016 95 10000 4.47 2 13:38 01.12.2020
5152 Clouds 8 1015 94 10000 4.02 351 12:25 01.12.2020
5153 Clouds 8 1014 98 10000 3.13 12 11:27 01.12.2020
5154 Clouds 8 1014 99 10000 1.79 349 10:39 01.12.2020
5155 Rain 8 1012 99 10000 2.24 0 08:21 01.12.2020
5156 Rain 7 1011 100 10000 2.24 348 06:48 01.12.2020
5157 Clouds 7 1009 99 10000 1.34 249 01:53 01.12.2020
5158 Clouds 6 1008 100 10000 1.79 257 00:56 01.12.2020
5159 Clouds 4 1009 99 10000 2.68 164 23:21 30.11.2020
5160 Clouds 4 1009 99 10000 3.13 203 22:45 30.11.2020
5161 Clouds 4 1009 99 10000 3.13 165 22:25 30.11.2020
5162 Rain 3 1010 99 10000 4.47 187 21:22 30.11.2020
5163 Rain 2 1012 99 10000 3.13 338 19:42 30.11.2020
5164 Rain 2 1014 98 10000 3.13 172 18:24 30.11.2020
5165 Rain 2 1014 98 10000 3.58 174 17:51 30.11.2020
5166 Rain 1 1015 98 10000 3.58 338 17:24 30.11.2020
5167 Rain 1 1016 98 10000 3.13 338 16:43 30.11.2020
5168 Rain 1 1018 96 10000 3.58 338 14:47 30.11.2020
5169 Clouds 1 1019 93 10000 4.02 177 13:55 30.11.2020
5170 Clouds 1 1021 91 10000 3.58 178 12:35 30.11.2020
5171 Clouds 1 1021 91 10000 3.58 173 11:59 30.11.2020
5172 Clouds 1 1023 92 10000 3.58 179 10:32 30.11.2020
5173 Clouds 0 1023 93 10000 3.13 183 09:52 30.11.2020
5174 Clouds 0 1025 95 10000 1.79 338 07:58 30.11.2020
5175 Clear 0 1027 94 10000 0.89 145 01:21 30.11.2020
5176 Clear 0 1028 89 10000 0.89 144 22:22 29.11.2020
5177 Clear 1 1028 88 10000 0.45 145 21:43 29.11.2020
5178 Clear 1 1028 87 10000 0.89 338 21:25 29.11.2020
5179 Clear 2 1028 85 10000 0.89 120 18:31 29.11.2020
5180 Clear 3 1028 84 10000 0.45 106 16:59 29.11.2020
5181 Clear 4 1028 78 10000 1.79 89 13:35 29.11.2020
5182 Clear 4 1028 78 10000 1.79 89 13:35 29.11.2020
5183 Clear 4 1028 79 10000 1.79 99 12:43 29.11.2020
5184 Clear 2 1028 85 10000 2.24 103 11:22 29.11.2020
5185 Clear -1 1028 93 10000 2.24 97 08:52 29.11.2020
5186 Clear -1 1028 95 10000 2.24 101 08:34 29.11.2020
5187 Clouds 1 1027 92 10000 3.13 70 02:31 29.11.2020
5188 Clear 3 1026 90 10000 3.13 134 22:59 28.11.2020
5189 Clear 3 1026 90 10000 2.68 27 22:18 28.11.2020
5190 Clear 4 1025 95 10000 3.13 112 19:56 28.11.2020
5191 Clouds 4 1025 96 10000 2.68 106 19:27 28.11.2020
5192 Clouds 4 1025 96 10000 2.24 108 18:56 28.11.2020
5193 Clouds 4 1025 96 10000 2.24 74 18:19 28.11.2020
5194 Clouds 5 1024 95 10000 2.24 109 16:56 28.11.2020
5195 Clouds 5 1023 96 10000 3.13 111 14:58 28.11.2020
5196 Clouds 5 1023 96 10000 2.68 117 13:47 28.11.2020
5197 Clouds 6 1023 97 10000 2.68 72 11:27 28.11.2020
5198 Clouds 6 1023 96 452 2.24 95 09:26 28.11.2020
5199 Clear 5 1021 95 10000 2.24 112 03:39 28.11.2020
5200 Clear 5 1021 95 10000 2.68 128 01:52 28.11.2020
5201 Clouds 7 1020 93 10000 2.24 107 23:21 27.11.2020
5202 Clouds 7 1020 94 10000 2.68 113 22:33 27.11.2020
5203 Clouds 7 1020 95 10000 2.24 138 20:39 27.11.2020
5204 Clouds 7 1020 96 10000 1.34 109 19:34 27.11.2020
5205 Clouds 7 1020 96 10000 0.89 119 18:57 27.11.2020
5206 Clouds 8 1020 96 10000 1.34 79 16:51 27.11.2020
5207 Clouds 8 1020 95 10000 2.24 106 14:45 27.11.2020
5208 Clouds 7 1020 96 10000 0.89 68 13:20 27.11.2020
5209 Clouds 7 1020 97 10000 1.34 97 12:47 27.11.2020
5210 Clouds 7 1021 98 10000 3.04 105 11:34 27.11.2020
5211 Clouds 7 1021 98 10000 2.68 111 10:45 27.11.2020
5212 Clouds 6 1021 98 10000 0.45 280 09:53 27.11.2020
5213 Clouds 5 1020 97 10000 1.18 85 04:32 27.11.2020
5214 Clouds 7 1020 96 10000 0.72 194 22:26 26.11.2020
5215 Clouds 7 1020 96 10000 0.72 194 21:56 26.11.2020
5216 Clouds 7 1020 95 10000 0.12 289 20:50 26.11.2020
5217 Clouds 7 1020 94 10000 0.53 306 18:37 26.11.2020
5218 Clouds 8 1020 94 10000 0.98 312 17:41 26.11.2020
5219 Clouds 9 1020 90 10000 0.45 282 14:49 26.11.2020
5220 Clouds 11 1020 89 10000 0.89 274 13:20 26.11.2020
5221 Clouds 10 1020 90 10000 0.89 272 12:42 26.11.2020
5222 Clouds 10 1020 97 10000 1.34 338 11:35 26.11.2020
5223 Clouds 9 1020 99 10000 0.89 270 10:27 26.11.2020
5224 Clouds 9 1020 99 10000 1.34 282 09:41 26.11.2020
5225 Clouds 8 1020 98 10000 0.89 259 09:21 26.11.2020
5226 Clouds 9 1019 98 10000 0.89 261 08:38 26.11.2020
5227 Clouds 8 1017 98 10000 2.24 197 04:42 26.11.2020
5228 Clouds 5 1015 93 10000 4.34 209 22:42 25.11.2020
5229 Clouds 5 1016 96 10000 1.34 174 20:42 25.11.2020
5230 Clouds 5 1016 94 10000 1.34 179 19:44 25.11.2020
5231 Clouds 5 1016 94 10000 2.24 181 18:27 25.11.2020
5232 Clouds 6 1015 92 10000 1.79 338 16:43 25.11.2020
5233 Clouds 7 1015 90 10000 2.24 164 15:38 25.11.2020
5234 Clouds 8 1015 86 10000 2.68 201 13:56 25.11.2020
5235 Clouds 8 1015 86 10000 3.13 194 13:37 25.11.2020
5236 Clouds 6 1016 91 10000 2.24 338 11:45 25.11.2020
5237 Clouds 6 1016 92 10000 3.13 338 11:18 25.11.2020
5238 Clouds 3 1015 96 10000 3.13 338 09:18 25.11.2020
5239 Clouds 3 1015 97 10000 2.68 154 08:43 25.11.2020
5240 Clouds 4 1016 96 10000 2.68 172 03:59 25.11.2020
5241 Clouds 4 1016 96 10000 2.24 178 02:26 25.11.2020
5242 Clouds 5 1017 96 10000 1.79 148 00:24 25.11.2020
5243 Clouds 5 1017 96 10000 1.79 131 23:52 24.11.2020
5244 Clouds 6 1017 96 10000 1.79 143 23:34 24.11.2020
5245 Clouds 6 1018 95 10000 1.79 164 21:52 24.11.2020
5246 Clouds 6 1018 95 10000 1.79 338 21:31 24.11.2020
5247 Clouds 6 1018 94 10000 1.34 338 20:45 24.11.2020
5248 Clouds 8 1019 92 10000 2.24 174 18:57 24.11.2020
5249 Clouds 9 1019 92 10000 2.24 175 17:31 24.11.2020
5250 Clouds 9 1019 92 10000 2.24 168 16:56 24.11.2020
5251 Clouds 9 1019 92 10000 2.24 175 16:36 24.11.2020
5252 Clouds 9 1019 91 10000 1.79 167 15:55 24.11.2020
5253 Clear 9 1020 91 10000 2.24 195 15:19 24.11.2020
5254 Clear 9 1020 91 10000 1.79 192 14:43 24.11.2020
5255 Clouds 9 1021 91 10000 2.24 187 12:55 24.11.2020
5256 Clouds 9 1021 91 10000 2.24 226 12:22 24.11.2020
5257 Clouds 9 1021 92 10000 2.68 160 11:58 24.11.2020
5258 Clouds 8 1022 94 10000 2.24 201 10:49 24.11.2020
5259 Clouds 8 1022 94 10000 2.68 185 10:25 24.11.2020
5260 Clouds 7 1022 95 10000 1.79 188 09:36 24.11.2020
5261 Clouds 7 1022 96 10000 2.68 168 08:27 24.11.2020
5262 Clouds 5 1022 96 10000 3.13 194 04:50 24.11.2020
5263 Clouds 4 1025 90 10000 2.24 180 23:32 23.11.2020
5264 Clouds 5 1026 91 10000 2.24 195 21:47 23.11.2020
5265 Clouds 5 1026 92 10000 2.24 158 21:20 23.11.2020
5266 Clouds 5 1026 92 10000 1.79 187 20:28 23.11.2020
5267 Clouds 5 1026 93 10000 1.34 193 19:36 23.11.2020
5268 Clouds 6 1026 90 10000 1.34 203 17:29 23.11.2020
5269 Clouds 7 1026 88 10000 1.34 201 16:55 23.11.2020
5270 Clouds 9 1026 82 10000 3.13 218 14:50 23.11.2020
5271 Clouds 10 1026 82 10000 4.02 338 13:56 23.11.2020
5272 Clouds 10 1027 84 10000 2.24 243 12:40 23.11.2020
5273 Clouds 10 1027 85 10000 2.68 222 11:57 23.11.2020
5274 Clouds 10 1027 86 10000 2.24 259 11:38 23.11.2020
5275 Clouds 7 1026 93 10000 2.24 240 09:59 23.11.2020
5276 Clear 6 1025 95 10000 1.34 211 08:58 23.11.2020
5277 Clear 6 1025 94 10000 1.34 214 07:58 23.11.2020
5278 Clouds 6 1023 92 10000 2.24 338 05:22 23.11.2020
5279 Clouds 6 1023 94 10000 2.24 212 23:54 22.11.2020
5280 Clouds 5 1023 95 10000 2.24 209 22:32 22.11.2020
5281 Clouds 6 1023 94 10000 1.34 231 21:26 22.11.2020
5282 Clouds 6 1023 93 10000 1.79 223 20:35 22.11.2020
5283 Clouds 7 1023 92 10000 1.79 220 19:36 22.11.2020
5284 Clouds 7 1023 92 10000 1.79 209 18:39 22.11.2020
5285 Clouds 8 1022 88 10000 2.24 227 16:36 22.11.2020
5286 Clouds 9 1022 86 10000 2.24 260 15:29 22.11.2020
5287 Clouds 10 1022 83 10000 3.13 338 14:27 22.11.2020
5288 Clouds 11 1023 87 10000 3.58 223 12:44 22.11.2020
5289 Clouds 10 1022 89 10000 3.58 205 11:56 22.11.2020
5290 Clouds 10 1022 93 10000 2.68 338 11:20 22.11.2020
5291 Clouds 9 1022 92 10000 3.13 262 10:38 22.11.2020
5292 Clouds 8 1021 96 10000 3.13 338 08:36 22.11.2020
5293 Clouds 9 1020 98 10000 3.58 189 01:47 22.11.2020
5294 Clouds 9 1021 97 10000 3.58 338 23:21 21.11.2020
5295 Clouds 9 1022 97 10000 3.58 226 21:47 21.11.2020
5296 Clouds 9 1022 97 10000 4.02 227 21:18 21.11.2020
5297 Clouds 9 1022 95 10000 3.58 338 20:33 21.11.2020
5298 Clouds 9 1022 95 10000 3.58 230 19:53 21.11.2020
5299 Clouds 9 1022 95 10000 4.02 206 19:26 21.11.2020
5300 Clouds 9 1022 96 10000 4.47 229 17:57 21.11.2020
5301 Clouds 9 1022 97 10000 3.58 222 16:48 21.11.2020
5302 Clouds 9 1022 97 10000 3.58 222 16:48 21.11.2020
5303 Clouds 9 1022 98 10000 3.58 220 15:52 21.11.2020
5304 Clouds 9 1022 98 10000 3.13 207 15:22 21.11.2020
5305 Rain 9 1022 98 10000 3.13 199 14:43 21.11.2020
5306 Clouds 9 1023 98 10000 3.58 225 13:58 21.11.2020
5307 Clouds 8 1023 98 10000 4.02 264 12:27 21.11.2020
5308 Clouds 8 1023 98 10000 4.02 338 11:56 21.11.2020
5309 Rain 7 1024 97 10000 3.58 338 10:40 21.11.2020
5310 Clouds 6 1024 97 10000 3.13 169 09:58 21.11.2020
5311 Clouds 6 1025 96 10000 3.58 226 08:51 21.11.2020
5312 Clouds 5 1026 95 10000 3.58 203 06:34 21.11.2020
5313 Clouds 5 1027 90 10000 3.58 176 04:33 21.11.2020
5314 Clouds 4 1030 88 10000 3.13 191 00:38 21.11.2020
5315 Clouds 4 1030 88 10000 2.68 182 23:44 20.11.2020
5316 Clouds 4 1031 89 10000 2.24 199 22:25 20.11.2020
5317 Clouds 4 1031 90 10000 2.24 193 21:38 20.11.2020
5318 Clouds 4 1031 90 10000 2.24 193 21:20 20.11.2020
5319 Clouds 4 1032 92 10000 1.34 338 19:44 20.11.2020
5320 Clouds 4 1032 92 10000 1.79 177 18:37 20.11.2020
5321 Clouds 5 1032 90 10000 1.34 338 17:51 20.11.2020
5322 Clouds 5 1032 89 10000 1.34 207 17:24 20.11.2020
5323 Clouds 6 1032 88 10000 1.79 200 16:38 20.11.2020
5324 Clouds 8 1032 93 10000 0.89 196 15:56 20.11.2020
5325 Clouds 8 1032 93 10000 0.89 197 15:25 20.11.2020
5326 Clouds 8 1032 85 10000 2.68 229 13:45 20.11.2020
5327 Rain 9 1032 86 10000 2.24 226 13:18 20.11.2020
5328 Rain 8 1032 89 10000 2.24 338 12:35 20.11.2020
5329 Clouds 8 1032 91 10000 1.34 259 11:45 20.11.2020
5330 Clouds 6 1032 95 10000 1.34 241 10:55 20.11.2020
5331 Clouds 4 1031 95 10000 1.34 338 08:54 20.11.2020
5332 Rain 4 1031 93 10000 1.34 244 08:25 20.11.2020
5333 Clouds 5 1031 92 10000 1.34 249 07:32 20.11.2020
5334 Clouds 5 1029 93 10000 2.24 272 03:44 20.11.2020
5335 Clouds 5 1027 91 10000 1.79 338 22:42 19.11.2020
5336 Clouds 4 1026 92 10000 1.34 226 21:56 19.11.2020
5337 Clouds 5 1026 92 10000 1.34 338 21:36 19.11.2020
5338 Clouds 5 1026 85 10000 0.89 275 20:32 19.11.2020
5339 Clouds 6 1025 82 10000 2.24 264 19:49 19.11.2020
5340 Rain 6 1025 85 10000 1.79 302 19:24 19.11.2020
5341 Clouds 6 1024 81 10000 2.68 338 17:40 19.11.2020
5342 Clouds 6 1022 87 10000 3.13 299 16:54 19.11.2020
5343 Clouds 8 1021 77 10000 4.47 338 15:40 19.11.2020
5344 Clouds 8 1020 74 10000 3.58 287 15:18 19.11.2020
5345 Clouds 9 1018 83 10000 3.58 326 13:46 19.11.2020
5346 Rain 9 1018 80 10000 5.36 338 13:20 19.11.2020
5347 Clouds 10 1016 85 10000 4.47 281 12:40 19.11.2020
5348 Rain 10 1016 83 10000 4.92 322 12:19 19.11.2020
5349 Clouds 10 1015 86 10000 4.47 305 11:36 19.11.2020
5350 Clouds 9 1014 93 10000 4.02 260 10:54 19.11.2020
5351 Rain 9 1013 90 10000 4.92 259 10:19 19.11.2020
5352 Clouds 9 1012 90 10000 4.47 210 09:44 19.11.2020
5353 Clouds 9 1012 90 10000 4.02 262 09:24 19.11.2020
5354 Clouds 9 1012 90 10000 4.02 262 09:24 19.11.2020
5355 Rain 8 1012 91 10000 4.47 216 08:19 19.11.2020
5356 Clouds 8 1012 87 10000 3.58 338 06:20 19.11.2020
5357 Clouds 10 1011 91 10000 3.58 242 01:46 19.11.2020
5358 Clouds 13 1009 92 10000 4.47 210 00:28 19.11.2020
5359 Clouds 13 1010 87 10000 4.02 188 23:25 18.11.2020
5360 Clouds 13 1010 84 10000 4.47 338 22:36 18.11.2020
5361 Clouds 12 1010 85 10000 4.47 338 22:18 18.11.2020
5362 Rain 13 1011 84 10000 5.81 226 21:39 18.11.2020
5363 Clear 13 1011 78 10000 4.92 186 21:20 18.11.2020
5364 Clear 13 1012 84 10000 4.02 338 19:49 18.11.2020
5365 Clouds 13 1012 85 10000 4.92 338 19:28 18.11.2020
5366 Clouds 12 1012 86 10000 3.58 159 18:57 18.11.2020
5367 Clear 12 1012 87 10000 4.02 338 18:38 18.11.2020
5368 Clear 12 1014 88 10000 3.58 168 17:37 18.11.2020
5369 Clear 12 1015 87 10000 4.02 196 16:25 18.11.2020
5370 Clear 13 1015 86 10000 4.02 338 15:57 18.11.2020
5371 Clear 13 1017 84 10000 3.58 167 14:41 18.11.2020
5372 Clear 13 1018 83 10000 3.58 166 13:46 18.11.2020
5373 Clouds 13 1018 85 10000 4.02 189 13:20 18.11.2020
5374 Clouds 13 1018 84 10000 4.92 176 12:42 18.11.2020
5375 Clouds 12 1020 87 10000 3.58 160 11:41 18.11.2020
5376 Clouds 12 1020 88 10000 2.68 338 10:36 18.11.2020
5377 Clouds 12 1020 89 10000 3.13 170 10:18 18.11.2020
5378 Clouds 11 1021 93 10000 3.13 172 07:58 18.11.2020
5379 Clouds 11 1021 93 10000 2.24 151 06:36 18.11.2020
5380 Clouds 12 1022 96 10000 2.68 185 00:58 18.11.2020
5381 Clouds 12 1021 95 10000 3.13 201 23:47 17.11.2020
5382 Clouds 12 1021 96 10000 3.13 204 22:53 17.11.2020
5383 Clouds 12 1021 96 10000 3.13 228 22:29 17.11.2020
5384 Clouds 12 1021 95 10000 2.68 190 21:52 17.11.2020
5385 Clouds 12 1021 93 10000 4.02 203 21:31 17.11.2020
5386 Clouds 12 1021 92 10000 3.13 244 20:55 17.11.2020
5387 Clouds 12 1021 92 10000 2.68 220 20:27 17.11.2020
5388 Clouds 12 1021 91 10000 3.58 205 19:59 17.11.2020
5389 Clouds 12 1020 91 10000 4.02 195 18:35 17.11.2020
5390 Clouds 12 1020 92 10000 4.02 193 17:44 17.11.2020
5391 Clouds 12 1020 92 10000 3.58 338 16:59 17.11.2020
5392 Clouds 12 1020 92 10000 3.58 338 16:20 17.11.2020
5393 Clouds 12 1019 92 10000 4.02 210 15:45 17.11.2020
5394 Clouds 12 1019 92 10000 3.13 219 15:27 17.11.2020
5395 Clouds 12 1019 93 10000 3.13 218 14:57 17.11.2020
5396 Clouds 12 1019 93 10000 3.13 228 14:28 17.11.2020
5397 Clouds 13 1019 95 10000 4.47 180 13:38 17.11.2020
5398 Clouds 13 1019 95 10000 4.02 258 13:19 17.11.2020
5399 Clouds 13 1019 93 10000 4.47 244 12:40 17.11.2020
5400 Clouds 13 1018 95 10000 4.02 200 11:44 17.11.2020
5401 Clouds 12 1016 96 10000 1.34 219 10:50 17.11.2020
5402 Clouds 12 1016 96 10000 1.34 227 10:29 17.11.2020
5403 Clouds 11 1014 92 10000 1.79 73 09:51 17.11.2020
5404 Rain 11 1016 96 10000 1.34 214 09:29 17.11.2020
5405 Rain 11 1017 99 10000 2.68 220 08:24 17.11.2020
5406 Clouds 10 1016 99 10000 3.13 232 07:46 17.11.2020
5407 Clouds 10 1016 99 10000 2.68 176 06:40 17.11.2020
5408 Clouds 9 1017 96 10000 2.68 338 04:20 17.11.2020
5409 Clouds 8 1017 95 10000 2.68 194 02:53 17.11.2020
5410 Clouds 8 1017 95 10000 2.24 338 01:25 17.11.2020
5411 Clouds 8 1017 95 10000 2.24 338 01:25 17.11.2020
5412 Clouds 8 1017 94 10000 1.79 183 00:55 17.11.2020
5413 Clouds 8 1017 94 10000 2.68 338 23:49 16.11.2020
5414 Clouds 9 1017 95 10000 2.68 186 23:29 16.11.2020
5415 Clouds 9 1016 94 10000 2.24 214 22:48 16.11.2020
5416 Clouds 9 1016 94 10000 2.68 208 22:21 16.11.2020
5417 Clouds 9 1016 94 10000 1.79 338 21:47 16.11.2020
5418 Clouds 9 1016 94 10000 2.24 338 21:25 16.11.2020
5419 Clouds 9 1016 94 10000 2.68 338 20:50 16.11.2020
5420 Clouds 9 1015 95 10000 2.24 338 20:24 16.11.2020
5421 Clouds 10 1015 95 10000 2.24 194 19:38 16.11.2020
5422 Clouds 10 1015 94 10000 2.24 214 19:19 16.11.2020
5423 Clouds 10 1014 93 10000 2.24 189 18:39 16.11.2020
5424 Clouds 10 1013 94 10000 1.79 223 17:51 16.11.2020
5425 Clouds 11 1013 94 10000 2.24 263 17:22 16.11.2020
5426 Clouds 11 1013 94 10000 3.13 338 16:54 16.11.2020
5427 Clouds 11 1012 94 10000 3.13 338 16:29 16.11.2020
5428 Clouds 11 1012 94 10000 3.58 243 15:57 16.11.2020
5429 Clouds 11 1011 94 10000 4.02 241 15:37 16.11.2020
5430 Rain 11 1011 93 10000 4.02 338 15:19 16.11.2020
5431 Clouds 11 1010 95 10000 3.13 226 14:39 16.11.2020
5432 Rain 11 1009 98 10000 3.13 244 13:33 16.11.2020
5433 Rain 10 1008 98 10000 4.02 227 12:34 16.11.2020
5434 Clouds 10 1008 97 10000 3.58 214 11:54 16.11.2020
5435 Rain 10 1008 97 10000 3.58 213 11:36 16.11.2020
5436 Clouds 10 1007 96 10000 3.58 226 11:18 16.11.2020
5437 Clouds 10 1006 95 10000 4.02 199 10:39 16.11.2020
5438 Clouds 10 1006 94 10000 4.02 203 10:20 16.11.2020
5439 Rain 10 1006 91 10000 4.02 232 09:41 16.11.2020
5440 Clouds 9 1005 92 10000 4.02 225 08:53 16.11.2020
5441 Clouds 9 1005 93 10000 4.02 230 08:34 16.11.2020
5442 Clouds 9 1004 94 10000 3.58 199 07:44 16.11.2020
5443 Clouds 9 1003 95 10000 4.47 338 06:47 16.11.2020
5444 Clouds 9 1002 92 10000 5.36 232 05:53 16.11.2020
5445 Clouds 9 1001 88 10000 4.92 207 04:37 16.11.2020
5446 Clouds 9 1000 92 10000 3.58 187 01:49 16.11.2020
5447 Clouds 9 1000 92 10000 4.02 215 01:27 16.11.2020
5448 Clouds 8 999 94 10000 3.58 183 23:49 15.11.2020
5449 Clouds 8 999 93 10000 3.13 338 23:22 15.11.2020
5450 Clouds 8 999 93 10000 3.13 338 23:22 15.11.2020
5451 Clouds 8 999 93 10000 3.13 168 22:45 15.11.2020
5452 Clouds 8 999 93 10000 3.13 187 22:20 15.11.2020
5453 Clouds 8 998 94 10000 3.13 338 21:43 15.11.2020
5454 Rain 8 998 95 10000 3.58 203 21:24 15.11.2020
5455 Rain 9 997 95 10000 1.79 338 20:41 15.11.2020
5456 Rain 9 998 96 10000 2.68 198 20:19 15.11.2020
5457 Rain 11 998 94 10000 2.68 194 19:48 15.11.2020
5458 Rain 13 998 91 10000 6.26 233 19:22 15.11.2020
5459 Rain 13 996 95 7607 5.36 180 18:57 15.11.2020
5460 Rain 13 996 95 10000 5.81 188 18:39 15.11.2020
5461 Rain 13 996 95 10000 5.81 188 18:39 15.11.2020
5462 Rain 13 997 94 10000 5.36 136 18:19 15.11.2020
5463 Rain 13 997 94 10000 5.36 174 17:45 15.11.2020
5464 Rain 13 997 93 10000 4.92 176 17:24 15.11.2020
5465 Rain 14 998 91 10000 4.02 155 16:48 15.11.2020
5466 Rain 15 999 89 10000 4.02 138 16:21 15.11.2020
5467 Rain 15 999 87 10000 4.02 135 15:54 15.11.2020
5468 Rain 15 999 84 10000 3.58 172 15:29 15.11.2020
5469 Clouds 16 1000 80 10000 4.47 168 14:58 15.11.2020
5470 Clouds 16 1000 80 10000 4.02 167 14:31 15.11.2020
5471 Clouds 16 1000 82 10000 4.02 338 13:57 15.11.2020
5472 Clouds 15 1001 82 10000 4.92 140 13:36 15.11.2020
5473 Clouds 15 1002 82 10000 4.47 338 12:52 15.11.2020
5474 Clouds 15 1002 81 10000 5.36 138 12:25 15.11.2020
5475 Clouds 15 1003 84 10000 4.92 161 11:47 15.11.2020
5476 Clear 15 1004 84 10000 4.92 160 11:21 15.11.2020
5477 Clear 14 1004 84 10000 5.81 216 10:59 15.11.2020
5478 Clear 14 1004 85 10000 4.92 149 10:41 15.11.2020
5479 Clear 14 1004 86 10000 4.47 195 10:23 15.11.2020
5480 Clear 13 1004 88 10000 3.58 338 09:41 15.11.2020
5481 Clear 13 1005 89 10000 4.02 338 09:19 15.11.2020
5482 Clear 12 1005 91 10000 3.13 338 08:51 15.11.2020
5483 Clear 12 1005 91 10000 2.24 124 08:28 15.11.2020
5484 Clear 12 1006 91 10000 3.13 338 07:43 15.11.2020
5485 Clouds 13 1007 89 10000 3.58 338 04:59 15.11.2020
5486 Clouds 12 1007 90 10000 3.13 338 03:40 15.11.2020
5487 Clouds 12 1008 91 10000 4.02 338 00:49 15.11.2020
5488 Clouds 12 1008 91 10000 3.58 151 00:28 15.11.2020
5489 Clouds 12 1008 93 10000 3.13 151 23:37 14.11.2020
5490 Clouds 11 1009 93 10000 1.79 158 22:50 14.11.2020
5491 Clouds 11 1009 93 10000 2.24 188 22:31 14.11.2020
5492 Clouds 11 1009 93 10000 2.68 338 21:44 14.11.2020
5493 Clouds 11 1010 93 10000 3.13 170 21:22 14.11.2020
5494 Clouds 12 1010 93 10000 3.13 170 20:57 14.11.2020
5495 Clouds 11 1010 93 10000 3.13 168 20:28 14.11.2020
5496 Clouds 12 1010 94 10000 1.79 338 19:52 14.11.2020
5497 Clouds 12 1011 94 10000 2.24 153 19:32 14.11.2020
5498 Clouds 12 1011 94 10000 2.68 338 18:44 14.11.2020
5499 Clouds 12 1011 94 10000 2.68 176 18:25 14.11.2020
5500 Clouds 13 1011 94 10000 2.24 168 17:58 14.11.2020
5501 Clouds 13 1011 94 10000 2.68 170 17:40 14.11.2020
5502 Clouds 13 1011 94 10000 2.68 338 17:19 14.11.2020
5503 Clouds 13 1012 96 10000 3.13 181 16:43 14.11.2020
5504 Clouds 13 1012 98 10000 2.68 166 16:20 14.11.2020
5505 Clouds 13 1012 99 10000 2.68 149 15:52 14.11.2020
5506 Clouds 12 1012 100 10000 2.24 183 15:27 14.11.2020
5507 Clouds 12 1012 100 10000 2.24 158 14:47 14.11.2020
5508 Rain 12 1012 100 10000 1.79 139 14:24 14.11.2020
5509 Clouds 11 1013 100 10000 2.24 107 13:45 14.11.2020
5510 Clouds 11 1013 100 10000 1.79 135 13:24 14.11.2020
5511 Clouds 11 1013 100 10000 1.34 141 12:48 14.11.2020
5512 Clouds 11 1014 99 10000 1.34 338 12:29 14.11.2020
5513 Rain 11 1015 100 10000 0.89 143 11:46 14.11.2020
5514 Clouds 11 1015 100 10000 0.89 142 11:25 14.11.2020
5515 Clouds 10 1015 100 10000 1.34 164 10:49 14.11.2020
5516 Clouds 10 1015 100 10000 1.79 169 10:26 14.11.2020
5517 Clouds 9 1015 100 10000 1.79 338 09:56 14.11.2020
5518 Clouds 9 1015 99 10000 1.79 156 09:38 14.11.2020
5519 Clouds 9 1015 100 10000 1.34 158 09:19 14.11.2020
5520 Clouds 9 1015 99 10000 1.34 165 08:39 14.11.2020
5521 Clouds 8 1015 99 10000 1.34 166 07:52 14.11.2020
5522 Clouds 8 1015 99 10000 0.89 164 07:31 14.11.2020
5523 Clouds 8 1015 99 10000 0.89 338 06:37 14.11.2020
5524 Clouds 8 1015 99 10000 0.45 216 06:19 14.11.2020
5525 Clouds 9 1015 99 10000 0.45 222 04:30 14.11.2020
5526 Clouds 10 1015 98 10000 0.45 225 01:25 14.11.2020
5527 Clouds 11 1014 97 10000 1.34 222 23:54 13.11.2020
5528 Clouds 11 1014 97 10000 1.34 222 23:54 13.11.2020
5529 Clouds 11 1014 98 10000 0.45 222 23:33 13.11.2020
5530 Clouds 11 1014 97 10000 0.89 338 22:58 13.11.2020
5531 Clouds 11 1014 98 10000 1.34 338 22:39 13.11.2020
5532 Rain 11 1013 97 10000 1.34 212 22:19 13.11.2020
5533 Rain 11 1013 97 10000 1.79 224 21:43 13.11.2020
5534 Rain 11 1013 96 10000 1.79 196 21:22 13.11.2020
5535 Clouds 11 1013 96 10000 1.79 175 20:51 13.11.2020
5536 Rain 11 1013 96 10000 1.79 338 20:29 13.11.2020
5537 Clouds 11 1013 96 10000 1.79 190 19:54 13.11.2020
5538 Clouds 11 1013 96 10000 1.34 172 19:36 13.11.2020
5539 Clouds 11 1013 95 10000 1.79 187 19:18 13.11.2020
5540 Clouds 11 1012 95 10000 1.79 168 18:32 13.11.2020
5541 Clouds 11 1012 95 10000 1.79 168 18:32 13.11.2020
5542 Clouds 10 1012 94 10000 2.24 188 17:44 13.11.2020
5543 Clouds 10 1012 94 10000 1.79 187 17:21 13.11.2020
5544 Clouds 10 1012 93 10000 2.68 338 16:57 13.11.2020
5545 Clouds 10 1012 93 10000 3.13 168 16:38 13.11.2020
5546 Clouds 10 1012 93 10000 2.24 165 16:18 13.11.2020
5547 Clouds 11 1012 94 10000 2.24 338 15:39 13.11.2020
5548 Rain 11 1012 94 10000 2.24 170 15:21 13.11.2020
5549 Clouds 11 1012 90 10000 3.58 170 14:37 13.11.2020
5550 Clouds 11 1012 88 10000 3.58 158 14:18 13.11.2020
5551 Clouds 11 1012 88 10000 3.58 158 14:18 13.11.2020
5552 Clouds 11 1013 86 10000 3.13 187 13:32 13.11.2020
5553 Clouds 11 1013 88 10000 3.58 156 12:59 13.11.2020
5554 Clouds 11 1013 88 10000 3.13 338 12:40 13.11.2020
5555 Clouds 11 1013 89 10000 3.13 131 12:22 13.11.2020
5556 Clouds 10 1014 89 10000 3.13 188 11:46 13.11.2020
5557 Clouds 9 1014 91 10000 3.13 161 11:22 13.11.2020
5558 Clouds 8 1014 95 10000 3.13 139 10:51 13.11.2020
5559 Clouds 8 1015 97 10000 2.68 338 10:32 13.11.2020
5560 Clouds 7 1015 98 10000 2.68 147 09:52 13.11.2020
5561 Clouds 6 1015 99 10000 1.34 147 09:31 13.11.2020
5562 Clouds 6 1016 99 10000 1.79 149 08:54 13.11.2020
5563 Clouds 5 1016 99 10000 0.89 147 08:29 13.11.2020
5564 Clouds 5 1016 98 10000 1.79 157 07:51 13.11.2020
5565 Clouds 5 1016 98 10000 1.79 338 07:27 13.11.2020
5566 Clouds 5 1016 98 10000 1.79 141 06:57 13.11.2020
5567 Clouds 5 1016 98 10000 1.79 167 06:37 13.11.2020
5568 Clouds 5 1016 98 10000 1.34 163 05:42 13.11.2020
5569 Clear 6 1016 98 10000 1.79 168 04:20 13.11.2020
5570 Clear 7 1017 96 10000 1.79 338 01:43 13.11.2020
5571 Clouds 8 1017 96 10000 1.34 173 00:37 13.11.2020
5572 Clouds 9 1017 95 10000 1.34 202 23:59 12.11.2020
5573 Clouds 9 1017 95 10000 1.34 338 23:36 12.11.2020
5574 Clouds 9 1017 94 10000 1.34 338 23:18 12.11.2020
5575 Clouds 9 1017 94 10000 1.34 338 23:18 12.11.2020
5576 Clouds 9 1017 95 10000 1.79 338 22:40 12.11.2020
5577 Clouds 10 1017 95 10000 1.79 338 22:20 12.11.2020
5578 Clouds 9 1017 95 10000 2.68 216 21:41 12.11.2020
5579 Clear 9 1017 95 10000 1.79 206 21:23 12.11.2020
5580 Clear 10 1016 95 10000 1.79 186 20:45 12.11.2020
5581 Clouds 10 1016 95 10000 1.79 338 20:25 12.11.2020
5582 Clouds 10 1016 94 10000 1.79 338 19:58 12.11.2020
5583 Clouds 10 1016 94 10000 2.24 210 19:40 12.11.2020
5584 Clouds 10 1016 94 10000 2.24 210 19:21 12.11.2020
5585 Clouds 10 1015 95 10000 1.79 212 18:48 12.11.2020
5586 Rain 10 1015 94 10000 1.79 224 18:20 12.11.2020
5587 Clouds 9 1015 93 10000 2.24 193 17:43 12.11.2020
5588 Rain 9 1015 92 10000 1.79 234 17:25 12.11.2020
5589 Clouds 10 1015 90 10000 2.24 228 16:46 12.11.2020
5590 Clouds 10 1015 90 10000 2.24 228 16:46 12.11.2020
5591 Rain 10 1014 89 10000 1.34 338 16:25 12.11.2020
5592 Clouds 11 1014 86 10000 1.79 338 15:56 12.11.2020
5593 Clouds 11 1014 84 10000 2.68 227 15:31 12.11.2020
5594 Clouds 11 1013 80 10000 3.58 200 14:59 12.11.2020
5595 Clouds 11 1013 84 10000 3.13 211 14:41 12.11.2020
5596 Rain 12 1013 87 10000 3.58 227 14:21 12.11.2020
5597 Clouds 12 1013 89 10000 3.13 203 13:46 12.11.2020
5598 Clouds 12 1013 90 10000 3.58 205 13:21 12.11.2020
5599 Clouds 12 1013 91 10000 3.13 215 12:59 12.11.2020
5600 Clouds 12 1013 91 10000 2.68 176 12:38 12.11.2020
5601 Clouds 12 1013 90 10000 3.13 195 12:18 12.11.2020
5602 Clouds 10 1013 97 10000 2.68 338 11:42 12.11.2020
5603 Rain 10 1013 98 10000 2.68 184 11:22 12.11.2020
5604 Clouds 9 1013 98 10000 3.58 182 10:41 12.11.2020
5605 Rain 9 1013 97 10000 3.13 184 10:23 12.11.2020
5606 Rain 9 1013 95 10000 3.13 172 09:42 12.11.2020
5607 Clouds 9 1013 95 10000 2.68 141 09:22 12.11.2020
5608 Clouds 9 1013 95 10000 2.68 137 08:56 12.11.2020
5609 Clouds 8 1013 95 10000 2.68 338 08:37 12.11.2020
5610 Clouds 8 1013 96 10000 3.13 136 08:19 12.11.2020
5611 Clouds 9 1013 96 10000 2.68 111 07:42 12.11.2020
5612 Clouds 9 1013 96 10000 2.68 124 07:18 12.11.2020
5613 Clouds 9 1014 96 10000 2.68 338 06:47 12.11.2020
5614 Clouds 9 1014 96 10000 2.68 175 05:23 12.11.2020
5615 Clouds 10 1016 97 10000 2.68 179 03:21 12.11.2020
5616 Clouds 11 1017 100 10000 3.58 126 01:33 12.11.2020
5617 Clouds 10 1018 100 10000 1.34 137 23:58 11.11.2020
5618 Clouds 10 1018 100 10000 1.79 141 23:25 11.11.2020
5619 Clouds 10 1019 100 10000 0.89 131 22:58 11.11.2020
5620 Clouds 10 1019 100 10000 1.79 152 22:39 11.11.2020
5621 Clouds 10 1019 100 10000 1.34 338 22:20 11.11.2020
5622 Clouds 10 1020 100 10000 1.34 338 21:43 11.11.2020
5623 Clouds 10 1020 100 10000 1.34 143 21:25 11.11.2020
5624 Clouds 10 1020 100 10000 1.79 153 20:58 11.11.2020
5625 Clouds 10 1020 100 10000 1.34 122 20:40 11.11.2020
5626 Clouds 10 1020 100 10000 1.79 159 20:21 11.11.2020
5627 Clouds 10 1021 100 10000 1.34 143 19:49 11.11.2020
5628 Clouds 10 1021 100 10000 1.34 101 19:31 11.11.2020
5629 Clouds 10 1021 100 10000 1.79 115 18:54 11.11.2020
5630 Clouds 10 1021 100 10000 1.34 111 18:33 11.11.2020
5631 Clouds 10 1021 100 10000 1.34 153 17:43 11.11.2020
5632 Clouds 10 1021 100 10000 1.34 177 17:23 11.11.2020
5633 Clouds 10 1022 100 10000 1.34 178 16:55 11.11.2020
5634 Clouds 10 1022 100 10000 1.34 185 16:33 11.11.2020
5635 Clouds 10 1022 100 10000 1.34 172 15:52 11.11.2020
5636 Clouds 11 1022 100 10000 1.79 176 15:27 11.11.2020
5637 Clouds 11 1022 100 10000 1.34 158 14:59 11.11.2020
5638 Clouds 11 1022 100 10000 1.34 152 14:38 11.11.2020
5639 Clouds 10 1023 100 10000 1.79 131 13:57 11.11.2020
5640 Clouds 10 1023 100 10000 1.79 155 13:38 11.11.2020
5641 Clouds 10 1023 100 10000 1.34 338 12:52 11.11.2020
5642 Clouds 9 1024 100 10000 1.34 152 12:21 11.11.2020
5643 Fog 9 1024 100 350 1.5 120 11:51 11.11.2020
5644 Clouds 10 1024 100 10000 0.89 146 11:33 11.11.2020
5645 Fog 9 1025 93 300 1 0 10:45 11.11.2020
5646 Clouds 8 1024 100 10000 0.89 146 10:27 11.11.2020
5647 Clouds 8 1025 100 10000 1.34 143 09:55 11.11.2020
5648 Clouds 7 1025 100 10000 1.34 142 09:37 11.11.2020
5649 Clouds 7 1025 100 10000 1.34 174 09:19 11.11.2020
5650 Clouds 7 1025 100 10000 0.45 126 08:41 11.11.2020
5651 Clouds 7 1025 100 10000 1.79 137 08:22 11.11.2020
5652 Clouds 7 1025 100 10000 1.34 133 07:41 11.11.2020
5653 Clouds 6 1025 100 10000 0.45 143 06:31 11.11.2020
5654 Clouds 6 1025 100 10000 0.45 142 05:36 11.11.2020
5655 Clouds 6 1026 100 10000 0.89 147 01:37 11.11.2020
5656 Clear 5 1026 100 10000 0.45 338 00:56 11.11.2020
5657 Clear 5 1026 100 10000 1.53 139 00:24 11.11.2020
5658 Clear 5 1026 100 10000 0.45 338 23:38 10.11.2020
5659 Clear 5 1026 100 10000 0.45 153 23:20 10.11.2020
5660 Clear 5 1026 100 10000 1.34 150 22:45 10.11.2020
5661 Clear 5 1026 100 10000 1.34 338 22:26 10.11.2020
5662 Clear 5 1026 100 10000 0.89 139 21:41 10.11.2020
5663 Clear 6 1026 100 10000 1.34 147 21:23 10.11.2020
5664 Clear 6 1026 100 10000 1.79 166 20:58 10.11.2020
5665 Clear 6 1026 100 10000 1.79 171 20:39 10.11.2020
5666 Clear 6 1026 100 10000 1.34 144 20:21 10.11.2020
5667 Clear 6 1026 100 10000 0.89 338 19:44 10.11.2020
5668 Clouds 6 1026 100 10000 1.34 154 19:24 10.11.2020
5669 Clouds 6 1026 100 10000 1.34 120 18:56 10.11.2020
5670 Clouds 6 1026 100 10000 1.34 146 18:37 10.11.2020
5671 Clouds 6 1026 100 10000 1.79 95 18:18 10.11.2020
5672 Clouds 6 1026 100 10000 0.89 159 17:42 10.11.2020
5673 Clouds 6 1026 100 10000 0.89 164 17:24 10.11.2020
5674 Clouds 6 1026 100 10000 0.89 114 16:42 10.11.2020
5675 Clouds 6 1024 96 10000 0.45 119 16:23 10.11.2020
5676 Clouds 6 1023 96 10000 0.45 134 15:55 10.11.2020
5677 Fog 6 1026 100 600 2.6 140 15:37 10.11.2020
5678 Fog 6 1026 100 600 2.6 140 15:18 10.11.2020
5679 Fog 6 1026 100 800 2.6 150 14:40 10.11.2020
5680 Fog 6 1026 100 800 2.6 150 14:19 10.11.2020
5681 Fog 6 1026 93 300 3.6 130 13:40 10.11.2020
5682 Clouds 6 1024 98 10000 1.34 128 13:21 10.11.2020
5683 Clouds 6 1024 92 10000 3.13 296 12:56 10.11.2020
5684 Fog 6 1026 100 500 3.1 150 12:38 10.11.2020
5685 Fog 6 1026 100 500 3.1 150 12:19 10.11.2020
5686 Fog 6 1026 100 300 3.6 150 11:38 10.11.2020
5687 Clouds 6 1025 98 10000 1.79 127 11:19 10.11.2020
5688 Clouds 6 1024 92 10000 0.45 353 10:42 10.11.2020
5689 Clear 5 1026 100 10000 1.79 110 10:23 10.11.2020
5690 Clear 5 1026 100 10000 1.34 106 09:49 10.11.2020
5691 Clear 5 1026 100 10000 0.89 127 09:26 10.11.2020
5692 Clear 5 1026 100 10000 2.68 338 08:57 10.11.2020
5693 Clear 5 1026 100 10000 0.89 131 08:30 10.11.2020
5694 Clear 5 1025 100 10000 2.24 145 07:47 10.11.2020
5695 Clear 5 1025 100 10000 1.34 107 07:27 10.11.2020
5696 Clouds 5 1025 100 10000 1.79 130 06:58 10.11.2020
5697 Clouds 5 1025 99 10000 2.68 106 06:37 10.11.2020
5698 Clouds 5 1025 100 10000 1.79 99 05:27 10.11.2020
5699 Clear 5 1025 99 10000 2.24 93 02:57 10.11.2020
5700 Clear 5 1025 99 10000 1.34 107 01:38 10.11.2020
5701 Clouds 6 1025 98 10000 0.89 120 00:30 10.11.2020
5702 Clouds 6 1025 98 10000 2.68 97 23:42 09.11.2020
5703 Clouds 6 1025 98 10000 3.13 97 22:58 09.11.2020
5704 Clouds 6 1024 98 10000 2.24 99 22:40 09.11.2020
5705 Clouds 6 1025 98 10000 2.68 99 22:19 09.11.2020
5706 Clouds 6 1025 97 10000 3.13 95 21:40 09.11.2020
5707 Clouds 6 1024 97 10000 2.24 108 21:21 09.11.2020
5708 Clouds 6 1024 97 10000 2.24 113 20:41 09.11.2020
5709 Clouds 6 1024 97 10000 3.13 81 20:22 09.11.2020
5710 Clouds 6 1025 96 10000 1.79 97 19:46 09.11.2020
5711 Clouds 7 1024 96 10000 1.79 124 19:23 09.11.2020
5712 Clouds 7 1024 95 10000 1.79 118 18:58 09.11.2020
5713 Clouds 8 1024 94 10000 2.24 118 18:39 09.11.2020
5714 Clouds 7 1024 95 10000 0.89 94 18:19 09.11.2020
5715 Clouds 7 1024 94 10000 1.79 97 17:43 09.11.2020
5716 Clouds 8 1024 94 10000 1.79 76 17:25 09.11.2020
5717 Clouds 8 1024 93 10000 2.24 111 16:44 09.11.2020
5718 Clouds 8 1024 93 10000 2.24 111 16:44 09.11.2020
5719 Clouds 9 1024 93 10000 1.79 113 16:23 09.11.2020
5720 Clouds 9 1024 92 10000 2.24 133 15:45 09.11.2020
5721 Clouds 9 1024 93 10000 0.89 120 15:25 09.11.2020
5722 Clouds 9 1023 93 10000 1.79 122 14:49 09.11.2020
5723 Clouds 10 1024 93 10000 1.79 102 14:28 09.11.2020
5724 Clouds 10 1024 93 10000 1.79 112 13:57 09.11.2020
5725 Clouds 9 1024 93 10000 1.34 133 13:37 09.11.2020
5726 Clouds 9 1024 93 10000 1.79 90 13:18 09.11.2020
5727 Mist 9 1025 93 1200 4.1 110 12:41 09.11.2020
5728 Mist 8 1025 93 1200 4.1 110 12:21 09.11.2020
5729 Mist 7 1025 93 1200 4.1 110 11:43 09.11.2020
5730 Mist 8 1025 93 2000 3.6 110 11:24 09.11.2020
5731 Clouds 7 1025 93 6000 3.6 120 10:57 09.11.2020
5732 Mist 7 1024 93 5000 3.1 120 10:39 09.11.2020
5733 Mist 7 1024 93 5000 3.1 120 10:21 09.11.2020
5734 Clouds 7 1024 98 10000 0.89 116 09:30 09.11.2020
5735 Fog 6 1024 93 4500 2.6 120 08:54 09.11.2020
5736 Fog 5 1024 100 4000 2.1 110 08:28 09.11.2020
5737 Fog 5 1024 100 4000 2.1 110 07:55 09.11.2020
5738 Mist 5 1023 93 4500 2.1 120 07:23 09.11.2020
5739 Mist 5 1023 93 4500 2.1 120 06:52 09.11.2020
5740 Clouds 6 1023 97 10000 1.34 118 04:30 09.11.2020
5741 Clear 6 1023 97 10000 1.34 120 01:58 09.11.2020
5742 Clear 6 1023 97 10000 0.89 124 01:40 09.11.2020
5743 Clouds 6 1023 97 10000 0.89 122 00:55 09.11.2020
5744 Clouds 6 1023 96 10000 0.45 126 23:46 08.11.2020
5745 Clouds 6 1023 96 10000 0.45 126 23:24 08.11.2020
5746 Clouds 7 1023 95 10000 0.45 128 22:43 08.11.2020
5747 Clear 7 1023 95 10000 0.45 122 22:22 08.11.2020
5748 Clear 7 1022 94 10000 1.34 122 21:47 08.11.2020
5749 Clear 7 1023 94 10000 0.89 123 21:23 08.11.2020
5750 Clear 7 1023 93 10000 0.45 338 20:57 08.11.2020
5751 Clear 7 1022 92 10000 0.45 129 20:38 08.11.2020
5752 Clear 8 1022 92 10000 0.89 127 20:20 08.11.2020
5753 Clear 8 1022 91 10000 1.79 122 19:45 08.11.2020
5754 Clear 8 1022 91 10000 1.79 101 19:22 08.11.2020
5755 Clear 9 1022 90 10000 2.24 95 18:58 08.11.2020
5756 Clear 9 1022 91 10000 1.79 92 18:39 08.11.2020
5757 Clear 9 1022 91 10000 1.34 100 18:20 08.11.2020
5758 Clear 9 1022 90 10000 2.24 87 17:42 08.11.2020
5759 Clear 9 1022 90 10000 2.24 74 17:21 08.11.2020
5760 Clear 10 1022 89 10000 1.34 96 16:59 08.11.2020
5761 Clear 10 1022 88 10000 1.34 95 16:38 08.11.2020
5762 Clear 10 1022 87 10000 1.79 95 16:20 08.11.2020
5763 Clear 12 1022 87 10000 1.34 111 15:46 08.11.2020
5764 Clear 12 1022 87 10000 1.79 90 15:27 08.11.2020
5765 Clear 12 1022 87 10000 1.79 90 15:27 08.11.2020
5766 Clear 12 1022 86 10000 0.89 105 14:44 08.11.2020
5767 Clear 11 1022 85 10000 0.45 338 14:24 08.11.2020
5768 Clear 11 1022 84 10000 0.89 131 13:57 08.11.2020
5769 Clear 11 1022 83 10000 0.89 131 13:38 08.11.2020
5770 Clear 11 1022 85 10000 1.34 136 13:18 08.11.2020
5771 Clear 10 1023 85 10000 1.34 122 12:40 08.11.2020
5772 Clear 10 1023 84 10000 1.34 108 12:22 08.11.2020
5773 Clear 9 1023 87 10000 0.89 124 11:56 08.11.2020
5774 Clear 10 1023 87 10000 1.79 128 11:38 08.11.2020
5775 Clear 9 1023 87 10000 1.34 338 11:19 08.11.2020
5776 Clear 8 1023 91 10000 1.79 113 10:47 08.11.2020
5777 Clear 7 1023 91 10000 1.79 112 10:18 08.11.2020
5778 Clear 7 1023 97 10000 1.34 78 09:42 08.11.2020
5779 Clear 6 1023 99 10000 0.45 83 09:24 08.11.2020
5780 Clear 6 1023 98 10000 0.45 72 08:47 08.11.2020
5781 Clear 6 1023 98 10000 0.45 72 08:47 08.11.2020
5782 Clear 5 1023 99 10000 1.34 66 08:27 08.11.2020
5783 Clear 5 1023 99 10000 0.45 52 07:53 08.11.2020
5784 Clear 5 1023 99 10000 0.89 68 07:33 08.11.2020
5785 Clear 5 1023 98 10000 0.89 52 06:50 08.11.2020
5786 Clear 5 1023 98 10000 1.34 49 05:55 08.11.2020
5787 Clear 5 1023 98 10000 0.89 83 05:26 08.11.2020
5788 Clear 6 1022 98 10000 0.89 105 03:46 08.11.2020
5789 Clear 6 1023 98 10000 0.45 338 01:49 08.11.2020
5790 Clear 6 1023 97 10000 0.45 127 01:18 08.11.2020
5791 Clear 6 1023 97 10000 0.89 129 00:24 08.11.2020
5792 Clear 6 1023 97 10000 0.89 127 23:45 07.11.2020
5793 Clear 7 1023 97 10000 0.45 130 23:27 07.11.2020
5794 Clear 6 1023 97 10000 0.89 133 22:41 07.11.2020
5795 Clear 6 1023 96 10000 0.45 147 22:23 07.11.2020
5796 Clear 7 1023 96 10000 0.45 170 21:45 07.11.2020
5797 Clear 7 1023 96 10000 0.45 166 21:22 07.11.2020
5798 Clear 7 1023 96 10000 1.86 95 20:50 07.11.2020
5799 Clear 7 1023 95 10000 1.86 95 20:32 07.11.2020
5800 Clear 7 1023 95 10000 1.66 106 19:59 07.11.2020
5801 Clear 7 1023 95 10000 0.45 167 19:39 07.11.2020
5802 Clouds 7 1023 94 10000 1.58 123 19:19 07.11.2020
5803 Clouds 7 1023 94 10000 1.42 112 18:38 07.11.2020
5804 Clouds 7 1023 93 10000 1.46 120 18:20 07.11.2020
5805 Clouds 7 1023 93 10000 1.46 120 18:20 07.11.2020
5806 Clouds 9 1021 86 10000 1.46 120 17:45 07.11.2020
5807 Clouds 9 1023 90 10000 1.25 109 17:25 07.11.2020
5808 Clouds 10 1023 89 10000 1.25 109 16:43 07.11.2020
5809 Clouds 11 1023 88 10000 0.61 83 16:24 07.11.2020
5810 Clouds 11 1023 87 10000 0.45 166 15:47 07.11.2020
5811 Clouds 11 1023 86 10000 0.45 168 15:24 07.11.2020
5812 Clouds 12 1023 85 10000 0.89 168 14:56 07.11.2020
5813 Clouds 12 1023 83 10000 0.45 174 14:38 07.11.2020
5814 Clear 11 1023 82 10000 1.42 231 14:19 07.11.2020
5815 Clear 11 1023 80 10000 0.89 158 13:39 07.11.2020
5816 Clear 11 1023 80 10000 0.89 158 13:39 07.11.2020
5817 Clear 11 1023 81 10000 1.34 158 13:21 07.11.2020
5818 Clear 10 1024 82 10000 1.34 159 12:33 07.11.2020
5819 Clear 10 1024 83 10000 1.79 185 11:46 07.11.2020
5820 Clear 9 1024 85 10000 1.79 184 11:25 07.11.2020
5821 Clear 8 1025 89 10000 1.79 338 10:57 07.11.2020
5822 Clear 7 1025 91 10000 2.24 181 10:39 07.11.2020
5823 Clear 6 1025 92 10000 1.79 183 10:20 07.11.2020
5824 Clear 6 1025 95 10000 1.34 338 09:47 07.11.2020
5825 Clear 5 1025 98 10000 1.79 338 09:21 07.11.2020
5826 Clear 4 1025 98 10000 1.34 136 08:47 07.11.2020
5827 Clear 4 1025 98 10000 1.34 122 08:28 07.11.2020
5828 Clear 4 1025 98 10000 1.79 338 07:48 07.11.2020
5829 Clear 4 1025 98 10000 0.89 104 06:48 07.11.2020
5830 Clear 5 1025 98 10000 1.34 118 05:48 07.11.2020
5831 Clear 6 1026 98 10000 1.34 115 03:26 07.11.2020
5832 Clear 6 1026 98 10000 1.34 89 02:46 07.11.2020
5833 Clouds 7 1026 97 10000 1.79 108 01:27 07.11.2020
5834 Clouds 7 1027 97 10000 1.79 83 00:37 07.11.2020
5835 Clouds 8 1028 97 10000 1.79 95 23:39 06.11.2020
5836 Clouds 8 1028 96 10000 1.79 112 23:18 06.11.2020
5837 Clouds 8 1028 96 10000 1.34 108 22:40 06.11.2020
5838 Clouds 8 1028 96 10000 2.24 103 22:18 06.11.2020
5839 Clouds 9 1029 95 10000 1.79 117 21:43 06.11.2020
5840 Clouds 8 1029 95 10000 2.24 116 21:20 06.11.2020
5841 Clouds 9 1029 94 10000 1.79 93 20:47 06.11.2020
5842 Clouds 9 1030 94 10000 1.79 100 20:20 06.11.2020
5843 Clouds 10 1030 94 10000 1.34 103 19:46 06.11.2020
5844 Clouds 10 1030 93 10000 0.89 116 19:28 06.11.2020
5845 Clouds 10 1030 92 10000 0.45 119 18:58 06.11.2020
5846 Clouds 10 1030 93 10000 0.89 119 18:40 06.11.2020
5847 Clouds 11 1031 92 10000 1.34 116 18:19 06.11.2020
5848 Clouds 11 1031 92 10000 0.89 108 17:47 06.11.2020
5849 Clouds 11 1031 92 10000 0.89 119 17:25 06.11.2020
5850 Clouds 11 1031 91 10000 0.45 126 16:47 06.11.2020
5851 Clouds 11 1031 90 10000 1.78 141 16:24 06.11.2020
5852 Clouds 12 1032 89 10000 0.45 126 15:47 06.11.2020
5853 Clouds 12 1032 89 10000 1.34 338 15:27 06.11.2020
5854 Clouds 12 1032 87 10000 1.34 139 14:51 06.11.2020
5855 Clouds 13 1032 87 10000 0.89 164 14:24 06.11.2020
5856 Clouds 13 1033 85 10000 0.45 338 13:44 06.11.2020
5857 Clouds 13 1033 85 10000 0.45 293 13:23 06.11.2020
5858 Clouds 13 1033 85 10000 1.19 139 12:45 06.11.2020
5859 Clouds 12 1034 86 10000 0.36 29 12:23 06.11.2020
5860 Clouds 12 1034 85 10000 0.45 282 11:43 06.11.2020
5861 Clouds 12 1034 86 10000 0.45 284 11:24 06.11.2020
5862 Clouds 11 1034 87 10000 0.45 282 10:41 06.11.2020
5863 Clouds 11 1035 89 10000 0.45 237 10:23 06.11.2020
5864 Clouds 10 1035 91 10000 0.89 235 09:48 06.11.2020
5865 Clouds 9 1035 97 10000 2.37 250 09:21 06.11.2020
5866 Clouds 9 1035 96 10000 0.89 244 08:50 06.11.2020
5867 Clouds 8 1035 95 10000 0.45 338 08:29 06.11.2020
5868 Clouds 9 1035 94 10000 0.89 247 07:50 06.11.2020
5869 Clouds 9 1035 94 10000 0.89 256 07:31 06.11.2020
5870 Clouds 9 1035 95 10000 0.89 207 06:58 06.11.2020
5871 Clouds 9 1035 95 10000 1.79 205 06:22 06.11.2020
5872 Clouds 9 1035 95 10000 0.89 220 04:42 06.11.2020
5873 Clouds 9 1035 94 10000 1.34 205 01:22 06.11.2020
5874 Clouds 9 1035 94 10000 0.89 186 00:21 06.11.2020
5875 Clouds 9 1035 94 10000 0.89 186 00:21 06.11.2020
5876 Clouds 9 1036 94 10000 1.34 216 23:32 05.11.2020
5877 Clouds 9 1036 94 10000 1.34 219 22:58 05.11.2020
5878 Clouds 9 1036 94 10000 0.89 218 22:39 05.11.2020
5879 Clouds 9 1036 94 10000 0.89 221 22:20 05.11.2020
5880 Clouds 9 1036 93 10000 0.89 218 21:43 05.11.2020
5881 Clouds 9 1036 92 10000 0.89 225 21:22 05.11.2020
5882 Clouds 9 1036 92 10000 0.89 225 20:57 05.11.2020
5883 Clouds 9 1035 91 10000 1.34 226 20:39 05.11.2020
5884 Clouds 9 1035 90 10000 1.79 219 20:21 05.11.2020
5885 Clouds 10 1036 89 10000 1.34 210 19:43 05.11.2020
5886 Clouds 10 1036 89 10000 1.79 249 19:23 05.11.2020
5887 Clouds 10 1036 88 10000 1.79 240 18:49 05.11.2020
5888 Clouds 10 1036 88 10000 2.24 228 18:30 05.11.2020
5889 Clouds 10 1036 88 10000 1.79 225 17:56 05.11.2020
5890 Clouds 10 1036 88 10000 1.79 338 17:38 05.11.2020
5891 Clouds 10 1036 88 10000 1.79 215 17:20 05.11.2020
5892 Clouds 11 1036 87 10000 1.79 199 16:43 05.11.2020
5893 Clouds 11 1036 87 10000 2.68 248 16:22 05.11.2020
5894 Clouds 11 1036 87 10000 2.68 220 15:50 05.11.2020
5895 Clouds 11 1036 88 10000 2.68 223 15:26 05.11.2020
5896 Clouds 11 1036 89 10000 2.68 230 14:49 05.11.2020
5897 Clouds 11 1036 89 10000 2.68 228 14:31 05.11.2020
5898 Clouds 11 1036 87 10000 2.24 292 13:51 05.11.2020
5899 Clouds 11 1036 86 10000 3.58 205 13:33 05.11.2020
5900 Rain 11 1037 86 10000 3.13 338 12:54 05.11.2020
5901 Rain 11 1037 88 10000 2.24 228 12:30 05.11.2020
5902 Clouds 11 1037 90 10000 2.24 226 11:58 05.11.2020
5903 Clouds 11 1037 91 10000 2.68 201 11:39 05.11.2020
5904 Clear 10 1037 93 10000 1.79 237 11:21 05.11.2020
5905 Clear 9 1037 94 10000 1.79 205 10:47 05.11.2020
5906 Clear 9 1037 94 10000 1.79 224 10:26 05.11.2020
5907 Clear 8 1037 95 10000 1.79 224 09:48 05.11.2020
5908 Clear 7 1037 98 10000 1.79 206 09:24 05.11.2020
5909 Clear 7 1037 98 10000 1.79 206 09:24 05.11.2020
5910 Clear 6 1037 98 10000 1.79 218 08:48 05.11.2020
5911 Clear 6 1037 98 10000 1.34 338 08:29 05.11.2020
5912 Clear 5 1037 97 10000 1.34 215 07:42 05.11.2020
5913 Clouds 5 1037 97 10000 1.34 338 07:23 05.11.2020
5914 Clear 5 1036 97 10000 1.34 201 06:42 05.11.2020
5915 Clouds 5 1037 97 10000 1.34 195 05:55 05.11.2020
5916 Clear 6 1036 95 10000 1.34 224 01:41 05.11.2020
5917 Clear 6 1036 95 10000 1.79 230 00:35 05.11.2020
5918 Clear 6 1035 95 10000 1.34 241 23:47 04.11.2020
5919 Clear 6 1035 94 10000 1.34 338 23:27 04.11.2020
5920 Clear 6 1035 94 10000 1.34 222 22:55 04.11.2020
5921 Clear 6 1035 94 10000 0.89 338 22:36 04.11.2020
5922 Clear 6 1035 93 10000 1.34 222 22:18 04.11.2020
5923 Clear 7 1035 93 10000 1.34 226 21:43 04.11.2020
5924 Clear 7 1035 93 10000 1.34 248 21:24 04.11.2020
5925 Clear 7 1034 91 10000 1.34 237 20:46 04.11.2020
5926 Clear 7 1034 91 10000 1.79 338 20:28 04.11.2020
5927 Clear 7 1034 91 10000 1.34 223 19:55 04.11.2020
5928 Clear 8 1034 90 10000 1.34 245 19:37 04.11.2020
5929 Clear 8 1033 90 10000 1.79 235 19:19 04.11.2020
5930 Clear 8 1033 88 10000 1.34 242 18:39 04.11.2020
5931 Clear 8 1033 88 10000 1.34 245 18:21 04.11.2020
5932 Clear 9 1032 86 10000 1.34 242 17:46 04.11.2020
5933 Clear 9 1032 86 10000 1.34 235 17:25 04.11.2020
5934 Clear 10 1031 83 10000 1.34 235 16:45 04.11.2020
5935 Clear 11 1031 82 10000 1.79 256 16:25 04.11.2020
5936 Clear 11 1031 80 10000 2.24 239 15:57 04.11.2020
5937 Clear 11 1031 78 10000 3.13 230 15:39 04.11.2020
5938 Clear 11 1031 76 10000 2.68 240 15:20 04.11.2020
5939 Clear 12 1030 75 10000 3.58 278 14:43 04.11.2020
5940 Clear 11 1030 77 10000 3.13 261 14:24 04.11.2020
5941 Clear 12 1030 76 10000 2.68 251 13:51 04.11.2020
5942 Clear 12 1030 80 10000 2.68 257 13:21 04.11.2020
5943 Clear 11 1030 81 10000 2.68 257 12:58 04.11.2020
5944 Clear 11 1029 81 10000 3.58 252 12:39 04.11.2020
5945 Clear 11 1029 81 10000 3.58 252 12:39 04.11.2020
5946 Clear 11 1029 81 10000 2.68 220 12:21 04.11.2020
5947 Clear 12 1029 83 10000 2.24 338 11:44 04.11.2020
5948 Rain 11 1029 86 10000 2.24 338 11:21 04.11.2020
5949 Clear 9 1029 90 10000 2.24 219 10:49 04.11.2020
5950 Clear 9 1028 90 10000 2.24 216 10:24 04.11.2020
5951 Clear 9 1028 90 10000 2.24 227 09:55 04.11.2020
5952 Clear 8 1028 96 10000 1.79 220 09:28 04.11.2020
5953 Clear 6 1028 97 10000 2.24 214 08:49 04.11.2020
5954 Clear 6 1027 96 10000 1.79 207 08:23 04.11.2020
5955 Clear 6 1027 96 10000 1.79 214 07:58 04.11.2020
5956 Clear 6 1026 95 10000 1.79 221 07:37 04.11.2020
5957 Clear 6 1026 95 10000 1.34 206 07:18 04.11.2020
5958 Clear 6 1025 95 10000 1.79 225 06:39 04.11.2020
5959 Clear 7 1024 94 10000 2.68 338 05:24 04.11.2020
5960 Clear 6 1022 95 10000 3.13 236 02:31 04.11.2020
5961 Clear 7 1022 96 10000 3.13 273 01:38 04.11.2020
5962 Clouds 7 1020 96 10000 2.68 218 00:25 04.11.2020
5963 Clouds 7 1020 94 10000 2.24 270 23:28 03.11.2020
5964 Clouds 7 1020 93 10000 2.24 338 22:58 03.11.2020
5965 Clouds 7 1020 92 10000 2.68 199 22:39 03.11.2020
5966 Clouds 7 1020 93 10000 2.68 219 22:19 03.11.2020
5967 Clouds 7 1019 93 10000 1.79 199 21:43 03.11.2020
5968 Clouds 7 1019 93 10000 1.79 235 21:25 03.11.2020
5969 Clouds 7 1019 91 10000 2.68 231 20:56 03.11.2020
5970 Rain 8 1019 92 10000 3.13 270 20:38 03.11.2020
5971 Clouds 8 1018 91 10000 3.13 207 20:18 03.11.2020
5972 Clouds 8 1018 90 10000 4.02 200 19:42 03.11.2020
5973 Clouds 8 1017 91 10000 3.58 214 19:19 03.11.2020
5974 Rain 9 1017 92 10000 4.02 338 18:41 03.11.2020
5975 Clouds 9 1016 91 10000 4.02 212 18:19 03.11.2020
5976 Clouds 10 1016 85 10000 5.36 207 17:53 03.11.2020
5977 Clouds 11 1015 79 10000 5.36 338 17:34 03.11.2020
5978 Clouds 11 1015 79 10000 4.47 165 16:52 03.11.2020
5979 Clouds 11 1016 79 10000 4.02 166 16:31 03.11.2020
5980 Clear 11 1016 77 10000 4.47 183 15:59 03.11.2020
5981 Clear 11 1016 77 10000 4.47 174 15:41 03.11.2020
5982 Clear 11 1016 76 10000 4.47 338 15:21 03.11.2020
5983 Clear 12 1017 75 10000 4.02 168 14:46 03.11.2020
5984 Clear 12 1017 76 10000 4.02 338 14:27 03.11.2020
5985 Clear 12 1017 76 10000 4.02 338 14:27 03.11.2020
5986 Clear 13 1018 73 10000 4.02 338 13:43 03.11.2020
5987 Clear 12 1018 72 10000 3.58 168 13:23 03.11.2020
5988 Clear 12 1018 75 10000 2.68 194 12:48 03.11.2020
5989 Clear 12 1019 74 10000 3.13 338 12:27 03.11.2020
5990 Clear 11 1019 78 10000 3.13 198 11:59 03.11.2020
5991 Clear 12 1019 79 10000 3.13 168 11:40 03.11.2020
5992 Clear 11 1019 82 10000 3.13 211 11:18 03.11.2020
5993 Clear 10 1019 86 10000 3.58 214 10:39 03.11.2020
5994 Clear 10 1019 86 10000 3.58 214 10:39 03.11.2020
5995 Clear 10 1019 88 10000 2.24 234 10:20 03.11.2020
5996 Clear 9 1019 89 10000 2.24 167 09:49 03.11.2020
5997 Clear 9 1019 90 10000 1.79 178 09:31 03.11.2020
5998 Clear 8 1019 90 10000 1.34 166 08:55 03.11.2020
5999 Clear 8 1019 91 10000 1.34 204 08:34 03.11.2020
6000 Clear 8 1018 89 10000 1.79 241 07:49 03.11.2020
6001 Clouds 8 1018 88 10000 2.24 338 07:22 03.11.2020
6002 Clear 9 1017 87 10000 2.68 280 06:45 03.11.2020
6003 Clear 9 1016 85 10000 2.68 338 05:38 03.11.2020
6004 Clear 10 1014 90 10000 3.13 220 02:20 03.11.2020
6005 Clear 11 1012 91 10000 2.68 193 00:41 03.11.2020
6006 Clear 11 1012 88 10000 2.68 338 23:52 02.11.2020
6007 Clear 11 1011 88 10000 3.13 338 23:33 02.11.2020
6008 Clear 11 1011 87 10000 2.68 338 22:54 02.11.2020
6009 Clear 11 1011 87 10000 2.68 338 22:35 02.11.2020
6010 Clear 11 1010 85 10000 2.68 225 21:59 02.11.2020
6011 Clear 12 1010 84 10000 2.68 216 21:38 02.11.2020
6012 Clear 12 1010 83 10000 3.13 214 21:19 02.11.2020
6013 Clear 12 1010 83 10000 3.13 214 21:19 02.11.2020
6014 Clear 12 1009 86 10000 2.68 235 20:39 02.11.2020
6015 Clear 12 1009 88 10000 2.68 197 20:20 02.11.2020
6016 Clear 13 1008 87 10000 3.13 248 19:48 02.11.2020
6017 Clear 13 1008 87 10000 3.13 248 19:48 02.11.2020
6018 Clouds 13 1008 90 10000 3.58 259 19:27 02.11.2020
6019 Rain 13 1007 90 10000 2.68 212 18:56 02.11.2020
6020 Clouds 14 1007 89 10000 2.68 267 18:38 02.11.2020
6021 Clouds 14 1006 87 10000 2.68 214 18:19 02.11.2020
6022 Clouds 14 1005 89 10000 3.58 338 17:42 02.11.2020
6023 Clouds 15 1005 87 10000 3.58 264 17:24 02.11.2020
6024 Clouds 17 1003 83 10000 5.36 338 16:54 02.11.2020
6025 Clouds 17 1003 83 10000 5.81 268 16:36 02.11.2020
6026 Clouds 17 1003 83 10000 5.81 247 16:18 02.11.2020
6027 Clouds 18 1002 83 10000 6.26 235 15:39 02.11.2020
6028 Clouds 18 1002 83 10000 6.26 338 15:20 02.11.2020
6029 Clouds 19 1002 79 10000 7.15 191 14:49 02.11.2020
6030 Rain 19 1001 78 10000 6.71 226 14:19 02.11.2020
6031 Clouds 18 1002 84 10000 6.71 233 13:51 02.11.2020
6032 Clouds 18 1001 89 10000 5.81 188 13:22 02.11.2020
6033 Rain 18 1001 90 10000 4.47 210 12:54 02.11.2020
6034 Clouds 18 1001 91 10000 4.92 338 12:29 02.11.2020
6035 Clouds 18 1001 90 10000 4.47 338 11:56 02.11.2020
6036 Clouds 17 1001 91 10000 5.36 338 11:37 02.11.2020
6037 Clouds 17 1001 93 10000 4.47 201 11:18 02.11.2020
6038 Clouds 18 1001 90 10000 5.36 239 10:39 02.11.2020
6039 Clouds 18 1001 86 10000 5.36 216 10:18 02.11.2020
6040 Clouds 18 1001 87 10000 5.81 225 09:42 02.11.2020
6041 Clouds 18 1001 87 10000 5.81 213 09:23 02.11.2020
6042 Clouds 18 1001 87 10000 5.36 212 08:40 02.11.2020
6043 Clouds 18 1000 87 10000 5.36 173 08:20 02.11.2020
6044 Clouds 18 1000 87 10000 4.92 198 07:49 02.11.2020
6045 Clouds 18 1000 89 10000 5.36 188 06:48 02.11.2020
6046 Clouds 17 1000 90 10000 4.92 338 06:23 02.11.2020
6047 Clouds 17 1000 97 10000 4.92 210 01:40 02.11.2020
6048 Clouds 17 1001 96 10000 4.47 153 00:44 02.11.2020
6049 Rain 17 1001 95 10000 5.36 183 00:25 02.11.2020
6050 Clouds 17 1002 94 10000 4.02 203 23:41 01.11.2020
6051 Rain 16 1001 94 10000 4.47 338 23:23 01.11.2020
6052 Clouds 16 1002 95 10000 3.58 185 22:45 01.11.2020
6053 Rain 16 1002 95 10000 3.58 178 22:25 01.11.2020
6054 Clouds 16 1002 95 10000 3.58 197 21:58 01.11.2020
6055 Clouds 15 1002 95 10000 4.02 197 21:38 01.11.2020
6056 Clouds 15 1002 95 10000 3.58 167 21:20 01.11.2020
6057 Clouds 15 1003 94 10000 4.02 258 20:40 01.11.2020
6058 Rain 15 1003 93 10000 4.47 270 20:20 01.11.2020
6059 Rain 15 1003 91 10000 4.47 338 19:41 01.11.2020
6060 Clouds 15 1003 90 10000 4.92 224 19:23 01.11.2020
6061 Clouds 15 1003 91 10000 4.02 234 18:43 01.11.2020
6062 Clouds 15 1003 93 10000 5.36 218 18:20 01.11.2020
6063 Clouds 15 1003 93 10000 5.36 218 18:20 01.11.2020
6064 Clouds 15 1003 93 10000 5.36 218 18:20 01.11.2020
6065 Clouds 15 1003 96 10000 3.13 338 17:58 01.11.2020
6066 Clouds 14 1003 97 10000 3.58 207 17:40 01.11.2020
6067 Clouds 14 1003 98 10000 3.13 187 17:21 01.11.2020
6068 Clouds 14 1003 98 10000 3.58 214 16:41 01.11.2020
6069 Clouds 13 1003 97 10000 4.02 338 16:19 01.11.2020
6070 Clouds 13 1003 97 10000 4.02 338 16:19 01.11.2020
6071 Clouds 14 1004 96 10000 4.02 191 15:54 01.11.2020
6072 Clouds 14 1004 93 10000 3.58 169 15:36 01.11.2020
6073 Rain 14 1004 90 10000 3.58 168 15:18 01.11.2020
6074 Clouds 14 1004 86 10000 5.36 162 14:43 01.11.2020
6075 Clouds 14 1004 85 10000 4.02 178 14:21 01.11.2020
6076 Clouds 14 1005 84 10000 4.02 144 13:49 01.11.2020
6077 Clouds 14 1006 84 10000 4.02 197 13:31 01.11.2020
6078 Clouds 14 1006 83 10000 4.92 130 12:44 01.11.2020
6079 Clouds 14 1006 83 10000 4.92 130 12:44 01.11.2020
6080 Clouds 14 1006 84 10000 4.92 338 12:26 01.11.2020
6081 Clouds 13 1007 85 10000 4.02 338 11:55 01.11.2020
6082 Clouds 13 1007 84 10000 4.02 171 11:37 01.11.2020
6083 Clouds 13 1008 85 10000 3.58 338 11:18 01.11.2020
6084 Clouds 12 1008 90 10000 3.58 176 10:40 01.11.2020
6085 Clouds 11 1009 92 10000 3.58 338 10:22 01.11.2020
6086 Clouds 11 1009 94 10000 3.13 171 09:46 01.11.2020
6087 Clouds 10 1010 95 10000 2.68 183 08:50 01.11.2020
6088 Clouds 10 1010 95 10000 2.24 338 08:24 01.11.2020
6089 Clouds 10 1011 95 10000 2.24 183 07:45 01.11.2020
6090 Clouds 10 1011 96 10000 2.24 183 05:30 01.11.2020
6091 Clouds 11 1012 93 10000 2.24 338 01:53 01.11.2020
6092 Clouds 12 1011 93 10000 2.68 235 00:55 01.11.2020
6093 Clouds 13 1010 94 10000 2.68 212 23:42 31.10.2020
6094 Rain 13 1010 95 10000 3.13 228 23:19 31.10.2020
6095 Clouds 13 1010 97 10000 3.13 178 22:43 31.10.2020
6096 Rain 12 1010 97 10000 2.68 157 22:23 31.10.2020
6097 Rain 12 1010 97 10000 4.02 290 21:46 31.10.2020
6098 Rain 12 1010 96 10000 3.58 185 21:21 31.10.2020
6099 Rain 12 1010 95 10000 3.58 174 20:41 31.10.2020
6100 Rain 12 1010 93 10000 3.58 338 20:20 31.10.2020
6101 Clear 12 1010 92 10000 3.13 203 19:44 31.10.2020
6102 Clouds 12 1010 93 10000 2.68 127 19:24 31.10.2020
6103 Clouds 12 1011 93 10000 2.24 146 18:59 31.10.2020
6104 Clouds 12 1011 93 10000 2.68 124 18:40 31.10.2020
6105 Clear 12 1012 93 10000 2.24 162 17:47 31.10.2020
6106 Clear 13 1012 92 10000 2.24 338 17:26 31.10.2020
6107 Clear 13 1013 91 10000 2.68 170 16:56 31.10.2020
6108 Clear 13 1013 92 10000 2.68 338 16:34 31.10.2020
6109 Clear 14 1014 92 10000 3.13 137 15:55 31.10.2020
6110 Clear 14 1014 91 10000 3.58 158 15:26 31.10.2020
6111 Clear 14 1014 93 10000 2.68 151 14:55 31.10.2020
6112 Clear 14 1015 93 10000 3.13 180 14:37 31.10.2020
6113 Clouds 14 1015 93 10000 2.68 165 14:18 31.10.2020
6114 Clouds 14 1016 93 10000 3.13 142 13:43 31.10.2020
6115 Clouds 14 1016 94 10000 3.58 167 13:20 31.10.2020
6116 Clouds 14 1017 97 10000 2.68 174 12:27 31.10.2020
6117 Clouds 14 1017 98 10000 2.24 338 11:47 31.10.2020
6118 Clouds 14 1017 98 10000 2.24 338 11:47 31.10.2020
6119 Clouds 14 1018 99 10000 2.68 170 11:28 31.10.2020
6120 Clouds 14 1018 99 10000 1.79 176 10:54 31.10.2020
6121 Clouds 14 1019 100 10000 1.79 206 10:33 31.10.2020
6122 Clouds 13 1019 100 10000 1.79 338 09:42 31.10.2020
6123 Clouds 13 1019 100 10000 2.24 338 09:21 31.10.2020
6124 Clouds 13 1019 100 10000 1.79 157 08:30 31.10.2020
6125 Clouds 13 1019 100 10000 1.79 164 07:50 31.10.2020
6126 Clouds 13 1019 100 10000 1.34 202 07:27 31.10.2020
6127 Clouds 14 1019 100 10000 0.89 186 06:39 31.10.2020
6128 Clouds 14 1020 99 10000 1.34 214 04:51 31.10.2020
6129 Clouds 14 1020 99 10000 1.34 220 03:45 31.10.2020
6130 Clouds 14 1019 99 10000 1.79 232 01:29 31.10.2020
6131 Clouds 14 1019 99 10000 1.79 220 00:46 31.10.2020
6132 Clouds 14 1019 99 10000 2.68 230 23:51 30.10.2020
6133 Clouds 14 1019 99 10000 2.68 230 23:24 30.10.2020
6134 Clouds 14 1018 99 10000 2.68 248 22:46 30.10.2020
6135 Clouds 14 1018 100 10000 2.24 222 22:24 30.10.2020
6136 Clouds 14 1018 100 10000 2.24 338 21:56 30.10.2020
6137 Clouds 14 1018 99 10000 1.79 210 21:38 30.10.2020
6138 Clouds 14 1018 99 10000 2.24 338 21:19 30.10.2020
6139 Clouds 14 1017 99 10000 1.79 209 20:39 30.10.2020
6140 Clouds 14 1017 99 10000 1.79 209 20:39 30.10.2020
6141 Rain 14 1017 99 10000 1.79 221 20:21 30.10.2020
6142 Clouds 14 1017 99 10000 2.24 161 19:47 30.10.2020
6143 Rain 14 1017 99 10000 1.79 170 19:19 30.10.2020
6144 Rain 14 1017 99 10000 2.24 338 18:50 30.10.2020
6145 Rain 14 1017 99 10000 2.24 228 18:28 30.10.2020
6146 Rain 14 1016 99 10000 2.24 238 17:54 30.10.2020
6147 Clouds 14 1016 99 10000 2.68 242 17:36 30.10.2020
6148 Rain 14 1016 99 10000 2.68 241 17:18 30.10.2020
6149 Clouds 14 1016 99 10000 3.13 238 16:48 30.10.2020
6150 Rain 14 1016 99 10000 3.13 213 16:19 30.10.2020
6151 Clouds 14 1015 98 10000 2.68 215 15:41 30.10.2020
6152 Rain 14 1015 98 10000 3.13 257 15:20 30.10.2020
6153 Clouds 14 1015 98 10000 2.68 245 14:45 30.10.2020
6154 Rain 14 1015 98 10000 4.02 202 14:26 30.10.2020
6155 Clouds 14 1015 98 10000 3.58 215 13:47 30.10.2020
6156 Rain 14 1014 98 10000 3.58 211 13:23 30.10.2020
6157 Clouds 14 1014 98 10000 4.02 338 12:58 30.10.2020
6158 Rain 14 1014 98 10000 3.58 338 12:23 30.10.2020
6159 Clouds 14 1014 98 10000 3.58 271 11:59 30.10.2020
6160 Clouds 14 1014 97 10000 3.58 184 11:40 30.10.2020
6161 Rain 14 1013 97 8279 3.58 229 11:19 30.10.2020
6162 Clouds 14 1013 98 8279 4.02 235 10:47 30.10.2020
6163 Rain 14 1013 98 10000 3.13 260 10:23 30.10.2020
6164 Clouds 13 1013 98 10000 3.58 338 09:45 30.10.2020
6165 Rain 13 1012 98 10000 3.13 214 09:22 30.10.2020
6166 Clouds 13 1012 97 10000 3.58 215 08:42 30.10.2020
6167 Rain 13 1012 97 10000 3.13 201 08:23 30.10.2020
6168 Rain 13 1011 96 10000 3.58 224 07:50 30.10.2020
6169 Clouds 13 1011 96 10000 3.13 224 07:31 30.10.2020
6170 Clouds 13 1011 95 10000 3.58 338 06:40 30.10.2020
6171 Rain 13 1010 97 10000 2.68 215 05:22 30.10.2020
6172 Rain 13 1010 98 10000 3.58 210 02:28 30.10.2020
6173 Rain 12 1010 99 10000 2.68 216 00:43 30.10.2020
6174 Clouds 11 1010 99 10000 2.24 338 23:54 29.10.2020
6175 Rain 11 1010 99 10000 2.68 216 23:36 29.10.2020
6176 Rain 11 1010 99 10000 1.79 338 23:18 29.10.2020
6177 Rain 10 1010 98 10000 2.68 173 22:41 29.10.2020
6178 Rain 10 1010 98 10000 3.13 172 22:23 29.10.2020
6179 Rain 10 1011 98 10000 3.13 145 21:40 29.10.2020
6180 Rain 10 1011 98 10000 3.58 174 21:20 29.10.2020
6181 Rain 10 1012 98 10000 2.68 338 20:42 29.10.2020
6182 Rain 10 1012 97 10000 3.13 146 20:20 29.10.2020
6183 Rain 10 1012 97 10000 2.68 187 19:43 29.10.2020
6184 Rain 10 1013 96 10000 2.24 338 19:22 29.10.2020
6185 Rain 10 1013 96 10000 1.79 164 18:58 29.10.2020
6186 Rain 10 1013 95 10000 1.79 189 18:39 29.10.2020
6187 Rain 10 1013 94 10000 1.79 176 18:20 29.10.2020
6188 Rain 10 1013 92 10000 2.24 195 17:41 29.10.2020
6189 Clouds 10 1013 90 10000 2.24 207 17:21 29.10.2020
6190 Clouds 11 1013 87 10000 2.24 184 16:47 29.10.2020
6191 Clouds 11 1013 85 10000 2.24 203 16:21 29.10.2020
6192 Clouds 11 1013 83 10000 2.68 235 15:57 29.10.2020
6193 Clouds 11 1013 84 10000 2.68 241 15:38 29.10.2020
6194 Clouds 11 1013 84 10000 2.68 213 15:20 29.10.2020
6195 Clouds 12 1013 84 10000 2.68 253 14:46 29.10.2020
6196 Rain 12 1013 83 10000 2.68 248 14:24 29.10.2020
6197 Clouds 12 1012 83 10000 3.13 223 13:48 29.10.2020
6198 Rain 12 1013 82 10000 4.47 258 13:28 29.10.2020
6199 Clouds 13 1012 82 10000 3.13 262 12:59 29.10.2020
6200 Clouds 13 1012 78 10000 4.92 245 12:39 29.10.2020
6201 Rain 13 1011 81 10000 4.92 220 12:19 29.10.2020
6202 Clouds 12 1011 84 10000 4.02 224 11:44 29.10.2020
6203 Clouds 12 1011 88 10000 3.58 226 11:24 29.10.2020
6204 Clouds 12 1011 88 10000 3.58 226 11:24 29.10.2020
6205 Clouds 10 1010 92 10000 3.13 268 10:37 29.10.2020
6206 Rain 9 1010 94 10000 2.68 338 10:19 29.10.2020
6207 Clouds 9 1010 93 10000 3.13 338 09:53 29.10.2020
6208 Clouds 9 1010 94 10000 3.13 338 09:28 29.10.2020
6209 Clouds 8 1009 95 10000 2.68 226 08:55 29.10.2020
6210 Clouds 8 1009 94 10000 2.68 235 08:33 29.10.2020
6211 Rain 8 1008 94 10000 3.13 211 07:54 29.10.2020
6212 Rain 8 1008 94 10000 3.13 264 07:35 29.10.2020
6213 Clouds 8 1007 93 10000 2.24 217 06:57 29.10.2020
6214 Rain 8 1006 94 10000 3.13 256 05:35 29.10.2020
6215 Clouds 8 1005 95 10000 2.24 235 04:45 29.10.2020
6216 Clouds 9 1002 94 5282 2.68 338 01:24 29.10.2020
6217 Rain 9 1002 94 10000 2.68 192 00:31 29.10.2020
6218 Clouds 9 1002 94 10000 2.24 338 23:49 28.10.2020
6219 Rain 9 1002 94 10000 2.68 338 23:22 28.10.2020
6220 Clouds 9 1002 93 10000 3.58 183 22:45 28.10.2020
6221 Rain 9 1002 93 10000 3.13 158 22:27 28.10.2020
6222 Rain 9 1002 93 10000 3.13 158 22:27 28.10.2020
6223 Clouds 9 1002 93 10000 2.68 183 21:59 28.10.2020
6224 Clouds 9 1003 93 10000 2.24 183 21:41 28.10.2020
6225 Rain 9 1003 92 10000 2.24 164 21:23 28.10.2020
6226 Rain 9 1003 90 10000 2.24 159 20:42 28.10.2020
6227 Rain 9 1003 90 10000 2.68 174 20:22 28.10.2020
6228 Clouds 9 1003 91 10000 2.24 207 19:51 28.10.2020
6229 Rain 9 1003 91 10000 1.79 338 19:29 28.10.2020
6230 Clouds 9 1004 91 10000 3.58 191 18:50 28.10.2020
6231 Rain 10 1004 91 9034 3.13 191 18:22 28.10.2020
6232 Rain 10 1004 90 9034 3.13 164 17:57 28.10.2020
6233 Rain 10 1004 88 9034 2.24 180 17:39 28.10.2020
6234 Clouds 10 1004 88 10000 2.24 192 17:18 28.10.2020
6235 Clouds 11 1004 86 10000 3.13 253 16:44 28.10.2020
6236 Clouds 11 1004 85 10000 3.58 212 16:25 28.10.2020
6237 Rain 12 1004 83 10000 4.47 216 15:41 28.10.2020
6238 Clouds 13 1004 81 10000 4.02 216 15:19 28.10.2020
6239 Clouds 13 1003 79 10000 5.36 224 14:46 28.10.2020
6240 Rain 14 1004 81 10000 3.58 247 14:27 28.10.2020
6241 Clouds 13 1004 81 10000 4.47 228 13:59 28.10.2020
6242 Clouds 13 1004 82 10000 4.92 338 12:37 28.10.2020
6243 Clouds 13 1004 84 10000 4.02 187 12:19 28.10.2020
6244 Clouds 13 1003 85 10000 4.02 210 11:42 28.10.2020
6245 Clouds 12 1003 86 10000 4.02 178 11:22 28.10.2020
6246 Clouds 11 1003 89 10000 4.02 338 10:53 28.10.2020
6247 Clouds 11 1003 89 10000 3.58 338 10:34 28.10.2020
6248 Clouds 10 1003 89 10000 3.58 165 09:56 28.10.2020
6249 Clouds 10 1003 93 10000 2.24 168 09:38 28.10.2020
6250 Clouds 10 1003 93 10000 2.68 185 09:20 28.10.2020
6251 Clouds 10 1003 95 10000 1.79 199 08:45 28.10.2020
6252 Clouds 10 1003 95 10000 2.24 150 08:24 28.10.2020
6253 Clouds 9 1003 96 10000 1.79 194 07:47 28.10.2020
6254 Clouds 9 1002 96 10000 1.79 191 07:29 28.10.2020
6255 Clouds 9 1002 97 10000 2.24 219 06:40 28.10.2020
6256 Clouds 9 1002 97 10000 1.79 186 05:49 28.10.2020
6257 Clouds 9 1001 97 10000 1.79 208 04:52 28.10.2020
6258 Clouds 10 1001 97 10000 1.79 181 04:25 28.10.2020
6259 Rain 10 999 98 10000 2.24 220 02:25 28.10.2020
6260 Rain 10 998 98 10000 2.68 213 01:26 28.10.2020
6261 Rain 10 997 97 10000 4.02 338 23:54 27.10.2020
6262 Rain 10 998 96 10000 4.92 160 23:25 27.10.2020
6263 Clouds 10 998 95 10000 4.92 162 22:57 27.10.2020
6264 Clouds 9 998 94 10000 4.47 338 22:38 27.10.2020
6265 Rain 9 998 93 10000 4.92 338 22:19 27.10.2020
6266 Clouds 10 998 93 10000 4.92 189 21:55 27.10.2020
6267 Clouds 10 998 92 10000 4.92 338 21:37 27.10.2020
6268 Clouds 10 998 92 10000 4.47 152 21:37 27.10.2020
6269 Clouds 10 998 92 10000 4.47 152 21:37 27.10.2020
6270 Clouds 10 998 92 10000 4.47 152 21:37 27.10.2020
6271 Rain 10 998 90 10000 5.36 185 21:18 27.10.2020
6272 Clouds 11 998 85 10000 4.92 338 20:41 27.10.2020
6273 Clouds 11 999 84 10000 5.36 338 20:22 27.10.2020
6274 Clouds 10 999 87 10000 4.47 161 19:39 27.10.2020
6275 Clouds 10 999 88 10000 4.47 183 19:21 27.10.2020
6276 Clouds 10 1000 88 10000 4.02 173 18:58 27.10.2020
6277 Clouds 10 1000 89 10000 3.58 149 18:40 27.10.2020
6278 Clouds 10 1000 90 10000 4.02 189 18:20 27.10.2020
6279 Rain 10 1000 90 10000 3.58 338 17:43 27.10.2020
6280 Clouds 10 1000 90 10000 3.58 198 17:21 27.10.2020
6281 Clouds 10 1000 90 10000 3.58 198 17:21 27.10.2020
6282 Rain 10 1001 90 10000 3.13 186 16:54 27.10.2020
6283 Rain 11 1001 89 10000 3.58 338 16:36 27.10.2020
6284 Clouds 11 1001 87 10000 3.58 140 16:18 27.10.2020
6285 Clouds 11 1001 87 10000 3.58 199 15:40 27.10.2020
6286 Clouds 11 1001 86 10000 3.58 338 15:20 27.10.2020
6287 Clouds 11 1001 85 10000 3.58 145 14:48 27.10.2020
6288 Clouds 11 1001 86 10000 4.47 218 14:28 27.10.2020
6289 Clouds 11 1002 88 10000 3.58 133 13:54 27.10.2020
6290 Clouds 11 1002 90 10000 3.58 338 13:24 27.10.2020
6291 Clouds 11 1002 87 10000 3.58 338 12:42 27.10.2020
6292 Clouds 11 1002 85 10000 4.02 338 12:24 27.10.2020
6293 Clouds 12 1002 87 10000 4.02 212 11:44 27.10.2020
6294 Clouds 11 1002 88 10000 3.58 170 11:26 27.10.2020
6295 Clouds 11 1002 92 10000 3.13 170 10:54 27.10.2020
6296 Clouds 10 1002 92 10000 3.58 338 10:36 27.10.2020
6297 Clouds 10 1002 92 10000 4.02 183 10:18 27.10.2020
6298 Clouds 9 1002 94 10000 3.13 230 09:28 27.10.2020
6299 Clouds 9 1002 96 10000 3.13 212 08:56 27.10.2020
6300 Clouds 8 1002 97 10000 2.24 189 08:29 27.10.2020
6301 Clouds 8 1001 97 10000 2.24 212 07:52 27.10.2020
6302 Clouds 8 1001 97 10000 2.68 172 07:34 27.10.2020
6303 Clear 8 1001 96 10000 2.68 338 06:52 27.10.2020
6304 Clear 8 1001 96 10000 3.13 179 06:19 27.10.2020
6305 Clear 8 1000 96 10000 2.24 159 05:44 27.10.2020
6306 Clear 8 1000 96 10000 2.24 166 04:58 27.10.2020
6307 Rain 9 999 93 10000 2.68 338 02:51 27.10.2020
6308 Clear 9 999 93 10000 2.24 177 01:18 27.10.2020
6309 Clear 9 999 92 10000 2.24 172 23:59 26.10.2020
6310 Clear 9 999 92 10000 2.68 198 23:37 26.10.2020
6311 Clear 9 999 92 10000 2.68 338 22:58 26.10.2020
6312 Clear 9 999 91 10000 2.68 239 22:39 26.10.2020
6313 Clear 9 999 91 10000 2.68 199 22:18 26.10.2020
6314 Clear 9 999 91 10000 3.58 168 21:37 26.10.2020
6315 Clear 9 999 91 10000 3.13 338 21:18 26.10.2020
6316 Clear 9 999 91 10000 3.13 181 20:49 26.10.2020
6317 Clear 9 999 91 10000 3.13 181 20:27 26.10.2020
6318 Clear 9 999 91 10000 3.13 166 19:56 26.10.2020
6319 Clear 9 999 91 10000 3.13 181 19:38 26.10.2020
6320 Clouds 9 999 90 10000 3.13 182 19:19 26.10.2020
6321 Clouds 9 998 88 10000 3.13 202 18:42 26.10.2020
6322 Clouds 10 999 87 10000 4.02 166 18:22 26.10.2020
6323 Clouds 10 999 86 10000 3.13 197 17:44 26.10.2020
6324 Clouds 10 999 85 10000 2.68 338 17:24 26.10.2020
6325 Clouds 10 999 84 10000 2.68 180 16:56 26.10.2020
6326 Clouds 11 999 83 10000 3.13 197 16:37 26.10.2020
6327 Clouds 11 999 82 10000 3.58 166 16:18 26.10.2020
6328 Clouds 11 999 83 10000 3.13 338 15:39 26.10.2020
6329 Clouds 11 999 84 10000 2.24 187 15:19 26.10.2020
6330 Clouds 11 998 82 10000 2.24 159 14:45 26.10.2020
6331 Clouds 12 998 83 10000 2.68 338 14:21 26.10.2020
6332 Clouds 12 998 83 10000 3.13 206 13:42 26.10.2020
6333 Clouds 11 999 84 10000 3.13 214 13:23 26.10.2020
6334 Clouds 11 999 87 10000 2.68 182 12:47 26.10.2020
6335 Clouds 11 999 89 10000 2.68 338 12:27 26.10.2020
6336 Clouds 11 999 88 10000 2.68 223 11:55 26.10.2020
6337 Clouds 11 999 89 10000 2.24 205 11:37 26.10.2020
6338 Clouds 10 999 89 10000 3.13 195 11:19 26.10.2020
6339 Clouds 10 999 90 10000 3.13 176 10:43 26.10.2020
6340 Clouds 10 999 92 10000 2.68 191 10:25 26.10.2020
6341 Clouds 10 999 93 10000 2.24 338 09:48 26.10.2020
6342 Clouds 10 999 93 10000 2.24 338 09:48 26.10.2020
6343 Clouds 10 999 94 10000 2.68 236 09:25 26.10.2020
6344 Clouds 10 999 94 10000 2.68 338 08:46 26.10.2020
6345 Clouds 9 999 95 10000 2.24 205 07:58 26.10.2020
6346 Clouds 9 999 95 10000 2.24 222 07:38 26.10.2020
6347 Clouds 9 999 96 10000 1.79 171 06:58 26.10.2020
6348 Clouds 9 998 96 10000 2.24 176 05:30 26.10.2020
6349 Clouds 9 999 96 10000 1.79 166 04:18 26.10.2020
6350 Rain 9 999 96 10000 1.79 186 03:20 26.10.2020
6351 Rain 9 999 96 10000 1.79 186 03:20 26.10.2020
6352 Rain 9 999 96 10000 1.79 186 03:20 26.10.2020
6353 Rain 9 999 96 10000 1.79 186 03:20 26.10.2020
6354 Clouds 9 999 97 10000 2.24 187 01:34 26.10.2020
6355 Clouds 9 999 96 10000 1.34 338 00:33 26.10.2020
6356 Clouds 9 999 96 10000 1.79 192 23:46 25.10.2020
6357 Clouds 9 999 95 10000 1.79 192 23:24 25.10.2020
6358 Clouds 9 999 95 10000 1.34 172 22:45 25.10.2020
6359 Clouds 9 999 95 10000 2.24 187 22:26 25.10.2020
6360 Clouds 10 999 95 10000 2.68 189 21:50 25.10.2020
6361 Clouds 10 999 95 10000 2.24 195 21:31 25.10.2020
6362 Clouds 10 999 95 10000 2.68 176 20:59 25.10.2020
6363 Clouds 11 999 94 10000 2.24 165 20:40 25.10.2020
6364 Clouds 11 1000 94 10000 2.68 338 20:22 25.10.2020
6365 Clouds 11 999 94 10000 2.68 338 19:50 25.10.2020
6366 Clouds 11 1000 95 10000 2.68 161 19:27 25.10.2020
6367 Clouds 11 999 95 10000 2.24 171 18:59 25.10.2020
6368 Clouds 11 999 95 10000 1.79 183 18:41 25.10.2020
6369 Clouds 11 999 94 10000 1.79 212 18:22 25.10.2020
6370 Clouds 11 999 94 10000 2.24 183 17:55 25.10.2020
6371 Clouds 11 999 94 10000 1.79 197 17:37 25.10.2020
6372 Rain 12 999 93 10000 1.79 175 17:18 25.10.2020
6373 Clouds 12 999 93 10000 1.34 177 16:43 25.10.2020
6374 Rain 12 999 92 10000 1.79 180 16:23 25.10.2020
6375 Clouds 12 1000 93 10000 2.24 209 15:47 25.10.2020
6376 Clouds 12 1000 93 10000 2.24 209 15:47 25.10.2020
6377 Rain 12 1000 92 10000 2.24 196 15:27 25.10.2020
6378 Clouds 12 1000 92 10000 2.24 176 14:53 25.10.2020
6379 Rain 12 1000 91 10000 2.68 338 14:29 25.10.2020
6380 Rain 12 1000 90 10000 1.79 182 13:45 25.10.2020
6381 Rain 12 1000 90 10000 1.79 182 13:45 25.10.2020
6382 Rain 12 1000 90 10000 2.68 338 13:25 25.10.2020
6383 Clouds 13 1000 90 10000 2.68 199 12:57 25.10.2020
6384 Clouds 13 1000 90 10000 3.13 206 12:39 25.10.2020
6385 Rain 13 1000 90 10000 3.58 160 12:21 25.10.2020
6386 Clouds 13 1000 90 10000 3.13 155 11:42 25.10.2020
6387 Rain 12 1000 92 7628 3.58 233 11:20 25.10.2020
6388 Clouds 12 1000 94 7628 3.58 239 10:47 25.10.2020
6389 Rain 11 1000 95 10000 2.68 217 10:26 25.10.2020
6390 Clouds 11 1000 96 10000 3.13 338 09:55 25.10.2020
6391 Clouds 11 999 96 10000 2.68 165 09:36 25.10.2020
6392 Rain 11 1000 96 10000 3.13 183 09:18 25.10.2020
6393 Clouds 11 1000 95 10000 2.68 180 08:40 25.10.2020
6394 Rain 12 1000 95 10000 2.68 202 08:22 25.10.2020
6395 Clouds 13 999 96 10000 2.68 218 07:46 25.10.2020
6396 Rain 14 999 87 10000 4.47 281 06:57 25.10.2020
6397 Clouds 15 998 88 10000 4.47 187 06:30 25.10.2020
6398 Clouds 15 999 86 10000 4.92 212 05:22 25.10.2020
6399 Clouds 15 999 87 10000 4.92 338 04:51 25.10.2020
6400 Clouds 15 1000 87 10000 5.36 120 02:38 25.10.2020
6401 Clouds 14 1001 90 10000 5.36 155 01:32 25.10.2020
6402 Clouds 14 1001 91 10000 4.92 176 00:48 25.10.2020
6403 Clouds 14 1002 90 10000 4.92 338 00:20 25.10.2020
6404 Clouds 14 1002 90 10000 4.47 181 23:53 24.10.2020
6405 Clouds 14 1002 90 10000 4.47 148 23:26 24.10.2020
6406 Clouds 14 1003 91 10000 4.47 338 22:55 24.10.2020
6407 Clouds 14 1003 91 10000 4.47 126 22:37 24.10.2020
6408 Clouds 14 1003 91 10000 4.47 187 22:19 24.10.2020
6409 Clouds 13 1003 92 10000 4.92 164 21:41 24.10.2020
6410 Clouds 13 1004 93 10000 4.92 177 21:21 24.10.2020
6411 Clouds 13 1004 93 10000 4.47 187 20:47 24.10.2020
6412 Clouds 13 1005 94 10000 4.47 195 20:23 24.10.2020
6413 Clouds 13 1005 95 10000 3.58 187 19:55 24.10.2020
6414 Clouds 13 1006 95 10000 3.58 131 19:37 24.10.2020
6415 Clouds 13 1006 94 10000 3.58 154 19:19 24.10.2020
6416 Clouds 13 1006 90 10000 3.13 338 18:43 24.10.2020
6417 Clouds 13 1006 89 10000 3.58 338 18:24 24.10.2020
6418 Clouds 13 1006 89 10000 3.58 338 18:24 24.10.2020
6419 Clouds 14 1007 88 10000 2.68 195 17:39 24.10.2020
6420 Clouds 14 1007 88 10000 3.13 338 17:21 24.10.2020
6421 Clouds 14 1007 87 10000 2.24 249 16:45 24.10.2020
6422 Rain 14 1007 88 10000 2.68 205 16:25 24.10.2020
6423 Clouds 14 1007 89 10000 3.13 186 15:41 24.10.2020
6424 Clouds 14 1008 90 10000 3.13 206 15:20 24.10.2020
6425 Clouds 14 1008 91 10000 3.13 184 14:56 24.10.2020
6426 Clouds 13 1008 94 10000 2.68 169 14:29 24.10.2020
6427 Clouds 13 1008 96 10000 2.24 338 13:49 24.10.2020
6428 Clouds 13 1008 95 10000 2.24 178 13:31 24.10.2020
6429 Clouds 13 1008 96 10000 2.68 142 12:58 24.10.2020
6430 Clouds 13 1009 96 10000 2.24 195 12:37 24.10.2020
6431 Rain 13 1009 94 10000 2.68 173 12:19 24.10.2020
6432 Clouds 13 1009 92 10000 2.24 172 11:43 24.10.2020
6433 Clouds 12 1009 93 10000 2.68 338 11:18 24.10.2020
6434 Clouds 12 1009 94 10000 2.68 162 10:42 24.10.2020
6435 Clouds 12 1009 95 10000 2.24 229 10:24 24.10.2020
6436 Clouds 11 1009 93 10000 2.24 180 09:45 24.10.2020
6437 Clouds 11 1009 93 10000 2.68 338 09:26 24.10.2020
6438 Clouds 11 1009 94 10000 2.24 198 08:54 24.10.2020
6439 Rain 11 1008 95 10000 2.68 338 08:19 24.10.2020
6440 Clouds 11 1008 96 10000 1.79 205 07:51 24.10.2020
6441 Clouds 11 1008 96 10000 2.24 220 07:20 24.10.2020
6442 Clouds 11 1008 96 10000 2.24 338 06:50 24.10.2020
6443 Clouds 11 1008 96 10000 2.24 338 05:43 24.10.2020
6444 Rain 12 1008 95 10000 2.24 214 02:20 24.10.2020
6445 Clouds 13 1008 93 10000 3.13 218 00:56 24.10.2020
6446 Clouds 13 1008 93 10000 3.13 178 00:37 24.10.2020
6447 Clouds 13 1007 94 10000 2.68 194 00:19 24.10.2020
6448 Clouds 12 1007 95 10000 2.68 205 23:41 23.10.2020
6449 Clouds 12 1007 95 10000 2.24 338 23:22 23.10.2020
6450 Clouds 12 1007 96 10000 1.79 338 22:42 23.10.2020
6451 Clouds 13 1007 96 10000 1.34 338 22:22 23.10.2020
6452 Clouds 13 1007 95 10000 1.34 338 21:58 23.10.2020
6453 Clouds 13 1007 95 10000 1.79 195 21:39 23.10.2020
6454 Clouds 13 1007 94 10000 1.79 338 21:20 23.10.2020
6455 Clouds 13 1007 94 10000 2.24 235 20:39 23.10.2020
6456 Rain 13 1007 94 10000 2.24 218 20:20 23.10.2020
6457 Clouds 13 1008 94 10000 2.68 160 19:45 23.10.2020
6458 Rain 13 1007 94 10000 2.24 180 19:26 23.10.2020
6459 Clear 13 1007 93 10000 2.24 166 18:48 23.10.2020
6460 Clear 13 1007 92 10000 1.79 174 18:30 23.10.2020
6461 Clear 14 1007 92 10000 1.34 188 17:47 23.10.2020
6462 Clear 14 1007 91 10000 1.34 161 17:22 23.10.2020
6463 Clear 14 1008 90 10000 1.79 183 16:55 23.10.2020
6464 Clear 14 1008 89 10000 2.24 202 16:35 23.10.2020
6465 Clear 14 1008 89 10000 2.68 170 15:58 23.10.2020
6466 Clear 14 1008 88 10000 2.24 180 15:40 23.10.2020
6467 Clear 14 1008 89 10000 2.68 338 15:20 23.10.2020
6468 Clear 13 1008 95 10000 2.24 149 14:49 23.10.2020
6469 Clear 12 1007 91 10000 4.05 207 14:30 23.10.2020
6470 Clouds 12 1009 87 7000 3.1 190 13:44 23.10.2020
6471 Clouds 12 1008 96 10000 3.96 208 13:24 23.10.2020
6472 Mist 11 1010 100 3000 2.6 180 12:51 23.10.2020
6473 Clouds 11 1009 89 10000 2.68 202 12:31 23.10.2020
6474 Mist 11 1010 93 1200 2.6 200 11:59 23.10.2020
6475 Mist 10 1010 93 1200 2.6 200 11:41 23.10.2020
6476 Clear 10 1010 100 10000 2.24 338 11:20 23.10.2020
6477 Clear 9 1010 99 10000 1.34 159 10:39 23.10.2020
6478 Clear 9 1010 99 10000 1.34 162 10:20 23.10.2020
6479 Clear 9 1010 99 10000 2.24 172 09:43 23.10.2020
6480 Clear 9 1010 99 10000 1.79 168 09:23 23.10.2020
6481 Clear 9 1010 99 10000 0.89 176 08:52 23.10.2020
6482 Clear 8 1010 98 10000 0.89 338 08:28 23.10.2020
6483 Clouds 9 1009 98 10000 0.45 338 07:28 23.10.2020
6484 Clouds 9 1009 98 10000 0.45 176 06:52 23.10.2020
6485 Clear 9 1010 98 10000 1.34 180 06:20 23.10.2020
6486 Clear 10 1010 97 10000 0.89 204 04:42 23.10.2020
6487 Clear 11 1010 96 10000 1.34 202 02:32 23.10.2020
6488 Clear 12 1010 95 10000 1.79 338 01:22 23.10.2020
6489 Clear 12 1009 94 10000 2.24 219 00:33 23.10.2020
6490 Clear 12 1009 94 10000 2.24 218 23:40 22.10.2020
6491 Clear 12 1009 93 10000 2.68 201 23:19 22.10.2020
6492 Clear 12 1009 93 10000 2.68 203 22:47 22.10.2020
6493 Clear 12 1009 93 10000 2.68 234 22:26 22.10.2020
6494 Clear 12 1009 93 10000 2.68 211 21:58 22.10.2020
6495 Clear 12 1009 93 10000 2.24 338 21:40 22.10.2020
6496 Clear 12 1008 93 10000 2.68 210 21:20 22.10.2020
6497 Clear 12 1008 92 10000 2.68 200 20:44 22.10.2020
6498 Clouds 13 1008 91 10000 1.79 226 20:25 22.10.2020
6499 Clouds 13 1008 90 10000 1.79 217 19:44 22.10.2020
6500 Clouds 13 1008 89 10000 1.79 220 19:21 22.10.2020
6501 Clouds 14 1008 87 10000 2.24 338 18:59 22.10.2020
6502 Clouds 14 1008 86 10000 2.68 218 18:39 22.10.2020
6503 Clouds 14 1008 85 10000 3.13 224 18:19 22.10.2020
6504 Clouds 15 1008 83 10000 2.68 202 17:44 22.10.2020
6505 Clouds 15 1007 83 10000 3.13 251 17:21 22.10.2020
6506 Clouds 15 1007 81 10000 3.13 255 16:45 22.10.2020
6507 Clouds 16 1007 80 10000 3.58 235 16:25 22.10.2020
6508 Clouds 16 1008 80 10000 4.02 225 15:50 22.10.2020
6509 Clouds 16 1008 81 10000 4.02 216 15:27 22.10.2020
6510 Clouds 16 1008 83 10000 3.13 180 14:58 22.10.2020
6511 Clouds 16 1008 81 10000 4.47 218 14:38 22.10.2020
6512 Clouds 16 1008 83 10000 3.13 338 14:20 22.10.2020
6513 Clouds 16 1008 83 10000 4.02 268 13:43 22.10.2020
6514 Clouds 16 1008 82 10000 4.02 263 13:22 22.10.2020
6515 Clouds 16 1008 85 10000 3.58 200 12:44 22.10.2020
6516 Clouds 16 1008 85 10000 4.47 214 12:22 22.10.2020
6517 Clouds 15 1008 88 10000 4.02 205 11:47 22.10.2020
6518 Clouds 15 1008 90 10000 4.02 205 11:19 22.10.2020
6519 Clouds 14 1008 91 10000 4.02 222 10:49 22.10.2020
6520 Clear 14 1008 91 10000 4.02 178 10:27 22.10.2020
6521 Clear 14 1008 93 10000 2.68 199 09:46 22.10.2020
6522 Clear 13 1007 94 10000 2.24 181 09:26 22.10.2020
6523 Clear 12 1007 93 10000 2.24 204 08:49 22.10.2020
6524 Clouds 13 1006 92 10000 2.68 227 08:27 22.10.2020
6525 Clouds 13 1006 91 10000 3.13 191 07:57 22.10.2020
6526 Clouds 14 1006 92 10000 3.58 232 07:34 22.10.2020
6527 Clouds 14 1006 92 10000 4.02 230 06:58 22.10.2020
6528 Clouds 14 1006 93 10000 3.13 217 06:26 22.10.2020
6529 Clouds 13 1005 95 10000 3.13 214 05:40 22.10.2020
6530 Clouds 13 1005 95 10000 3.58 209 04:40 22.10.2020
6531 Clouds 14 1004 93 10000 3.13 259 01:45 22.10.2020
6532 Clouds 14 1002 96 10000 3.58 216 00:26 22.10.2020
6533 Clouds 15 1000 96 10000 5.36 216 23:50 21.10.2020
6534 Clouds 15 1000 95 10000 5.36 197 23:32 21.10.2020
6535 Rain 16 999 90 10000 7.15 286 22:43 21.10.2020
6536 Clouds 17 998 82 10000 8.05 210 22:19 21.10.2020
6537 Clouds 17 997 79 10000 8.05 338 21:56 21.10.2020
6538 Clouds 17 997 82 10000 5.36 212 21:38 21.10.2020
6539 Clouds 17 997 82 10000 5.36 338 21:18 21.10.2020
6540 Rain 17 996 82 10000 6.26 215 20:48 21.10.2020
6541 Clouds 17 996 88 10000 4.47 166 20:19 21.10.2020
6542 Clouds 17 996 92 10000 3.13 196 19:56 21.10.2020
6543 Clouds 17 996 93 10000 2.68 207 19:36 21.10.2020
6544 Clouds 17 996 92 10000 3.58 237 19:18 21.10.2020
6545 Rain 16 996 86 10000 4.02 190 18:45 21.10.2020
6546 Rain 16 995 84 10000 4.92 184 18:21 21.10.2020
6547 Clouds 16 995 87 10000 4.02 166 17:42 21.10.2020
6548 Clouds 16 995 88 10000 3.58 189 17:19 21.10.2020
6549 Clouds 15 996 89 10000 3.58 127 16:41 21.10.2020
6550 Clouds 15 996 90 10000 4.02 179 16:21 21.10.2020
6551 Clouds 15 996 93 10000 3.58 155 15:57 21.10.2020
6552 Clouds 14 997 95 10000 3.58 174 15:38 21.10.2020
6553 Rain 13 997 98 10000 3.13 101 15:19 21.10.2020
6554 Clouds 13 998 98 10000 2.68 338 14:44 21.10.2020
6555 Rain 13 998 98 10000 2.68 338 14:26 21.10.2020
6556 Rain 12 999 98 10000 3.13 185 13:45 21.10.2020
6557 Rain 12 1000 98 10000 3.58 141 13:26 21.10.2020
6558 Rain 12 1001 98 10000 3.58 196 12:48 21.10.2020
6559 Rain 12 1001 98 10000 3.58 118 12:24 21.10.2020
6560 Rain 12 1001 98 10000 2.68 158 11:59 21.10.2020
6561 Rain 12 1001 99 10000 1.79 153 11:40 21.10.2020
6562 Rain 12 1001 99 10000 1.79 153 11:40 21.10.2020
6563 Rain 12 1001 98 10000 3.13 191 11:19 21.10.2020
6564 Rain 12 1002 98 10000 2.68 161 10:44 21.10.2020
6565 Rain 12 1002 98 10000 1.79 338 10:25 21.10.2020
6566 Rain 12 1002 98 10000 1.34 144 09:52 21.10.2020
6567 Rain 12 1003 98 10000 1.79 139 09:33 21.10.2020
6568 Rain 12 1003 98 10000 1.79 175 08:56 21.10.2020
6569 Rain 12 1003 98 10000 1.79 189 08:38 21.10.2020
6570 Rain 12 1003 98 10000 2.24 154 08:19 21.10.2020
6571 Rain 13 1003 97 10000 1.79 169 07:31 21.10.2020
6572 Rain 13 1004 96 10000 1.79 171 06:52 21.10.2020
6573 Rain 13 1004 96 10000 1.34 149 06:27 21.10.2020
6574 Clouds 13 1004 96 10000 2.24 166 04:47 21.10.2020
6575 Clouds 13 1005 96 10000 1.79 186 00:51 21.10.2020
6576 Clouds 13 1006 96 10000 2.24 163 23:49 20.10.2020
6577 Clouds 13 1006 95 10000 2.68 189 22:54 20.10.2020
6578 Rain 12 1006 95 10000 2.24 193 22:28 20.10.2020
6579 Clouds 12 1006 95 10000 2.24 169 21:50 20.10.2020
6580 Clouds 12 1006 95 10000 2.68 166 21:21 20.10.2020
6581 Clouds 12 1006 94 10000 2.24 169 20:57 20.10.2020
6582 Clouds 12 1006 94 10000 2.24 201 20:38 20.10.2020
6583 Clouds 12 1006 94 10000 2.68 178 20:20 20.10.2020
6584 Clouds 12 1006 93 10000 2.24 176 19:44 20.10.2020
6585 Clouds 12 1006 93 10000 2.68 180 19:22 20.10.2020
6586 Clouds 12 1006 93 10000 2.24 177 18:54 20.10.2020
6587 Clouds 12 1006 93 10000 2.68 167 18:36 20.10.2020
6588 Clouds 11 1005 93 10000 2.68 338 17:50 20.10.2020
6589 Clouds 11 1006 93 10000 2.68 175 17:31 20.10.2020
6590 Clouds 11 1006 93 10000 3.13 170 16:49 20.10.2020
6591 Clouds 11 1005 92 10000 5.72 192 16:28 20.10.2020
6592 Clouds 11 1006 94 10000 3.13 192 15:59 20.10.2020
6593 Rain 11 1006 93 10000 2.68 176 15:41 20.10.2020
6594 Rain 11 1006 93 10000 2.68 178 15:22 20.10.2020
6595 Rain 11 1006 90 10000 2.24 162 14:44 20.10.2020
6596 Clouds 11 1006 89 10000 2.24 164 14:24 20.10.2020
6597 Clouds 11 1006 88 10000 2.68 189 13:56 20.10.2020
6598 Clouds 11 1007 88 10000 2.68 338 13:37 20.10.2020
6599 Clouds 11 1007 87 10000 3.13 159 13:19 20.10.2020
6600 Clouds 10 1007 86 10000 2.68 185 12:40 20.10.2020
6601 Clouds 10 1007 86 10000 3.13 152 12:22 20.10.2020
6602 Clouds 9 1007 87 10000 2.24 176 11:45 20.10.2020
6603 Clouds 9 1007 86 10000 3.13 160 11:27 20.10.2020
6604 Clouds 8 1007 89 10000 2.24 338 10:40 20.10.2020
6605 Clouds 7 1008 89 10000 2.68 338 10:22 20.10.2020
6606 Clouds 7 1008 90 10000 2.68 149 09:44 20.10.2020
6607 Clouds 7 1008 90 10000 1.79 338 09:19 20.10.2020
6608 Clouds 6 1009 89 10000 2.24 120 08:39 20.10.2020
6609 Clouds 6 1009 89 10000 1.79 139 07:54 20.10.2020
6610 Clouds 7 1009 89 10000 1.79 135 07:26 20.10.2020
6611 Clouds 7 1009 89 10000 2.24 91 06:57 20.10.2020
6612 Clouds 7 1010 90 10000 1.34 70 06:19 20.10.2020
6613 Clouds 7 1012 90 10000 1.79 143 03:59 20.10.2020
6614 Clouds 7 1014 94 10000 1.79 156 02:30 20.10.2020
6615 Clouds 7 1014 94 10000 1.79 145 01:22 20.10.2020
6616 Clouds 8 1015 93 10000 1.79 122 00:51 20.10.2020
6617 Clouds 8 1015 93 10000 1.79 106 00:26 20.10.2020
6618 Clouds 8 1015 93 10000 1.34 162 23:51 19.10.2020
6619 Clouds 8 1016 93 10000 1.34 137 23:24 19.10.2020
6620 Clouds 8 1016 94 10000 1.34 152 22:54 19.10.2020
6621 Clouds 8 1017 93 10000 0.89 165 22:26 19.10.2020
6622 Clouds 9 1017 92 10000 0.89 338 21:55 19.10.2020
6623 Clouds 9 1017 92 10000 1.79 164 21:37 19.10.2020
6624 Clouds 9 1017 91 10000 1.34 135 21:18 19.10.2020
6625 Clouds 9 1017 90 10000 1.34 338 20:42 19.10.2020
6626 Clouds 9 1018 90 10000 1.34 152 20:24 19.10.2020
6627 Clouds 10 1019 90 10000 1.34 161 19:45 19.10.2020
6628 Clouds 10 1018 90 10000 1.34 152 19:19 19.10.2020
6629 Clouds 11 1019 89 10000 1.79 199 18:50 19.10.2020
6630 Clouds 11 1018 88 10000 0.89 124 18:24 19.10.2020
6631 Clouds 11 1018 85 10000 1.34 159 17:47 19.10.2020
6632 Clouds 11 1018 84 10000 1.79 183 17:27 19.10.2020
6633 Clouds 11 1019 82 10000 1.79 204 16:54 19.10.2020
6634 Clouds 12 1019 83 10000 1.79 207 16:29 19.10.2020
6635 Clouds 12 1019 80 10000 2.24 224 15:48 19.10.2020
6636 Clouds 12 1019 81 10000 2.24 223 15:26 19.10.2020
6637 Clouds 12 1019 80 10000 2.68 218 14:57 19.10.2020
6638 Clouds 12 1019 81 10000 2.24 185 14:37 19.10.2020
6639 Clouds 12 1020 82 10000 1.79 247 14:19 19.10.2020
6640 Clouds 12 1020 83 10000 1.79 338 13:42 19.10.2020
6641 Clouds 12 1020 82 10000 2.24 240 13:22 19.10.2020
6642 Clouds 11 1020 88 10000 1.79 234 12:45 19.10.2020
6643 Clouds 11 1020 90 10000 1.79 193 12:25 19.10.2020
6644 Clouds 10 1020 92 10000 2.68 243 11:49 19.10.2020
6645 Clouds 10 1020 93 10000 2.24 210 11:22 19.10.2020
6646 Clouds 9 1020 96 10000 1.79 197 10:45 19.10.2020
6647 Clouds 9 1020 97 10000 1.79 199 10:25 19.10.2020
6648 Clouds 8 1020 98 10000 1.79 176 09:58 19.10.2020
6649 Clouds 8 1020 98 10000 1.34 203 09:37 19.10.2020
6650 Clouds 8 1020 98 10000 1.34 201 09:18 19.10.2020
6651 Clouds 7 1020 98 10000 1.79 210 08:44 19.10.2020
6652 Clouds 7 1020 97 10000 1.79 209 08:21 19.10.2020
6653 Clouds 7 1020 96 10000 0.89 194 07:21 19.10.2020
6654 Clouds 8 1020 96 10000 1.34 338 06:50 19.10.2020
6655 Clouds 8 1020 96 10000 1.34 338 05:40 19.10.2020
6656 Clouds 8 1020 94 10000 1.34 338 03:46 19.10.20